Wetterdaten: Dienstag, 10.10.2017
Datum Zeit Temp. A. Temp. A. max Feuchte A. Luftdruck Regen Wind Richtung Richtung Sonnenschein ET UV Solar Taupunkt Windchill Windböen
10.10.2017 00:00 7,7 °C 7,7 °C 88 % 1020,1 hPa 0,0 mm 5,6 km/h (1 Bft) S 191 ° 0 min 0,000 mm 0,0 UV-I 0 W/m² 5,8 °C 6,9 °C 9,7 km/h (2 Bft)
10.10.2017 00:01 7,8 °C 7,8 °C 88 % 1020,1 hPa 0,0 mm 4,6 km/h (1 Bft) S-SW 197 ° 0 min 0,000 mm 0,0 UV-I 0 W/m² 5,9 °C 7,4 °C 6,4 km/h (2 Bft)
10.10.2017 00:02 7,8 °C 7,8 °C 88 % 1020,1 hPa 0,0 mm 3,4 km/h (1 Bft) S-SW 199 ° 0 min 0,000 mm 0,0 UV-I 0 W/m² 5,9 °C 7,8 °C 4,8 km/h (1 Bft)
10.10.2017 00:03 7,7 °C 7,8 °C 88 % 1020,1 hPa 0,0 mm 2,5 km/h (1 Bft) S-SW 193 ° 0 min 0,000 mm 0,0 UV-I 0 W/m² 5,8 °C 7,7 °C 4,8 km/h (1 Bft)
10.10.2017 00:04 7,8 °C 7,8 °C 88 % 1019,9 hPa 0,0 mm 4,0 km/h (1 Bft) S-SW 205 ° 0 min 0,000 mm 0,0 UV-I 0 W/m² 5,9 °C 7,8 °C 6,4 km/h (2 Bft)
10.10.2017 00:05 7,8 °C 7,8 °C 88 % 1019,9 hPa 0,0 mm 5,3 km/h (1 Bft) S-SW 195 ° 0 min 0,000 mm 0,0 UV-I 0 W/m² 5,9 °C 7,2 °C 8,0 km/h (2 Bft)
10.10.2017 00:06 7,8 °C 7,8 °C 88 % 1020,0 hPa 0,0 mm 4,2 km/h (1 Bft) S-SW 210 ° 0 min 0,000 mm 0,0 UV-I 0 W/m² 5,9 °C 7,8 °C 9,7 km/h (2 Bft)
10.10.2017 00:07 7,8 °C 7,8 °C 88 % 1020,0 hPa 0,0 mm 7,5 km/h (2 Bft) W-SW 243 ° 0 min 0,000 mm 0,0 UV-I 0 W/m² 5,9 °C 6,5 °C 11,3 km/h (2 Bft)
10.10.2017 00:08 7,8 °C 7,8 °C 88 % 1019,9 hPa 0,0 mm 6,8 km/h (2 Bft) S-SW 206 ° 0 min 0,000 mm 0,0 UV-I 0 W/m² 5,9 °C 6,7 °C 11,3 km/h (2 Bft)
10.10.2017 00:09 7,8 °C 7,8 °C 88 % 1019,9 hPa 0,0 mm 5,7 km/h (1 Bft) S-SW 195 ° 0 min 0,000 mm 0,0 UV-I 0 W/m² 5,9 °C 7,0 °C 12,9 km/h (3 Bft)
10.10.2017 00:10 7,8 °C 7,8 °C 88 % 1019,9 hPa 0,0 mm 6,2 km/h (2 Bft) S 182 ° 0 min 0,000 mm 0,0 UV-I 0 W/m² 5,9 °C 6,9 °C 9,7 km/h (2 Bft)
10.10.2017 00:11 7,8 °C 7,8 °C 88 % 1019,9 hPa 0,0 mm 7,2 km/h (2 Bft) S-SW 206 ° 0 min 0,000 mm 0,0 UV-I 0 W/m² 5,9 °C 6,6 °C 9,7 km/h (2 Bft)
10.10.2017 00:12 7,9 °C 7,9 °C 88 % 1019,9 hPa 0,0 mm 5,0 km/h (1 Bft) S-SW 197 ° 0 min 0,000 mm 0,0 UV-I 0 W/m² 6,0 °C 7,4 °C 8,0 km/h (2 Bft)
10.10.2017 00:13 7,8 °C 7,9 °C 88 % 1020,0 hPa 0,0 mm 4,6 km/h (1 Bft) S-SW 205 ° 0 min 0,000 mm 0,0 UV-I 0 W/m² 5,9 °C 7,4 °C 6,4 km/h (2 Bft)
10.10.2017 00:14 7,8 °C 7,9 °C 88 % 1020,0 hPa 0,0 mm 5,8 km/h (2 Bft) SW 215 ° 0 min 0,000 mm 0,0 UV-I 0 W/m² 5,9 °C 7,0 °C 8,0 km/h (2 Bft)
10.10.2017 00:15 7,8 °C 7,8 °C 88 % 1019,9 hPa 0,0 mm 6,2 km/h (2 Bft) S 175 ° 0 min 0,000 mm 0,0 UV-I 0 W/m² 5,9 °C 6,9 °C 9,7 km/h (2 Bft)
10.10.2017 00:16 7,8 °C 7,8 °C 88 % 1019,9 hPa 0,0 mm 3,5 km/h (1 Bft) S-SW 199 ° 0 min 0,000 mm 0,0 UV-I 0 W/m² 5,9 °C 7,8 °C 6,4 km/h (2 Bft)
10.10.2017 00:17 7,8 °C 7,8 °C 89 % 1019,9 hPa 0,0 mm 2,9 km/h (1 Bft) S-SW 198 ° 0 min 0,000 mm 0,0 UV-I 0 W/m² 6,1 °C 7,8 °C 3,2 km/h (1 Bft)
10.10.2017 00:18 7,7 °C 7,8 °C 90 % 1019,9 hPa 0,0 mm 4,6 km/h (1 Bft) S-SW 210 ° 0 min 0,000 mm 0,0 UV-I 0 W/m² 6,2 °C 7,3 °C 6,4 km/h (2 Bft)
10.10.2017 00:19 7,6 °C 7,7 °C 89 % 1019,9 hPa 0,0 mm 3,0 km/h (1 Bft) S-SW 198 ° 0 min 0,000 mm 0,0 UV-I 0 W/m² 5,9 °C 7,6 °C 6,4 km/h (2 Bft)
10.10.2017 00:20 7,6 °C 7,6 °C 90 % 1019,9 hPa 0,0 mm 3,2 km/h (1 Bft) S 173 ° 0 min 0,000 mm 0,0 UV-I 0 W/m² 6,1 °C 7,6 °C 4,8 km/h (1 Bft)
10.10.2017 00:21 7,5 °C 7,6 °C 90 % 1019,8 hPa 0,0 mm 1,9 km/h (1 Bft) S 173 ° 0 min 0,000 mm 0,0 UV-I 0 W/m² 6,0 °C 7,5 °C 3,2 km/h (1 Bft)
10.10.2017 00:22 7,4 °C 7,5 °C 90 % 1019,8 hPa 0,0 mm 2,8 km/h (1 Bft) SW 224 ° 0 min 0,000 mm 0,0 UV-I 0 W/m² 5,9 °C 7,4 °C 6,4 km/h (2 Bft)
10.10.2017 00:23 7,4 °C 7,4 °C 90 % 1019,8 hPa 0,0 mm 1,7 km/h (1 Bft) S-SW 203 ° 0 min 0,000 mm 0,0 UV-I 0 W/m² 5,9 °C 7,4 °C 3,2 km/h (1 Bft)
10.10.2017 00:24 7,4 °C 7,4 °C 90 % 1019,9 hPa 0,0 mm 1,5 km/h (1 Bft) S-SW 201 ° 0 min 0,000 mm 0,0 UV-I 0 W/m² 5,9 °C 7,4 °C 4,8 km/h (1 Bft)
10.10.2017 00:25 7,4 °C 7,4 °C 91 % 1019,8 hPa 0,0 mm 0,0 km/h (0 Bft) S-SW 201 ° 0 min 0,000 mm 0,0 UV-I 0 W/m² 6,0 °C 7,4 °C 0,0 km/h (0 Bft)
10.10.2017 00:26 7,3 °C 7,4 °C 91 % 1019,8 hPa 0,0 mm 0,0 km/h (0 Bft) S-SW 201 ° 0 min 0,000 mm 0,0 UV-I 0 W/m² 5,9 °C 7,3 °C 0,0 km/h (0 Bft)
10.10.2017 00:27 7,3 °C 7,4 °C 91 % 1019,8 hPa 0,0 mm 1,6 km/h (1 Bft) S-SW 202 ° 0 min 0,000 mm 0,0 UV-I 0 W/m² 5,9 °C 7,3 °C 3,2 km/h (1 Bft)
10.10.2017 00:28 7,3 °C 7,3 °C 91 % 1019,8 hPa 0,0 mm 3,7 km/h (1 Bft) S-SW 202 ° 0 min 0,000 mm 0,0 UV-I 0 W/m² 5,9 °C 7,3 °C 6,4 km/h (2 Bft)
10.10.2017 00:29 7,3 °C 7,3 °C 91 % 1019,8 hPa 0,0 mm 1,3 km/h (1 Bft) S-SW 192 ° 0 min 0,000 mm 0,0 UV-I 0 W/m² 5,9 °C 7,3 °C 3,2 km/h (1 Bft)
10.10.2017 00:30 7,2 °C 7,3 °C 91 % 1019,8 hPa 0,0 mm 0,9 km/h (0 Bft) S-SW 192 ° 0 min 0,000 mm 0,0 UV-I 0 W/m² 5,8 °C 7,2 °C 3,2 km/h (1 Bft)
10.10.2017 00:31 7,2 °C 7,2 °C 91 % 1019,8 hPa 0,0 mm 3,1 km/h (1 Bft) S-SW 198 ° 0 min 0,000 mm 0,0 UV-I 0 W/m² 5,8 °C 7,2 °C 6,4 km/h (2 Bft)
10.10.2017 00:32 7,2 °C 7,2 °C 92 % 1019,8 hPa 0,0 mm 3,8 km/h (1 Bft) S-SW 192 ° 0 min 0,000 mm 0,0 UV-I 0 W/m² 6,0 °C 7,2 °C 6,4 km/h (2 Bft)
10.10.2017 00:33 7,2 °C 7,2 °C 92 % 1019,8 hPa 0,0 mm 4,4 km/h (1 Bft) S-SW 192 ° 0 min 0,000 mm 0,0 UV-I 0 W/m² 6,0 °C 7,2 °C 6,4 km/h (2 Bft)
10.10.2017 00:34 7,2 °C 7,2 °C 92 % 1019,8 hPa 0,0 mm 3,1 km/h (1 Bft) S-SW 193 ° 0 min 0,000 mm 0,0 UV-I 0 W/m² 6,0 °C 7,2 °C 4,8 km/h (1 Bft)
10.10.2017 00:35 7,2 °C 7,2 °C 92 % 1019,8 hPa 0,0 mm 1,5 km/h (1 Bft) S-SW 193 ° 0 min 0,000 mm 0,0 UV-I 0 W/m² 6,0 °C 7,2 °C 3,2 km/h (1 Bft)
10.10.2017 00:36 7,2 °C 7,2 °C 92 % 1019,8 hPa 0,0 mm 2,0 km/h (1 Bft) S-SW 193 ° 0 min 0,000 mm 0,0 UV-I 0 W/m² 6,0 °C 7,2 °C 3,2 km/h (1 Bft)
10.10.2017 00:37 7,2 °C 7,2 °C 92 % 1019,8 hPa 0,0 mm 3,7 km/h (1 Bft) S-SW 199 ° 0 min 0,000 mm 0,0 UV-I 0 W/m² 6,0 °C 7,2 °C 6,4 km/h (2 Bft)
10.10.2017 00:38 7,2 °C 7,2 °C 92 % 1019,8 hPa 0,0 mm 4,4 km/h (1 Bft) S-SW 212 ° 0 min 0,000 mm 0,0 UV-I 0 W/m² 6,0 °C 7,2 °C 8,0 km/h (2 Bft)
10.10.2017 00:39 7,2 °C 7,2 °C 92 % 1019,8 hPa 0,0 mm 5,2 km/h (1 Bft) S-SW 196 ° 0 min 0,000 mm 0,0 UV-I 0 W/m² 6,0 °C 6,5 °C 8,0 km/h (2 Bft)
10.10.2017 00:40 7,3 °C 7,3 °C 92 % 1019,8 hPa 0,0 mm 5,8 km/h (2 Bft) S-SW 199 ° 0 min 0,000 mm 0,0 UV-I 0 W/m² 6,1 °C 6,4 °C 6,4 km/h (2 Bft)
10.10.2017 00:41 7,2 °C 7,3 °C 92 % 1019,8 hPa 0,0 mm 3,4 km/h (1 Bft) S 184 ° 0 min 0,000 mm 0,0 UV-I 0 W/m² 6,0 °C 7,2 °C 4,8 km/h (1 Bft)
10.10.2017 00:42 7,2 °C 7,3 °C 92 % 1019,8 hPa 0,0 mm 3,8 km/h (1 Bft) S 186 ° 0 min 0,000 mm 0,0 UV-I 0 W/m² 6,0 °C 7,2 °C 4,8 km/h (1 Bft)
10.10.2017 00:43 7,3 °C 7,3 °C 91 % 1019,7 hPa 0,0 mm 4,8 km/h (1 Bft) S-SW 192 ° 0 min 0,000 mm 0,0 UV-I 0 W/m² 5,9 °C 6,8 °C 8,0 km/h (2 Bft)
10.10.2017 00:44 7,2 °C 7,3 °C 91 % 1019,7 hPa 0,0 mm 4,3 km/h (1 Bft) S-SW 194 ° 0 min 0,000 mm 0,0 UV-I 0 W/m² 5,8 °C 7,2 °C 8,0 km/h (2 Bft)
10.10.2017 00:45 7,3 °C 7,3 °C 91 % 1019,7 hPa 0,0 mm 5,0 km/h (1 Bft) S-SW 204 ° 0 min 0,000 mm 0,0 UV-I 0 W/m² 5,9 °C 6,7 °C 6,4 km/h (2 Bft)
10.10.2017 00:46 7,3 °C 7,3 °C 91 % 1019,7 hPa 0,0 mm 3,2 km/h (1 Bft) S 187 ° 0 min 0,000 mm 0,0 UV-I 0 W/m² 5,9 °C 7,3 °C 4,8 km/h (1 Bft)
10.10.2017 00:47 7,3 °C 7,3 °C 91 % 1019,7 hPa 0,0 mm 3,9 km/h (1 Bft) S 188 ° 0 min 0,000 mm 0,0 UV-I 0 W/m² 5,9 °C 7,3 °C 8,0 km/h (2 Bft)
10.10.2017 00:48 7,3 °C 7,3 °C 91 % 1019,7 hPa 0,0 mm 5,3 km/h (1 Bft) S-SW 205 ° 0 min 0,000 mm 0,0 UV-I 0 W/m² 5,9 °C 6,6 °C 8,0 km/h (2 Bft)
10.10.2017 00:49 7,3 °C 7,3 °C 91 % 1019,6 hPa 0,0 mm 4,2 km/h (1 Bft) S-SW 194 ° 0 min 0,000 mm 0,0 UV-I 0 W/m² 5,9 °C 7,3 °C 8,0 km/h (2 Bft)
10.10.2017 00:50 7,2 °C 7,3 °C 91 % 1019,6 hPa 0,0 mm 2,6 km/h (1 Bft) S-SW 194 ° 0 min 0,000 mm 0,0 UV-I 0 W/m² 5,8 °C 7,2 °C 4,8 km/h (1 Bft)
10.10.2017 00:51 7,2 °C 7,3 °C 91 % 1019,6 hPa 0,0 mm 5,4 km/h (1 Bft) S-SW 197 ° 0 min 0,000 mm 0,0 UV-I 0 W/m² 5,8 °C 6,4 °C 9,7 km/h (2 Bft)
10.10.2017 00:52 7,2 °C 7,3 °C 91 % 1019,6 hPa 0,0 mm 5,5 km/h (1 Bft) S-SW 205 ° 0 min 0,000 mm 0,0 UV-I 0 W/m² 5,8 °C 6,4 °C 9,7 km/h (2 Bft)
10.10.2017 00:53 7,3 °C 7,3 °C 91 % 1019,6 hPa 0,0 mm 5,3 km/h (1 Bft) SW 215 ° 0 min 0,000 mm 0,0 UV-I 0 W/m² 5,9 °C 6,6 °C 8,0 km/h (2 Bft)
10.10.2017 00:54 7,3 °C 7,3 °C 91 % 1019,6 hPa 0,0 mm 3,4 km/h (1 Bft) S-SO 163 ° 0 min 0,000 mm 0,0 UV-I 0 W/m² 5,9 °C 7,3 °C 6,4 km/h (2 Bft)
10.10.2017 00:55 7,3 °C 7,3 °C 91 % 1019,6 hPa 0,0 mm 7,1 km/h (2 Bft) S-SW 195 ° 0 min 0,000 mm 0,0 UV-I 0 W/m² 5,9 °C 6,1 °C 9,7 km/h (2 Bft)
10.10.2017 00:56 7,3 °C 7,3 °C 91 % 1019,5 hPa 0,0 mm 6,0 km/h (2 Bft) S-SW 194 ° 0 min 0,000 mm 0,0 UV-I 0 W/m² 5,9 °C 6,4 °C 8,0 km/h (2 Bft)
10.10.2017 00:57 7,4 °C 7,4 °C 91 % 1019,5 hPa 0,0 mm 3,6 km/h (1 Bft) S-SW 194 ° 0 min 0,000 mm 0,0 UV-I 0 W/m² 6,0 °C 7,4 °C 6,4 km/h (2 Bft)
10.10.2017 00:58 7,4 °C 7,4 °C 91 % 1019,5 hPa 0,0 mm 2,6 km/h (1 Bft) S-SW 194 ° 0 min 0,000 mm 0,0 UV-I 0 W/m² 6,0 °C 7,4 °C 4,8 km/h (1 Bft)
10.10.2017 00:59 7,4 °C 7,4 °C 91 % 1019,6 hPa 0,0 mm 5,0 km/h (1 Bft) S 183 ° 0 min 0,000 mm 0,0 UV-I 0 W/m² 6,0 °C 6,8 °C 8,0 km/h (2 Bft)
10.10.2017 01:00 7,4 °C 7,4 °C 91 % 1019,6 hPa 0,0 mm 4,6 km/h (1 Bft) S-SW 198 ° 0 min 0,000 mm 0,0 UV-I 0 W/m² 6,0 °C 7,0 °C 8,0 km/h (2 Bft)
10.10.2017 01:01 7,4 °C 7,4 °C 91 % 1019,6 hPa 0,0 mm 3,3 km/h (1 Bft) S-SW 192 ° 0 min 0,000 mm 0,0 UV-I 0 W/m² 6,0 °C 7,4 °C 4,8 km/h (1 Bft)
10.10.2017 01:02 7,4 °C 7,4 °C 91 % 1019,5 hPa 0,0 mm 4,2 km/h (1 Bft) S-SW 192 ° 0 min 0,000 mm 0,0 UV-I 0 W/m² 6,0 °C 7,4 °C 6,4 km/h (2 Bft)
10.10.2017 01:03 7,3 °C 7,4 °C 91 % 1019,5 hPa 0,0 mm 5,0 km/h (1 Bft) SW 226 ° 0 min 0,000 mm 0,0 UV-I 0 W/m² 5,9 °C 6,7 °C 8,0 km/h (2 Bft)
10.10.2017 01:04 7,4 °C 7,4 °C 91 % 1019,6 hPa 0,0 mm 5,5 km/h (1 Bft) S 182 ° 0 min 0,000 mm 0,0 UV-I 0 W/m² 6,0 °C 6,6 °C 8,0 km/h (2 Bft)
10.10.2017 01:05 7,4 °C 7,4 °C 91 % 1019,5 hPa 0,0 mm 5,0 km/h (1 Bft) SW 215 ° 0 min 0,000 mm 0,0 UV-I 0 W/m² 6,0 °C 6,8 °C 8,0 km/h (2 Bft)
10.10.2017 01:06 7,4 °C 7,4 °C 90 % 1019,6 hPa 0,0 mm 3,2 km/h (1 Bft) SW 214 ° 0 min 0,000 mm 0,0 UV-I 0 W/m² 5,9 °C 7,4 °C 4,8 km/h (1 Bft)
10.10.2017 01:07 7,3 °C 7,4 °C 91 % 1019,5 hPa 0,0 mm 2,5 km/h (1 Bft) SW 214 ° 0 min 0,000 mm 0,0 UV-I 0 W/m² 5,9 °C 7,3 °C 4,8 km/h (1 Bft)
10.10.2017 01:08 7,3 °C 7,4 °C 91 % 1019,6 hPa 0,0 mm 3,2 km/h (1 Bft) S-SW 208 ° 0 min 0,000 mm 0,0 UV-I 0 W/m² 5,9 °C 7,3 °C 4,8 km/h (1 Bft)
10.10.2017 01:09 7,3 °C 7,3 °C 91 % 1019,6 hPa 0,0 mm 3,8 km/h (1 Bft) SW 215 ° 0 min 0,000 mm 0,0 UV-I 0 W/m² 5,9 °C 7,3 °C 4,8 km/h (1 Bft)
10.10.2017 01:10 7,3 °C 7,3 °C 91 % 1019,5 hPa 0,0 mm 3,2 km/h (1 Bft) SW 215 ° 0 min 0,000 mm 0,0 UV-I 0 W/m² 5,9 °C 7,3 °C 3,2 km/h (1 Bft)
10.10.2017 01:11 7,3 °C 7,3 °C 91 % 1019,5 hPa 0,0 mm 1,8 km/h (1 Bft) SW 215 ° 0 min 0,000 mm 0,0 UV-I 0 W/m² 5,9 °C 7,3 °C 3,2 km/h (1 Bft)
10.10.2017 01:12 7,3 °C 7,3 °C 91 % 1019,6 hPa 0,0 mm 0,6 km/h (0 Bft) SW 215 ° 0 min 0,000 mm 0,0 UV-I 0 W/m² 5,9 °C 7,3 °C 1,6 km/h (1 Bft)
10.10.2017 01:13 7,2 °C 7,3 °C 91 % 1019,6 hPa 0,0 mm 0,0 km/h (0 Bft) SW 215 ° 0 min 0,000 mm 0,0 UV-I 0 W/m² 5,8 °C 7,2 °C 0,0 km/h (0 Bft)
10.10.2017 01:14 7,2 °C 7,2 °C 92 % 1019,6 hPa 0,0 mm 0,0 km/h (0 Bft) SW 215 ° 0 min 0,000 mm 0,0 UV-I 0 W/m² 6,0 °C 7,2 °C 0,0 km/h (0 Bft)
10.10.2017 01:15 7,2 °C 7,2 °C 92 % 1019,6 hPa 0,0 mm 0,1 km/h (0 Bft) SW 215 ° 0 min 0,000 mm 0,0 UV-I 0 W/m² 6,0 °C 7,2 °C 1,6 km/h (1 Bft)
10.10.2017 01:16 7,1 °C 7,2 °C 92 % 1019,5 hPa 0,0 mm 0,6 km/h (0 Bft) SW 215 ° 0 min 0,000 mm 0,0 UV-I 0 W/m² 5,9 °C 7,1 °C 1,6 km/h (1 Bft)
10.10.2017 01:17 7,0 °C 7,1 °C 92 % 1019,5 hPa 0,0 mm 1,3 km/h (1 Bft) SW 215 ° 0 min 0,000 mm 0,0 UV-I 0 W/m² 5,8 °C 7,0 °C 3,2 km/h (1 Bft)
10.10.2017 01:18 7,0 °C 7,0 °C 92 % 1019,5 hPa 0,0 mm 0,0 km/h (0 Bft) SW 215 ° 0 min 0,000 mm 0,0 UV-I 0 W/m² 5,8 °C 7,0 °C 0,0 km/h (0 Bft)
10.10.2017 01:19 6,9 °C 7,0 °C 92 % 1019,5 hPa 0,0 mm 0,0 km/h (0 Bft) SW 215 ° 0 min 0,000 mm 0,0 UV-I 0 W/m² 5,7 °C 6,9 °C 0,0 km/h (0 Bft)
10.10.2017 01:20 6,9 °C 6,9 °C 92 % 1019,5 hPa 0,0 mm 0,4 km/h (0 Bft) SW 215 ° 0 min 0,000 mm 0,0 UV-I 0 W/m² 5,7 °C 6,9 °C 1,6 km/h (1 Bft)
10.10.2017 01:21 6,8 °C 6,9 °C 93 % 1019,5 hPa 0,0 mm 0,2 km/h (0 Bft) SW 215 ° 0 min 0,000 mm 0,0 UV-I 0 W/m² 5,7 °C 6,8 °C 1,6 km/h (1 Bft)
10.10.2017 01:22 6,8 °C 6,8 °C 93 % 1019,5 hPa 0,0 mm 0,0 km/h (0 Bft) SW 215 ° 0 min 0,000 mm 0,0 UV-I 0 W/m² 5,7 °C 6,8 °C 0,0 km/h (0 Bft)
10.10.2017 01:23 6,8 °C 6,8 °C 93 % 1019,5 hPa 0,0 mm 1,7 km/h (1 Bft) SW 215 ° 0 min 0,000 mm 0,0 UV-I 0 W/m² 5,7 °C 6,8 °C 3,2 km/h (1 Bft)
10.10.2017 01:24 6,7 °C 6,8 °C 93 % 1019,5 hPa 0,0 mm 1,9 km/h (1 Bft) SW 215 ° 0 min 0,000 mm 0,0 UV-I 0 W/m² 5,6 °C 6,7 °C 3,2 km/h (1 Bft)
10.10.2017 01:25 6,7 °C 6,8 °C 93 % 1019,5 hPa 0,0 mm 1,6 km/h (1 Bft) SW 215 ° 0 min 0,000 mm 0,0 UV-I 0 W/m² 5,6 °C 6,7 °C 3,2 km/h (1 Bft)
10.10.2017 01:26 6,7 °C 6,7 °C 93 % 1019,4 hPa 0,0 mm 0,7 km/h (0 Bft) SW 215 ° 0 min 0,000 mm 0,0 UV-I 0 W/m² 5,6 °C 6,7 °C 1,6 km/h (1 Bft)
10.10.2017 01:27 6,7 °C 6,7 °C 93 % 1019,4 hPa 0,0 mm 1,1 km/h (1 Bft) SW 215 ° 0 min 0,000 mm 0,0 UV-I 0 W/m² 5,6 °C 6,7 °C 3,2 km/h (1 Bft)
10.10.2017 01:28 6,7 °C 6,7 °C 93 % 1019,5 hPa 0,0 mm 1,8 km/h (1 Bft) SW 215 ° 0 min 0,000 mm 0,0 UV-I 0 W/m² 5,6 °C 6,7 °C 3,2 km/h (1 Bft)
10.10.2017 01:29 6,7 °C 6,7 °C 93 % 1019,5 hPa 0,0 mm 1,9 km/h (1 Bft) SW 215 ° 0 min 0,000 mm 0,0 UV-I 0 W/m² 5,6 °C 6,7 °C 3,2 km/h (1 Bft)
10.10.2017 01:30 6,6 °C 6,7 °C 93 % 1019,5 hPa 0,0 mm 1,9 km/h (1 Bft) SW 215 ° 0 min 0,000 mm 0,0 UV-I 0 W/m² 5,6 °C 6,6 °C 3,2 km/h (1 Bft)
10.10.2017 01:31 6,6 °C 6,7 °C 93 % 1019,5 hPa 0,0 mm 0,5 km/h (0 Bft) SW 215 ° 0 min 0,000 mm 0,0 UV-I 0 W/m² 5,6 °C 6,6 °C 1,6 km/h (1 Bft)
10.10.2017 01:32 6,6 °C 6,6 °C 93 % 1019,5 hPa 0,0 mm 1,4 km/h (1 Bft) SW 215 ° 0 min 0,000 mm 0,0 UV-I 0 W/m² 5,6 °C 6,6 °C 3,2 km/h (1 Bft)
10.10.2017 01:33 6,6 °C 6,6 °C 93 % 1019,5 hPa 0,0 mm 0,2 km/h (0 Bft) SW 215 ° 0 min 0,000 mm 0,0 UV-I 0 W/m² 5,6 °C 6,6 °C 1,6 km/h (1 Bft)
10.10.2017 01:34 6,5 °C 6,6 °C 93 % 1019,5 hPa 0,0 mm 0,0 km/h (0 Bft) SW 215 ° 0 min 0,000 mm 0,0 UV-I 0 W/m² 5,5 °C 6,5 °C 0,0 km/h (0 Bft)
10.10.2017 01:35 6,5 °C 6,5 °C 93 % 1019,5 hPa 0,0 mm 0,0 km/h (0 Bft) SW 215 ° 0 min 0,000 mm 0,0 UV-I 0 W/m² 5,5 °C 6,5 °C 0,0 km/h (0 Bft)
10.10.2017 01:36 6,5 °C 6,5 °C 93 % 1019,5 hPa 0,0 mm 0,8 km/h (0 Bft) SW 215 ° 0 min 0,000 mm 0,0 UV-I 0 W/m² 5,5 °C 6,5 °C 1,6 km/h (1 Bft)
10.10.2017 01:37 6,4 °C 6,5 °C 93 % 1019,5 hPa 0,0 mm 0,8 km/h (0 Bft) SW 215 ° 0 min 0,000 mm 0,0 UV-I 0 W/m² 5,4 °C 6,4 °C 1,6 km/h (1 Bft)
10.10.2017 01:38 6,4 °C 6,4 °C 93 % 1019,5 hPa 0,0 mm 1,1 km/h (1 Bft) SW 215 ° 0 min 0,000 mm 0,0 UV-I 0 W/m² 5,4 °C 6,4 °C 1,6 km/h (1 Bft)
10.10.2017 01:39 6,4 °C 6,4 °C 94 % 1019,5 hPa 0,0 mm 0,0 km/h (0 Bft) SW 215 ° 0 min 0,000 mm 0,0 UV-I 0 W/m² 5,5 °C 6,4 °C 0,0 km/h (0 Bft)
10.10.2017 01:40 6,4 °C 6,4 °C 93 % 1019,5 hPa 0,0 mm 0,0 km/h (0 Bft) SW 215 ° 0 min 0,000 mm 0,0 UV-I 0 W/m² 5,4 °C 6,4 °C 0,0 km/h (0 Bft)
10.10.2017 01:41 6,4 °C 6,4 °C 94 % 1019,5 hPa 0,0 mm 0,0 km/h (0 Bft) SW 215 ° 0 min 0,000 mm 0,0 UV-I 0 W/m² 5,5 °C 6,4 °C 0,0 km/h (0 Bft)
10.10.2017 01:42 6,3 °C 6,4 °C 94 % 1019,6 hPa 0,0 mm 0,0 km/h (0 Bft) SW 215 ° 0 min 0,000 mm 0,0 UV-I 0 W/m² 5,4 °C 6,3 °C 0,0 km/h (0 Bft)
10.10.2017 01:43 6,3 °C 6,3 °C 94 % 1019,5 hPa 0,0 mm 0,0 km/h (0 Bft) SW 215 ° 0 min 0,000 mm 0,0 UV-I 0 W/m² 5,4 °C 6,3 °C 0,0 km/h (0 Bft)
10.10.2017 01:44 6,3 °C 6,3 °C 94 % 1019,6 hPa 0,0 mm 0,3 km/h (0 Bft) SW 215 ° 0 min 0,000 mm 0,0 UV-I 0 W/m² 5,4 °C 6,3 °C 1,6 km/h (1 Bft)
10.10.2017 01:45 6,3 °C 6,3 °C 94 % 1019,6 hPa 0,0 mm 0,5 km/h (0 Bft) SW 215 ° 0 min 0,000 mm 0,0 UV-I 0 W/m² 5,4 °C 6,3 °C 1,6 km/h (1 Bft)
10.10.2017 01:46 6,3 °C 6,3 °C 94 % 1019,5 hPa 0,0 mm 0,0 km/h (0 Bft) SW 215 ° 0 min 0,000 mm 0,0 UV-I 0 W/m² 5,4 °C 6,3 °C 0,0 km/h (0 Bft)
10.10.2017 01:47 6,4 °C 6,4 °C 94 % 1019,5 hPa 0,0 mm 0,0 km/h (0 Bft) SW 215 ° 0 min 0,000 mm 0,0 UV-I 0 W/m² 5,5 °C 6,4 °C 0,0 km/h (0 Bft)
10.10.2017 01:48 6,4 °C 6,4 °C 94 % 1019,5 hPa 0,0 mm 0,0 km/h (0 Bft) SW 215 ° 0 min 0,000 mm 0,0 UV-I 0 W/m² 5,5 °C 6,4 °C 0,0 km/h (0 Bft)
10.10.2017 01:49 6,4 °C 6,4 °C 94 % 1019,5 hPa 0,0 mm 0,0 km/h (0 Bft) SW 215 ° 0 min 0,000 mm 0,0 UV-I 0 W/m² 5,5 °C 6,4 °C 0,0 km/h (0 Bft)
10.10.2017 01:50 6,4 °C 6,4 °C 94 % 1019,5 hPa 0,0 mm 0,0 km/h (0 Bft) SW 215 ° 0 min 0,000 mm 0,0 UV-I 0 W/m² 5,5 °C 6,4 °C 0,0 km/h (0 Bft)
10.10.2017 01:51 6,4 °C 6,4 °C 94 % 1019,6 hPa 0,0 mm 0,0 km/h (0 Bft) SW 215 ° 0 min 0,000 mm 0,0 UV-I 0 W/m² 5,5 °C 6,4 °C 0,0 km/h (0 Bft)
10.10.2017 01:52 6,3 °C 6,4 °C 94 % 1019,5 hPa 0,0 mm 0,0 km/h (0 Bft) SW 215 ° 0 min 0,000 mm 0,0 UV-I 0 W/m² 5,4 °C 6,3 °C 0,0 km/h (0 Bft)
10.10.2017 01:53 6,3 °C 6,3 °C 94 % 1019,5 hPa 0,0 mm 0,0 km/h (0 Bft) SW 215 ° 0 min 0,000 mm 0,0 UV-I 0 W/m² 5,4 °C 6,3 °C 0,0 km/h (0 Bft)
10.10.2017 01:54 6,3 °C 6,3 °C 94 % 1019,5 hPa 0,0 mm 0,0 km/h (0 Bft) SW 215 ° 0 min 0,000 mm 0,0 UV-I 0 W/m² 5,4 °C 6,3 °C 0,0 km/h (0 Bft)
10.10.2017 01:55 6,3 °C 6,3 °C 94 % 1019,5 hPa 0,0 mm 0,0 km/h (0 Bft) SW 215 ° 0 min 0,000 mm 0,0 UV-I 0 W/m² 5,4 °C 6,3 °C 0,0 km/h (0 Bft)
10.10.2017 01:56 6,3 °C 6,3 °C 94 % 1019,5 hPa 0,0 mm 0,0 km/h (0 Bft) SW 215 ° 0 min 0,000 mm 0,0 UV-I 0 W/m² 5,4 °C 6,3 °C 0,0 km/h (0 Bft)
10.10.2017 01:57 6,3 °C 6,3 °C 94 % 1019,6 hPa 0,0 mm 1,2 km/h (1 Bft) SW 215 ° 0 min 0,000 mm 0,0 UV-I 0 W/m² 5,4 °C 6,3 °C 3,2 km/h (1 Bft)
10.10.2017 01:58 6,3 °C 6,3 °C 94 % 1019,5 hPa 0,0 mm 0,8 km/h (0 Bft) SW 215 ° 0 min 0,000 mm 0,0 UV-I 0 W/m² 5,4 °C 6,3 °C 3,2 km/h (1 Bft)
10.10.2017 01:59 6,3 °C 6,3 °C 94 % 1019,6 hPa 0,0 mm 0,0 km/h (0 Bft) SW 215 ° 0 min 0,000 mm 0,0 UV-I 0 W/m² 5,4 °C 6,3 °C 0,0 km/h (0 Bft)
10.10.2017 02:00 6,3 °C 6,3 °C 94 % 1019,5 hPa 0,0 mm 0,0 km/h (0 Bft) SW 215 ° 0 min 0,000 mm 0,0 UV-I 0 W/m² 5,4 °C 6,3 °C 0,0 km/h (0 Bft)
10.10.2017 02:01 6,4 °C 6,4 °C 94 % 1019,6 hPa 0,0 mm 0,0 km/h (0 Bft) SW 215 ° 0 min 0,000 mm 0,0 UV-I 0 W/m² 5,5 °C 6,4 °C 0,0 km/h (0 Bft)
10.10.2017 02:02 6,4 °C 6,4 °C 94 % 1019,5 hPa 0,0 mm 0,0 km/h (0 Bft) SW 215 ° 0 min 0,000 mm 0,0 UV-I 0 W/m² 5,5 °C 6,4 °C 0,0 km/h (0 Bft)
10.10.2017 02:03 6,4 °C 6,4 °C 94 % 1019,5 hPa 0,0 mm 0,0 km/h (0 Bft) SW 215 ° 0 min 0,000 mm 0,0 UV-I 0 W/m² 5,5 °C 6,4 °C 0,0 km/h (0 Bft)
10.10.2017 02:04 6,4 °C 6,4 °C 94 % 1019,5 hPa 0,0 mm 0,0 km/h (0 Bft) SW 215 ° 0 min 0,000 mm 0,0 UV-I 0 W/m² 5,5 °C 6,4 °C 0,0 km/h (0 Bft)
10.10.2017 02:05 6,4 °C 6,4 °C 94 % 1019,6 hPa 0,0 mm 0,0 km/h (0 Bft) SW 215 ° 0 min 0,000 mm 0,0 UV-I 0 W/m² 5,5 °C 6,4 °C 0,0 km/h (0 Bft)
10.10.2017 02:06 6,4 °C 6,4 °C 94 % 1019,5 hPa 0,0 mm 0,0 km/h (0 Bft) SW 215 ° 0 min 0,000 mm 0,0 UV-I 0 W/m² 5,5 °C 6,4 °C 0,0 km/h (0 Bft)
10.10.2017 02:07 6,4 °C 6,4 °C 94 % 1019,5 hPa 0,0 mm 0,0 km/h (0 Bft) SW 215 ° 0 min 0,000 mm 0,0 UV-I 0 W/m² 5,5 °C 6,4 °C 0,0 km/h (0 Bft)
10.10.2017 02:08 6,4 °C 6,4 °C 94 % 1019,5 hPa 0,0 mm 0,0 km/h (0 Bft) SW 215 ° 0 min 0,000 mm 0,0 UV-I 0 W/m² 5,5 °C 6,4 °C 0,0 km/h (0 Bft)
10.10.2017 02:09 6,4 °C 6,4 °C 94 % 1019,5 hPa 0,0 mm 0,0 km/h (0 Bft) SW 215 ° 0 min 0,000 mm 0,0 UV-I 0 W/m² 5,5 °C 6,4 °C 0,0 km/h (0 Bft)
10.10.2017 02:10 6,4 °C 6,4 °C 94 % 1019,5 hPa 0,0 mm 0,0 km/h (0 Bft) SW 215 ° 0 min 0,000 mm 0,0 UV-I 0 W/m² 5,5 °C 6,4 °C 0,0 km/h (0 Bft)
10.10.2017 02:11 6,3 °C 6,4 °C 94 % 1019,5 hPa 0,0 mm 0,0 km/h (0 Bft) SW 215 ° 0 min 0,000 mm 0,0 UV-I 0 W/m² 5,4 °C 6,3 °C 0,0 km/h (0 Bft)
10.10.2017 02:12 6,3 °C 6,3 °C 94 % 1019,5 hPa 0,0 mm 0,0 km/h (0 Bft) SW 215 ° 0 min 0,000 mm 0,0 UV-I 0 W/m² 5,4 °C 6,3 °C 0,0 km/h (0 Bft)
10.10.2017 02:13 6,2 °C 6,3 °C 94 % 1019,5 hPa 0,0 mm 0,0 km/h (0 Bft) SW 215 ° 0 min 0,000 mm 0,0 UV-I 0 W/m² 5,3 °C 6,2 °C 0,0 km/h (0 Bft)
10.10.2017 02:14 6,3 °C 6,3 °C 94 % 1019,5 hPa 0,0 mm 0,0 km/h (0 Bft) SW 215 ° 0 min 0,000 mm 0,0 UV-I 0 W/m² 5,4 °C 6,3 °C 0,0 km/h (0 Bft)
10.10.2017 02:15 6,3 °C 6,3 °C 94 % 1019,5 hPa 0,0 mm 1,6 km/h (1 Bft) SW 215 ° 0 min 0,000 mm 0,0 UV-I 0 W/m² 5,4 °C 6,3 °C 4,8 km/h (1 Bft)
10.10.2017 02:16 6,4 °C 6,4 °C 94 % 1019,5 hPa 0,0 mm 3,8 km/h (1 Bft) SW 214 ° 0 min 0,000 mm 0,0 UV-I 0 W/m² 5,5 °C 6,4 °C 4,8 km/h (1 Bft)
10.10.2017 02:17 6,4 °C 6,4 °C 95 % 1019,5 hPa 0,0 mm 2,1 km/h (1 Bft) SW 214 ° 0 min 0,000 mm 0,0 UV-I 0 W/m² 5,7 °C 6,4 °C 3,2 km/h (1 Bft)
10.10.2017 02:18 6,5 °C 6,5 °C 95 % 1019,4 hPa 0,0 mm 0,1 km/h (0 Bft) SW 214 ° 0 min 0,000 mm 0,0 UV-I 0 W/m² 5,8 °C 6,5 °C 1,6 km/h (1 Bft)
10.10.2017 02:19 6,5 °C 6,5 °C 95 % 1019,4 hPa 0,0 mm 0,0 km/h (0 Bft) SW 214 ° 0 min 0,000 mm 0,0 UV-I 0 W/m² 5,8 °C 6,5 °C 0,0 km/h (0 Bft)
10.10.2017 02:20 6,5 °C 6,6 °C 95 % 1019,4 hPa 0,0 mm 0,6 km/h (0 Bft) SW 214 ° 0 min 0,000 mm 0,0 UV-I 0 W/m² 5,8 °C 6,5 °C 3,2 km/h (1 Bft)
10.10.2017 02:21 6,5 °C 6,5 °C 95 % 1019,4 hPa 0,0 mm 1,7 km/h (1 Bft) SW 214 ° 0 min 0,000 mm 0,0 UV-I 0 W/m² 5,8 °C 6,5 °C 3,2 km/h (1 Bft)
10.10.2017 02:22 6,5 °C 6,5 °C 95 % 1019,4 hPa 0,0 mm 3,1 km/h (1 Bft) SW 214 ° 0 min 0,000 mm 0,0 UV-I 0 W/m² 5,8 °C 6,5 °C 4,8 km/h (1 Bft)
10.10.2017 02:23 6,5 °C 6,5 °C 95 % 1019,4 hPa 0,0 mm 3,3 km/h (1 Bft) SW 214 ° 0 min 0,000 mm 0,0 UV-I 0 W/m² 5,8 °C 6,5 °C 4,8 km/h (1 Bft)
10.10.2017 02:24 6,6 °C 6,6 °C 95 % 1019,4 hPa 0,0 mm 2,1 km/h (1 Bft) SW 214 ° 0 min 0,000 mm 0,0 UV-I 0 W/m² 5,9 °C 6,6 °C 4,8 km/h (1 Bft)
10.10.2017 02:25 6,6 °C 6,6 °C 95 % 1019,4 hPa 0,0 mm 3,0 km/h (1 Bft) SW 214 ° 0 min 0,000 mm 0,0 UV-I 0 W/m² 5,9 °C 6,6 °C 3,2 km/h (1 Bft)
10.10.2017 02:26 6,6 °C 6,6 °C 95 % 1019,4 hPa 0,0 mm 2,0 km/h (1 Bft) SW 214 ° 0 min 0,000 mm 0,0 UV-I 0 W/m² 5,9 °C 6,6 °C 3,2 km/h (1 Bft)
10.10.2017 02:27 6,6 °C 6,6 °C 95 % 1019,4 hPa 0,0 mm 1,5 km/h (1 Bft) SW 214 ° 0 min 0,000 mm 0,0 UV-I 0 W/m² 5,9 °C 6,6 °C 1,6 km/h (1 Bft)
10.10.2017 02:28 6,6 °C 6,6 °C 95 % 1019,4 hPa 0,0 mm 0,8 km/h (0 Bft) SW 214 ° 0 min 0,000 mm 0,0 UV-I 0 W/m² 5,9 °C 6,6 °C 1,6 km/h (1 Bft)
10.10.2017 02:29 6,6 °C 6,6 °C 94 % 1019,4 hPa 0,0 mm 0,0 km/h (0 Bft) SW 214 ° 0 min 0,000 mm 0,0 UV-I 0 W/m² 5,7 °C 6,6 °C 0,0 km/h (0 Bft)
10.10.2017 02:30 6,6 °C 6,6 °C 94 % 1019,4 hPa 0,0 mm 0,0 km/h (0 Bft) SW 214 ° 0 min 0,000 mm 0,0 UV-I 0 W/m² 5,7 °C 6,6 °C 0,0 km/h (0 Bft)
10.10.2017 02:31 6,6 °C 6,6 °C 94 % 1019,4 hPa 0,0 mm 0,0 km/h (0 Bft) SW 214 ° 0 min 0,000 mm 0,0 UV-I 0 W/m² 5,7 °C 6,6 °C 0,0 km/h (0 Bft)
10.10.2017 02:32 6,5 °C 6,6 °C 94 % 1019,4 hPa 0,0 mm 0,0 km/h (0 Bft) SW 214 ° 0 min 0,000 mm 0,0 UV-I 0 W/m² 5,6 °C 6,5 °C 0,0 km/h (0 Bft)
10.10.2017 02:33 6,5 °C 6,6 °C 94 % 1019,4 hPa 0,0 mm 0,0 km/h (0 Bft) SW 214 ° 0 min 0,000 mm 0,0 UV-I 0 W/m² 5,6 °C 6,5 °C 0,0 km/h (0 Bft)
10.10.2017 02:34 6,4 °C 6,5 °C 94 % 1019,4 hPa 0,0 mm 0,0 km/h (0 Bft) SW 214 ° 0 min 0,000 mm 0,0 UV-I 0 W/m² 5,5 °C 6,4 °C 0,0 km/h (0 Bft)
10.10.2017 02:35 6,4 °C 6,4 °C 94 % 1019,3 hPa 0,0 mm 0,0 km/h (0 Bft) SW 214 ° 0 min 0,000 mm 0,0 UV-I 0 W/m² 5,5 °C 6,4 °C 0,0 km/h (0 Bft)
10.10.2017 02:36 6,4 °C 6,4 °C 94 % 1019,4 hPa 0,0 mm 0,0 km/h (0 Bft) SW 214 ° 0 min 0,000 mm 0,0 UV-I 0 W/m² 5,5 °C 6,4 °C 0,0 km/h (0 Bft)
10.10.2017 02:37 6,3 °C 6,4 °C 94 % 1019,4 hPa 0,0 mm 0,0 km/h (0 Bft) SW 214 ° 0 min 0,000 mm 0,0 UV-I 0 W/m² 5,4 °C 6,3 °C 0,0 km/h (0 Bft)
10.10.2017 02:38 6,3 °C 6,3 °C 94 % 1019,4 hPa 0,0 mm 0,0 km/h (0 Bft) SW 214 ° 0 min 0,000 mm 0,0 UV-I 0 W/m² 5,4 °C 6,3 °C 0,0 km/h (0 Bft)
10.10.2017 02:39 6,3 °C 6,3 °C 94 % 1019,4 hPa 0,0 mm 0,1 km/h (0 Bft) SW 215 ° 0 min 0,000 mm 0,0 UV-I 0 W/m² 5,4 °C 6,3 °C 1,6 km/h (1 Bft)
10.10.2017 02:40 6,2 °C 6,3 °C 94 % 1019,4 hPa 0,0 mm 0,0 km/h (0 Bft) SW 215 ° 0 min 0,000 mm 0,0 UV-I 0 W/m² 5,3 °C 6,2 °C 0,0 km/h (0 Bft)
10.10.2017 02:41 6,1 °C 6,2 °C 94 % 1019,4 hPa 0,0 mm 0,0 km/h (0 Bft) SW 215 ° 0 min 0,000 mm 0,0 UV-I 0 W/m² 5,2 °C 6,1 °C 0,0 km/h (0 Bft)
10.10.2017 02:42 6,1 °C 6,1 °C 94 % 1019,4 hPa 0,0 mm 0,0 km/h (0 Bft) SW 214 ° 0 min 0,000 mm 0,0 UV-I 0 W/m² 5,2 °C 6,1 °C 0,0 km/h (0 Bft)
10.10.2017 02:43 6,1 °C 6,1 °C 94 % 1019,4 hPa 0,0 mm 0,0 km/h (0 Bft) SW 215 ° 0 min 0,000 mm 0,0 UV-I 0 W/m² 5,2 °C 6,1 °C 0,0 km/h (0 Bft)
10.10.2017 02:44 6,0 °C 6,1 °C 94 % 1019,4 hPa 0,0 mm 0,0 km/h (0 Bft) SW 215 ° 0 min 0,000 mm 0,0 UV-I 0 W/m² 5,1 °C 6,0 °C 0,0 km/h (0 Bft)
10.10.2017 02:45 6,1 °C 6,1 °C 94 % 1019,4 hPa 0,0 mm 0,0 km/h (0 Bft) SW 215 ° 0 min 0,000 mm 0,0 UV-I 0 W/m² 5,2 °C 6,1 °C 0,0 km/h (0 Bft)
10.10.2017 02:46 6,1 °C 6,1 °C 94 % 1019,4 hPa 0,0 mm 0,0 km/h (0 Bft) SW 215 ° 0 min 0,000 mm 0,0 UV-I 0 W/m² 5,2 °C 6,1 °C 0,0 km/h (0 Bft)
10.10.2017 02:47 6,1 °C 6,1 °C 94 % 1019,4 hPa 0,0 mm 0,0 km/h (0 Bft) SW 215 ° 0 min 0,000 mm 0,0 UV-I 0 W/m² 5,2 °C 6,1 °C 0,0 km/h (0 Bft)
10.10.2017 02:48 6,1 °C 6,1 °C 94 % 1019,4 hPa 0,0 mm 0,0 km/h (0 Bft) SW 215 ° 0 min 0,000 mm 0,0 UV-I 0 W/m² 5,2 °C 6,1 °C 0,0 km/h (0 Bft)
10.10.2017 02:49 6,1 °C 6,1 °C 94 % 1019,4 hPa 0,0 mm 0,0 km/h (0 Bft) SW 215 ° 0 min 0,000 mm 0,0 UV-I 0 W/m² 5,2 °C 6,1 °C 0,0 km/h (0 Bft)
10.10.2017 02:50 6,1 °C 6,1 °C 94 % 1019,4 hPa 0,0 mm 0,0 km/h (0 Bft) SW 215 ° 0 min 0,000 mm 0,0 UV-I 0 W/m² 5,2 °C 6,1 °C 0,0 km/h (0 Bft)
10.10.2017 02:51 6,0 °C 6,1 °C 94 % 1019,4 hPa 0,0 mm 0,0 km/h (0 Bft) SW 214 ° 0 min 0,000 mm 0,0 UV-I 0 W/m² 5,1 °C 6,0 °C 0,0 km/h (0 Bft)
10.10.2017 02:52 6,0 °C 6,1 °C 94 % 1019,4 hPa 0,0 mm 0,0 km/h (0 Bft) SW 215 ° 0 min 0,000 mm 0,0 UV-I 0 W/m² 5,1 °C 6,0 °C 0,0 km/h (0 Bft)
10.10.2017 02:53 6,0 °C 6,1 °C 94 % 1019,4 hPa 0,0 mm 0,0 km/h (0 Bft) SW 215 ° 0 min 0,000 mm 0,0 UV-I 0 W/m² 5,1 °C 6,0 °C 0,0 km/h (0 Bft)
10.10.2017 02:54 6,1 °C 6,1 °C 94 % 1019,4 hPa 0,0 mm 0,0 km/h (0 Bft) SW 214 ° 0 min 0,000 mm 0,0 UV-I 0 W/m² 5,2 °C 6,1 °C 0,0 km/h (0 Bft)
10.10.2017 02:55 6,1 °C 6,1 °C 94 % 1019,4 hPa 0,0 mm 0,0 km/h (0 Bft) SW 215 ° 0 min 0,000 mm 0,0 UV-I 0 W/m² 5,2 °C 6,1 °C 0,0 km/h (0 Bft)
10.10.2017 02:56 6,1 °C 6,1 °C 94 % 1019,4 hPa 0,0 mm 0,0 km/h (0 Bft) SW 215 ° 0 min 0,000 mm 0,0 UV-I 0 W/m² 5,2 °C 6,1 °C 0,0 km/h (0 Bft)
10.10.2017 02:57 6,1 °C 6,1 °C 94 % 1019,4 hPa 0,0 mm 0,0 km/h (0 Bft) SW 215 ° 0 min 0,000 mm 0,0 UV-I 0 W/m² 5,2 °C 6,1 °C 0,0 km/h (0 Bft)
10.10.2017 02:58 6,1 °C 6,1 °C 94 % 1019,4 hPa 0,0 mm 0,0 km/h (0 Bft) SW 214 ° 0 min 0,000 mm 0,0 UV-I 0 W/m² 5,2 °C 6,1 °C 0,0 km/h (0 Bft)
10.10.2017 02:59 6,1 °C 6,1 °C 94 % 1019,3 hPa 0,0 mm 0,0 km/h (0 Bft) SW 214 ° 0 min 0,000 mm 0,0 UV-I 0 W/m² 5,2 °C 6,1 °C 0,0 km/h (0 Bft)
10.10.2017 03:00 6,2 °C 6,2 °C 94 % 1019,4 hPa 0,0 mm 0,0 km/h (0 Bft) SW 215 ° 0 min 0,000 mm 0,0 UV-I 0 W/m² 5,3 °C 6,2 °C 0,0 km/h (0 Bft)
10.10.2017 03:01 6,1 °C 6,2 °C 94 % 1019,3 hPa 0,0 mm 0,0 km/h (0 Bft) SW 215 ° 0 min 0,000 mm 0,0 UV-I 0 W/m² 5,2 °C 6,1 °C 0,0 km/h (0 Bft)
10.10.2017 03:02 6,1 °C 6,1 °C 94 % 1019,4 hPa 0,0 mm 0,0 km/h (0 Bft) SW 214 ° 0 min 0,000 mm 0,0 UV-I 0 W/m² 5,2 °C 6,1 °C 0,0 km/h (0 Bft)
10.10.2017 03:03 5,9 °C 6,1 °C 94 % 1019,4 hPa 0,0 mm 0,0 km/h (0 Bft) SW 214 ° 0 min 0,000 mm 0,0 UV-I 0 W/m² 5,0 °C 5,9 °C 0,0 km/h (0 Bft)
10.10.2017 03:04 5,9 °C 5,9 °C 94 % 1019,4 hPa 0,0 mm 0,0 km/h (0 Bft) SW 215 ° 0 min 0,000 mm 0,0 UV-I 0 W/m² 5,0 °C 5,9 °C 0,0 km/h (0 Bft)
10.10.2017 03:05 5,8 °C 5,9 °C 94 % 1019,4 hPa 0,0 mm 0,0 km/h (0 Bft) SW 215 ° 0 min 0,000 mm 0,0 UV-I 0 W/m² 4,9 °C 5,8 °C 0,0 km/h (0 Bft)
10.10.2017 03:06 5,8 °C 5,8 °C 94 % 1019,4 hPa 0,0 mm 0,0 km/h (0 Bft) SW 215 ° 0 min 0,000 mm 0,0 UV-I 0 W/m² 4,9 °C 5,8 °C 0,0 km/h (0 Bft)
10.10.2017 03:07 5,7 °C 5,8 °C 94 % 1019,4 hPa 0,0 mm 0,0 km/h (0 Bft) SW 215 ° 0 min 0,000 mm 0,0 UV-I 0 W/m² 4,8 °C 5,7 °C 0,0 km/h (0 Bft)
10.10.2017 03:08 5,7 °C 5,7 °C 94 % 1019,4 hPa 0,0 mm 0,0 km/h (0 Bft) SW 214 ° 0 min 0,000 mm 0,0 UV-I 0 W/m² 4,8 °C 5,7 °C 0,0 km/h (0 Bft)
10.10.2017 03:09 5,7 °C 5,7 °C 94 % 1019,3 hPa 0,0 mm 0,0 km/h (0 Bft) SW 214 ° 0 min 0,000 mm 0,0 UV-I 0 W/m² 4,8 °C 5,7 °C 0,0 km/h (0 Bft)
10.10.2017 03:10 5,6 °C 5,7 °C 94 % 1019,4 hPa 0,0 mm 0,0 km/h (0 Bft) SW 215 ° 0 min 0,000 mm 0,0 UV-I 0 W/m² 4,7 °C 5,6 °C 0,0 km/h (0 Bft)
10.10.2017 03:11 5,6 °C 5,7 °C 94 % 1019,3 hPa 0,0 mm 0,0 km/h (0 Bft) SW 215 ° 0 min 0,000 mm 0,0 UV-I 0 W/m² 4,7 °C 5,6 °C 0,0 km/h (0 Bft)
10.10.2017 03:12 5,6 °C 5,6 °C 94 % 1019,3 hPa 0,0 mm 0,0 km/h (0 Bft) SW 214 ° 0 min 0,000 mm 0,0 UV-I 0 W/m² 4,7 °C 5,6 °C 0,0 km/h (0 Bft)
10.10.2017 03:13 5,7 °C 5,7 °C 94 % 1019,3 hPa 0,0 mm 0,0 km/h (0 Bft) SW 215 ° 0 min 0,000 mm 0,0 UV-I 0 W/m² 4,8 °C 5,7 °C 0,0 km/h (0 Bft)
10.10.2017 03:14 5,7 °C 5,7 °C 94 % 1019,3 hPa 0,0 mm 0,0 km/h (0 Bft) SW 214 ° 0 min 0,000 mm 0,0 UV-I 0 W/m² 4,8 °C 5,7 °C 0,0 km/h (0 Bft)
10.10.2017 03:15 5,7 °C 5,7 °C 94 % 1019,3 hPa 0,0 mm 0,0 km/h (0 Bft) SW 215 ° 0 min 0,000 mm 0,0 UV-I 0 W/m² 4,8 °C 5,7 °C 0,0 km/h (0 Bft)
10.10.2017 03:16 5,7 °C 5,7 °C 94 % 1019,3 hPa 0,0 mm 0,0 km/h (0 Bft) SW 214 ° 0 min 0,000 mm 0,0 UV-I 0 W/m² 4,8 °C 5,7 °C 0,0 km/h (0 Bft)
10.10.2017 03:17 5,7 °C 5,8 °C 94 % 1019,3 hPa 0,0 mm 0,0 km/h (0 Bft) SW 214 ° 0 min 0,000 mm 0,0 UV-I 0 W/m² 4,8 °C 5,7 °C 0,0 km/h (0 Bft)
10.10.2017 03:18 5,7 °C 5,7 °C 94 % 1019,3 hPa 0,0 mm 0,0 km/h (0 Bft) SW 215 ° 0 min 0,000 mm 0,0 UV-I 0 W/m² 4,8 °C 5,7 °C 0,0 km/h (0 Bft)
10.10.2017 03:19 5,7 °C 5,7 °C 94 % 1019,2 hPa 0,0 mm 0,0 km/h (0 Bft) SW 214 ° 0 min 0,000 mm 0,0 UV-I 0 W/m² 4,8 °C 5,7 °C 0,0 km/h (0 Bft)
10.10.2017 03:20 5,7 °C 5,7 °C 94 % 1019,2 hPa 0,0 mm 0,0 km/h (0 Bft) SW 215 ° 0 min 0,000 mm 0,0 UV-I 0 W/m² 4,8 °C 5,7 °C 0,0 km/h (0 Bft)
10.10.2017 03:21 5,7 °C 5,7 °C 94 % 1019,2 hPa 0,0 mm 0,0 km/h (0 Bft) SW 214 ° 0 min 0,000 mm 0,0 UV-I 0 W/m² 4,8 °C 5,7 °C 0,0 km/h (0 Bft)
10.10.2017 03:22 5,7 °C 5,7 °C 94 % 1019,1 hPa 0,0 mm 0,0 km/h (0 Bft) SW 215 ° 0 min 0,000 mm 0,0 UV-I 0 W/m² 4,8 °C 5,7 °C 0,0 km/h (0 Bft)
10.10.2017 03:23 5,7 °C 5,7 °C 94 % 1019,1 hPa 0,0 mm 0,0 km/h (0 Bft) SW 215 ° 0 min 0,000 mm 0,0 UV-I 0 W/m² 4,8 °C 5,7 °C 0,0 km/h (0 Bft)
10.10.2017 03:24 5,7 °C 5,7 °C 94 % 1019,2 hPa 0,0 mm 0,0 km/h (0 Bft) SW 215 ° 0 min 0,000 mm 0,0 UV-I 0 W/m² 4,8 °C 5,7 °C 0,0 km/h (0 Bft)
10.10.2017 03:25 5,7 °C 5,7 °C 95 % 1019,2 hPa 0,0 mm 0,0 km/h (0 Bft) SW 214 ° 0 min 0,000 mm 0,0 UV-I 0 W/m² 5,0 °C 5,7 °C 0,0 km/h (0 Bft)
10.10.2017 03:26 5,7 °C 5,7 °C 95 % 1019,2 hPa 0,0 mm 0,0 km/h (0 Bft) SW 214 ° 0 min 0,000 mm 0,0 UV-I 0 W/m² 5,0 °C 5,7 °C 0,0 km/h (0 Bft)
10.10.2017 03:27 5,6 °C 5,7 °C 94 % 1019,2 hPa 0,0 mm 0,0 km/h (0 Bft) SW 215 ° 0 min 0,000 mm 0,0 UV-I 0 W/m² 4,7 °C 5,6 °C 0,0 km/h (0 Bft)
10.10.2017 03:28 5,6 °C 5,6 °C 95 % 1019,2 hPa 0,0 mm 0,0 km/h (0 Bft) SW 214 ° 0 min 0,000 mm 0,0 UV-I 0 W/m² 4,9 °C 5,6 °C 0,0 km/h (0 Bft)
10.10.2017 03:29 5,6 °C 5,6 °C 95 % 1019,2 hPa 0,0 mm 0,0 km/h (0 Bft) SW 214 ° 0 min 0,000 mm 0,0 UV-I 0 W/m² 4,9 °C 5,6 °C 0,0 km/h (0 Bft)
10.10.2017 03:30 5,7 °C 5,7 °C 95 % 1019,2 hPa 0,0 mm 0,0 km/h (0 Bft) SW 214 ° 0 min 0,000 mm 0,0 UV-I 0 W/m² 5,0 °C 5,7 °C 0,0 km/h (0 Bft)
10.10.2017 03:31 5,6 °C 5,7 °C 95 % 1019,2 hPa 0,0 mm 0,0 km/h (0 Bft) SW 215 ° 0 min 0,000 mm 0,0 UV-I 0 W/m² 4,9 °C 5,6 °C 0,0 km/h (0 Bft)
10.10.2017 03:32 5,6 °C 5,6 °C 95 % 1019,2 hPa 0,0 mm 0,0 km/h (0 Bft) SW 215 ° 0 min 0,000 mm 0,0 UV-I 0 W/m² 4,9 °C 5,6 °C 0,0 km/h (0 Bft)
10.10.2017 03:33 5,6 °C 5,6 °C 95 % 1019,2 hPa 0,0 mm 0,0 km/h (0 Bft) SW 215 ° 0 min 0,000 mm 0,0 UV-I 0 W/m² 4,9 °C 5,6 °C 0,0 km/h (0 Bft)
10.10.2017 03:34 5,6 °C 5,6 °C 95 % 1019,2 hPa 0,0 mm 0,0 km/h (0 Bft) SW 215 ° 0 min 0,000 mm 0,0 UV-I 0 W/m² 4,9 °C 5,6 °C 0,0 km/h (0 Bft)
10.10.2017 03:35 5,5 °C 5,6 °C 95 % 1019,2 hPa 0,0 mm 0,0 km/h (0 Bft) SW 215 ° 0 min 0,000 mm 0,0 UV-I 0 W/m² 4,8 °C 5,5 °C 0,0 km/h (0 Bft)
10.10.2017 03:36 5,5 °C 5,5 °C 95 % 1019,2 hPa 0,0 mm 0,0 km/h (0 Bft) SW 214 ° 0 min 0,000 mm 0,0 UV-I 0 W/m² 4,8 °C 5,5 °C 0,0 km/h (0 Bft)
10.10.2017 03:37 5,5 °C 5,5 °C 95 % 1019,1 hPa 0,0 mm 0,0 km/h (0 Bft) SW 215 ° 0 min 0,000 mm 0,0 UV-I 0 W/m² 4,8 °C 5,5 °C 0,0 km/h (0 Bft)
10.10.2017 03:38 5,5 °C 5,5 °C 95 % 1019,1 hPa 0,0 mm 0,0 km/h (0 Bft) SW 214 ° 0 min 0,000 mm 0,0 UV-I 0 W/m² 4,8 °C 5,5 °C 0,0 km/h (0 Bft)
10.10.2017 03:39 5,6 °C 5,6 °C 95 % 1019,1 hPa 0,0 mm 0,0 km/h (0 Bft) SW 215 ° 0 min 0,000 mm 0,0 UV-I 0 W/m² 4,9 °C 5,6 °C 0,0 km/h (0 Bft)
10.10.2017 03:40 5,6 °C 5,6 °C 95 % 1019,1 hPa 0,0 mm 0,0 km/h (0 Bft) SW 214 ° 0 min 0,000 mm 0,0 UV-I 0 W/m² 4,9 °C 5,6 °C 0,0 km/h (0 Bft)
10.10.2017 03:41 5,6 °C 5,6 °C 95 % 1019,1 hPa 0,0 mm 0,0 km/h (0 Bft) SW 214 ° 0 min 0,000 mm 0,0 UV-I 0 W/m² 4,9 °C 5,6 °C 0,0 km/h (0 Bft)
10.10.2017 03:42 5,6 °C 5,6 °C 95 % 1019,1 hPa 0,0 mm 0,0 km/h (0 Bft) SW 215 ° 0 min 0,000 mm 0,0 UV-I 0 W/m² 4,9 °C 5,6 °C 0,0 km/h (0 Bft)
10.10.2017 03:43 5,6 °C 5,6 °C 95 % 1019,1 hPa 0,0 mm 0,0 km/h (0 Bft) SW 214 ° 0 min 0,000 mm 0,0 UV-I 0 W/m² 4,9 °C 5,6 °C 0,0 km/h (0 Bft)
10.10.2017 03:44 5,6 °C 5,6 °C 95 % 1019,1 hPa 0,0 mm 0,0 km/h (0 Bft) SW 215 ° 0 min 0,000 mm 0,0 UV-I 0 W/m² 4,9 °C 5,6 °C 0,0 km/h (0 Bft)
10.10.2017 03:45 5,6 °C 5,6 °C 95 % 1019,1 hPa 0,0 mm 0,0 km/h (0 Bft) SW 215 ° 0 min 0,000 mm 0,0 UV-I 0 W/m² 4,9 °C 5,6 °C 0,0 km/h (0 Bft)
10.10.2017 03:46 5,6 °C 5,6 °C 95 % 1019,1 hPa 0,0 mm 0,0 km/h (0 Bft) SW 215 ° 0 min 0,000 mm 0,0 UV-I 0 W/m² 4,9 °C 5,6 °C 0,0 km/h (0 Bft)
10.10.2017 03:47 5,6 °C 5,6 °C 95 % 1019,1 hPa 0,0 mm 0,0 km/h (0 Bft) SW 215 ° 0 min 0,000 mm 0,0 UV-I 0 W/m² 4,9 °C 5,6 °C 0,0 km/h (0 Bft)
10.10.2017 03:48 5,6 °C 5,6 °C 95 % 1019,1 hPa 0,0 mm 0,0 km/h (0 Bft) SW 215 ° 0 min 0,000 mm 0,0 UV-I 0 W/m² 4,9 °C 5,6 °C 0,0 km/h (0 Bft)
10.10.2017 03:49 5,6 °C 5,6 °C 95 % 1019,1 hPa 0,0 mm 0,0 km/h (0 Bft) SW 215 ° 0 min 0,000 mm 0,0 UV-I 0 W/m² 4,9 °C 5,6 °C 0,0 km/h (0 Bft)
10.10.2017 03:50 5,6 °C 5,6 °C 95 % 1019,1 hPa 0,0 mm 0,0 km/h (0 Bft) SW 214 ° 0 min 0,000 mm 0,0 UV-I 0 W/m² 4,9 °C 5,6 °C 0,0 km/h (0 Bft)
10.10.2017 03:51 5,6 °C 5,6 °C 95 % 1019,1 hPa 0,0 mm 0,0 km/h (0 Bft) SW 214 ° 0 min 0,000 mm 0,0 UV-I 0 W/m² 4,9 °C 5,6 °C 0,0 km/h (0 Bft)
10.10.2017 03:52 5,6 °C 5,6 °C 95 % 1019,1 hPa 0,0 mm 0,0 km/h (0 Bft) SW 214 ° 0 min 0,000 mm 0,0 UV-I 0 W/m² 4,9 °C 5,6 °C 0,0 km/h (0 Bft)
10.10.2017 03:53 5,6 °C 5,6 °C 95 % 1019,1 hPa 0,0 mm 0,0 km/h (0 Bft) SW 214 ° 0 min 0,000 mm 0,0 UV-I 0 W/m² 4,9 °C 5,6 °C 0,0 km/h (0 Bft)
10.10.2017 03:54 5,6 °C 5,6 °C 95 % 1019,1 hPa 0,0 mm 0,0 km/h (0 Bft) SW 214 ° 0 min 0,000 mm 0,0 UV-I 0 W/m² 4,9 °C 5,6 °C 0,0 km/h (0 Bft)
10.10.2017 03:55 5,6 °C 5,6 °C 95 % 1019,1 hPa 0,0 mm 0,0 km/h (0 Bft) SW 215 ° 0 min 0,000 mm 0,0 UV-I 0 W/m² 4,9 °C 5,6 °C 0,0 km/h (0 Bft)
10.10.2017 03:56 5,6 °C 5,6 °C 95 % 1019,1 hPa 0,0 mm 0,0 km/h (0 Bft) SW 215 ° 0 min 0,000 mm 0,0 UV-I 0 W/m² 4,9 °C 5,6 °C 0,0 km/h (0 Bft)
10.10.2017 03:57 5,6 °C 5,6 °C 95 % 1019,1 hPa 0,0 mm 0,0 km/h (0 Bft) SW 214 ° 0 min 0,000 mm 0,0 UV-I 0 W/m² 4,9 °C 5,6 °C 0,0 km/h (0 Bft)
10.10.2017 03:58 5,6 °C 5,6 °C 95 % 1019,1 hPa 0,0 mm 0,0 km/h (0 Bft) SW 215 ° 0 min 0,000 mm 0,0 UV-I 0 W/m² 4,9 °C 5,6 °C 0,0 km/h (0 Bft)
10.10.2017 03:59 5,6 °C 5,6 °C 95 % 1019,1 hPa 0,0 mm 0,0 km/h (0 Bft) SW 215 ° 0 min 0,000 mm 0,0 UV-I 0 W/m² 4,9 °C 5,6 °C 0,0 km/h (0 Bft)
10.10.2017 04:00 5,6 °C 5,7 °C 95 % 1019,1 hPa 0,0 mm 0,0 km/h (0 Bft) SW 215 ° 0 min 0,000 mm 0,0 UV-I 0 W/m² 4,9 °C 5,6 °C 0,0 km/h (0 Bft)
10.10.2017 04:01 5,6 °C 5,7 °C 95 % 1019,0 hPa 0,0 mm 0,0 km/h (0 Bft) SW 215 ° 0 min 0,000 mm 0,0 UV-I 0 W/m² 4,9 °C 5,6 °C 0,0 km/h (0 Bft)
10.10.2017 04:02 5,6 °C 5,7 °C 95 % 1019,0 hPa 0,0 mm 0,0 km/h (0 Bft) SW 215 ° 0 min 0,000 mm 0,0 UV-I 0 W/m² 4,9 °C 5,6 °C 0,0 km/h (0 Bft)
10.10.2017 04:03 5,6 °C 5,6 °C 95 % 1019,0 hPa 0,0 mm 0,0 km/h (0 Bft) SW 215 ° 0 min 0,000 mm 0,0 UV-I 0 W/m² 4,9 °C 5,6 °C 0,0 km/h (0 Bft)
10.10.2017 04:04 5,7 °C 5,7 °C 95 % 1019,0 hPa 0,0 mm 0,0 km/h (0 Bft) SW 214 ° 0 min 0,000 mm 0,0 UV-I 0 W/m² 5,0 °C 5,7 °C 0,0 km/h (0 Bft)
10.10.2017 04:05 5,6 °C 5,7 °C 95 % 1018,9 hPa 0,0 mm 0,0 km/h (0 Bft) SW 214 ° 0 min 0,000 mm 0,0 UV-I 0 W/m² 4,9 °C 5,6 °C 0,0 km/h (0 Bft)
10.10.2017 04:06 5,7 °C 5,7 °C 95 % 1018,9 hPa 0,0 mm 0,0 km/h (0 Bft) SW 214 ° 0 min 0,000 mm 0,0 UV-I 0 W/m² 5,0 °C 5,7 °C 0,0 km/h (0 Bft)
10.10.2017 04:07 5,7 °C 5,7 °C 95 % 1018,9 hPa 0,0 mm 0,0 km/h (0 Bft) SW 215 ° 0 min 0,000 mm 0,0 UV-I 0 W/m² 5,0 °C 5,7 °C 0,0 km/h (0 Bft)
10.10.2017 04:08 5,7 °C 5,7 °C 95 % 1018,9 hPa 0,0 mm 0,0 km/h (0 Bft) SW 215 ° 0 min 0,000 mm 0,0 UV-I 0 W/m² 5,0 °C 5,7 °C 0,0 km/h (0 Bft)
10.10.2017 04:09 5,7 °C 5,7 °C 95 % 1018,9 hPa 0,0 mm 0,0 km/h (0 Bft) SW 215 ° 0 min 0,000 mm 0,0 UV-I 0 W/m² 5,0 °C 5,7 °C 0,0 km/h (0 Bft)
10.10.2017 04:10 5,7 °C 5,7 °C 95 % 1018,9 hPa 0,0 mm 0,0 km/h (0 Bft) SW 215 ° 0 min 0,000 mm 0,0 UV-I 0 W/m² 5,0 °C 5,7 °C 0,0 km/h (0 Bft)
10.10.2017 04:11 5,7 °C 5,7 °C 95 % 1019,0 hPa 0,0 mm 0,0 km/h (0 Bft) SW 215 ° 0 min 0,000 mm 0,0 UV-I 0 W/m² 5,0 °C 5,7 °C 0,0 km/h (0 Bft)
10.10.2017 04:12 5,7 °C 5,7 °C 95 % 1018,9 hPa 0,0 mm 0,0 km/h (0 Bft) SW 215 ° 0 min 0,000 mm 0,0 UV-I 0 W/m² 5,0 °C 5,7 °C 0,0 km/h (0 Bft)
10.10.2017 04:13 5,7 °C 5,7 °C 95 % 1019,0 hPa 0,0 mm 0,0 km/h (0 Bft) SW 215 ° 0 min 0,000 mm 0,0 UV-I 0 W/m² 5,0 °C 5,7 °C 0,0 km/h (0 Bft)
10.10.2017 04:14 5,7 °C 5,7 °C 95 % 1019,0 hPa 0,0 mm 0,0 km/h (0 Bft) SW 214 ° 0 min 0,000 mm 0,0 UV-I 0 W/m² 5,0 °C 5,7 °C 0,0 km/h (0 Bft)
10.10.2017 04:15 5,6 °C 5,7 °C 95 % 1019,0 hPa 0,0 mm 0,0 km/h (0 Bft) SW 214 ° 0 min 0,000 mm 0,0 UV-I 0 W/m² 4,9 °C 5,6 °C 0,0 km/h (0 Bft)
10.10.2017 04:16 5,6 °C 5,6 °C 95 % 1019,1 hPa 0,0 mm 0,0 km/h (0 Bft) SW 215 ° 0 min 0,000 mm 0,0 UV-I 0 W/m² 4,9 °C 5,6 °C 0,0 km/h (0 Bft)
10.10.2017 04:17 5,6 °C 5,6 °C 95 % 1019,0 hPa 0,0 mm 0,0 km/h (0 Bft) SW 215 ° 0 min 0,000 mm 0,0 UV-I 0 W/m² 4,9 °C 5,6 °C 0,0 km/h (0 Bft)
10.10.2017 04:18 5,7 °C 5,7 °C 95 % 1019,1 hPa 0,0 mm 0,0 km/h (0 Bft) SW 215 ° 0 min 0,000 mm 0,0 UV-I 0 W/m² 5,0 °C 5,7 °C 0,0 km/h (0 Bft)
10.10.2017 04:19 5,6 °C 5,7 °C 95 % 1019,0 hPa 0,0 mm 0,0 km/h (0 Bft) SW 215 ° 0 min 0,000 mm 0,0 UV-I 0 W/m² 4,9 °C 5,6 °C 0,0 km/h (0 Bft)
10.10.2017 04:20 5,7 °C 5,7 °C 95 % 1019,0 hPa 0,0 mm 0,0 km/h (0 Bft) SW 215 ° 0 min 0,000 mm 0,0 UV-I 0 W/m² 5,0 °C 5,7 °C 0,0 km/h (0 Bft)
10.10.2017 04:21 5,7 °C 5,7 °C 95 % 1019,0 hPa 0,0 mm 0,0 km/h (0 Bft) SW 214 ° 0 min 0,000 mm 0,0 UV-I 0 W/m² 5,0 °C 5,7 °C 0,0 km/h (0 Bft)
10.10.2017 04:22 5,7 °C 5,7 °C 95 % 1019,0 hPa 0,0 mm 0,0 km/h (0 Bft) SW 215 ° 0 min 0,000 mm 0,0 UV-I 0 W/m² 5,0 °C 5,7 °C 0,0 km/h (0 Bft)
10.10.2017 04:23 5,7 °C 5,7 °C 95 % 1019,0 hPa 0,0 mm 0,0 km/h (0 Bft) SW 215 ° 0 min 0,000 mm 0,0 UV-I 0 W/m² 5,0 °C 5,7 °C 0,0 km/h (0 Bft)
10.10.2017 04:24 5,7 °C 5,7 °C 95 % 1019,1 hPa 0,0 mm 0,0 km/h (0 Bft) SW 215 ° 0 min 0,000 mm 0,0 UV-I 0 W/m² 5,0 °C 5,7 °C 0,0 km/h (0 Bft)
10.10.2017 04:25 5,7 °C 5,7 °C 95 % 1019,1 hPa 0,0 mm 0,0 km/h (0 Bft) SW 215 ° 0 min 0,000 mm 0,0 UV-I 0 W/m² 5,0 °C 5,7 °C 0,0 km/h (0 Bft)
10.10.2017 04:26 5,7 °C 5,7 °C 95 % 1019,0 hPa 0,0 mm 0,0 km/h (0 Bft) SW 215 ° 0 min 0,000 mm 0,0 UV-I 0 W/m² 5,0 °C 5,7 °C 0,0 km/h (0 Bft)
10.10.2017 04:27 5,7 °C 5,7 °C 95 % 1019,0 hPa 0,0 mm 0,0 km/h (0 Bft) SW 214 ° 0 min 0,000 mm 0,0 UV-I 0 W/m² 5,0 °C 5,7 °C 0,0 km/h (0 Bft)
10.10.2017 04:28 5,7 °C 5,7 °C 95 % 1019,0 hPa 0,0 mm 0,0 km/h (0 Bft) SW 215 ° 0 min 0,000 mm 0,0 UV-I 0 W/m² 5,0 °C 5,7 °C 0,0 km/h (0 Bft)
10.10.2017 04:29 5,7 °C 5,7 °C 95 % 1019,0 hPa 0,0 mm 0,0 km/h (0 Bft) SW 214 ° 0 min 0,000 mm 0,0 UV-I 0 W/m² 5,0 °C 5,7 °C 0,0 km/h (0 Bft)
10.10.2017 04:30 5,7 °C 5,7 °C 95 % 1019,0 hPa 0,0 mm 0,0 km/h (0 Bft) SW 215 ° 0 min 0,000 mm 0,0 UV-I 0 W/m² 5,0 °C 5,7 °C 0,0 km/h (0 Bft)
10.10.2017 04:31 5,7 °C 5,7 °C 95 % 1019,0 hPa 0,0 mm 0,0 km/h (0 Bft) SW 215 ° 0 min 0,000 mm 0,0 UV-I 0 W/m² 5,0 °C 5,7 °C 0,0 km/h (0 Bft)
10.10.2017 04:32 5,8 °C 5,8 °C 95 % 1019,0 hPa 0,0 mm 0,0 km/h (0 Bft) SW 215 ° 0 min 0,000 mm 0,0 UV-I 0 W/m² 5,1 °C 5,8 °C 0,0 km/h (0 Bft)
10.10.2017 04:33 5,8 °C 5,8 °C 95 % 1019,1 hPa 0,0 mm 0,0 km/h (0 Bft) SW 215 ° 0 min 0,000 mm 0,0 UV-I 0 W/m² 5,1 °C 5,8 °C 0,0 km/h (0 Bft)
10.10.2017 04:34 5,8 °C 5,8 °C 95 % 1019,0 hPa 0,0 mm 0,0 km/h (0 Bft) SW 215 ° 0 min 0,000 mm 0,0 UV-I 0 W/m² 5,1 °C 5,8 °C 0,0 km/h (0 Bft)
10.10.2017 04:35 5,7 °C 5,8 °C 95 % 1018,9 hPa 0,0 mm 0,0 km/h (0 Bft) SW 215 ° 0 min 0,000 mm 0,0 UV-I 0 W/m² 5,0 °C 5,7 °C 0,0 km/h (0 Bft)
10.10.2017 04:36 5,7 °C 5,7 °C 95 % 1018,9 hPa 0,0 mm 0,0 km/h (0 Bft) SW 214 ° 0 min 0,000 mm 0,0 UV-I 0 W/m² 5,0 °C 5,7 °C 0,0 km/h (0 Bft)
10.10.2017 04:37 5,7 °C 5,8 °C 95 % 1018,9 hPa 0,0 mm 0,0 km/h (0 Bft) SW 214 ° 0 min 0,000 mm 0,0 UV-I 0 W/m² 5,0 °C 5,7 °C 0,0 km/h (0 Bft)
10.10.2017 04:38 5,8 °C 5,8 °C 95 % 1018,9 hPa 0,0 mm 0,0 km/h (0 Bft) SW 215 ° 0 min 0,000 mm 0,0 UV-I 0 W/m² 5,1 °C 5,8 °C 0,0 km/h (0 Bft)
10.10.2017 04:39 5,7 °C 5,8 °C 95 % 1018,9 hPa 0,0 mm 0,0 km/h (0 Bft) SW 214 ° 0 min 0,000 mm 0,0 UV-I 0 W/m² 5,0 °C 5,7 °C 0,0 km/h (0 Bft)
10.10.2017 04:40 5,7 °C 5,7 °C 95 % 1018,9 hPa 0,0 mm 0,0 km/h (0 Bft) SW 215 ° 0 min 0,000 mm 0,0 UV-I 0 W/m² 5,0 °C 5,7 °C 0,0 km/h (0 Bft)
10.10.2017 04:41 5,7 °C 5,7 °C 95 % 1018,9 hPa 0,0 mm 0,0 km/h (0 Bft) SW 215 ° 0 min 0,000 mm 0,0 UV-I 0 W/m² 5,0 °C 5,7 °C 0,0 km/h (0 Bft)
10.10.2017 04:42 5,8 °C 5,8 °C 95 % 1018,9 hPa 0,0 mm 0,0 km/h (0 Bft) SW 215 ° 0 min 0,000 mm 0,0 UV-I 0 W/m² 5,1 °C 5,8 °C 0,0 km/h (0 Bft)
10.10.2017 04:43 5,8 °C 5,8 °C 95 % 1018,9 hPa 0,0 mm 0,0 km/h (0 Bft) SW 215 ° 0 min 0,000 mm 0,0 UV-I 0 W/m² 5,1 °C 5,8 °C 0,0 km/h (0 Bft)
10.10.2017 04:44 5,8 °C 5,8 °C 95 % 1019,0 hPa 0,0 mm 0,0 km/h (0 Bft) SW 215 ° 0 min 0,000 mm 0,0 UV-I 0 W/m² 5,1 °C 5,8 °C 0,0 km/h (0 Bft)
10.10.2017 04:45 5,8 °C 5,8 °C 95 % 1018,9 hPa 0,0 mm 0,0 km/h (0 Bft) SW 215 ° 0 min 0,000 mm 0,0 UV-I 0 W/m² 5,1 °C 5,8 °C 0,0 km/h (0 Bft)
10.10.2017 04:46 5,8 °C 5,8 °C 95 % 1018,9 hPa 0,0 mm 0,0 km/h (0 Bft) SW 215 ° 0 min 0,000 mm 0,0 UV-I 0 W/m² 5,1 °C 5,8 °C 0,0 km/h (0 Bft)
10.10.2017 04:47 5,8 °C 5,8 °C 95 % 1018,9 hPa 0,0 mm 0,0 km/h (0 Bft) SW 214 ° 0 min 0,000 mm 0,0 UV-I 0 W/m² 5,1 °C 5,8 °C 0,0 km/h (0 Bft)
10.10.2017 04:48 5,8 °C 5,8 °C 95 % 1018,8 hPa 0,0 mm 0,0 km/h (0 Bft) SW 214 ° 0 min 0,000 mm 0,0 UV-I 0 W/m² 5,1 °C 5,8 °C 0,0 km/h (0 Bft)
10.10.2017 04:49 5,8 °C 5,8 °C 95 % 1018,8 hPa 0,0 mm 0,0 km/h (0 Bft) SW 215 ° 0 min 0,000 mm 0,0 UV-I 0 W/m² 5,1 °C 5,8 °C 0,0 km/h (0 Bft)
10.10.2017 04:50 5,8 °C 5,8 °C 95 % 1018,8 hPa 0,0 mm 0,0 km/h (0 Bft) SW 214 ° 0 min 0,000 mm 0,0 UV-I 0 W/m² 5,1 °C 5,8 °C 0,0 km/h (0 Bft)
10.10.2017 04:51 5,8 °C 5,8 °C 95 % 1018,8 hPa 0,0 mm 0,0 km/h (0 Bft) SW 215 ° 0 min 0,000 mm 0,0 UV-I 0 W/m² 5,1 °C 5,8 °C 0,0 km/h (0 Bft)
10.10.2017 04:52 5,8 °C 5,8 °C 95 % 1018,8 hPa 0,0 mm 0,0 km/h (0 Bft) SW 215 ° 0 min 0,000 mm 0,0 UV-I 0 W/m² 5,1 °C 5,8 °C 0,0 km/h (0 Bft)
10.10.2017 04:53 5,8 °C 5,8 °C 95 % 1018,9 hPa 0,0 mm 0,0 km/h (0 Bft) SW 215 ° 0 min 0,000 mm 0,0 UV-I 0 W/m² 5,1 °C 5,8 °C 0,0 km/h (0 Bft)
10.10.2017 04:54 5,9 °C 5,9 °C 95 % 1018,8 hPa 0,0 mm 0,0 km/h (0 Bft) SW 215 ° 0 min 0,000 mm 0,0 UV-I 0 W/m² 5,2 °C 5,9 °C 0,0 km/h (0 Bft)
10.10.2017 04:55 5,8 °C 5,9 °C 95 % 1018,8 hPa 0,0 mm 0,0 km/h (0 Bft) SW 215 ° 0 min 0,000 mm 0,0 UV-I 0 W/m² 5,1 °C 5,8 °C 0,0 km/h (0 Bft)
10.10.2017 04:56 5,8 °C 5,8 °C 95 % 1018,8 hPa 0,0 mm 0,0 km/h (0 Bft) SW 215 ° 0 min 0,000 mm 0,0 UV-I 0 W/m² 5,1 °C 5,8 °C 0,0 km/h (0 Bft)
10.10.2017 04:57 5,8 °C 5,8 °C 95 % 1018,9 hPa 0,0 mm 0,0 km/h (0 Bft) SW 215 ° 0 min 0,000 mm 0,0 UV-I 0 W/m² 5,1 °C 5,8 °C 0,0 km/h (0 Bft)
10.10.2017 04:58 5,8 °C 5,8 °C 95 % 1018,8 hPa 0,0 mm 0,0 km/h (0 Bft) SW 215 ° 0 min 0,000 mm 0,0 UV-I 0 W/m² 5,1 °C 5,8 °C 0,0 km/h (0 Bft)
10.10.2017 04:59 5,7 °C 5,8 °C 95 % 1018,8 hPa 0,0 mm 0,0 km/h (0 Bft) SW 215 ° 0 min 0,000 mm 0,0 UV-I 0 W/m² 5,0 °C 5,7 °C 0,0 km/h (0 Bft)
10.10.2017 05:00 5,7 °C 5,7 °C 95 % 1018,8 hPa 0,0 mm 0,0 km/h (0 Bft) SW 214 ° 0 min 0,000 mm 0,0 UV-I 0 W/m² 5,0 °C 5,7 °C 0,0 km/h (0 Bft)
10.10.2017 05:01 5,7 °C 5,7 °C 95 % 1018,8 hPa 0,0 mm 0,0 km/h (0 Bft) SW 215 ° 0 min 0,000 mm 0,0 UV-I 0 W/m² 5,0 °C 5,7 °C 0,0 km/h (0 Bft)
10.10.2017 05:02 5,7 °C 5,7 °C 95 % 1018,9 hPa 0,0 mm 0,0 km/h (0 Bft) SW 215 ° 0 min 0,000 mm 0,0 UV-I 0 W/m² 5,0 °C 5,7 °C 0,0 km/h (0 Bft)
10.10.2017 05:03 5,7 °C 5,7 °C 95 % 1018,8 hPa 0,0 mm 0,0 km/h (0 Bft) SW 215 ° 0 min 0,000 mm 0,0 UV-I 0 W/m² 5,0 °C 5,7 °C 0,0 km/h (0 Bft)
10.10.2017 05:04 5,7 °C 5,8 °C 95 % 1018,9 hPa 0,0 mm 0,0 km/h (0 Bft) SW 215 ° 0 min 0,000 mm 0,0 UV-I 0 W/m² 5,0 °C 5,7 °C 0,0 km/h (0 Bft)
10.10.2017 05:05 5,7 °C 5,8 °C 95 % 1018,9 hPa 0,0 mm 0,0 km/h (0 Bft) SW 215 ° 0 min 0,000 mm 0,0 UV-I 0 W/m² 5,0 °C 5,7 °C 0,0 km/h (0 Bft)
10.10.2017 05:06 5,7 °C 5,7 °C 95 % 1018,9 hPa 0,0 mm 0,0 km/h (0 Bft) SW 215 ° 0 min 0,000 mm 0,0 UV-I 0 W/m² 5,0 °C 5,7 °C 0,0 km/h (0 Bft)
10.10.2017 05:07 5,7 °C 5,7 °C 95 % 1018,9 hPa 0,0 mm 0,0 km/h (0 Bft) SW 215 ° 0 min 0,000 mm 0,0 UV-I 0 W/m² 5,0 °C 5,7 °C 0,0 km/h (0 Bft)
10.10.2017 05:08 5,7 °C 5,7 °C 95 % 1018,9 hPa 0,0 mm 0,0 km/h (0 Bft) SW 215 ° 0 min 0,000 mm 0,0 UV-I 0 W/m² 5,0 °C 5,7 °C 0,0 km/h (0 Bft)
10.10.2017 05:09 5,7 °C 5,7 °C 95 % 1018,8 hPa 0,0 mm 0,0 km/h (0 Bft) SW 215 ° 0 min 0,000 mm 0,0 UV-I 0 W/m² 5,0 °C 5,7 °C 0,0 km/h (0 Bft)
10.10.2017 05:10 5,7 °C 5,7 °C 95 % 1018,8 hPa 0,0 mm 0,0 km/h (0 Bft) SW 215 ° 0 min 0,000 mm 0,0 UV-I 0 W/m² 5,0 °C 5,7 °C 0,0 km/h (0 Bft)
10.10.2017 05:11 5,7 °C 5,7 °C 95 % 1018,8 hPa 0,0 mm 0,0 km/h (0 Bft) SW 215 ° 0 min 0,000 mm 0,0 UV-I 0 W/m² 5,0 °C 5,7 °C 0,0 km/h (0 Bft)
10.10.2017 05:12 5,7 °C 5,7 °C 95 % 1018,8 hPa 0,0 mm 0,0 km/h (0 Bft) SW 215 ° 0 min 0,000 mm 0,0 UV-I 0 W/m² 5,0 °C 5,7 °C 0,0 km/h (0 Bft)
10.10.2017 05:13 5,7 °C 5,7 °C 95 % 1018,9 hPa 0,0 mm 0,0 km/h (0 Bft) SW 215 ° 0 min 0,000 mm 0,0 UV-I 0 W/m² 5,0 °C 5,7 °C 0,0 km/h (0 Bft)
10.10.2017 05:14 5,7 °C 5,7 °C 95 % 1018,9 hPa 0,0 mm 0,0 km/h (0 Bft) SW 215 ° 0 min 0,000 mm 0,0 UV-I 0 W/m² 5,0 °C 5,7 °C 0,0 km/h (0 Bft)
10.10.2017 05:15 5,7 °C 5,7 °C 95 % 1018,9 hPa 0,0 mm 0,0 km/h (0 Bft) SW 215 ° 0 min 0,000 mm 0,0 UV-I 0 W/m² 5,0 °C 5,7 °C 0,0 km/h (0 Bft)
10.10.2017 05:16 5,7 °C 5,7 °C 95 % 1018,9 hPa 0,0 mm 0,0 km/h (0 Bft) SW 214 ° 0 min 0,000 mm 0,0 UV-I 0 W/m² 5,0 °C 5,7 °C 0,0 km/h (0 Bft)
10.10.2017 05:17 5,7 °C 5,7 °C 95 % 1018,9 hPa 0,0 mm 0,0 km/h (0 Bft) SW 215 ° 0 min 0,000 mm 0,0 UV-I 0 W/m² 5,0 °C 5,7 °C 0,0 km/h (0 Bft)
10.10.2017 05:18 5,7 °C 5,7 °C 95 % 1018,8 hPa 0,0 mm 0,0 km/h (0 Bft) SW 214 ° 0 min 0,000 mm 0,0 UV-I 0 W/m² 5,0 °C 5,7 °C 0,0 km/h (0 Bft)
10.10.2017 05:19 5,7 °C 5,7 °C 95 % 1018,9 hPa 0,0 mm 0,0 km/h (0 Bft) SW 215 ° 0 min 0,000 mm 0,0 UV-I 0 W/m² 5,0 °C 5,7 °C 0,0 km/h (0 Bft)
10.10.2017 05:20 5,7 °C 5,7 °C 95 % 1018,9 hPa 0,0 mm 0,0 km/h (0 Bft) SW 215 ° 0 min 0,000 mm 0,0 UV-I 0 W/m² 5,0 °C 5,7 °C 0,0 km/h (0 Bft)
10.10.2017 05:21 5,7 °C 5,7 °C 95 % 1018,8 hPa 0,0 mm 0,0 km/h (0 Bft) SW 214 ° 0 min 0,000 mm 0,0 UV-I 0 W/m² 5,0 °C 5,7 °C 0,0 km/h (0 Bft)
10.10.2017 05:22 5,7 °C 5,7 °C 95 % 1018,8 hPa 0,0 mm 0,0 km/h (0 Bft) SW 215 ° 0 min 0,000 mm 0,0 UV-I 0 W/m² 5,0 °C 5,7 °C 0,0 km/h (0 Bft)
10.10.2017 05:23 5,8 °C 5,8 °C 96 % 1018,8 hPa 0,0 mm 0,0 km/h (0 Bft) SW 215 ° 0 min 0,000 mm 0,0 UV-I 0 W/m² 5,2 °C 5,8 °C 0,0 km/h (0 Bft)
10.10.2017 05:24 5,8 °C 5,8 °C 96 % 1018,8 hPa 0,0 mm 0,0 km/h (0 Bft) SW 215 ° 0 min 0,000 mm 0,0 UV-I 0 W/m² 5,2 °C 5,8 °C 0,0 km/h (0 Bft)
10.10.2017 05:25 5,8 °C 5,8 °C 96 % 1018,8 hPa 0,0 mm 0,0 km/h (0 Bft) SW 215 ° 0 min 0,000 mm 0,0 UV-I 0 W/m² 5,2 °C 5,8 °C 0,0 km/h (0 Bft)
10.10.2017 05:26 5,9 °C 5,9 °C 96 % 1018,8 hPa 0,0 mm 0,0 km/h (0 Bft) SW 215 ° 0 min 0,000 mm 0,0 UV-I 0 W/m² 5,3 °C 5,9 °C 0,0 km/h (0 Bft)
10.10.2017 05:27 6,0 °C 6,0 °C 96 % 1018,8 hPa 0,0 mm 0,7 km/h (0 Bft) SW 214 ° 0 min 0,000 mm 0,0 UV-I 0 W/m² 5,4 °C 6,0 °C 3,2 km/h (1 Bft)
10.10.2017 05:28 6,1 °C 6,1 °C 96 % 1018,8 hPa 0,0 mm 1,4 km/h (1 Bft) SW 214 ° 0 min 0,000 mm 0,0 UV-I 0 W/m² 5,5 °C 6,1 °C 3,2 km/h (1 Bft)
10.10.2017 05:29 6,2 °C 6,2 °C 96 % 1018,8 hPa 0,0 mm 0,0 km/h (0 Bft) SW 215 ° 0 min 0,000 mm 0,0 UV-I 0 W/m² 5,6 °C 6,2 °C 0,0 km/h (0 Bft)
10.10.2017 05:30 6,2 °C 6,2 °C 96 % 1018,8 hPa 0,0 mm 0,0 km/h (0 Bft) SW 215 ° 0 min 0,000 mm 0,0 UV-I 0 W/m² 5,6 °C 6,2 °C 0,0 km/h (0 Bft)
10.10.2017 05:31 6,1 °C 6,2 °C 96 % 1018,8 hPa 0,0 mm 0,0 km/h (0 Bft) SW 215 ° 0 min 0,000 mm 0,0 UV-I 0 W/m² 5,5 °C 6,1 °C 0,0 km/h (0 Bft)
10.10.2017 05:32 6,1 °C 6,1 °C 95 % 1018,8 hPa 0,0 mm 0,0 km/h (0 Bft) SW 215 ° 0 min 0,000 mm 0,0 UV-I 0 W/m² 5,4 °C 6,1 °C 0,0 km/h (0 Bft)
10.10.2017 05:33 6,0 °C 6,1 °C 95 % 1018,8 hPa 0,0 mm 0,0 km/h (0 Bft) SW 215 ° 0 min 0,000 mm 0,0 UV-I 0 W/m² 5,3 °C 6,0 °C 0,0 km/h (0 Bft)
10.10.2017 05:34 5,9 °C 6,0 °C 95 % 1018,8 hPa 0,0 mm 0,0 km/h (0 Bft) SW 215 ° 0 min 0,000 mm 0,0 UV-I 0 W/m² 5,2 °C 5,9 °C 0,0 km/h (0 Bft)
10.10.2017 05:35 5,9 °C 5,9 °C 95 % 1018,8 hPa 0,0 mm 0,0 km/h (0 Bft) SW 215 ° 0 min 0,000 mm 0,0 UV-I 0 W/m² 5,2 °C 5,9 °C 0,0 km/h (0 Bft)
10.10.2017 05:36 5,9 °C 5,9 °C 95 % 1018,8 hPa 0,0 mm 0,0 km/h (0 Bft) SW 215 ° 0 min 0,000 mm 0,0 UV-I 0 W/m² 5,2 °C 5,9 °C 0,0 km/h (0 Bft)
10.10.2017 05:37 5,9 °C 5,9 °C 95 % 1018,8 hPa 0,0 mm 0,0 km/h (0 Bft) SW 215 ° 0 min 0,000 mm 0,0 UV-I 0 W/m² 5,2 °C 5,9 °C 0,0 km/h (0 Bft)
10.10.2017 05:38 5,9 °C 5,9 °C 95 % 1018,8 hPa 0,0 mm 0,0 km/h (0 Bft) SW 215 ° 0 min 0,000 mm 0,0 UV-I 0 W/m² 5,2 °C 5,9 °C 0,0 km/h (0 Bft)
10.10.2017 05:39 5,9 °C 5,9 °C 95 % 1018,8 hPa 0,0 mm 0,0 km/h (0 Bft) SW 215 ° 0 min 0,000 mm 0,0 UV-I 0 W/m² 5,2 °C 5,9 °C 0,0 km/h (0 Bft)
10.10.2017 05:40 5,9 °C 5,9 °C 95 % 1018,8 hPa 0,0 mm 0,0 km/h (0 Bft) SW 215 ° 0 min 0,000 mm 0,0 UV-I 0 W/m² 5,2 °C 5,9 °C 0,0 km/h (0 Bft)
10.10.2017 05:41 6,0 °C 6,0 °C 95 % 1018,8 hPa 0,0 mm 0,0 km/h (0 Bft) SW 215 ° 0 min 0,000 mm 0,0 UV-I 0 W/m² 5,3 °C 6,0 °C 0,0 km/h (0 Bft)
10.10.2017 05:42 6,1 °C 6,1 °C 95 % 1018,8 hPa 0,0 mm 0,0 km/h (0 Bft) SW 215 ° 0 min 0,000 mm 0,0 UV-I 0 W/m² 5,4 °C 6,1 °C 0,0 km/h (0 Bft)
10.10.2017 05:43 6,1 °C 6,1 °C 95 % 1018,9 hPa 0,0 mm 0,0 km/h (0 Bft) SW 215 ° 0 min 0,000 mm 0,0 UV-I 0 W/m² 5,4 °C 6,1 °C 0,0 km/h (0 Bft)
10.10.2017 05:44 6,1 °C 6,1 °C 96 % 1018,9 hPa 0,0 mm 0,5 km/h (0 Bft) SW 215 ° 0 min 0,000 mm 0,0 UV-I 0 W/m² 5,5 °C 6,1 °C 1,6 km/h (1 Bft)
10.10.2017 05:45 6,1 °C 6,1 °C 96 % 1018,9 hPa 0,0 mm 0,3 km/h (0 Bft) SW 215 ° 0 min 0,000 mm 0,0 UV-I 0 W/m² 5,5 °C 6,1 °C 1,6 km/h (1 Bft)
10.10.2017 05:46 6,1 °C 6,1 °C 96 % 1018,9 hPa 0,0 mm 0,0 km/h (0 Bft) SW 215 ° 0 min 0,000 mm 0,0 UV-I 0 W/m² 5,5 °C 6,1 °C 0,0 km/h (0 Bft)
10.10.2017 05:47 6,1 °C 6,1 °C 95 % 1018,9 hPa 0,0 mm 0,0 km/h (0 Bft) SW 215 ° 0 min 0,000 mm 0,0 UV-I 0 W/m² 5,4 °C 6,1 °C 0,0 km/h (0 Bft)
10.10.2017 05:48 5,9 °C 6,1 °C 95 % 1018,8 hPa 0,0 mm 0,0 km/h (0 Bft) SW 215 ° 0 min 0,000 mm 0,0 UV-I 0 W/m² 5,2 °C 5,9 °C 0,0 km/h (0 Bft)
10.10.2017 05:49 5,9 °C 5,9 °C 95 % 1018,9 hPa 0,0 mm 0,0 km/h (0 Bft) SW 215 ° 0 min 0,000 mm 0,0 UV-I 0 W/m² 5,2 °C 5,9 °C 0,0 km/h (0 Bft)
10.10.2017 05:50 5,9 °C 5,9 °C 95 % 1018,9 hPa 0,0 mm 0,0 km/h (0 Bft) SW 215 ° 0 min 0,000 mm 0,0 UV-I 0 W/m² 5,2 °C 5,9 °C 0,0 km/h (0 Bft)
10.10.2017 05:51 5,9 °C 5,9 °C 95 % 1018,9 hPa 0,0 mm 0,0 km/h (0 Bft) SW 215 ° 0 min 0,000 mm 0,0 UV-I 0 W/m² 5,2 °C 5,9 °C 0,0 km/h (0 Bft)
10.10.2017 05:52 5,9 °C 5,9 °C 95 % 1018,9 hPa 0,0 mm 0,0 km/h (0 Bft) SW 215 ° 0 min 0,000 mm 0,0 UV-I 0 W/m² 5,2 °C 5,9 °C 0,0 km/h (0 Bft)
10.10.2017 05:53 6,0 °C 6,0 °C 95 % 1018,8 hPa 0,0 mm 0,0 km/h (0 Bft) SW 215 ° 0 min 0,000 mm 0,0 UV-I 0 W/m² 5,3 °C 6,0 °C 0,0 km/h (0 Bft)
10.10.2017 05:54 6,1 °C 6,1 °C 95 % 1018,9 hPa 0,0 mm 0,1 km/h (0 Bft) SW 215 ° 0 min 0,000 mm 0,0 UV-I 0 W/m² 5,4 °C 6,1 °C 1,6 km/h (1 Bft)
10.10.2017 05:55 6,1 °C 6,1 °C 96 % 1018,9 hPa 0,0 mm 0,1 km/h (0 Bft) SW 215 ° 0 min 0,000 mm 0,0 UV-I 0 W/m² 5,5 °C 6,1 °C 1,6 km/h (1 Bft)
10.10.2017 05:56 6,1 °C 6,2 °C 96 % 1018,8 hPa 0,0 mm 0,2 km/h (0 Bft) SW 215 ° 0 min 0,000 mm 0,0 UV-I 0 W/m² 5,5 °C 6,1 °C 1,6 km/h (1 Bft)
10.10.2017 05:57 6,2 °C 6,2 °C 96 % 1018,8 hPa 0,0 mm 0,5 km/h (0 Bft) SW 215 ° 0 min 0,000 mm 0,0 UV-I 0 W/m² 5,6 °C 6,2 °C 3,2 km/h (1 Bft)
10.10.2017 05:58 6,2 °C 6,2 °C 96 % 1018,9 hPa 0,0 mm 0,8 km/h (0 Bft) SW 215 ° 0 min 0,000 mm 0,0 UV-I 0 W/m² 5,6 °C 6,2 °C 3,2 km/h (1 Bft)
10.10.2017 05:59 6,2 °C 6,2 °C 96 % 1018,9 hPa 0,0 mm 0,0 km/h (0 Bft) SW 215 ° 0 min 0,000 mm 0,0 UV-I 0 W/m² 5,6 °C 6,2 °C 0,0 km/h (0 Bft)
10.10.2017 06:00 6,2 °C 6,2 °C 96 % 1018,9 hPa 0,0 mm 0,0 km/h (0 Bft) SW 215 ° 0 min 0,000 mm 0,0 UV-I 0 W/m² 5,6 °C 6,2 °C 0,0 km/h (0 Bft)
10.10.2017 06:01 6,2 °C 6,3 °C 96 % 1018,9 hPa 0,0 mm 0,0 km/h (0 Bft) SW 215 ° 0 min 0,000 mm 0,0 UV-I 0 W/m² 5,6 °C 6,2 °C 0,0 km/h (0 Bft)
10.10.2017 06:02 6,2 °C 6,2 °C 96 % 1018,9 hPa 0,0 mm 1,2 km/h (1 Bft) SW 215 ° 0 min 0,000 mm 0,0 UV-I 0 W/m² 5,6 °C 6,2 °C 3,2 km/h (1 Bft)
10.10.2017 06:03 6,2 °C 6,2 °C 96 % 1018,9 hPa 0,0 mm 2,0 km/h (1 Bft) SW 214 ° 0 min 0,000 mm 0,0 UV-I 0 W/m² 5,6 °C 6,2 °C 4,8 km/h (1 Bft)
10.10.2017 06:04 6,2 °C 6,2 °C 95 % 1018,9 hPa 0,0 mm 1,8 km/h (1 Bft) SW 214 ° 0 min 0,000 mm 0,0 UV-I 0 W/m² 5,5 °C 6,2 °C 3,2 km/h (1 Bft)
10.10.2017 06:05 6,3 °C 6,3 °C 95 % 1018,9 hPa 0,0 mm 0,5 km/h (0 Bft) SW 215 ° 0 min 0,000 mm 0,0 UV-I 0 W/m² 5,6 °C 6,3 °C 1,6 km/h (1 Bft)
10.10.2017 06:06 6,3 °C 6,3 °C 95 % 1018,9 hPa 0,0 mm 0,0 km/h (0 Bft) SW 215 ° 0 min 0,000 mm 0,0 UV-I 0 W/m² 5,6 °C 6,3 °C 0,0 km/h (0 Bft)
10.10.2017 06:07 6,3 °C 6,3 °C 95 % 1018,9 hPa 0,0 mm 0,0 km/h (0 Bft) SW 215 ° 0 min 0,000 mm 0,0 UV-I 0 W/m² 5,6 °C 6,3 °C 0,0 km/h (0 Bft)
10.10.2017 06:08 6,3 °C 6,3 °C 95 % 1018,9 hPa 0,0 mm 0,0 km/h (0 Bft) SW 215 ° 0 min 0,000 mm 0,0 UV-I 0 W/m² 5,6 °C 6,3 °C 0,0 km/h (0 Bft)
10.10.2017 06:09 6,3 °C 6,3 °C 95 % 1018,9 hPa 0,0 mm 2,6 km/h (1 Bft) SW 214 ° 0 min 0,000 mm 0,0 UV-I 0 W/m² 5,6 °C 6,3 °C 4,8 km/h (1 Bft)
10.10.2017 06:10 6,3 °C 6,3 °C 95 % 1018,9 hPa 0,0 mm 2,5 km/h (1 Bft) SW 215 ° 0 min 0,000 mm 0,0 UV-I 0 W/m² 5,6 °C 6,3 °C 3,2 km/h (1 Bft)
10.10.2017 06:11 6,4 °C 6,4 °C 95 % 1018,9 hPa 0,0 mm 2,3 km/h (1 Bft) SW 214 ° 0 min 0,000 mm 0,0 UV-I 0 W/m² 5,7 °C 6,4 °C 3,2 km/h (1 Bft)
10.10.2017 06:12 6,4 °C 6,4 °C 95 % 1018,9 hPa 0,0 mm 1,0 km/h (0 Bft) SW 214 ° 0 min 0,000 mm 0,0 UV-I 0 W/m² 5,7 °C 6,4 °C 1,6 km/h (1 Bft)
10.10.2017 06:13 6,4 °C 6,4 °C 95 % 1018,8 hPa 0,0 mm 2,8 km/h (1 Bft) SW 214 ° 0 min 0,000 mm 0,0 UV-I 0 W/m² 5,7 °C 6,4 °C 4,8 km/h (1 Bft)
10.10.2017 06:14 6,4 °C 6,4 °C 95 % 1018,9 hPa 0,0 mm 2,3 km/h (1 Bft) SW 214 ° 0 min 0,000 mm 0,0 UV-I 0 W/m² 5,7 °C 6,4 °C 4,8 km/h (1 Bft)
10.10.2017 06:15 6,4 °C 6,4 °C 95 % 1018,8 hPa 0,0 mm 1,2 km/h (1 Bft) SW 214 ° 0 min 0,000 mm 0,0 UV-I 0 W/m² 5,7 °C 6,4 °C 1,6 km/h (1 Bft)
10.10.2017 06:16 6,4 °C 6,4 °C 95 % 1018,8 hPa 0,0 mm 0,4 km/h (0 Bft) SW 214 ° 0 min 0,000 mm 0,0 UV-I 0 W/m² 5,7 °C 6,4 °C 1,6 km/h (1 Bft)
10.10.2017 06:17 6,4 °C 6,5 °C 95 % 1018,8 hPa 0,0 mm 1,2 km/h (1 Bft) SW 214 ° 0 min 0,000 mm 0,0 UV-I 0 W/m² 5,7 °C 6,4 °C 1,6 km/h (1 Bft)
10.10.2017 06:18 6,5 °C 6,5 °C 95 % 1018,8 hPa 0,0 mm 1,3 km/h (1 Bft) SW 214 ° 0 min 0,000 mm 0,0 UV-I 0 W/m² 5,8 °C 6,5 °C 1,6 km/h (1 Bft)
10.10.2017 06:19 6,5 °C 6,5 °C 95 % 1018,8 hPa 0,0 mm 0,8 km/h (0 Bft) SW 214 ° 0 min 0,000 mm 0,0 UV-I 0 W/m² 5,8 °C 6,5 °C 1,6 km/h (1 Bft)
10.10.2017 06:20 6,5 °C 6,5 °C 95 % 1018,8 hPa 0,0 mm 0,1 km/h (0 Bft) SW 214 ° 0 min 0,000 mm 0,0 UV-I 0 W/m² 5,8 °C 6,5 °C 1,6 km/h (1 Bft)
10.10.2017 06:21 6,5 °C 6,5 °C 95 % 1018,7 hPa 0,0 mm 0,0 km/h (0 Bft) SW 214 ° 0 min 0,000 mm 0,0 UV-I 0 W/m² 5,8 °C 6,5 °C 0,0 km/h (0 Bft)
10.10.2017 06:22 6,5 °C 6,5 °C 95 % 1018,7 hPa 0,0 mm 0,0 km/h (0 Bft) SW 214 ° 0 min 0,000 mm 0,0 UV-I 0 W/m² 5,8 °C 6,5 °C 0,0 km/h (0 Bft)
10.10.2017 06:23 6,5 °C 6,5 °C 95 % 1018,8 hPa 0,0 mm 0,0 km/h (0 Bft) SW 214 ° 0 min 0,000 mm 0,0 UV-I 0 W/m² 5,8 °C 6,5 °C 0,0 km/h (0 Bft)
10.10.2017 06:24 6,5 °C 6,5 °C 95 % 1018,8 hPa 0,0 mm 0,0 km/h (0 Bft) SW 214 ° 0 min 0,000 mm 0,0 UV-I 0 W/m² 5,8 °C 6,5 °C 0,0 km/h (0 Bft)
10.10.2017 06:25 6,5 °C 6,5 °C 95 % 1018,8 hPa 0,0 mm 0,0 km/h (0 Bft) SW 214 ° 0 min 0,000 mm 0,0 UV-I 0 W/m² 5,8 °C 6,5 °C 0,0 km/h (0 Bft)
10.10.2017 06:26 6,5 °C 6,5 °C 95 % 1018,8 hPa 0,0 mm 0,0 km/h (0 Bft) SW 214 ° 0 min 0,000 mm 0,0 UV-I 0 W/m² 5,8 °C 6,5 °C 0,0 km/h (0 Bft)
10.10.2017 06:27 6,4 °C 6,5 °C 95 % 1018,7 hPa 0,0 mm 0,0 km/h (0 Bft) SW 215 ° 0 min 0,000 mm 0,0 UV-I 0 W/m² 5,7 °C 6,4 °C 0,0 km/h (0 Bft)
10.10.2017 06:28 6,4 °C 6,4 °C 94 % 1018,8 hPa 0,0 mm 0,0 km/h (0 Bft) SW 214 ° 0 min 0,000 mm 0,0 UV-I 0 W/m² 5,5 °C 6,4 °C 0,0 km/h (0 Bft)
10.10.2017 06:29 6,4 °C 6,4 °C 94 % 1018,8 hPa 0,0 mm 0,0 km/h (0 Bft) SW 214 ° 0 min 0,000 mm 0,0 UV-I 0 W/m² 5,5 °C 6,4 °C 0,0 km/h (0 Bft)
10.10.2017 06:30 6,3 °C 6,4 °C 94 % 1018,8 hPa 0,0 mm 0,0 km/h (0 Bft) SW 214 ° 0 min 0,000 mm 0,0 UV-I 0 W/m² 5,4 °C 6,3 °C 0,0 km/h (0 Bft)
10.10.2017 06:31 6,3 °C 6,4 °C 94 % 1018,8 hPa 0,0 mm 0,0 km/h (0 Bft) SW 214 ° 0 min 0,000 mm 0,0 UV-I 0 W/m² 5,4 °C 6,3 °C 0,0 km/h (0 Bft)
10.10.2017 06:32 6,4 °C 6,4 °C 95 % 1018,9 hPa 0,0 mm 0,0 km/h (0 Bft) SW 214 ° 0 min 0,000 mm 0,0 UV-I 0 W/m² 5,7 °C 6,4 °C 0,0 km/h (0 Bft)
10.10.2017 06:33 6,4 °C 6,4 °C 95 % 1018,9 hPa 0,0 mm 2,1 km/h (1 Bft) SW 214 ° 0 min 0,000 mm 0,0 UV-I 0 W/m² 5,7 °C 6,4 °C 3,2 km/h (1 Bft)
10.10.2017 06:34 6,4 °C 6,4 °C 95 % 1018,9 hPa 0,0 mm 1,7 km/h (1 Bft) SW 214 ° 0 min 0,000 mm 0,0 UV-I 0 W/m² 5,7 °C 6,4 °C 3,2 km/h (1 Bft)
10.10.2017 06:35 6,4 °C 6,4 °C 95 % 1018,9 hPa 0,0 mm 1,5 km/h (1 Bft) SW 215 ° 0 min 0,000 mm 0,0 UV-I 0 W/m² 5,7 °C 6,4 °C 3,2 km/h (1 Bft)
10.10.2017 06:36 6,4 °C 6,4 °C 94 % 1018,9 hPa 0,0 mm 2,1 km/h (1 Bft) SW 214 ° 0 min 0,000 mm 0,0 UV-I 0 W/m² 5,5 °C 6,4 °C 3,2 km/h (1 Bft)
10.10.2017 06:37 6,4 °C 6,4 °C 94 % 1018,9 hPa 0,0 mm 1,0 km/h (0 Bft) SW 214 ° 0 min 0,000 mm 0,0 UV-I 0 W/m² 5,5 °C 6,4 °C 3,2 km/h (1 Bft)
10.10.2017 06:38 6,4 °C 6,4 °C 95 % 1018,9 hPa 0,0 mm 0,1 km/h (0 Bft) SW 214 ° 0 min 0,000 mm 0,0 UV-I 0 W/m² 5,7 °C 6,4 °C 1,6 km/h (1 Bft)
10.10.2017 06:39 6,5 °C 6,5 °C 95 % 1018,9 hPa 0,0 mm 0,0 km/h (0 Bft) SW 214 ° 0 min 0,000 mm 0,0 UV-I 0 W/m² 5,8 °C 6,5 °C 0,0 km/h (0 Bft)
10.10.2017 06:40 6,5 °C 6,5 °C 95 % 1018,9 hPa 0,0 mm 0,3 km/h (0 Bft) SW 215 ° 0 min 0,000 mm 0,0 UV-I 0 W/m² 5,8 °C 6,5 °C 3,2 km/h (1 Bft)
10.10.2017 06:41 6,6 °C 6,6 °C 95 % 1018,9 hPa 0,0 mm 5,2 km/h (1 Bft) S-SW 203 ° 0 min 0,000 mm 0,0 UV-I 0 W/m² 5,9 °C 5,8 °C 8,0 km/h (2 Bft)
10.10.2017 06:42 6,5 °C 6,6 °C 94 % 1018,9 hPa 0,0 mm 4,2 km/h (1 Bft) S-SW 203 ° 0 min 0,000 mm 0,0 UV-I 0 W/m² 5,6 °C 6,5 °C 6,4 km/h (2 Bft)
10.10.2017 06:43 6,6 °C 6,6 °C 94 % 1018,9 hPa 0,0 mm 2,1 km/h (1 Bft) S-SW 203 ° 0 min 0,000 mm 0,0 UV-I 0 W/m² 5,7 °C 6,6 °C 3,2 km/h (1 Bft)
10.10.2017 06:44 6,6 °C 6,6 °C 94 % 1018,8 hPa 0,0 mm 2,4 km/h (1 Bft) S-SW 203 ° 0 min 0,000 mm 0,0 UV-I 0 W/m² 5,7 °C 6,6 °C 4,8 km/h (1 Bft)
10.10.2017 06:45 6,6 °C 6,6 °C 94 % 1018,8 hPa 0,0 mm 2,1 km/h (1 Bft) S-SW 203 ° 0 min 0,000 mm 0,0 UV-I 0 W/m² 5,7 °C 6,6 °C 3,2 km/h (1 Bft)
10.10.2017 06:46 6,6 °C 6,6 °C 94 % 1018,9 hPa 0,0 mm 1,5 km/h (1 Bft) S-SW 203 ° 0 min 0,000 mm 0,0 UV-I 0 W/m² 5,7 °C 6,6 °C 3,2 km/h (1 Bft)
10.10.2017 06:47 6,6 °C 6,6 °C 94 % 1018,8 hPa 0,0 mm 1,8 km/h (1 Bft) S-SW 203 ° 0 min 0,000 mm 0,0 UV-I 0 W/m² 5,7 °C 6,6 °C 3,2 km/h (1 Bft)
10.10.2017 06:48 6,6 °C 6,6 °C 94 % 1018,8 hPa 0,0 mm 0,9 km/h (0 Bft) S-SW 203 ° 0 min 0,000 mm 0,0 UV-I 0 W/m² 5,7 °C 6,6 °C 1,6 km/h (1 Bft)
10.10.2017 06:49 6,6 °C 6,6 °C 94 % 1018,9 hPa 0,0 mm 0,0 km/h (0 Bft) S-SW 203 ° 0 min 0,000 mm 0,0 UV-I 0 W/m² 5,7 °C 6,6 °C 0,0 km/h (0 Bft)
10.10.2017 06:50 6,6 °C 6,6 °C 94 % 1018,9 hPa 0,0 mm 0,0 km/h (0 Bft) S-SW 203 ° 0 min 0,000 mm 0,0 UV-I 0 W/m² 5,7 °C 6,6 °C 0,0 km/h (0 Bft)
10.10.2017 06:51 6,6 °C 6,6 °C 94 % 1018,8 hPa 0,0 mm 0,4 km/h (0 Bft) S-SW 203 ° 0 min 0,000 mm 0,0 UV-I 0 W/m² 5,7 °C 6,6 °C 1,6 km/h (1 Bft)
10.10.2017 06:52 6,6 °C 6,6 °C 94 % 1018,9 hPa 0,0 mm 0,1 km/h (0 Bft) S-SW 203 ° 0 min 0,000 mm 0,0 UV-I 0 W/m² 5,7 °C 6,6 °C 1,6 km/h (1 Bft)
10.10.2017 06:53 6,5 °C 6,6 °C 94 % 1018,9 hPa 0,0 mm 0,0 km/h (0 Bft) S-SW 203 ° 0 min 0,000 mm 0,0 UV-I 0 W/m² 5,6 °C 6,5 °C 0,0 km/h (0 Bft)
10.10.2017 06:54 6,5 °C 6,5 °C 94 % 1018,8 hPa 0,0 mm 0,0 km/h (0 Bft) S-SW 203 ° 0 min 0,000 mm 0,0 UV-I 0 W/m² 5,6 °C 6,5 °C 0,0 km/h (0 Bft)
10.10.2017 06:55 6,5 °C 6,5 °C 94 % 1018,9 hPa 0,0 mm 0,0 km/h (0 Bft) S-SW 203 ° 0 min 0,000 mm 0,0 UV-I 0 W/m² 5,6 °C 6,5 °C 0,0 km/h (0 Bft)
10.10.2017 06:56 6,5 °C 6,5 °C 94 % 1018,9 hPa 0,0 mm 0,0 km/h (0 Bft) S-SW 203 ° 0 min 0,000 mm 0,0 UV-I 0 W/m² 5,6 °C 6,5 °C 0,0 km/h (0 Bft)
10.10.2017 06:57 6,4 °C 6,5 °C 94 % 1018,9 hPa 0,0 mm 0,0 km/h (0 Bft) S-SW 203 ° 0 min 0,000 mm 0,0 UV-I 0 W/m² 5,5 °C 6,4 °C 0,0 km/h (0 Bft)
10.10.2017 06:58 6,4 °C 6,4 °C 94 % 1018,9 hPa 0,0 mm 0,0 km/h (0 Bft) S-SW 203 ° 0 min 0,000 mm 0,0 UV-I 0 W/m² 5,5 °C 6,4 °C 0,0 km/h (0 Bft)
10.10.2017 06:59 6,4 °C 6,4 °C 94 % 1019,0 hPa 0,0 mm 0,0 km/h (0 Bft) S-SW 203 ° 0 min 0,000 mm 0,0 UV-I 0 W/m² 5,5 °C 6,4 °C 0,0 km/h (0 Bft)
10.10.2017 07:00 6,4 °C 6,4 °C 94 % 1018,9 hPa 0,0 mm 0,0 km/h (0 Bft) S-SW 203 ° 0 min 0,000 mm 0,0 UV-I 0 W/m² 5,5 °C 6,4 °C 0,0 km/h (0 Bft)
10.10.2017 07:01 6,4 °C 6,4 °C 94 % 1018,9 hPa 0,0 mm 0,0 km/h (0 Bft) S-SW 203 ° 0 min 0,000 mm 0,0 UV-I 0 W/m² 5,5 °C 6,4 °C 0,0 km/h (0 Bft)
10.10.2017 07:02 6,4 °C 6,4 °C 94 % 1018,9 hPa 0,2 mm 0,0 km/h (0 Bft) S-SW 203 ° 0 min 0,000 mm 0,0 UV-I 0 W/m² 5,5 °C 6,4 °C 0,0 km/h (0 Bft)
10.10.2017 07:03 6,5 °C 6,5 °C 94 % 1018,9 hPa 0,0 mm 0,0 km/h (0 Bft) S-SW 203 ° 0 min 0,000 mm 0,0 UV-I 0 W/m² 5,6 °C 6,5 °C 0,0 km/h (0 Bft)
10.10.2017 07:04 6,5 °C 6,5 °C 94 % 1018,9 hPa 0,0 mm 0,0 km/h (0 Bft) S-SW 203 ° 0 min 0,000 mm 0,0 UV-I 0 W/m² 5,6 °C 6,5 °C 0,0 km/h (0 Bft)
10.10.2017 07:05 6,5 °C 6,5 °C 94 % 1018,9 hPa 0,0 mm 0,0 km/h (0 Bft) S-SW 203 ° 0 min 0,000 mm 0,0 UV-I 0 W/m² 5,6 °C 6,5 °C 0,0 km/h (0 Bft)
10.10.2017 07:06 6,4 °C 6,5 °C 94 % 1018,9 hPa 0,0 mm 0,0 km/h (0 Bft) S-SW 203 ° 0 min 0,000 mm 0,0 UV-I 0 W/m² 5,5 °C 6,4 °C 0,0 km/h (0 Bft)
10.10.2017 07:07 6,4 °C 6,4 °C 94 % 1018,9 hPa 0,0 mm 0,0 km/h (0 Bft) S-SW 203 ° 0 min 0,000 mm 0,0 UV-I 0 W/m² 5,5 °C 6,4 °C 0,0 km/h (0 Bft)
10.10.2017 07:08 6,4 °C 6,4 °C 94 % 1019,0 hPa 0,0 mm 0,0 km/h (0 Bft) S-SW 203 ° 0 min 0,000 mm 0,0 UV-I 0 W/m² 5,5 °C 6,4 °C 0,0 km/h (0 Bft)
10.10.2017 07:09 6,4 °C 6,4 °C 94 % 1019,0 hPa 0,0 mm 0,0 km/h (0 Bft) S-SW 203 ° 0 min 0,000 mm 0,0 UV-I 0 W/m² 5,5 °C 6,4 °C 0,0 km/h (0 Bft)
10.10.2017 07:10 6,4 °C 6,4 °C 94 % 1019,0 hPa 0,0 mm 0,0 km/h (0 Bft) S-SW 203 ° 0 min 0,000 mm 0,0 UV-I 0 W/m² 5,5 °C 6,4 °C 0,0 km/h (0 Bft)
10.10.2017 07:11 6,4 °C 6,4 °C 94 % 1019,0 hPa 0,0 mm 0,0 km/h (0 Bft) S-SW 203 ° 0 min 0,000 mm 0,0 UV-I 0 W/m² 5,5 °C 6,4 °C 0,0 km/h (0 Bft)
10.10.2017 07:12 6,4 °C 6,4 °C 94 % 1019,0 hPa 0,0 mm 0,0 km/h (0 Bft) S-SW 203 ° 0 min 0,000 mm 0,0 UV-I 0 W/m² 5,5 °C 6,4 °C 0,0 km/h (0 Bft)
10.10.2017 07:13 6,4 °C 6,4 °C 94 % 1019,0 hPa 0,0 mm 0,0 km/h (0 Bft) S-SW 203 ° 0 min 0,000 mm 0,0 UV-I 0 W/m² 5,5 °C 6,4 °C 0,0 km/h (0 Bft)
10.10.2017 07:14 6,4 °C 6,4 °C 94 % 1018,9 hPa 0,0 mm 0,0 km/h (0 Bft) S-SW 203 ° 0 min 0,000 mm 0,0 UV-I 0 W/m² 5,5 °C 6,4 °C 0,0 km/h (0 Bft)
10.10.2017 07:15 6,4 °C 6,4 °C 94 % 1018,9 hPa 0,0 mm 0,0 km/h (0 Bft) S-SW 203 ° 0 min 0,000 mm 0,0 UV-I 0 W/m² 5,5 °C 6,4 °C 0,0 km/h (0 Bft)
10.10.2017 07:16 6,4 °C 6,4 °C 94 % 1019,0 hPa 0,0 mm 0,0 km/h (0 Bft) S-SW 203 ° 0 min 0,000 mm 0,0 UV-I 0 W/m² 5,5 °C 6,4 °C 0,0 km/h (0 Bft)
10.10.2017 07:17 6,4 °C 6,4 °C 94 % 1019,0 hPa 0,0 mm 0,0 km/h (0 Bft) S-SW 203 ° 0 min 0,000 mm 0,0 UV-I 0 W/m² 5,5 °C 6,4 °C 0,0 km/h (0 Bft)
10.10.2017 07:18 6,4 °C 6,4 °C 94 % 1019,0 hPa 0,0 mm 0,0 km/h (0 Bft) S-SW 203 ° 0 min 0,000 mm 0,0 UV-I 0 W/m² 5,5 °C 6,4 °C 0,0 km/h (0 Bft)
10.10.2017 07:19 6,3 °C 6,4 °C 94 % 1019,0 hPa 0,0 mm 0,0 km/h (0 Bft) S-SW 203 ° 0 min 0,000 mm 0,0 UV-I 0 W/m² 5,4 °C 6,3 °C 0,0 km/h (0 Bft)
10.10.2017 07:20 6,3 °C 6,3 °C 94 % 1019,0 hPa 0,0 mm 1,7 km/h (1 Bft) S-SW 203 ° 0 min 0,000 mm 0,0 UV-I 0 W/m² 5,4 °C 6,3 °C 3,2 km/h (1 Bft)
10.10.2017 07:21 6,3 °C 6,3 °C 94 % 1019,0 hPa 0,0 mm 2,3 km/h (1 Bft) S-SW 203 ° 0 min 0,000 mm 0,0 UV-I 0 W/m² 5,4 °C 6,3 °C 4,8 km/h (1 Bft)
10.10.2017 07:22 6,3 °C 6,3 °C 94 % 1019,1 hPa 0,0 mm 0,1 km/h (0 Bft) S-SW 203 ° 0 min 0,000 mm 0,0 UV-I 0 W/m² 5,4 °C 6,3 °C 1,6 km/h (1 Bft)
10.10.2017 07:23 6,3 °C 6,3 °C 94 % 1019,1 hPa 0,0 mm 0,9 km/h (0 Bft) S-SW 203 ° 0 min 0,000 mm 0,0 UV-I 0 W/m² 5,4 °C 6,3 °C 1,6 km/h (1 Bft)
10.10.2017 07:24 6,3 °C 6,3 °C 94 % 1019,0 hPa 0,0 mm 1,3 km/h (1 Bft) S-SW 203 ° 0 min 0,000 mm 0,0 UV-I 0 W/m² 5,4 °C 6,3 °C 3,2 km/h (1 Bft)
10.10.2017 07:25 6,3 °C 6,3 °C 94 % 1019,0 hPa 0,0 mm 0,0 km/h (0 Bft) S-SW 203 ° 0 min 0,000 mm 0,0 UV-I 0 W/m² 5,4 °C 6,3 °C 0,0 km/h (0 Bft)
10.10.2017 07:26 6,3 °C 6,3 °C 94 % 1019,0 hPa 0,0 mm 0,0 km/h (0 Bft) S-SW 203 ° 0 min 0,000 mm 0,0 UV-I 0 W/m² 5,4 °C 6,3 °C 0,0 km/h (0 Bft)
10.10.2017 07:27 6,3 °C 6,3 °C 94 % 1019,0 hPa 0,0 mm 0,0 km/h (0 Bft) S-SW 203 ° 0 min 0,000 mm 0,0 UV-I 0 W/m² 5,4 °C 6,3 °C 0,0 km/h (0 Bft)
10.10.2017 07:28 6,3 °C 6,3 °C 94 % 1019,0 hPa 0,0 mm 0,0 km/h (0 Bft) S-SW 203 ° 0 min 0,000 mm 0,0 UV-I 0 W/m² 5,4 °C 6,3 °C 0,0 km/h (0 Bft)
10.10.2017 07:29 6,3 °C 6,3 °C 94 % 1019,0 hPa 0,0 mm 0,0 km/h (0 Bft) S-SW 203 ° 0 min 0,000 mm 0,0 UV-I 0 W/m² 5,4 °C 6,3 °C 0,0 km/h (0 Bft)
10.10.2017 07:30 6,2 °C 6,3 °C 94 % 1019,0 hPa 0,0 mm 0,0 km/h (0 Bft) S-SW 203 ° 0 min 0,000 mm 0,0 UV-I 0 W/m² 5,3 °C 6,2 °C 0,0 km/h (0 Bft)
10.10.2017 07:31 6,2 °C 6,2 °C 94 % 1019,1 hPa 0,0 mm 0,0 km/h (0 Bft) S-SW 203 ° 0 min 0,000 mm 0,0 UV-I 0 W/m² 5,3 °C 6,2 °C 0,0 km/h (0 Bft)
10.10.2017 07:32 6,2 °C 6,2 °C 94 % 1019,0 hPa 0,0 mm 0,0 km/h (0 Bft) S-SW 203 ° 0 min 0,000 mm 0,0 UV-I 0 W/m² 5,3 °C 6,2 °C 0,0 km/h (0 Bft)
10.10.2017 07:33 6,2 °C 6,2 °C 94 % 1019,0 hPa 0,0 mm 0,0 km/h (0 Bft) S-SW 203 ° 0 min 0,000 mm 0,0 UV-I 0 W/m² 5,3 °C 6,2 °C 0,0 km/h (0 Bft)
10.10.2017 07:34 6,2 °C 6,2 °C 94 % 1019,1 hPa 0,0 mm 0,0 km/h (0 Bft) S-SW 203 ° 0 min 0,000 mm 0,0 UV-I 0 W/m² 5,3 °C 6,2 °C 0,0 km/h (0 Bft)
10.10.2017 07:35 6,1 °C 6,2 °C 94 % 1019,1 hPa 0,0 mm 0,0 km/h (0 Bft) S-SW 203 ° 0 min 0,000 mm 0,0 UV-I 5 W/m² 5,2 °C 6,1 °C 0,0 km/h (0 Bft)
10.10.2017 07:36 6,1 °C 6,1 °C 94 % 1019,1 hPa 0,0 mm 0,0 km/h (0 Bft) S-SW 203 ° 0 min 0,000 mm 0,0 UV-I 5 W/m² 5,2 °C 6,1 °C 0,0 km/h (0 Bft)
10.10.2017 07:37 6,1 °C 6,1 °C 94 % 1019,1 hPa 0,0 mm 0,0 km/h (0 Bft) S-SW 203 ° 0 min 0,000 mm 0,0 UV-I 7 W/m² 5,2 °C 6,1 °C 0,0 km/h (0 Bft)
10.10.2017 07:38 6,1 °C 6,1 °C 94 % 1019,1 hPa 0,0 mm 0,0 km/h (0 Bft) S-SW 203 ° 0 min 0,000 mm 0,0 UV-I 7 W/m² 5,2 °C 6,1 °C 0,0 km/h (0 Bft)
10.10.2017 07:39 6,0 °C 6,1 °C 94 % 1019,1 hPa 0,0 mm 0,0 km/h (0 Bft) S-SW 203 ° 0 min 0,000 mm 0,0 UV-I 7 W/m² 5,1 °C 6,0 °C 0,0 km/h (0 Bft)
10.10.2017 07:40 6,0 °C 6,0 °C 94 % 1019,1 hPa 0,0 mm 0,0 km/h (0 Bft) S-SW 203 ° 0 min 0,000 mm 0,0 UV-I 7 W/m² 5,1 °C 6,0 °C 0,0 km/h (0 Bft)
10.10.2017 07:41 5,9 °C 6,0 °C 94 % 1019,1 hPa 0,0 mm 0,0 km/h (0 Bft) S-SW 203 ° 0 min 0,000 mm 0,0 UV-I 11 W/m² 5,0 °C 5,9 °C 0,0 km/h (0 Bft)
10.10.2017 07:42 5,9 °C 5,9 °C 94 % 1019,1 hPa 0,0 mm 0,0 km/h (0 Bft) S-SW 203 ° 0 min 0,000 mm 0,0 UV-I 12 W/m² 5,0 °C 5,9 °C 0,0 km/h (0 Bft)
10.10.2017 07:43 5,8 °C 5,9 °C 94 % 1019,1 hPa 0,0 mm 0,0 km/h (0 Bft) S-SW 203 ° 0 min 0,000 mm 0,0 UV-I 12 W/m² 4,9 °C 5,8 °C 0,0 km/h (0 Bft)
10.10.2017 07:44 5,8 °C 5,9 °C 94 % 1019,1 hPa 0,0 mm 0,0 km/h (0 Bft) S-SW 203 ° 0 min 0,000 mm 0,0 UV-I 12 W/m² 4,9 °C 5,8 °C 0,0 km/h (0 Bft)
10.10.2017 07:45 5,8 °C 5,9 °C 94 % 1019,1 hPa 0,0 mm 0,0 km/h (0 Bft) S-SW 203 ° 0 min 0,000 mm 0,0 UV-I 14 W/m² 4,9 °C 5,8 °C 0,0 km/h (0 Bft)
10.10.2017 07:46 5,9 °C 5,9 °C 95 % 1019,0 hPa 0,0 mm 0,0 km/h (0 Bft) S-SW 203 ° 0 min 0,000 mm 0,0 UV-I 12 W/m² 5,2 °C 5,9 °C 0,0 km/h (0 Bft)
10.10.2017 07:47 5,9 °C 5,9 °C 95 % 1019,0 hPa 0,0 mm 0,0 km/h (0 Bft) S-SW 203 ° 0 min 0,000 mm 0,0 UV-I 11 W/m² 5,2 °C 5,9 °C 0,0 km/h (0 Bft)
10.10.2017 07:48 5,9 °C 5,9 °C 95 % 1019,0 hPa 0,0 mm 0,0 km/h (0 Bft) S-SW 203 ° 0 min 0,000 mm 0,0 UV-I 11 W/m² 5,2 °C 5,9 °C 0,0 km/h (0 Bft)
10.10.2017 07:49 5,9 °C 5,9 °C 95 % 1019,0 hPa 0,0 mm 0,0 km/h (0 Bft) S-SW 203 ° 0 min 0,000 mm 0,0 UV-I 11 W/m² 5,2 °C 5,9 °C 0,0 km/h (0 Bft)
10.10.2017 07:50 6,1 °C 6,1 °C 95 % 1019,1 hPa 0,0 mm 0,0 km/h (0 Bft) S-SW 203 ° 0 min 0,000 mm 0,0 UV-I 9 W/m² 5,4 °C 6,1 °C 0,0 km/h (0 Bft)
10.10.2017 07:51 6,1 °C 6,1 °C 95 % 1019,0 hPa 0,0 mm 0,0 km/h (0 Bft) S-SW 203 ° 0 min 0,000 mm 0,0 UV-I 9 W/m² 5,4 °C 6,1 °C 0,0 km/h (0 Bft)
10.10.2017 07:52 6,2 °C 6,2 °C 95 % 1019,0 hPa 0,0 mm 0,0 km/h (0 Bft) S-SW 203 ° 0 min 0,000 mm 0,0 UV-I 9 W/m² 5,5 °C 6,2 °C 0,0 km/h (0 Bft)
10.10.2017 07:53 6,2 °C 6,2 °C 95 % 1019,0 hPa 0,0 mm 0,0 km/h (0 Bft) S-SW 203 ° 0 min 0,000 mm 0,0 UV-I 11 W/m² 5,5 °C 6,2 °C 0,0 km/h (0 Bft)
10.10.2017 07:54 6,2 °C 6,2 °C 95 % 1019,0 hPa 0,0 mm 0,0 km/h (0 Bft) S-SW 203 ° 0 min 0,000 mm 0,0 UV-I 11 W/m² 5,5 °C 6,2 °C 0,0 km/h (0 Bft)
10.10.2017 07:55 6,2 °C 6,2 °C 95 % 1019,0 hPa 0,0 mm 0,0 km/h (0 Bft) S-SW 203 ° 0 min 0,000 mm 0,0 UV-I 12 W/m² 5,5 °C 6,2 °C 0,0 km/h (0 Bft)
10.10.2017 07:56 6,2 °C 6,2 °C 95 % 1019,0 hPa 0,0 mm 0,0 km/h (0 Bft) S-SW 203 ° 0 min 0,000 mm 0,0 UV-I 12 W/m² 5,5 °C 6,2 °C 0,0 km/h (0 Bft)
10.10.2017 07:57 6,2 °C 6,2 °C 95 % 1019,0 hPa 0,0 mm 0,0 km/h (0 Bft) S-SW 203 ° 0 min 0,000 mm 0,0 UV-I 14 W/m² 5,5 °C 6,2 °C 0,0 km/h (0 Bft)
10.10.2017 07:58 6,2 °C 6,2 °C 95 % 1019,0 hPa 0,0 mm 0,0 km/h (0 Bft) S-SW 203 ° 0 min 0,000 mm 0,0 UV-I 14 W/m² 5,5 °C 6,2 °C 0,0 km/h (0 Bft)
10.10.2017 07:59 6,2 °C 6,2 °C 95 % 1019,1 hPa 0,0 mm 0,0 km/h (0 Bft) S-SW 203 ° 0 min 0,000 mm 0,0 UV-I 18 W/m² 5,5 °C 6,2 °C 0,0 km/h (0 Bft)
10.10.2017 08:00 6,2 °C 6,2 °C 95 % 1019,0 hPa 0,0 mm 0,0 km/h (0 Bft) S-SW 203 ° 0 min 0,000 mm 0,0 UV-I 19 W/m² 5,5 °C 6,2 °C 0,0 km/h (0 Bft)
10.10.2017 08:01 6,1 °C 6,2 °C 95 % 1019,1 hPa 0,0 mm 0,0 km/h (0 Bft) S-SW 203 ° 0 min 0,000 mm 0,0 UV-I 19 W/m² 5,4 °C 6,1 °C 0,0 km/h (0 Bft)
10.10.2017 08:02 6,1 °C 6,1 °C 95 % 1019,1 hPa 0,0 mm 0,0 km/h (0 Bft) S-SW 203 ° 0 min 0,000 mm 0,0 UV-I 21 W/m² 5,4 °C 6,1 °C 0,0 km/h (0 Bft)
10.10.2017 08:03 6,1 °C 6,1 °C 95 % 1019,1 hPa 0,0 mm 0,0 km/h (0 Bft) S-SW 203 ° 0 min 0,000 mm 0,0 UV-I 21 W/m² 5,4 °C 6,1 °C 0,0 km/h (0 Bft)
10.10.2017 08:04 6,1 °C 6,1 °C 95 % 1019,1 hPa 0,0 mm 0,0 km/h (0 Bft) S-SW 203 ° 0 min 0,000 mm 0,0 UV-I 23 W/m² 5,4 °C 6,1 °C 0,0 km/h (0 Bft)
10.10.2017 08:05 6,1 °C 6,1 °C 95 % 1019,1 hPa 0,0 mm 0,0 km/h (0 Bft) S-SW 203 ° 0 min 0,000 mm 0,0 UV-I 23 W/m² 5,4 °C 6,1 °C 0,0 km/h (0 Bft)
10.10.2017 08:06 6,1 °C 6,1 °C 95 % 1019,1 hPa 0,0 mm 0,0 km/h (0 Bft) S-SW 203 ° 0 min 0,000 mm 0,0 UV-I 25 W/m² 5,4 °C 6,1 °C 0,0 km/h (0 Bft)
10.10.2017 08:07 6,0 °C 6,1 °C 95 % 1019,0 hPa 0,0 mm 0,0 km/h (0 Bft) S-SW 203 ° 0 min 0,000 mm 0,0 UV-I 25 W/m² 5,3 °C 6,0 °C 0,0 km/h (0 Bft)
10.10.2017 08:08 6,0 °C 6,0 °C 95 % 1019,1 hPa 0,0 mm 0,0 km/h (0 Bft) S-SW 203 ° 0 min 0,000 mm 0,0 UV-I 25 W/m² 5,3 °C 6,0 °C 0,0 km/h (0 Bft)
10.10.2017 08:09 6,0 °C 6,0 °C 95 % 1019,1 hPa 0,0 mm 0,0 km/h (0 Bft) S-SW 203 ° 0 min 0,000 mm 0,0 UV-I 25 W/m² 5,3 °C 6,0 °C 0,0 km/h (0 Bft)
10.10.2017 08:10 6,0 °C 6,0 °C 95 % 1019,0 hPa 0,0 mm 0,0 km/h (0 Bft) S-SW 203 ° 0 min 0,000 mm 0,0 UV-I 25 W/m² 5,3 °C 6,0 °C 0,0 km/h (0 Bft)
10.10.2017 08:11 6,1 °C 6,1 °C 95 % 1019,0 hPa 0,0 mm 0,0 km/h (0 Bft) S-SW 203 ° 0 min 0,000 mm 0,0 UV-I 26 W/m² 5,4 °C 6,1 °C 0,0 km/h (0 Bft)
10.10.2017 08:12 6,1 °C 6,1 °C 95 % 1019,0 hPa 0,0 mm 0,0 km/h (0 Bft) S-SW 203 ° 0 min 0,000 mm 0,0 UV-I 26 W/m² 5,4 °C 6,1 °C 0,0 km/h (0 Bft)
10.10.2017 08:13 6,1 °C 6,1 °C 95 % 1019,1 hPa 0,0 mm 0,0 km/h (0 Bft) S-SW 203 ° 0 min 0,000 mm 0,0 UV-I 28 W/m² 5,4 °C 6,1 °C 0,0 km/h (0 Bft)
10.10.2017 08:14 6,1 °C 6,2 °C 95 % 1019,1 hPa 0,0 mm 0,0 km/h (0 Bft) S-SW 203 ° 0 min 0,000 mm 0,0 UV-I 30 W/m² 5,4 °C 6,1 °C 0,0 km/h (0 Bft)
10.10.2017 08:15 6,2 °C 6,2 °C 95 % 1019,1 hPa 0,0 mm 0,0 km/h (0 Bft) S-SW 203 ° 0 min 0,000 mm 0,0 UV-I 30 W/m² 5,5 °C 6,2 °C 0,0 km/h (0 Bft)
10.10.2017 08:16 6,2 °C 6,2 °C 95 % 1019,1 hPa 0,0 mm 0,0 km/h (0 Bft) S-SW 205 ° 0 min 0,000 mm 0,0 UV-I 28 W/m² 5,5 °C 6,2 °C 0,0 km/h (0 Bft)
10.10.2017 08:17 6,2 °C 6,2 °C 95 % 1019,1 hPa 0,0 mm 0,0 km/h (0 Bft) S-SW 205 ° 0 min 0,000 mm 0,0 UV-I 28 W/m² 5,5 °C 6,2 °C 0,0 km/h (0 Bft)
10.10.2017 08:18 6,2 °C 6,2 °C 95 % 1019,2 hPa 0,0 mm 0,0 km/h (0 Bft) S-SW 205 ° 0 min 0,000 mm 0,0 UV-I 28 W/m² 5,5 °C 6,2 °C 0,0 km/h (0 Bft)
10.10.2017 08:19 6,2 °C 6,2 °C 95 % 1019,2 hPa 0,0 mm 0,0 km/h (0 Bft) S-SW 205 ° 0 min 0,000 mm 0,0 UV-I 30 W/m² 5,5 °C 6,2 °C 0,0 km/h (0 Bft)
10.10.2017 08:20 6,2 °C 6,2 °C 95 % 1019,2 hPa 0,0 mm 0,0 km/h (0 Bft) S-SW 205 ° 0 min 0,000 mm 0,0 UV-I 32 W/m² 5,5 °C 6,2 °C 0,0 km/h (0 Bft)
10.10.2017 08:21 6,2 °C 6,2 °C 95 % 1019,2 hPa 0,0 mm 0,0 km/h (0 Bft) S-SW 205 ° 0 min 0,000 mm 0,0 UV-I 33 W/m² 5,5 °C 6,2 °C 0,0 km/h (0 Bft)
10.10.2017 08:22 6,2 °C 6,2 °C 95 % 1019,2 hPa 0,0 mm 0,0 km/h (0 Bft) S-SW 205 ° 0 min 0,000 mm 0,0 UV-I 33 W/m² 5,5 °C 6,2 °C 0,0 km/h (0 Bft)
10.10.2017 08:23 6,2 °C 6,2 °C 95 % 1019,2 hPa 0,0 mm 0,0 km/h (0 Bft) S-SW 205 ° 0 min 0,000 mm 0,0 UV-I 33 W/m² 5,5 °C 6,2 °C 0,0 km/h (0 Bft)
10.10.2017 08:24 6,2 °C 6,2 °C 95 % 1019,2 hPa 0,0 mm 0,0 km/h (0 Bft) S-SW 205 ° 0 min 0,000 mm 0,0 UV-I 33 W/m² 5,5 °C 6,2 °C 0,0 km/h (0 Bft)
10.10.2017 08:25 6,2 °C 6,2 °C 95 % 1019,2 hPa 0,0 mm 0,0 km/h (0 Bft) S-SW 205 ° 0 min 0,000 mm 0,0 UV-I 33 W/m² 5,5 °C 6,2 °C 0,0 km/h (0 Bft)
10.10.2017 08:26 6,2 °C 6,2 °C 95 % 1019,1 hPa 0,0 mm 0,0 km/h (0 Bft) S-SW 205 ° 0 min 0,000 mm 0,0 UV-I 33 W/m² 5,5 °C 6,2 °C 0,0 km/h (0 Bft)
10.10.2017 08:27 6,2 °C 6,3 °C 95 % 1019,1 hPa 0,0 mm 0,0 km/h (0 Bft) S-SW 205 ° 0 min 0,000 mm 0,0 UV-I 32 W/m² 5,5 °C 6,2 °C 0,0 km/h (0 Bft)
10.10.2017 08:28 6,3 °C 6,3 °C 95 % 1019,2 hPa 0,0 mm 0,0 km/h (0 Bft) S-SW 205 ° 0 min 0,000 mm 0,0 UV-I 30 W/m² 5,6 °C 6,3 °C 0,0 km/h (0 Bft)
10.10.2017 08:29 6,3 °C 6,3 °C 95 % 1019,2 hPa 0,0 mm 0,0 km/h (0 Bft) S-SW 205 ° 0 min 0,000 mm 0,0 UV-I 28 W/m² 5,6 °C 6,3 °C 0,0 km/h (0 Bft)
10.10.2017 08:30 6,3 °C 6,3 °C 95 % 1019,1 hPa 0,0 mm 0,0 km/h (0 Bft) S-SW 205 ° 0 min 0,000 mm 0,0 UV-I 30 W/m² 5,6 °C 6,3 °C 0,0 km/h (0 Bft)
10.10.2017 08:31 6,3 °C 6,3 °C 95 % 1019,1 hPa 0,0 mm 0,0 km/h (0 Bft) S-SW 205 ° 0 min 0,000 mm 0,0 UV-I 30 W/m² 5,6 °C 6,3 °C 0,0 km/h (0 Bft)
10.10.2017 08:32 6,3 °C 6,3 °C 95 % 1019,2 hPa 0,0 mm 0,0 km/h (0 Bft) S-SW 205 ° 0 min 0,000 mm 0,0 UV-I 32 W/m² 5,6 °C 6,3 °C 0,0 km/h (0 Bft)
10.10.2017 08:33 6,4 °C 6,4 °C 95 % 1019,2 hPa 0,0 mm 0,0 km/h (0 Bft) S-SW 205 ° 0 min 0,000 mm 0,0 UV-I 33 W/m² 5,7 °C 6,4 °C 0,0 km/h (0 Bft)
10.10.2017 08:34 6,4 °C 6,4 °C 95 % 1019,2 hPa 0,0 mm 0,0 km/h (0 Bft) S-SW 205 ° 0 min 0,000 mm 0,0 UV-I 35 W/m² 5,7 °C 6,4 °C 0,0 km/h (0 Bft)
10.10.2017 08:35 6,4 °C 6,4 °C 95 % 1019,2 hPa 0,0 mm 0,0 km/h (0 Bft) S-SW 205 ° 0 min 0,000 mm 0,0 UV-I 35 W/m² 5,7 °C 6,4 °C 0,0 km/h (0 Bft)
10.10.2017 08:36 6,4 °C 6,4 °C 95 % 1019,2 hPa 0,0 mm 0,0 km/h (0 Bft) S-SW 205 ° 0 min 0,000 mm 0,0 UV-I 35 W/m² 5,7 °C 6,4 °C 0,0 km/h (0 Bft)
10.10.2017 08:37 6,4 °C 6,4 °C 95 % 1019,2 hPa 0,0 mm 0,0 km/h (0 Bft) S-SW 205 ° 0 min 0,000 mm 0,0 UV-I 37 W/m² 5,7 °C 6,4 °C 0,0 km/h (0 Bft)
10.10.2017 08:38 6,4 °C 6,4 °C 95 % 1019,2 hPa 0,0 mm 0,0 km/h (0 Bft) S-SW 205 ° 0 min 0,000 mm 0,0 UV-I 39 W/m² 5,7 °C 6,4 °C 0,0 km/h (0 Bft)
10.10.2017 08:39 6,4 °C 6,4 °C 95 % 1019,3 hPa 0,0 mm 0,0 km/h (0 Bft) S-SW 205 ° 0 min 0,000 mm 0,0 UV-I 40 W/m² 5,7 °C 6,4 °C 0,0 km/h (0 Bft)
10.10.2017 08:40 6,4 °C 6,4 °C 95 % 1019,3 hPa 0,0 mm 0,0 km/h (0 Bft) S-SW 205 ° 0 min 0,000 mm 0,0 UV-I 49 W/m² 5,7 °C 6,4 °C 0,0 km/h (0 Bft)
10.10.2017 08:41 6,4 °C 6,4 °C 95 % 1019,3 hPa 0,0 mm 0,0 km/h (0 Bft) S-SW 205 ° 0 min 0,000 mm 0,0 UV-I 56 W/m² 5,7 °C 6,4 °C 0,0 km/h (0 Bft)
10.10.2017 08:42 6,4 °C 6,4 °C 95 % 1019,3 hPa 0,0 mm 0,0 km/h (0 Bft) S-SW 205 ° 0 min 0,000 mm 0,0 UV-I 63 W/m² 5,7 °C 6,4 °C 0,0 km/h (0 Bft)
10.10.2017 08:43 6,4 °C 6,4 °C 95 % 1019,3 hPa 0,0 mm 0,0 km/h (0 Bft) S-SW 205 ° 0 min 0,000 mm 0,0 UV-I 74 W/m² 5,7 °C 6,4 °C 0,0 km/h (0 Bft)
10.10.2017 08:44 6,4 °C 6,4 °C 95 % 1019,3 hPa 0,0 mm 0,0 km/h (0 Bft) S-SW 205 ° 0 min 0,000 mm 0,5 UV-I 84 W/m² 5,7 °C 6,4 °C 0,0 km/h (0 Bft)
10.10.2017 08:45 6,4 °C 6,4 °C 95 % 1019,3 hPa 0,0 mm 0,0 km/h (0 Bft) S-SW 205 ° 0 min 0,000 mm 0,5 UV-I 93 W/m² 5,7 °C 6,4 °C 0,0 km/h (0 Bft)
10.10.2017 08:46 6,5 °C 6,5 °C 95 % 1019,3 hPa 0,0 mm 0,0 km/h (0 Bft) S-SW 205 ° 0 min 0,000 mm 0,5 UV-I 97 W/m² 5,8 °C 6,5 °C 0,0 km/h (0 Bft)
10.10.2017 08:47 6,6 °C 6,6 °C 95 % 1019,3 hPa 0,0 mm 0,0 km/h (0 Bft) S-SW 205 ° 0 min 0,000 mm 0,0 UV-I 93 W/m² 5,9 °C 6,6 °C 0,0 km/h (0 Bft)
10.10.2017 08:48 6,6 °C 6,6 °C 95 % 1019,3 hPa 0,0 mm 0,0 km/h (0 Bft) S-SW 205 ° 0 min 0,000 mm 0,0 UV-I 90 W/m² 5,9 °C 6,6 °C 0,0 km/h (0 Bft)
10.10.2017 08:49 6,7 °C 6,7 °C 95 % 1019,4 hPa 0,0 mm 0,0 km/h (0 Bft) S-SW 205 ° 0 min 0,000 mm 0,0 UV-I 86 W/m² 6,0 °C 6,7 °C 0,0 km/h (0 Bft)
10.10.2017 08:50 6,7 °C 6,7 °C 95 % 1019,4 hPa 0,0 mm 0,0 km/h (0 Bft) S-SW 205 ° 0 min 0,000 mm 0,0 UV-I 83 W/m² 6,0 °C 6,7 °C 0,0 km/h (0 Bft)
10.10.2017 08:51 6,7 °C 6,8 °C 95 % 1019,4 hPa 0,0 mm 0,0 km/h (0 Bft) S-SW 205 ° 0 min 0,000 mm 0,0 UV-I 77 W/m² 6,0 °C 6,7 °C 0,0 km/h (0 Bft)
10.10.2017 08:52 6,8 °C 6,8 °C 95 % 1019,4 hPa 0,0 mm 0,0 km/h (0 Bft) S-SW 205 ° 0 min 0,000 mm 0,0 UV-I 67 W/m² 6,1 °C 6,8 °C 0,0 km/h (0 Bft)
10.10.2017 08:53 6,8 °C 6,8 °C 95 % 1019,5 hPa 0,0 mm 0,0 km/h (0 Bft) S-SW 205 ° 0 min 0,000 mm 0,0 UV-I 65 W/m² 6,1 °C 6,8 °C 0,0 km/h (0 Bft)
10.10.2017 08:54 6,8 °C 6,8 °C 95 % 1019,5 hPa 0,0 mm 0,0 km/h (0 Bft) S-SW 205 ° 0 min 0,000 mm 0,0 UV-I 63 W/m² 6,1 °C 6,8 °C 0,0 km/h (0 Bft)
10.10.2017 08:55 6,8 °C 6,8 °C 95 % 1019,5 hPa 0,0 mm 0,0 km/h (0 Bft) S-SW 205 ° 0 min 0,000 mm 0,0 UV-I 65 W/m² 6,1 °C 6,8 °C 0,0 km/h (0 Bft)
10.10.2017 08:56 6,8 °C 6,8 °C 95 % 1019,5 hPa 0,0 mm 0,0 km/h (0 Bft) S-SW 205 ° 0 min 0,000 mm 0,5 UV-I 69 W/m² 6,1 °C 6,8 °C 0,0 km/h (0 Bft)
10.10.2017 08:57 6,9 °C 6,9 °C 95 % 1019,5 hPa 0,0 mm 0,0 km/h (0 Bft) S-SW 205 ° 0 min 0,000 mm 0,5 UV-I 74 W/m² 6,2 °C 6,9 °C 0,0 km/h (0 Bft)
10.10.2017 08:58 6,9 °C 6,9 °C 95 % 1019,5 hPa 0,0 mm 0,0 km/h (0 Bft) S-SW 205 ° 0 min 0,000 mm 0,5 UV-I 90 W/m² 6,2 °C 6,9 °C 0,0 km/h (0 Bft)
10.10.2017 08:59 6,9 °C 6,9 °C 95 % 1019,5 hPa 0,0 mm 0,0 km/h (0 Bft) S-SW 205 ° 0 min 0,000 mm 0,5 UV-I 97 W/m² 6,2 °C 6,9 °C 0,0 km/h (0 Bft)
10.10.2017 09:00 6,9 °C 6,9 °C 95 % 1019,5 hPa 0,0 mm 0,0 km/h (0 Bft) S-SW 205 ° 0 min 0,000 mm 0,5 UV-I 98 W/m² 6,2 °C 6,9 °C 0,0 km/h (0 Bft)
10.10.2017 09:01 7,0 °C 7,0 °C 95 % 1019,5 hPa 0,0 mm 0,0 km/h (0 Bft) S-SW 205 ° 0 min 0,025 mm 0,5 UV-I 100 W/m² 6,3 °C 7,0 °C 0,0 km/h (0 Bft)
10.10.2017 09:02 7,1 °C 7,1 °C 95 % 1019,5 hPa 0,0 mm 0,0 km/h (0 Bft) S-SW 205 ° 0 min 0,000 mm 0,5 UV-I 100 W/m² 6,4 °C 7,1 °C 0,0 km/h (0 Bft)
10.10.2017 09:03 7,1 °C 7,1 °C 95 % 1019,5 hPa 0,0 mm 0,0 km/h (0 Bft) S-SW 205 ° 0 min 0,000 mm 0,5 UV-I 100 W/m² 6,4 °C 7,1 °C 0,0 km/h (0 Bft)
10.10.2017 09:04 7,2 °C 7,2 °C 95 % 1019,5 hPa 0,0 mm 0,0 km/h (0 Bft) S-SW 205 ° 0 min 0,000 mm 0,5 UV-I 100 W/m² 6,5 °C 7,2 °C 0,0 km/h (0 Bft)
10.10.2017 09:05 7,3 °C 7,3 °C 95 % 1019,5 hPa 0,0 mm 0,0 km/h (0 Bft) S-SW 205 ° 0 min 0,000 mm 0,5 UV-I 100 W/m² 6,6 °C 7,3 °C 0,0 km/h (0 Bft)
10.10.2017 09:06 7,4 °C 7,4 °C 95 % 1019,5 hPa 0,0 mm 0,0 km/h (0 Bft) S-SW 205 ° 0 min 0,000 mm 0,5 UV-I 95 W/m² 6,7 °C 7,4 °C 0,0 km/h (0 Bft)
10.10.2017 09:07 7,4 °C 7,4 °C 95 % 1019,5 hPa 0,0 mm 0,0 km/h (0 Bft) S-SW 205 ° 0 min 0,000 mm 0,0 UV-I 93 W/m² 6,7 °C 7,4 °C 0,0 km/h (0 Bft)
10.10.2017 09:08 7,5 °C 7,5 °C 95 % 1019,5 hPa 0,0 mm 0,0 km/h (0 Bft) S-SW 205 ° 0 min 0,000 mm 0,0 UV-I 90 W/m² 6,8 °C 7,5 °C 0,0 km/h (0 Bft)
10.10.2017 09:09 7,5 °C 7,6 °C 95 % 1019,4 hPa 0,0 mm 0,0 km/h (0 Bft) S-SW 205 ° 0 min 0,000 mm 0,0 UV-I 83 W/m² 6,8 °C 7,5 °C 0,0 km/h (0 Bft)
10.10.2017 09:10 7,6 °C 7,7 °C 95 % 1019,5 hPa 0,0 mm 0,0 km/h (0 Bft) S-SW 205 ° 0 min 0,000 mm 0,0 UV-I 81 W/m² 6,9 °C 7,6 °C 0,0 km/h (0 Bft)
10.10.2017 09:11 7,7 °C 7,7 °C 95 % 1019,5 hPa 0,0 mm 0,0 km/h (0 Bft) S-SW 205 ° 0 min 0,000 mm 0,0 UV-I 77 W/m² 7,0 °C 7,7 °C 0,0 km/h (0 Bft)
10.10.2017 09:12 7,8 °C 7,8 °C 95 % 1019,5 hPa 0,0 mm 1,7 km/h (1 Bft) SW 236 ° 0 min 0,000 mm 0,0 UV-I 74 W/m² 7,0 °C 7,8 °C 3,2 km/h (1 Bft)
10.10.2017 09:13 7,9 °C 7,9 °C 95 % 1019,5 hPa 0,0 mm 2,4 km/h (1 Bft) W-SW 243 ° 0 min 0,000 mm 0,0 UV-I 72 W/m² 7,1 °C 7,9 °C 4,8 km/h (1 Bft)
10.10.2017 09:14 7,9 °C 7,9 °C 95 % 1019,5 hPa 0,0 mm 0,1 km/h (0 Bft) W-SW 243 ° 0 min 0,000 mm 0,0 UV-I 70 W/m² 7,1 °C 7,9 °C 1,6 km/h (1 Bft)
10.10.2017 09:15 8,0 °C 8,0 °C 94 % 1019,5 hPa 0,0 mm 0,5 km/h (0 Bft) W-SW 243 ° 0 min 0,000 mm 0,0 UV-I 63 W/m² 7,1 °C 8,0 °C 3,2 km/h (1 Bft)
10.10.2017 09:16 8,1 °C 8,1 °C 93 % 1019,5 hPa 0,0 mm 2,8 km/h (1 Bft) W 267 ° 0 min 0,000 mm 0,0 UV-I 60 W/m² 7,0 °C 8,1 °C 6,4 km/h (2 Bft)
10.10.2017 09:17 8,2 °C 8,2 °C 93 % 1019,5 hPa 0,0 mm 2,7 km/h (1 Bft) W 271 ° 0 min 0,000 mm 0,0 UV-I 58 W/m² 7,1 °C 8,2 °C 4,8 km/h (1 Bft)
10.10.2017 09:18 8,2 °C 8,3 °C 92 % 1019,5 hPa 0,0 mm 1,7 km/h (1 Bft) W 270 ° 0 min 0,000 mm 0,0 UV-I 58 W/m² 7,0 °C 8,2 °C 4,8 km/h (1 Bft)
10.10.2017 09:19 8,3 °C 8,3 °C 92 % 1019,5 hPa 0,0 mm 0,1 km/h (0 Bft) W 270 ° 0 min 0,000 mm 0,0 UV-I 60 W/m² 7,1 °C 8,3 °C 1,6 km/h (1 Bft)
10.10.2017 09:20 8,3 °C 8,3 °C 92 % 1019,5 hPa 0,0 mm 0,5 km/h (0 Bft) W 270 ° 0 min 0,000 mm 0,0 UV-I 62 W/m² 7,1 °C 8,3 °C 3,2 km/h (1 Bft)
10.10.2017 09:21 8,3 °C 8,3 °C 92 % 1019,4 hPa 0,0 mm 1,5 km/h (1 Bft) S-SW 211 ° 0 min 0,000 mm 0,0 UV-I 67 W/m² 7,1 °C 8,3 °C 4,8 km/h (1 Bft)
10.10.2017 09:22 8,3 °C 8,3 °C 92 % 1019,4 hPa 0,0 mm 0,7 km/h (0 Bft) W-SW 254 ° 0 min 0,000 mm 0,5 UV-I 69 W/m² 7,1 °C 8,3 °C 1,6 km/h (1 Bft)
10.10.2017 09:23 8,3 °C 8,3 °C 91 % 1019,4 hPa 0,0 mm 1,8 km/h (1 Bft) W 259 ° 0 min 0,000 mm 0,5 UV-I 72 W/m² 6,9 °C 8,3 °C 3,2 km/h (1 Bft)
10.10.2017 09:24 8,3 °C 8,3 °C 91 % 1019,4 hPa 0,0 mm 0,1 km/h (0 Bft) W 259 ° 0 min 0,000 mm 0,5 UV-I 76 W/m² 6,9 °C 8,3 °C 1,6 km/h (1 Bft)
10.10.2017 09:25 8,3 °C 8,3 °C 91 % 1019,4 hPa 0,0 mm 0,4 km/h (0 Bft) W 259 ° 0 min 0,000 mm 0,5 UV-I 76 W/m² 6,9 °C 8,3 °C 3,2 km/h (1 Bft)
10.10.2017 09:26 8,3 °C 8,4 °C 91 % 1019,4 hPa 0,0 mm 2,2 km/h (1 Bft) W 275 ° 0 min 0,000 mm 0,5 UV-I 76 W/m² 6,9 °C 8,3 °C 4,8 km/h (1 Bft)
10.10.2017 09:27 8,3 °C 8,4 °C 91 % 1019,5 hPa 0,0 mm 0,1 km/h (0 Bft) W 275 ° 0 min 0,000 mm 0,5 UV-I 70 W/m² 6,9 °C 8,3 °C 1,6 km/h (1 Bft)
10.10.2017 09:28 8,4 °C 8,4 °C 91 % 1019,4 hPa 0,0 mm 1,3 km/h (1 Bft) W 275 ° 0 min 0,000 mm 0,0 UV-I 69 W/m² 7,0 °C 8,4 °C 3,2 km/h (1 Bft)
10.10.2017 09:29 8,4 °C 8,4 °C 90 % 1019,5 hPa 0,0 mm 1,5 km/h (1 Bft) W 275 ° 0 min 0,000 mm 0,0 UV-I 67 W/m² 6,9 °C 8,4 °C 3,2 km/h (1 Bft)
10.10.2017 09:30 8,6 °C 8,6 °C 88 % 1019,4 hPa 0,0 mm 0,9 km/h (0 Bft) W 275 ° 0 min 0,000 mm 0,0 UV-I 67 W/m² 6,7 °C 8,6 °C 3,2 km/h (1 Bft)
10.10.2017 09:31 8,6 °C 8,6 °C 88 % 1019,5 hPa 0,0 mm 0,9 km/h (0 Bft) W 275 ° 0 min 0,000 mm 0,5 UV-I 69 W/m² 6,7 °C 8,6 °C 1,6 km/h (1 Bft)
10.10.2017 09:32 8,7 °C 8,7 °C 88 % 1019,5 hPa 0,0 mm 0,3 km/h (0 Bft) W 275 ° 0 min 0,000 mm 0,5 UV-I 70 W/m² 6,8 °C 8,7 °C 1,6 km/h (1 Bft)
10.10.2017 09:33 8,7 °C 8,7 °C 89 % 1019,6 hPa 0,0 mm 0,0 km/h (0 Bft) W 275 ° 0 min 0,000 mm 0,5 UV-I 79 W/m² 7,0 °C 8,7 °C 0,0 km/h (0 Bft)
10.10.2017 09:34 8,7 °C 8,8 °C 89 % 1019,6 hPa 0,0 mm 0,0 km/h (0 Bft) W 275 ° 0 min 0,000 mm 0,6 UV-I 83 W/m² 7,0 °C 8,7 °C 0,0 km/h (0 Bft)
10.10.2017 09:35 8,6 °C 8,7 °C 90 % 1019,5 hPa 0,0 mm 0,1 km/h (0 Bft) W 275 ° 0 min 0,000 mm 0,6 UV-I 86 W/m² 7,1 °C 8,6 °C 1,6 km/h (1 Bft)
10.10.2017 09:36 8,5 °C 8,6 °C 91 % 1019,6 hPa 0,0 mm 0,0 km/h (0 Bft) W 275 ° 0 min 0,000 mm 0,6 UV-I 90 W/m² 7,1 °C 8,5 °C 0,0 km/h (0 Bft)
10.10.2017 09:37 8,4 °C 8,6 °C 91 % 1019,5 hPa 0,0 mm 0,0 km/h (0 Bft) W 275 ° 0 min 0,000 mm 0,7 UV-I 97 W/m² 7,0 °C 8,4 °C 0,0 km/h (0 Bft)
10.10.2017 09:38 8,4 °C 8,4 °C 91 % 1019,6 hPa 0,0 mm 0,0 km/h (0 Bft) W 275 ° 0 min 0,000 mm 0,7 UV-I 105 W/m² 7,0 °C 8,4 °C 0,0 km/h (0 Bft)
10.10.2017 09:39 8,4 °C 8,4 °C 91 % 1019,6 hPa 0,0 mm 0,0 km/h (0 Bft) W 275 ° 0 min 0,000 mm 0,7 UV-I 120 W/m² 7,0 °C 8,4 °C 0,0 km/h (0 Bft)
10.10.2017 09:40 8,4 °C 8,4 °C 91 % 1019,6 hPa 0,0 mm 0,0 km/h (0 Bft) W 275 ° 0 min 0,000 mm 0,7 UV-I 125 W/m² 7,0 °C 8,4 °C 0,0 km/h (0 Bft)
10.10.2017 09:41 8,4 °C 8,4 °C 91 % 1019,6 hPa 0,0 mm 0,0 km/h (0 Bft) W 275 ° 0 min 0,000 mm 0,7 UV-I 128 W/m² 7,0 °C 8,4 °C 0,0 km/h (0 Bft)
10.10.2017 09:42 8,4 °C 8,4 °C 92 % 1019,6 hPa 0,0 mm 0,0 km/h (0 Bft) W 275 ° 0 min 0,000 mm 0,7 UV-I 127 W/m² 7,2 °C 8,4 °C 0,0 km/h (0 Bft)
10.10.2017 09:43 8,4 °C 8,5 °C 92 % 1019,6 hPa 0,0 mm 0,0 km/h (0 Bft) W 275 ° 0 min 0,000 mm 0,7 UV-I 125 W/m² 7,2 °C 8,4 °C 0,0 km/h (0 Bft)
10.10.2017 09:44 8,6 °C 8,6 °C 91 % 1019,6 hPa 0,0 mm 0,0 km/h (0 Bft) W 275 ° 0 min 0,000 mm 0,7 UV-I 123 W/m² 7,2 °C 8,6 °C 0,0 km/h (0 Bft)
10.10.2017 09:45 8,7 °C 8,7 °C 91 % 1019,6 hPa 0,0 mm 0,0 km/h (0 Bft) W 275 ° 0 min 0,000 mm 0,7 UV-I 113 W/m² 7,3 °C 8,7 °C 0,0 km/h (0 Bft)
10.10.2017 09:46 8,7 °C 8,8 °C 91 % 1019,6 hPa 0,0 mm 0,0 km/h (0 Bft) W 275 ° 0 min 0,000 mm 0,6 UV-I 107 W/m² 7,3 °C 8,7 °C 0,0 km/h (0 Bft)
10.10.2017 09:47 8,8 °C 8,8 °C 91 % 1019,6 hPa 0,0 mm 0,0 km/h (0 Bft) W 275 ° 0 min 0,000 mm 0,6 UV-I 102 W/m² 7,4 °C 8,8 °C 0,0 km/h (0 Bft)
10.10.2017 09:48 8,7 °C 8,8 °C 91 % 1019,7 hPa 0,0 mm 0,0 km/h (0 Bft) W 275 ° 0 min 0,000 mm 0,6 UV-I 98 W/m² 7,3 °C 8,7 °C 0,0 km/h (0 Bft)
10.10.2017 09:49 8,7 °C 8,7 °C 91 % 1019,6 hPa 0,0 mm 0,0 km/h (0 Bft) W 275 ° 0 min 0,000 mm 0,6 UV-I 97 W/m² 7,3 °C 8,7 °C 0,0 km/h (0 Bft)
10.10.2017 09:50 8,7 °C 8,7 °C 91 % 1019,6 hPa 0,0 mm 0,0 km/h (0 Bft) W 275 ° 0 min 0,000 mm 0,6 UV-I 95 W/m² 7,3 °C 8,7 °C 0,0 km/h (0 Bft)
10.10.2017 09:51 8,7 °C 8,7 °C 91 % 1019,6 hPa 0,0 mm 0,2 km/h (0 Bft) W 275 ° 0 min 0,000 mm 0,6 UV-I 97 W/m² 7,3 °C 8,7 °C 1,6 km/h (1 Bft)
10.10.2017 09:52 8,7 °C 8,7 °C 91 % 1019,6 hPa 0,0 mm 0,0 km/h (0 Bft) W 275 ° 0 min 0,000 mm 0,6 UV-I 97 W/m² 7,3 °C 8,7 °C 0,0 km/h (0 Bft)
10.10.2017 09:53 8,8 °C 8,8 °C 89 % 1019,6 hPa 0,0 mm 0,0 km/h (0 Bft) W 275 ° 0 min 0,000 mm 0,7 UV-I 98 W/m² 7,1 °C 8,8 °C 0,0 km/h (0 Bft)
10.10.2017 09:54 8,9 °C 8,9 °C 90 % 1019,6 hPa 0,0 mm 0,0 km/h (0 Bft) W 275 ° 0 min 0,000 mm 0,7 UV-I 100 W/m² 7,4 °C 8,9 °C 0,0 km/h (0 Bft)
10.10.2017 09:55 8,9 °C 8,9 °C 91 % 1019,6 hPa 0,0 mm 0,0 km/h (0 Bft) W 275 ° 0 min 0,000 mm 0,7 UV-I 104 W/m² 7,5 °C 8,9 °C 0,0 km/h (0 Bft)
10.10.2017 09:56 9,0 °C 9,0 °C 91 % 1019,6 hPa 0,0 mm 0,0 km/h (0 Bft) W 275 ° 0 min 0,000 mm 0,7 UV-I 109 W/m² 7,6 °C 9,0 °C 0,0 km/h (0 Bft)
10.10.2017 09:57 9,0 °C 9,0 °C 91 % 1019,6 hPa 0,0 mm 0,0 km/h (0 Bft) W 275 ° 0 min 0,000 mm 0,8 UV-I 111 W/m² 7,6 °C 9,0 °C 0,0 km/h (0 Bft)
10.10.2017 09:58 8,9 °C 9,0 °C 91 % 1019,6 hPa 0,0 mm 0,0 km/h (0 Bft) W 275 ° 0 min 0,000 mm 0,8 UV-I 113 W/m² 7,5 °C 8,9 °C 0,0 km/h (0 Bft)
10.10.2017 09:59 8,9 °C 8,9 °C 91 % 1019,6 hPa 0,0 mm 0,0 km/h (0 Bft) W 275 ° 0 min 0,000 mm 0,8 UV-I 116 W/m² 7,5 °C 8,9 °C 0,0 km/h (0 Bft)
10.10.2017 10:00 8,9 °C 8,9 °C 91 % 1019,7 hPa 0,0 mm 0,2 km/h (0 Bft) W 275 ° 0 min 0,000 mm 0,9 UV-I 120 W/m² 7,5 °C 8,9 °C 1,6 km/h (1 Bft)
10.10.2017 10:01 8,9 °C 8,9 °C 90 % 1019,7 hPa 0,0 mm 0,6 km/h (0 Bft) W 275 ° 0 min 0,051 mm 0,9 UV-I 125 W/m² 7,4 °C 8,9 °C 3,2 km/h (1 Bft)
10.10.2017 10:02 9,1 °C 9,1 °C 89 % 1019,7 hPa 0,0 mm 2,0 km/h (1 Bft) W 275 ° 0 min 0,000 mm 0,9 UV-I 134 W/m² 7,4 °C 9,1 °C 3,2 km/h (1 Bft)
10.10.2017 10:03 9,1 °C 9,1 °C 88 % 1019,7 hPa 0,0 mm 2,7 km/h (1 Bft) W 275 ° 0 min 0,000 mm 1,0 UV-I 141 W/m² 7,2 °C 9,1 °C 4,8 km/h (1 Bft)
10.10.2017 10:04 9,2 °C 9,2 °C 88 % 1019,7 hPa 0,0 mm 2,1 km/h (1 Bft) W 275 ° 0 min 0,000 mm 1,0 UV-I 148 W/m² 7,3 °C 9,2 °C 3,2 km/h (1 Bft)
10.10.2017 10:05 9,3 °C 9,3 °C 87 % 1019,7 hPa 0,0 mm 0,7 km/h (0 Bft) W 275 ° 0 min 0,000 mm 1,1 UV-I 155 W/m² 7,2 °C 9,3 °C 1,6 km/h (1 Bft)
10.10.2017 10:06 9,3 °C 9,3 °C 87 % 1019,7 hPa 0,0 mm 2,1 km/h (1 Bft) W 275 ° 0 min 0,000 mm 1,1 UV-I 160 W/m² 7,2 °C 9,3 °C 3,2 km/h (1 Bft)
10.10.2017 10:07 9,4 °C 9,4 °C 86 % 1019,7 hPa 0,0 mm 1,2 km/h (1 Bft) W 275 ° 0 min 0,000 mm 1,1 UV-I 165 W/m² 7,2 °C 9,4 °C 3,2 km/h (1 Bft)
10.10.2017 10:08 9,4 °C 9,4 °C 87 % 1019,7 hPa 0,0 mm 0,5 km/h (0 Bft) W 275 ° 0 min 0,000 mm 1,2 UV-I 176 W/m² 7,3 °C 9,4 °C 3,2 km/h (1 Bft)
10.10.2017 10:09 9,4 °C 9,4 °C 87 % 1019,7 hPa 0,0 mm 0,9 km/h (0 Bft) W 275 ° 0 min 0,000 mm 1,2 UV-I 179 W/m² 7,3 °C 9,4 °C 3,2 km/h (1 Bft)
10.10.2017 10:10 9,4 °C 9,4 °C 87 % 1019,7 hPa 0,0 mm 0,4 km/h (0 Bft) W 275 ° 0 min 0,000 mm 1,2 UV-I 178 W/m² 7,3 °C 9,4 °C 1,6 km/h (1 Bft)
10.10.2017 10:11 9,4 °C 9,4 °C 85 % 1019,7 hPa 0,0 mm 0,0 km/h (0 Bft) W 275 ° 0 min 0,000 mm 1,2 UV-I 176 W/m² 7,0 °C 9,4 °C 0,0 km/h (0 Bft)
10.10.2017 10:12 9,4 °C 9,4 °C 86 % 1019,7 hPa 0,0 mm 0,0 km/h (0 Bft) W 275 ° 0 min 0,000 mm 1,2 UV-I 172 W/m² 7,2 °C 9,4 °C 0,0 km/h (0 Bft)
10.10.2017 10:13 9,5 °C 9,5 °C 87 % 1019,8 hPa 0,0 mm 0,0 km/h (0 Bft) W 275 ° 0 min 0,000 mm 1,2 UV-I 171 W/m² 7,4 °C 9,5 °C 0,0 km/h (0 Bft)
10.10.2017 10:14 9,5 °C 9,5 °C 86 % 1019,7 hPa 0,0 mm 0,0 km/h (0 Bft) W 275 ° 0 min 0,000 mm 1,2 UV-I 167 W/m² 7,3 °C 9,5 °C 0,0 km/h (0 Bft)
10.10.2017 10:15 9,6 °C 9,6 °C 86 % 1019,7 hPa 0,0 mm 0,0 km/h (0 Bft) W 275 ° 0 min 0,000 mm 1,2 UV-I 167 W/m² 7,4 °C 9,6 °C 0,0 km/h (0 Bft)
10.10.2017 10:16 9,6 °C 9,6 °C 86 % 1019,7 hPa 0,0 mm 0,0 km/h (0 Bft) W 275 ° 0 min 0,000 mm 1,2 UV-I 171 W/m² 7,4 °C 9,6 °C 0,0 km/h (0 Bft)
10.10.2017 10:17 9,6 °C 9,6 °C 86 % 1019,7 hPa 0,0 mm 0,0 km/h (0 Bft) W 275 ° 0 min 0,000 mm 1,3 UV-I 178 W/m² 7,4 °C 9,6 °C 0,0 km/h (0 Bft)
10.10.2017 10:18 9,6 °C 9,7 °C 86 % 1019,7 hPa 0,0 mm 0,0 km/h (0 Bft) W 275 ° 0 min 0,000 mm 1,3 UV-I 186 W/m² 7,4 °C 9,6 °C 0,0 km/h (0 Bft)
10.10.2017 10:19 9,7 °C 9,7 °C 85 % 1019,7 hPa 0,0 mm 0,0 km/h (0 Bft) W 275 ° 0 min 0,000 mm 1,3 UV-I 195 W/m² 7,3 °C 9,7 °C 0,0 km/h (0 Bft)
10.10.2017 10:20 9,7 °C 9,7 °C 85 % 1019,8 hPa 0,0 mm 0,0 km/h (0 Bft) W 275 ° 0 min 0,000 mm 1,3 UV-I 207 W/m² 7,3 °C 9,7 °C 0,0 km/h (0 Bft)
10.10.2017 10:21 9,7 °C 9,7 °C 86 % 1019,7 hPa 0,0 mm 0,0 km/h (0 Bft) W 275 ° 0 min 0,000 mm 1,3 UV-I 207 W/m² 7,5 °C 9,7 °C 0,0 km/h (0 Bft)
10.10.2017 10:22 9,7 °C 9,7 °C 85 % 1019,8 hPa 0,0 mm 0,4 km/h (0 Bft) W 275 ° 0 min 0,000 mm 1,3 UV-I 204 W/m² 7,3 °C 9,7 °C 1,6 km/h (1 Bft)
10.10.2017 10:23 9,7 °C 9,7 °C 86 % 1019,8 hPa 0,0 mm 1,9 km/h (1 Bft) W 275 ° 0 min 0,000 mm 1,3 UV-I 199 W/m² 7,5 °C 9,7 °C 3,2 km/h (1 Bft)
10.10.2017 10:24 9,8 °C 9,8 °C 86 % 1019,7 hPa 0,0 mm 1,7 km/h (1 Bft) W 275 ° 0 min 0,000 mm 1,3 UV-I 193 W/m² 7,6 °C 9,8 °C 3,2 km/h (1 Bft)
10.10.2017 10:25 9,8 °C 9,8 °C 83 % 1019,8 hPa 0,0 mm 1,2 km/h (1 Bft) W 275 ° 0 min 0,000 mm 1,3 UV-I 186 W/m² 7,1 °C 9,8 °C 3,2 km/h (1 Bft)
10.10.2017 10:26 9,8 °C 9,8 °C 84 % 1019,8 hPa 0,0 mm 0,0 km/h (0 Bft) W 275 ° 0 min 0,000 mm 1,3 UV-I 172 W/m² 7,2 °C 9,8 °C 0,0 km/h (0 Bft)
10.10.2017 10:27 9,8 °C 9,8 °C 84 % 1019,8 hPa 0,0 mm 0,3 km/h (0 Bft) W 275 ° 0 min 0,000 mm 1,3 UV-I 169 W/m² 7,2 °C 9,8 °C 1,6 km/h (1 Bft)
10.10.2017 10:28 9,9 °C 9,9 °C 83 % 1019,8 hPa 0,0 mm 1,7 km/h (1 Bft) W 275 ° 0 min 0,000 mm 1,3 UV-I 172 W/m² 7,2 °C 9,9 °C 3,2 km/h (1 Bft)
10.10.2017 10:29 9,9 °C 9,9 °C 84 % 1019,8 hPa 0,0 mm 0,3 km/h (0 Bft) W 275 ° 0 min 0,000 mm 1,3 UV-I 178 W/m² 7,3 °C 9,9 °C 1,6 km/h (1 Bft)
10.10.2017 10:30 9,9 °C 9,9 °C 85 % 1019,8 hPa 0,0 mm 0,0 km/h (0 Bft) W 275 ° 0 min 0,000 mm 1,3 UV-I 178 W/m² 7,5 °C 9,9 °C 0,0 km/h (0 Bft)
10.10.2017 10:31 9,9 °C 9,9 °C 85 % 1019,8 hPa 0,0 mm 0,0 km/h (0 Bft) W 275 ° 0 min 0,000 mm 1,4 UV-I 192 W/m² 7,5 °C 9,9 °C 0,0 km/h (0 Bft)
10.10.2017 10:32 9,9 °C 10,0 °C 84 % 1019,8 hPa 0,0 mm 1,1 km/h (1 Bft) W 275 ° 0 min 0,000 mm 1,4 UV-I 197 W/m² 7,3 °C 9,9 °C 3,2 km/h (1 Bft)
10.10.2017 10:33 10,0 °C 10,0 °C 84 % 1019,7 hPa 0,0 mm 0,7 km/h (0 Bft) W 275 ° 0 min 0,000 mm 1,5 UV-I 202 W/m² 7,4 °C 10,0 °C 1,6 km/h (1 Bft)
10.10.2017 10:34 10,1 °C 10,1 °C 84 % 1019,8 hPa 0,0 mm 0,0 km/h (0 Bft) W 275 ° 0 min 0,000 mm 1,5 UV-I 211 W/m² 7,5 °C 10,1 °C 0,0 km/h (0 Bft)
10.10.2017 10:35 10,2 °C 10,2 °C 82 % 1019,8 hPa 0,0 mm 0,0 km/h (0 Bft) W 275 ° 0 min 0,000 mm 1,5 UV-I 220 W/m² 7,3 °C 10,2 °C 0,0 km/h (0 Bft)
10.10.2017 10:36 10,2 °C 10,2 °C 84 % 1019,8 hPa 0,0 mm 1,7 km/h (1 Bft) NW 306 ° 0 min 0,000 mm 1,6 UV-I 225 W/m² 7,6 °C 10,2 °C 6,4 km/h (2 Bft)
10.10.2017 10:37 10,3 °C 10,3 °C 84 % 1019,8 hPa 0,0 mm 4,2 km/h (1 Bft) NW 306 ° 0 min 0,000 mm 1,6 UV-I 227 W/m² 7,7 °C 10,3 °C 4,8 km/h (1 Bft)
10.10.2017 10:38 10,3 °C 10,3 °C 82 % 1019,8 hPa 0,0 mm 3,2 km/h (1 Bft) NW 306 ° 0 min 0,000 mm 1,6 UV-I 229 W/m² 7,4 °C 10,3 °C 4,8 km/h (1 Bft)
10.10.2017 10:39 10,2 °C 10,3 °C 82 % 1019,9 hPa 0,0 mm 0,9 km/h (0 Bft) NW 306 ° 0 min 0,000 mm 1,7 UV-I 236 W/m² 7,3 °C 10,2 °C 3,2 km/h (1 Bft)
10.10.2017 10:40 10,2 °C 10,2 °C 81 % 1019,9 hPa 0,0 mm 0,5 km/h (0 Bft) NW 306 ° 0 min 0,000 mm 1,7 UV-I 243 W/m² 7,1 °C 10,2 °C 3,2 km/h (1 Bft)
10.10.2017 10:41 10,3 °C 10,3 °C 84 % 1019,9 hPa 0,0 mm 1,5 km/h (1 Bft) NW 306 ° 0 min 0,000 mm 1,7 UV-I 250 W/m² 7,7 °C 10,3 °C 4,8 km/h (1 Bft)
10.10.2017 10:42 10,3 °C 10,4 °C 84 % 1019,9 hPa 0,0 mm 3,9 km/h (1 Bft) W 278 ° 0 min 0,000 mm 1,7 UV-I 260 W/m² 7,7 °C 10,3 °C 6,4 km/h (2 Bft)
10.10.2017 10:43 10,3 °C 10,4 °C 82 % 1019,9 hPa 0,0 mm 2,4 km/h (1 Bft) W 277 ° 0 min 0,000 mm 1,8 UV-I 274 W/m² 7,4 °C 10,3 °C 3,2 km/h (1 Bft)
10.10.2017 10:44 10,3 °C 10,3 °C 81 % 1019,9 hPa 0,0 mm 3,4 km/h (1 Bft) W-NW 297 ° 0 min 0,000 mm 1,8 UV-I 281 W/m² 7,2 °C 10,3 °C 4,8 km/h (1 Bft)
10.10.2017 10:45 10,3 °C 10,3 °C 82 % 1019,9 hPa 0,0 mm 3,0 km/h (1 Bft) NW 304 ° 0 min 0,000 mm 1,8 UV-I 281 W/m² 7,4 °C 10,3 °C 4,8 km/h (1 Bft)
10.10.2017 10:46 10,4 °C 10,4 °C 83 % 1019,9 hPa 0,0 mm 5,6 km/h (1 Bft) W-NW 296 ° 0 min 0,000 mm 1,7 UV-I 267 W/m² 7,6 °C 10,4 °C 9,7 km/h (2 Bft)
10.10.2017 10:47 10,4 °C 10,4 °C 84 % 1019,9 hPa 0,0 mm 8,5 km/h (2 Bft) W 280 ° 0 min 0,000 mm 1,7 UV-I 255 W/m² 7,8 °C 10,4 °C 12,9 km/h (3 Bft)
10.10.2017 10:48 10,5 °C 10,5 °C 83 % 1020,0 hPa 0,0 mm 3,6 km/h (1 Bft) W-NW 282 ° 0 min 0,000 mm 1,7 UV-I 255 W/m² 7,7 °C 10,5 °C 6,4 km/h (2 Bft)
10.10.2017 10:49 10,5 °C 10,5 °C 82 % 1019,9 hPa 0,0 mm 5,4 km/h (1 Bft) NW 312 ° 0 min 0,000 mm 1,7 UV-I 264 W/m² 7,6 °C 10,5 °C 11,3 km/h (2 Bft)
10.10.2017 10:50 10,5 °C 10,5 °C 82 % 1019,9 hPa 0,0 mm 4,1 km/h (1 Bft) NW 312 ° 0 min 0,000 mm 1,7 UV-I 258 W/m² 7,6 °C 10,5 °C 4,8 km/h (1 Bft)
10.10.2017 10:51 10,6 °C 10,6 °C 83 % 1019,9 hPa 0,0 mm 3,7 km/h (1 Bft) W-NW 298 ° 0 min 0,000 mm 1,7 UV-I 265 W/m² 7,8 °C 10,6 °C 6,4 km/h (2 Bft)
10.10.2017 10:52 10,7 °C 10,7 °C 84 % 1019,9 hPa 0,0 mm 5,3 km/h (1 Bft) W-NW 284 ° 0 min 0,000 mm 1,6 UV-I 251 W/m² 8,1 °C 10,7 °C 9,7 km/h (2 Bft)
10.10.2017 10:53 10,7 °C 10,7 °C 83 % 1020,0 hPa 0,0 mm 4,9 km/h (1 Bft) NW 320 ° 0 min 0,000 mm 1,6 UV-I 251 W/m² 7,9 °C 10,7 °C 6,4 km/h (2 Bft)
10.10.2017 10:54 10,8 °C 10,8 °C 84 % 1019,9 hPa 0,0 mm 4,9 km/h (1 Bft) W-NW 303 ° 0 min 0,000 mm 1,6 UV-I 236 W/m² 8,2 °C 10,8 °C 8,0 km/h (2 Bft)
10.10.2017 10:55 10,8 °C 10,8 °C 84 % 1020,0 hPa 0,0 mm 3,7 km/h (1 Bft) W-NW 302 ° 0 min 0,000 mm 1,6 UV-I 248 W/m² 8,2 °C 10,8 °C 4,8 km/h (1 Bft)
10.10.2017 10:56 10,8 °C 10,8 °C 84 % 1019,9 hPa 0,0 mm 2,0 km/h (1 Bft) W-NW 302 ° 0 min 0,000 mm 1,5 UV-I 227 W/m² 8,2 °C 10,8 °C 3,2 km/h (1 Bft)
10.10.2017 10:57 10,8 °C 10,8 °C 82 % 1019,9 hPa 0,0 mm 2,5 km/h (1 Bft) N-NW 327 ° 0 min 0,000 mm 1,5 UV-I 220 W/m² 7,9 °C 10,8 °C 4,8 km/h (1 Bft)
10.10.2017 10:58 10,8 °C 10,8 °C 83 % 1019,9 hPa 0,0 mm 5,5 km/h (1 Bft) N-NO 24 ° 0 min 0,000 mm 1,4 UV-I 209 W/m² 8,0 °C 10,8 °C 8,0 km/h (2 Bft)
10.10.2017 10:59 10,8 °C 10,8 °C 81 % 1019,9 hPa 0,0 mm 3,4 km/h (1 Bft) N-NW 345 ° 0 min 0,000 mm 1,4 UV-I 200 W/m² 7,7 °C 10,8 °C 4,8 km/h (1 Bft)
10.10.2017 11:00 10,7 °C 10,8 °C 81 % 1020,0 hPa 0,0 mm 3,1 km/h (1 Bft) W 279 ° 0 min 0,000 mm 1,3 UV-I 193 W/m² 7,6 °C 10,7 °C 4,8 km/h (1 Bft)
10.10.2017 11:01 10,8 °C 10,8 °C 83 % 1020,0 hPa 0,0 mm 2,7 km/h (1 Bft) W 279 ° 0 min 0,102 mm 1,3 UV-I 190 W/m² 8,0 °C 10,8 °C 4,8 km/h (1 Bft)
10.10.2017 11:02 10,7 °C 10,8 °C 83 % 1020,0 hPa 0,0 mm 3,1 km/h (1 Bft) W 279 ° 0 min 0,000 mm 1,3 UV-I 185 W/m² 7,9 °C 10,7 °C 4,8 km/h (1 Bft)
10.10.2017 11:03 10,8 °C 10,8 °C 81 % 1020,0 hPa 0,0 mm 5,3 km/h (1 Bft) W 270 ° 0 min 0,000 mm 1,3 UV-I 183 W/m² 7,7 °C 10,8 °C 12,9 km/h (3 Bft)
10.10.2017 11:04 10,8 °C 10,8 °C 81 % 1020,0 hPa 0,0 mm 7,0 km/h (2 Bft) W-NW 300 ° 0 min 0,000 mm 1,3 UV-I 181 W/m² 7,7 °C 10,8 °C 11,3 km/h (2 Bft)
10.10.2017 11:05 10,7 °C 10,8 °C 79 % 1020,0 hPa 0,0 mm 9,9 km/h (2 Bft) NW 310 ° 0 min 0,000 mm 1,3 UV-I 181 W/m² 7,2 °C 10,7 °C 16,1 km/h (3 Bft)
10.10.2017 11:06 10,7 °C 10,7 °C 79 % 1020,0 hPa 0,0 mm 5,8 km/h (2 Bft) W 262 ° 0 min 0,000 mm 1,4 UV-I 183 W/m² 7,2 °C 10,7 °C 9,7 km/h (2 Bft)
10.10.2017 11:07 10,6 °C 10,7 °C 79 % 1020,0 hPa 0,0 mm 5,6 km/h (1 Bft) W-SW 245 ° 0 min 0,000 mm 1,4 UV-I 185 W/m² 7,1 °C 10,6 °C 8,0 km/h (2 Bft)
10.10.2017 11:08 10,6 °C 10,6 °C 81 % 1020,0 hPa 0,0 mm 9,2 km/h (2 Bft) W-NW 293 ° 0 min 0,000 mm 1,4 UV-I 188 W/m² 7,5 °C 10,6 °C 12,9 km/h (3 Bft)
10.10.2017 11:09 10,6 °C 10,6 °C 79 % 1019,9 hPa 0,0 mm 5,2 km/h (1 Bft) W 268 ° 0 min 0,000 mm 1,5 UV-I 192 W/m² 7,1 °C 10,6 °C 6,4 km/h (2 Bft)
10.10.2017 11:10 10,6 °C 10,6 °C 80 % 1020,0 hPa 0,0 mm 4,0 km/h (1 Bft) W 279 ° 0 min 0,000 mm 1,5 UV-I 199 W/m² 7,3 °C 10,6 °C 6,4 km/h (2 Bft)
10.10.2017 11:11 10,5 °C 10,6 °C 80 % 1019,9 hPa 0,0 mm 4,2 km/h (1 Bft) W 262 ° 0 min 0,000 mm 1,6 UV-I 207 W/m² 7,2 °C 10,5 °C 6,4 km/h (2 Bft)
10.10.2017 11:12 10,4 °C 10,6 °C 79 % 1020,0 hPa 0,0 mm 4,4 km/h (1 Bft) W 259 ° 0 min 0,000 mm 1,6 UV-I 232 W/m² 6,9 °C 10,4 °C 6,4 km/h (2 Bft)
10.10.2017 11:13 10,5 °C 10,5 °C 78 % 1019,9 hPa 0,0 mm 4,4 km/h (1 Bft) W-SW 257 ° 0 min 0,000 mm 1,7 UV-I 244 W/m² 6,8 °C 10,5 °C 4,8 km/h (1 Bft)
10.10.2017 11:14 10,6 °C 10,6 °C 79 % 1019,9 hPa 0,0 mm 5,0 km/h (1 Bft) W 271 ° 0 min 0,000 mm 1,7 UV-I 251 W/m² 7,1 °C 10,6 °C 14,5 km/h (3 Bft)
10.10.2017 11:15 10,6 °C 10,6 °C 79 % 1019,9 hPa 0,0 mm 10,0 km/h (2 Bft) W 264 ° 0 min 0,000 mm 1,6 UV-I 250 W/m² 7,1 °C 10,6 °C 14,5 km/h (3 Bft)
10.10.2017 11:16 10,6 °C 10,6 °C 80 % 1019,9 hPa 0,0 mm 5,8 km/h (2 Bft) W 261 ° 0 min 0,000 mm 1,6 UV-I 241 W/m² 7,3 °C 10,6 °C 6,4 km/h (2 Bft)
10.10.2017 11:17 10,6 °C 10,6 °C 79 % 1020,0 hPa 0,0 mm 6,1 km/h (2 Bft) W-NW 298 ° 0 min 0,000 mm 1,5 UV-I 225 W/m² 7,1 °C 10,6 °C 9,7 km/h (2 Bft)
10.10.2017 11:18 10,6 °C 10,6 °C 80 % 1019,9 hPa 0,0 mm 5,7 km/h (1 Bft) W-NW 284 ° 0 min 0,000 mm 1,5 UV-I 272 W/m² 7,3 °C 10,6 °C 9,7 km/h (2 Bft)
10.10.2017 11:19 10,6 °C 10,6 °C 77 % 1020,0 hPa 0,0 mm 4,5 km/h (1 Bft) W-NW 286 ° 0 min 0,000 mm 1,5 UV-I 220 W/m² 6,7 °C 10,6 °C 11,3 km/h (2 Bft)
10.10.2017 11:20 10,7 °C 10,7 °C 80 % 1020,0 hPa 0,0 mm 4,6 km/h (1 Bft) W 268 ° 0 min 0,000 mm 1,5 UV-I 190 W/m² 7,4 °C 10,7 °C 11,3 km/h (2 Bft)
10.10.2017 11:21 10,7 °C 10,7 °C 81 % 1020,0 hPa 0,0 mm 7,7 km/h (2 Bft) W 261 ° 0 min 0,000 mm 1,5 UV-I 192 W/m² 7,6 °C 10,7 °C 12,9 km/h (3 Bft)
10.10.2017 11:22 10,7 °C 10,7 °C 78 % 1020,0 hPa 0,0 mm 5,1 km/h (1 Bft) W 279 ° 0 min 0,000 mm 1,6 UV-I 200 W/m² 7,0 °C 10,7 °C 9,7 km/h (2 Bft)
10.10.2017 11:23 10,7 °C 10,7 °C 79 % 1020,0 hPa 0,0 mm 6,4 km/h (2 Bft) W-NW 300 ° 0 min 0,000 mm 1,6 UV-I 211 W/m² 7,2 °C 10,7 °C 11,3 km/h (2 Bft)
10.10.2017 11:24 10,7 °C 10,7 °C 77 % 1020,0 hPa 0,0 mm 5,3 km/h (1 Bft) W-NW 296 ° 0 min 0,000 mm 1,7 UV-I 237 W/m² 6,8 °C 10,7 °C 11,3 km/h (2 Bft)
10.10.2017 11:25 10,7 °C 10,7 °C 77 % 1020,0 hPa 0,0 mm 7,0 km/h (2 Bft) W 275 ° 0 min 0,000 mm 1,8 UV-I 253 W/m² 6,8 °C 10,7 °C 11,3 km/h (2 Bft)
10.10.2017 11:26 10,7 °C 10,7 °C 78 % 1020,0 hPa 0,0 mm 2,7 km/h (1 Bft) W 273 ° 0 min 0,000 mm 1,8 UV-I 255 W/m² 7,0 °C 10,7 °C 4,8 km/h (1 Bft)
10.10.2017 11:27 10,7 °C 10,7 °C 78 % 1020,0 hPa 0,0 mm 5,1 km/h (1 Bft) W-NW 302 ° 0 min 0,000 mm 1,9 UV-I 262 W/m² 7,0 °C 10,7 °C 6,4 km/h (2 Bft)
10.10.2017 11:28 10,8 °C 10,8 °C 79 % 1020,0 hPa 0,0 mm 6,8 km/h (2 Bft) W-NW 292 ° 0 min 0,000 mm 1,9 UV-I 267 W/m² 7,3 °C 10,8 °C 9,7 km/h (2 Bft)
10.10.2017 11:29 10,8 °C 10,8 °C 77 % 1020,0 hPa 0,0 mm 5,4 km/h (1 Bft) W 277 ° 0 min 0,000 mm 1,9 UV-I 271 W/m² 6,9 °C 10,8 °C 6,4 km/h (2 Bft)
10.10.2017 11:30 10,8 °C 10,8 °C 77 % 1020,1 hPa 0,0 mm 7,3 km/h (2 Bft) W-NW 286 ° 0 min 0,000 mm 2,0 UV-I 285 W/m² 6,9 °C 10,8 °C 11,3 km/h (2 Bft)
10.10.2017 11:31 10,8 °C 10,8 °C 77 % 1020,1 hPa 0,0 mm 7,6 km/h (2 Bft) W-NW 292 ° 0 min 0,000 mm 2,0 UV-I 271 W/m² 6,9 °C 10,8 °C 12,9 km/h (3 Bft)
10.10.2017 11:32 10,9 °C 10,9 °C 79 % 1020,0 hPa 0,0 mm 5,3 km/h (1 Bft) W 271 ° 0 min 0,000 mm 2,0 UV-I 264 W/m² 7,4 °C 10,9 °C 11,3 km/h (2 Bft)
10.10.2017 11:33 11,0 °C 11,0 °C 78 % 1020,0 hPa 0,0 mm 6,0 km/h (2 Bft) W-NW 284 ° 0 min 0,000 mm 2,0 UV-I 262 W/m² 7,3 °C 11,0 °C 9,7 km/h (2 Bft)
10.10.2017 11:34 11,0 °C 11,0 °C 78 % 1020,0 hPa 0,0 mm 7,2 km/h (2 Bft) W 260 ° 0 min 0,000 mm 2,0 UV-I 262 W/m² 7,3 °C 11,0 °C 12,9 km/h (3 Bft)
10.10.2017 11:35 11,0 °C 11,1 °C 78 % 1020,0 hPa 0,0 mm 4,6 km/h (1 Bft) W 271 ° 0 min 0,000 mm 2,0 UV-I 264 W/m² 7,3 °C 11,0 °C 6,4 km/h (2 Bft)
10.10.2017 11:36 11,0 °C 11,0 °C 78 % 1020,0 hPa 0,0 mm 6,5 km/h (2 Bft) W-NW 302 ° 0 min 0,000 mm 2,0 UV-I 272 W/m² 7,3 °C 11,0 °C 9,7 km/h (2 Bft)
10.10.2017 11:37 11,1 °C 11,1 °C 77 % 1020,0 hPa 0,0 mm 5,2 km/h (1 Bft) W-NW 284 ° 0 min 0,000 mm 2,0 UV-I 276 W/m² 7,2 °C 11,1 °C 11,3 km/h (2 Bft)
10.10.2017 11:38 11,1 °C 11,1 °C 78 % 1020,1 hPa 0,0 mm 7,2 km/h (2 Bft) W 266 ° 0 min 0,000 mm 2,1 UV-I 281 W/m² 7,4 °C 11,1 °C 12,9 km/h (3 Bft)
10.10.2017 11:39 11,1 °C 11,2 °C 76 % 1020,1 hPa 0,0 mm 5,6 km/h (1 Bft) W-NW 282 ° 0 min 0,000 mm 2,1 UV-I 285 W/m² 7,0 °C 11,1 °C 9,7 km/h (2 Bft)
10.10.2017 11:40 11,1 °C 11,1 °C 76 % 1020,1 hPa 0,0 mm 8,0 km/h (2 Bft) W 261 ° 0 min 0,000 mm 2,1 UV-I 283 W/m² 7,0 °C 11,1 °C 14,5 km/h (3 Bft)
10.10.2017 11:41 11,2 °C 11,2 °C 78 % 1020,1 hPa 0,0 mm 7,2 km/h (2 Bft) W-NW 302 ° 0 min 0,000 mm 2,1 UV-I 285 W/m² 7,5 °C 11,2 °C 12,9 km/h (3 Bft)
10.10.2017 11:42 11,2 °C 11,2 °C 79 % 1020,1 hPa 0,0 mm 3,8 km/h (1 Bft) W-NW 294 ° 0 min 0,000 mm 2,0 UV-I 281 W/m² 7,7 °C 11,2 °C 6,4 km/h (2 Bft)
10.10.2017 11:43 11,2 °C 11,2 °C 77 % 1020,1 hPa 0,0 mm 3,9 km/h (1 Bft) W 262 ° 0 min 0,000 mm 2,0 UV-I 279 W/m² 7,3 °C 11,2 °C 4,8 km/h (1 Bft)
10.10.2017 11:44 11,3 °C 11,3 °C 78 % 1020,1 hPa 0,0 mm 5,3 km/h (1 Bft) W-SW 249 ° 0 min 0,000 mm 2,0 UV-I 276 W/m² 7,6 °C 11,3 °C 9,7 km/h (2 Bft)
10.10.2017 11:45 11,3 °C 11,3 °C 77 % 1020,1 hPa 0,0 mm 7,2 km/h (2 Bft) W 267 ° 0 min 0,000 mm 2,0 UV-I 272 W/m² 7,4 °C 11,3 °C 11,3 km/h (2 Bft)
10.10.2017 11:46 11,3 °C 11,3 °C 76 % 1020,1 hPa 0,0 mm 11,6 km/h (2 Bft) W-SW 242 ° 0 min 0,000 mm 2,0 UV-I 269 W/m² 7,2 °C 11,3 °C 16,1 km/h (3 Bft)
10.10.2017 11:47 11,3 °C 11,3 °C 76 % 1020,1 hPa 0,0 mm 9,6 km/h (2 Bft) W 277 ° 0 min 0,000 mm 2,0 UV-I 267 W/m² 7,2 °C 11,3 °C 14,5 km/h (3 Bft)
10.10.2017 11:48 11,3 °C 11,3 °C 76 % 1020,1 hPa 0,0 mm 8,2 km/h (2 Bft) W-NW 282 ° 0 min 0,000 mm 2,0 UV-I 262 W/m² 7,2 °C 11,3 °C 12,9 km/h (3 Bft)
10.10.2017 11:49 11,3 °C 11,3 °C 77 % 1020,1 hPa 0,0 mm 6,9 km/h (2 Bft) W 277 ° 0 min 0,000 mm 2,0 UV-I 260 W/m² 7,4 °C 11,3 °C 11,3 km/h (2 Bft)
10.10.2017 11:50 11,3 °C 11,3 °C 77 % 1020,1 hPa 0,0 mm 8,0 km/h (2 Bft) SW 233 ° 0 min 0,000 mm 2,0 UV-I 260 W/m² 7,4 °C 11,3 °C 16,1 km/h (3 Bft)
10.10.2017 11:51 11,4 °C 11,4 °C 77 % 1020,1 hPa 0,0 mm 6,1 km/h (2 Bft) W 259 ° 0 min 0,000 mm 1,9 UV-I 257 W/m² 7,5 °C 11,4 °C 9,7 km/h (2 Bft)
10.10.2017 11:52 11,4 °C 11,4 °C 76 % 1020,1 hPa 0,0 mm 2,6 km/h (1 Bft) W 262 ° 0 min 0,000 mm 1,9 UV-I 253 W/m² 7,3 °C 11,4 °C 4,8 km/h (1 Bft)
10.10.2017 11:53 11,4 °C 11,4 °C 78 % 1020,1 hPa 0,0 mm 6,0 km/h (2 Bft) W-NW 288 ° 0 min 0,000 mm 1,9 UV-I 248 W/m² 7,7 °C 11,4 °C 11,3 km/h (2 Bft)
10.10.2017 11:54 11,4 °C 11,4 °C 77 % 1020,0 hPa 0,0 mm 3,4 km/h (1 Bft) W 268 ° 0 min 0,000 mm 1,9 UV-I 239 W/m² 7,5 °C 11,4 °C 6,4 km/h (2 Bft)
10.10.2017 11:55 11,4 °C 11,4 °C 77 % 1020,1 hPa 0,0 mm 7,5 km/h (2 Bft) W-SW 257 ° 0 min 0,000 mm 1,9 UV-I 237 W/m² 7,5 °C 11,4 °C 12,9 km/h (3 Bft)
10.10.2017 11:56 11,4 °C 11,4 °C 74 % 1020,1 hPa 0,0 mm 3,1 km/h (1 Bft) W-SW 240 ° 0 min 0,000 mm 1,9 UV-I 239 W/m² 6,9 °C 11,4 °C 6,4 km/h (2 Bft)
10.10.2017 11:57 11,4 °C 11,4 °C 73 % 1020,1 hPa 0,0 mm 4,4 km/h (1 Bft) W 267 ° 0 min 0,000 mm 1,9 UV-I 243 W/m² 6,7 °C 11,4 °C 11,3 km/h (2 Bft)
10.10.2017 11:58 11,4 °C 11,4 °C 75 % 1020,1 hPa 0,0 mm 7,6 km/h (2 Bft) SW 235 ° 0 min 0,000 mm 1,9 UV-I 246 W/m² 7,1 °C 11,4 °C 12,9 km/h (3 Bft)
10.10.2017 11:59 11,4 °C 11,4 °C 76 % 1020,1 hPa 0,0 mm 9,7 km/h (2 Bft) SW 225 ° 0 min 0,000 mm 1,9 UV-I 253 W/m² 7,3 °C 11,4 °C 14,5 km/h (3 Bft)
10.10.2017 12:00 11,4 °C 11,4 °C 77 % 1020,1 hPa 0,0 mm 8,1 km/h (2 Bft) S-SW 195 ° 0 min 0,000 mm 1,9 UV-I 257 W/m² 7,5 °C 11,4 °C 16,1 km/h (3 Bft)
10.10.2017 12:01 11,4 °C 11,4 °C 73 % 1020,1 hPa 0,0 mm 6,2 km/h (2 Bft) W-SW 249 ° 0 min 0,127 mm 1,9 UV-I 260 W/m² 6,7 °C 11,4 °C 9,7 km/h (2 Bft)
10.10.2017 12:02 11,4 °C 11,5 °C 73 % 1020,1 hPa 0,0 mm 7,3 km/h (2 Bft) W 261 ° 0 min 0,000 mm 1,9 UV-I 255 W/m² 6,7 °C 11,4 °C 11,3 km/h (2 Bft)
10.10.2017 12:03 11,5 °C 11,5 °C 76 % 1020,1 hPa 0,0 mm 7,8 km/h (2 Bft) W 279 ° 0 min 0,000 mm 1,8 UV-I 246 W/m² 7,4 °C 11,5 °C 11,3 km/h (2 Bft)
10.10.2017 12:04 11,5 °C 11,5 °C 77 % 1020,1 hPa 0,0 mm 6,4 km/h (2 Bft) W-SW 257 ° 0 min 0,000 mm 1,8 UV-I 237 W/m² 7,6 °C 11,5 °C 12,9 km/h (3 Bft)
10.10.2017 12:05 11,6 °C 11,6 °C 76 % 1020,1 hPa 0,0 mm 7,8 km/h (2 Bft) W-SW 247 ° 0 min 0,000 mm 1,8 UV-I 229 W/m² 7,5 °C 11,6 °C 12,9 km/h (3 Bft)
10.10.2017 12:06 11,6 °C 11,6 °C 76 % 1020,0 hPa 0,0 mm 2,1 km/h (1 Bft) W 272 ° 0 min 0,000 mm 1,7 UV-I 225 W/m² 7,5 °C 11,6 °C 6,4 km/h (2 Bft)
10.10.2017 12:07 11,6 °C 11,6 °C 78 % 1020,0 hPa 0,0 mm 4,2 km/h (1 Bft) W-SW 247 ° 0 min 0,000 mm 1,7 UV-I 223 W/m² 7,9 °C 11,6 °C 6,4 km/h (2 Bft)
10.10.2017 12:08 11,6 °C 11,6 °C 77 % 1020,0 hPa 0,0 mm 6,8 km/h (2 Bft) SW 232 ° 0 min 0,000 mm 1,7 UV-I 223 W/m² 7,7 °C 11,6 °C 12,9 km/h (3 Bft)
10.10.2017 12:09 11,7 °C 11,7 °C 76 % 1020,0 hPa 0,0 mm 3,5 km/h (1 Bft) SW 227 ° 0 min 0,000 mm 1,7 UV-I 229 W/m² 7,6 °C 11,7 °C 4,8 km/h (1 Bft)
10.10.2017 12:10 11,7 °C 11,7 °C 76 % 1020,0 hPa 0,0 mm 5,1 km/h (1 Bft) S-SW 201 ° 0 min 0,000 mm 1,7 UV-I 236 W/m² 7,6 °C 11,7 °C 8,0 km/h (2 Bft)
10.10.2017 12:11 11,7 °C 11,7 °C 73 % 1020,0 hPa 0,0 mm 7,0 km/h (2 Bft) W 279 ° 0 min 0,000 mm 1,7 UV-I 244 W/m² 7,0 °C 11,7 °C 11,3 km/h (2 Bft)
10.10.2017 12:12 11,6 °C 11,7 °C 72 % 1020,0 hPa 0,0 mm 11,3 km/h (2 Bft) W-SW 245 ° 0 min 0,000 mm 1,7 UV-I 244 W/m² 6,7 °C 11,6 °C 16,1 km/h (3 Bft)
10.10.2017 12:13 11,6 °C 11,6 °C 73 % 1020,0 hPa 0,0 mm 6,1 km/h (2 Bft) W 274 ° 0 min 0,000 mm 1,7 UV-I 237 W/m² 6,9 °C 11,6 °C 11,3 km/h (2 Bft)
10.10.2017 12:14 11,7 °C 11,7 °C 74 % 1019,9 hPa 0,0 mm 3,3 km/h (1 Bft) W-SW 242 ° 0 min 0,000 mm 1,6 UV-I 241 W/m² 7,2 °C 11,7 °C 6,4 km/h (2 Bft)
10.10.2017 12:15 11,6 °C 11,7 °C 71 % 1020,0 hPa 0,0 mm 7,7 km/h (2 Bft) S-SW 207 ° 0 min 0,000 mm 1,6 UV-I 221 W/m² 6,5 °C 11,6 °C 12,9 km/h (3 Bft)
10.10.2017 12:16 11,6 °C 11,7 °C 72 % 1019,9 hPa 0,0 mm 3,8 km/h (1 Bft) SW 229 ° 0 min 0,000 mm 1,6 UV-I 209 W/m² 6,7 °C 11,6 °C 6,4 km/h (2 Bft)
10.10.2017 12:17 11,6 °C 11,6 °C 73 % 1019,9 hPa 0,0 mm 1,1 km/h (1 Bft) SW 233 ° 0 min 0,000 mm 1,5 UV-I 199 W/m² 6,9 °C 11,6 °C 3,2 km/h (1 Bft)
10.10.2017 12:18 11,6 °C 11,6 °C 73 % 1019,9 hPa 0,0 mm 4,2 km/h (1 Bft) SW 215 ° 0 min 0,000 mm 1,5 UV-I 193 W/m² 6,9 °C 11,6 °C 8,0 km/h (2 Bft)
10.10.2017 12:19 11,6 °C 11,6 °C 73 % 1019,9 hPa 0,0 mm 5,5 km/h (1 Bft) W-SW 247 ° 0 min 0,000 mm 1,5 UV-I 190 W/m² 6,9 °C 11,6 °C 6,4 km/h (2 Bft)
10.10.2017 12:20 11,6 °C 11,6 °C 74 % 1019,9 hPa 0,0 mm 3,1 km/h (1 Bft) W 278 ° 0 min 0,000 mm 1,4 UV-I 188 W/m² 7,1 °C 11,6 °C 6,4 km/h (2 Bft)
10.10.2017 12:21 11,6 °C 11,6 °C 74 % 1019,9 hPa 0,0 mm 5,8 km/h (2 Bft) W 278 ° 0 min 0,000 mm 1,4 UV-I 186 W/m² 7,1 °C 11,6 °C 9,7 km/h (2 Bft)
10.10.2017 12:22 11,6 °C 11,7 °C 74 % 1019,8 hPa 0,0 mm 2,1 km/h (1 Bft) W-SW 246 ° 0 min 0,000 mm 1,5 UV-I 186 W/m² 7,1 °C 11,6 °C 4,8 km/h (1 Bft)
10.10.2017 12:23 11,7 °C 11,7 °C 74 % 1019,9 hPa 0,0 mm 4,8 km/h (1 Bft) W 267 ° 0 min 0,000 mm 1,5 UV-I 190 W/m² 7,2 °C 11,7 °C 6,4 km/h (2 Bft)
10.10.2017 12:24 11,7 °C 11,7 °C 75 % 1019,9 hPa 0,0 mm 3,6 km/h (1 Bft) W 267 ° 0 min 0,000 mm 1,5 UV-I 190 W/m² 7,4 °C 11,7 °C 4,8 km/h (1 Bft)
10.10.2017 12:25 11,7 °C 11,7 °C 74 % 1019,8 hPa 0,0 mm 2,9 km/h (1 Bft) W-NW 293 ° 0 min 0,000 mm 1,5 UV-I 190 W/m² 7,2 °C 11,7 °C 4,8 km/h (1 Bft)
10.10.2017 12:26 11,7 °C 11,7 °C 75 % 1019,9 hPa 0,0 mm 4,3 km/h (1 Bft) W-NW 290 ° 0 min 0,000 mm 1,5 UV-I 190 W/m² 7,4 °C 11,7 °C 6,4 km/h (2 Bft)
10.10.2017 12:27 11,7 °C 11,7 °C 73 % 1019,9 hPa 0,0 mm 6,7 km/h (2 Bft) W 267 ° 0 min 0,000 mm 1,5 UV-I 188 W/m² 7,0 °C 11,7 °C 11,3 km/h (2 Bft)
10.10.2017 12:28 11,7 °C 11,7 °C 74 % 1019,8 hPa 0,0 mm 2,9 km/h (1 Bft) W-SW 252 ° 0 min 0,000 mm 1,5 UV-I 188 W/m² 7,2 °C 11,7 °C 6,4 km/h (2 Bft)
10.10.2017 12:29 11,7 °C 11,7 °C 75 % 1019,8 hPa 0,0 mm 4,2 km/h (1 Bft) W-SW 250 ° 0 min 0,000 mm 1,6 UV-I 188 W/m² 7,4 °C 11,7 °C 6,4 km/h (2 Bft)
10.10.2017 12:30 11,7 °C 11,7 °C 74 % 1019,8 hPa 0,0 mm 5,1 km/h (1 Bft) S-SW 203 ° 0 min 0,000 mm 1,6 UV-I 190 W/m² 7,2 °C 11,7 °C 6,4 km/h (2 Bft)
10.10.2017 12:31 11,8 °C 11,8 °C 74 % 1019,8 hPa 0,0 mm 7,4 km/h (2 Bft) W-SW 251 ° 0 min 0,000 mm 1,6 UV-I 192 W/m² 7,3 °C 11,8 °C 11,3 km/h (2 Bft)
10.10.2017 12:32 11,8 °C 11,8 °C 74 % 1019,8 hPa 0,0 mm 4,2 km/h (1 Bft) S-SW 192 ° 0 min 0,000 mm 1,6 UV-I 193 W/m² 7,3 °C 11,8 °C 8,0 km/h (2 Bft)
10.10.2017 12:33 11,8 °C 11,8 °C 73 % 1019,8 hPa 0,0 mm 4,6 km/h (1 Bft) S-SW 195 ° 0 min 0,000 mm 1,6 UV-I 195 W/m² 7,1 °C 11,8 °C 8,0 km/h (2 Bft)
10.10.2017 12:34 11,7 °C 11,8 °C 73 % 1019,7 hPa 0,0 mm 6,1 km/h (2 Bft) S 183 ° 0 min 0,000 mm 1,7 UV-I 200 W/m² 7,0 °C 11,7 °C 9,7 km/h (2 Bft)
10.10.2017 12:35 11,8 °C 11,8 °C 73 % 1019,7 hPa 0,0 mm 4,0 km/h (1 Bft) W-SW 255 ° 0 min 0,000 mm 1,7 UV-I 204 W/m² 7,1 °C 11,8 °C 6,4 km/h (2 Bft)
10.10.2017 12:36 11,8 °C 11,8 °C 73 % 1019,7 hPa 0,0 mm 3,1 km/h (1 Bft) S 190 ° 0 min 0,000 mm 1,7 UV-I 206 W/m² 7,1 °C 11,8 °C 6,4 km/h (2 Bft)
10.10.2017 12:37 11,8 °C 11,8 °C 74 % 1019,7 hPa 0,0 mm 8,7 km/h (2 Bft) W 273 ° 0 min 0,000 mm 1,7 UV-I 207 W/m² 7,3 °C 11,8 °C 12,9 km/h (3 Bft)
10.10.2017 12:38 11,8 °C 11,8 °C 73 % 1019,6 hPa 0,0 mm 4,5 km/h (1 Bft) W-SW 254 ° 0 min 0,000 mm 1,7 UV-I 209 W/m² 7,1 °C 11,8 °C 9,7 km/h (2 Bft)
10.10.2017 12:39 11,8 °C 11,8 °C 71 % 1019,6 hPa 0,0 mm 6,8 km/h (2 Bft) W-SW 240 ° 0 min 0,000 mm 1,7 UV-I 206 W/m² 6,7 °C 11,8 °C 12,9 km/h (3 Bft)
10.10.2017 12:40 11,8 °C 11,9 °C 73 % 1019,6 hPa 0,0 mm 9,1 km/h (2 Bft) W-SW 250 ° 0 min 0,000 mm 1,7 UV-I 197 W/m² 7,1 °C 11,8 °C 16,1 km/h (3 Bft)
10.10.2017 12:41 11,9 °C 11,9 °C 71 % 1019,7 hPa 0,0 mm 7,8 km/h (2 Bft) W 271 ° 0 min 0,000 mm 1,7 UV-I 193 W/m² 6,8 °C 11,9 °C 12,9 km/h (3 Bft)
10.10.2017 12:42 11,9 °C 11,9 °C 73 % 1019,7 hPa 0,0 mm 1,4 km/h (1 Bft) SW 236 ° 0 min 0,000 mm 1,7 UV-I 193 W/m² 7,2 °C 11,9 °C 4,8 km/h (1 Bft)
10.10.2017 12:43 11,9 °C 11,9 °C 72 % 1019,7 hPa 0,0 mm 2,3 km/h (1 Bft) W-NW 283 ° 0 min 0,000 mm 1,7 UV-I 197 W/m² 7,0 °C 11,9 °C 4,8 km/h (1 Bft)
10.10.2017 12:44 11,9 °C 11,9 °C 71 % 1019,7 hPa 0,0 mm 4,4 km/h (1 Bft) W 276 ° 0 min 0,000 mm 1,7 UV-I 202 W/m² 6,8 °C 11,9 °C 6,4 km/h (2 Bft)
10.10.2017 12:45 11,9 °C 11,9 °C 72 % 1019,7 hPa 0,0 mm 2,0 km/h (1 Bft) W 276 ° 0 min 0,000 mm 1,7 UV-I 200 W/m² 7,0 °C 11,9 °C 3,2 km/h (1 Bft)
10.10.2017 12:46 11,9 °C 11,9 °C 73 % 1019,7 hPa 0,0 mm 1,7 km/h (1 Bft) SW 232 ° 0 min 0,000 mm 1,6 UV-I 197 W/m² 7,2 °C 11,9 °C 4,8 km/h (1 Bft)
10.10.2017 12:47 11,9 °C 11,9 °C 73 % 1019,7 hPa 0,0 mm 7,3 km/h (2 Bft) W 262 ° 0 min 0,000 mm 1,6 UV-I 197 W/m² 7,2 °C 11,9 °C 12,9 km/h (3 Bft)
10.10.2017 12:48 11,9 °C 11,9 °C 73 % 1019,7 hPa 0,0 mm 8,4 km/h (2 Bft) W-SW 256 ° 0 min 0,000 mm 1,6 UV-I 193 W/m² 7,2 °C 11,9 °C 11,3 km/h (2 Bft)
10.10.2017 12:49 12,0 °C 12,0 °C 73 % 1019,8 hPa 0,0 mm 3,0 km/h (1 Bft) W 265 ° 0 min 0,000 mm 1,7 UV-I 195 W/m² 7,3 °C 12,0 °C 4,8 km/h (1 Bft)
10.10.2017 12:50 12,0 °C 12,0 °C 72 % 1019,7 hPa 0,0 mm 5,1 km/h (1 Bft) W-NW 289 ° 0 min 0,000 mm 1,7 UV-I 195 W/m² 7,1 °C 12,0 °C 8,0 km/h (2 Bft)
10.10.2017 12:51 12,1 °C 12,1 °C 73 % 1019,7 hPa 0,0 mm 3,6 km/h (1 Bft) W-SW 256 ° 0 min 0,000 mm 1,8 UV-I 197 W/m² 7,4 °C 12,1 °C 6,4 km/h (2 Bft)
10.10.2017 12:52 12,1 °C 12,1 °C 74 % 1019,7 hPa 0,0 mm 5,0 km/h (1 Bft) S-SW 213 ° 0 min 0,000 mm 1,8 UV-I 209 W/m² 7,6 °C 12,1 °C 6,4 km/h (2 Bft)
10.10.2017 12:53 12,1 °C 12,1 °C 73 % 1019,6 hPa 0,0 mm 2,9 km/h (1 Bft) W-SW 238 ° 0 min 0,000 mm 2,0 UV-I 218 W/m² 7,4 °C 12,1 °C 4,8 km/h (1 Bft)
10.10.2017 12:54 12,1 °C 12,1 °C 72 % 1019,7 hPa 0,0 mm 7,8 km/h (2 Bft) SW 229 ° 0 min 0,000 mm 2,0 UV-I 225 W/m² 7,2 °C 12,1 °C 12,9 km/h (3 Bft)
10.10.2017 12:55 12,2 °C 12,2 °C 72 % 1019,6 hPa 0,0 mm 6,1 km/h (2 Bft) W-SW 257 ° 0 min 0,000 mm 2,0 UV-I 227 W/m² 7,3 °C 12,2 °C 12,9 km/h (3 Bft)
10.10.2017 12:56 12,2 °C 12,2 °C 70 % 1019,6 hPa 0,0 mm 10,0 km/h (2 Bft) W-SW 250 ° 0 min 0,000 mm 2,0 UV-I 227 W/m² 6,9 °C 12,2 °C 12,9 km/h (3 Bft)
10.10.2017 12:57 12,2 °C 12,2 °C 69 % 1019,7 hPa 0,0 mm 5,2 km/h (1 Bft) W-SW 250 ° 0 min 0,000 mm 2,0 UV-I 223 W/m² 6,7 °C 12,2 °C 12,9 km/h (3 Bft)
10.10.2017 12:58 12,2 °C 12,2 °C 71 % 1019,7 hPa 0,0 mm 2,1 km/h (1 Bft) W-SW 255 ° 0 min 0,000 mm 2,0 UV-I 227 W/m² 7,1 °C 12,2 °C 4,8 km/h (1 Bft)
10.10.2017 12:59 12,3 °C 12,3 °C 71 % 1019,6 hPa 0,0 mm 5,2 km/h (1 Bft) W-NW 302 ° 0 min 0,000 mm 2,1 UV-I 232 W/m² 7,2 °C 12,3 °C 9,7 km/h (2 Bft)
10.10.2017 13:00 12,3 °C 12,3 °C 74 % 1019,7 hPa 0,0 mm 5,4 km/h (1 Bft) W 279 ° 0 min 0,000 mm 2,1 UV-I 241 W/m² 7,8 °C 12,3 °C 11,3 km/h (2 Bft)
10.10.2017 13:01 12,3 °C 12,3 °C 70 % 1019,6 hPa 0,0 mm 5,4 km/h (1 Bft) W-NW 294 ° 0 min 0,127 mm 2,2 UV-I 251 W/m² 7,0 °C 12,3 °C 8,0 km/h (2 Bft)
10.10.2017 13:02 12,3 °C 12,4 °C 71 % 1019,7 hPa 0,0 mm 2,1 km/h (1 Bft) W-NW 296 ° 0 min 0,000 mm 2,2 UV-I 264 W/m² 7,2 °C 12,3 °C 4,8 km/h (1 Bft)
10.10.2017 13:03 12,4 °C 12,4 °C 70 % 1019,7 hPa 0,0 mm 8,4 km/h (2 Bft) W-NW 290 ° 0 min 0,000 mm 2,2 UV-I 267 W/m² 7,1 °C 12,4 °C 17,7 km/h (3 Bft)
10.10.2017 13:04 12,4 °C 12,4 °C 69 % 1019,7 hPa 0,0 mm 13,4 km/h (3 Bft) NW 306 ° 0 min 0,000 mm 2,2 UV-I 262 W/m² 6,9 °C 12,4 °C 20,9 km/h (4 Bft)
10.10.2017 13:05 12,5 °C 12,5 °C 69 % 1019,6 hPa 0,0 mm 8,1 km/h (2 Bft) W 265 ° 0 min 0,000 mm 2,2 UV-I 260 W/m² 7,0 °C 12,5 °C 12,9 km/h (3 Bft)
10.10.2017 13:06 12,5 °C 12,5 °C 69 % 1019,6 hPa 0,0 mm 10,1 km/h (2 Bft) W 273 ° 0 min 0,000 mm 2,2 UV-I 257 W/m² 7,0 °C 12,5 °C 14,5 km/h (3 Bft)
10.10.2017 13:07 12,4 °C 12,5 °C 69 % 1019,6 hPa 0,0 mm 11,0 km/h (2 Bft) W 273 ° 0 min 0,000 mm 2,3 UV-I 258 W/m² 6,9 °C 12,4 °C 19,3 km/h (3 Bft)
10.10.2017 13:08 12,4 °C 12,5 °C 70 % 1019,6 hPa 0,0 mm 13,7 km/h (3 Bft) W-SW 257 ° 0 min 0,000 mm 2,3 UV-I 272 W/m² 7,1 °C 12,4 °C 19,3 km/h (3 Bft)
10.10.2017 13:09 12,4 °C 12,5 °C 68 % 1019,7 hPa 0,0 mm 9,1 km/h (2 Bft) W-NW 298 ° 0 min 0,000 mm 2,3 UV-I 276 W/m² 6,7 °C 12,4 °C 17,7 km/h (3 Bft)
10.10.2017 13:10 12,4 °C 12,4 °C 68 % 1019,6 hPa 0,0 mm 9,7 km/h (2 Bft) W-SW 256 ° 0 min 0,000 mm 2,2 UV-I 265 W/m² 6,7 °C 12,4 °C 16,1 km/h (3 Bft)
10.10.2017 13:11 12,5 °C 12,5 °C 70 % 1019,6 hPa 0,0 mm 8,8 km/h (2 Bft) W 268 ° 0 min 0,000 mm 2,1 UV-I 253 W/m² 7,2 °C 12,5 °C 12,9 km/h (3 Bft)
10.10.2017 13:12 12,5 °C 12,5 °C 71 % 1019,7 hPa 0,0 mm 9,1 km/h (2 Bft) W-SW 243 ° 0 min 0,000 mm 2,0 UV-I 241 W/m² 7,4 °C 12,5 °C 14,5 km/h (3 Bft)
10.10.2017 13:13 12,5 °C 12,6 °C 68 % 1019,6 hPa 0,0 mm 9,7 km/h (2 Bft) W-NW 301 ° 0 min 0,000 mm 2,0 UV-I 227 W/m² 6,8 °C 12,5 °C 12,9 km/h (3 Bft)
10.10.2017 13:14 12,4 °C 12,5 °C 69 % 1019,6 hPa 0,0 mm 9,1 km/h (2 Bft) NW 304 ° 0 min 0,000 mm 1,9 UV-I 214 W/m² 6,9 °C 12,4 °C 12,9 km/h (3 Bft)
10.10.2017 13:15 12,5 °C 12,5 °C 70 % 1019,6 hPa 0,0 mm 5,3 km/h (1 Bft) W 268 ° 0 min 0,000 mm 1,8 UV-I 195 W/m² 7,2 °C 12,5 °C 9,7 km/h (2 Bft)
10.10.2017 13:16 12,5 °C 12,5 °C 70 % 1019,6 hPa 0,0 mm 3,8 km/h (1 Bft) W 273 ° 0 min 0,000 mm 1,8 UV-I 192 W/m² 7,2 °C 12,5 °C 6,4 km/h (2 Bft)
10.10.2017 13:17 12,5 °C 12,5 °C 71 % 1019,6 hPa 0,0 mm 8,9 km/h (2 Bft) W 269 ° 0 min 0,000 mm 1,7 UV-I 190 W/m² 7,4 °C 12,5 °C 16,1 km/h (3 Bft)
10.10.2017 13:18 12,5 °C 12,5 °C 72 % 1019,6 hPa 0,0 mm 8,4 km/h (2 Bft) W-SW 240 ° 0 min 0,000 mm 1,7 UV-I 190 W/m² 7,6 °C 12,5 °C 14,5 km/h (3 Bft)
10.10.2017 13:19 12,5 °C 12,5 °C 69 % 1019,6 hPa 0,0 mm 5,4 km/h (1 Bft) W 274 ° 0 min 0,000 mm 1,7 UV-I 190 W/m² 7,0 °C 12,5 °C 9,7 km/h (2 Bft)
10.10.2017 13:20 12,5 °C 12,5 °C 69 % 1019,6 hPa 0,0 mm 5,7 km/h (1 Bft) W-SW 251 ° 0 min 0,000 mm 1,6 UV-I 190 W/m² 7,0 °C 12,5 °C 11,3 km/h (2 Bft)
10.10.2017 13:21 12,5 °C 12,5 °C 71 % 1019,5 hPa 0,0 mm 8,1 km/h (2 Bft) W-NW 302 ° 0 min 0,000 mm 1,6 UV-I 193 W/m² 7,4 °C 12,5 °C 20,9 km/h (4 Bft)
10.10.2017 13:22 12,5 °C 12,5 °C 69 % 1019,5 hPa 0,0 mm 8,8 km/h (2 Bft) W-NW 294 ° 0 min 0,000 mm 1,7 UV-I 197 W/m² 7,0 °C 12,5 °C 12,9 km/h (3 Bft)
10.10.2017 13:23 12,5 °C 12,5 °C 69 % 1019,5 hPa 0,0 mm 4,8 km/h (1 Bft) W-NW 290 ° 0 min 0,000 mm 1,7 UV-I 199 W/m² 7,0 °C 12,5 °C 6,4 km/h (2 Bft)
10.10.2017 13:24 12,5 °C 12,5 °C 70 % 1019,4 hPa 0,0 mm 3,6 km/h (1 Bft) W 268 ° 0 min 0,000 mm 1,8 UV-I 202 W/m² 7,2 °C 12,5 °C 6,4 km/h (2 Bft)
10.10.2017 13:25 12,6 °C 12,6 °C 69 % 1019,4 hPa 0,0 mm 3,4 km/h (1 Bft) W-NW 301 ° 0 min 0,000 mm 1,8 UV-I 209 W/m² 7,1 °C 12,6 °C 8,0 km/h (2 Bft)
10.10.2017 13:26 12,6 °C 12,6 °C 69 % 1019,4 hPa 0,0 mm 7,8 km/h (2 Bft) W-NW 285 ° 0 min 0,000 mm 1,9 UV-I 220 W/m² 7,1 °C 12,6 °C 11,3 km/h (2 Bft)
10.10.2017 13:27 12,6 °C 12,6 °C 71 % 1019,4 hPa 0,0 mm 12,9 km/h (3 Bft) W 269 ° 0 min 0,000 mm 2,0 UV-I 246 W/m² 7,5 °C 12,6 °C 25,7 km/h (4 Bft)
10.10.2017 13:28 12,6 °C 12,7 °C 71 % 1019,5 hPa 0,0 mm 13,4 km/h (3 Bft) W 263 ° 0 min 0,000 mm 2,0 UV-I 250 W/m² 7,5 °C 12,6 °C 17,7 km/h (3 Bft)
10.10.2017 13:29 12,6 °C 12,7 °C 69 % 1019,5 hPa 0,0 mm 15,6 km/h (3 Bft) W-NW 290 ° 0 min 0,000 mm 2,0 UV-I 248 W/m² 7,1 °C 12,6 °C 22,5 km/h (4 Bft)
10.10.2017 13:30 12,6 °C 12,6 °C 69 % 1019,4 hPa 0,0 mm 13,1 km/h (3 Bft) W 273 ° 0 min 0,000 mm 2,0 UV-I 243 W/m² 7,1 °C 12,6 °C 17,7 km/h (3 Bft)
10.10.2017 13:31 12,6 °C 12,6 °C 70 % 1019,5 hPa 0,0 mm 14,1 km/h (3 Bft) W-SW 248 ° 0 min 0,000 mm 2,0 UV-I 230 W/m² 7,3 °C 12,6 °C 19,3 km/h (3 Bft)
10.10.2017 13:32 12,6 °C 12,6 °C 69 % 1019,4 hPa 0,0 mm 15,7 km/h (3 Bft) W-SW 251 ° 0 min 0,000 mm 2,0 UV-I 227 W/m² 7,1 °C 12,6 °C 19,3 km/h (3 Bft)
10.10.2017 13:33 12,6 °C 12,6 °C 69 % 1019,5 hPa 0,0 mm 15,8 km/h (3 Bft) W 261 ° 0 min 0,000 mm 2,0 UV-I 227 W/m² 7,1 °C 12,6 °C 20,9 km/h (4 Bft)
10.10.2017 13:34 12,6 °C 12,6 °C 67 % 1019,4 hPa 0,0 mm 15,6 km/h (3 Bft) W-NW 292 ° 0 min 0,000 mm 2,0 UV-I 227 W/m² 6,6 °C 12,6 °C 20,9 km/h (4 Bft)
10.10.2017 13:35 12,5 °C 12,6 °C 68 % 1019,4 hPa 0,0 mm 11,9 km/h (2 Bft) NW 305 ° 0 min 0,000 mm 2,0 UV-I 230 W/m² 6,8 °C 12,5 °C 16,1 km/h (3 Bft)
10.10.2017 13:36 12,5 °C 12,6 °C 69 % 1019,5 hPa 0,0 mm 11,7 km/h (2 Bft) NW 315 ° 0 min 0,000 mm 2,1 UV-I 236 W/m² 7,0 °C 12,5 °C 20,9 km/h (4 Bft)
10.10.2017 13:37 12,6 °C 12,6 °C 68 % 1019,4 hPa 0,0 mm 11,9 km/h (2 Bft) W-NW 284 ° 0 min 0,000 mm 2,1 UV-I 241 W/m² 6,9 °C 12,6 °C 22,5 km/h (4 Bft)
10.10.2017 13:38 12,6 °C 12,6 °C 69 % 1019,4 hPa 0,0 mm 14,3 km/h (3 Bft) W-NW 290 ° 0 min 0,000 mm 2,2 UV-I 262 W/m² 7,1 °C 12,6 °C 17,7 km/h (3 Bft)
10.10.2017 13:39 12,6 °C 12,6 °C 68 % 1019,4 hPa 0,0 mm 7,6 km/h (2 Bft) W-NW 299 ° 0 min 0,000 mm 2,2 UV-I 264 W/m² 6,9 °C 12,6 °C 12,9 km/h (3 Bft)
10.10.2017 13:40 12,6 °C 12,6 °C 69 % 1019,4 hPa 0,0 mm 7,4 km/h (2 Bft) W-NW 284 ° 0 min 0,000 mm 2,2 UV-I 279 W/m² 7,1 °C 12,6 °C 12,9 km/h (3 Bft)
10.10.2017 13:41 12,7 °C 12,7 °C 69 % 1019,5 hPa 0,0 mm 9,0 km/h (2 Bft) W 267 ° 0 min 0,000 mm 2,2 UV-I 287 W/m² 7,2 °C 12,7 °C 14,5 km/h (3 Bft)
10.10.2017 13:42 12,7 °C 12,7 °C 68 % 1019,5 hPa 0,0 mm 12,7 km/h (3 Bft) W-NW 301 ° 0 min 0,000 mm 2,1 UV-I 264 W/m² 6,9 °C 12,7 °C 17,7 km/h (3 Bft)
10.10.2017 13:43 12,7 °C 12,7 °C 69 % 1019,4 hPa 0,0 mm 6,8 km/h (2 Bft) W 267 ° 0 min 0,000 mm 2,1 UV-I 267 W/m² 7,2 °C 12,7 °C 9,7 km/h (2 Bft)
10.10.2017 13:44 12,7 °C 12,7 °C 69 % 1019,4 hPa 0,0 mm 7,6 km/h (2 Bft) W-NW 283 ° 0 min 0,000 mm 2,2 UV-I 288 W/m² 7,2 °C 12,7 °C 11,3 km/h (2 Bft)
10.10.2017 13:45 12,8 °C 12,8 °C 72 % 1019,4 hPa 0,0 mm 4,8 km/h (1 Bft) NW 321 ° 1 min 0,000 mm 2,2 UV-I 306 W/m² 7,9 °C 12,8 °C 9,7 km/h (2 Bft)
10.10.2017 13:46 12,9 °C 12,9 °C 70 % 1019,4 hPa 0,0 mm 10,7 km/h (2 Bft) W-NW 297 ° 1 min 0,000 mm 2,2 UV-I 308 W/m² 7,6 °C 12,9 °C 14,5 km/h (3 Bft)
10.10.2017 13:47 12,9 °C 12,9 °C 69 % 1019,4 hPa 0,0 mm 5,4 km/h (1 Bft) NW 323 ° 1 min 0,000 mm 2,1 UV-I 290 W/m² 7,4 °C 12,9 °C 6,4 km/h (2 Bft)
10.10.2017 13:48 12,9 °C 12,9 °C 69 % 1019,4 hPa 0,0 mm 3,3 km/h (1 Bft) W-NW 296 ° 0 min 0,000 mm 2,1 UV-I 276 W/m² 7,4 °C 12,9 °C 6,4 km/h (2 Bft)
10.10.2017 13:49 12,9 °C 12,9 °C 69 % 1019,4 hPa 0,0 mm 3,8 km/h (1 Bft) W 262 ° 0 min 0,000 mm 2,0 UV-I 258 W/m² 7,4 °C 12,9 °C 11,3 km/h (2 Bft)
10.10.2017 13:50 12,9 °C 12,9 °C 71 % 1019,4 hPa 0,0 mm 8,7 km/h (2 Bft) W-NW 302 ° 0 min 0,000 mm 1,9 UV-I 258 W/m² 7,8 °C 12,9 °C 12,9 km/h (3 Bft)
10.10.2017 13:51 12,9 °C 12,9 °C 71 % 1019,4 hPa 0,0 mm 7,0 km/h (2 Bft) NW 311 ° 0 min 0,000 mm 1,9 UV-I 221 W/m² 7,8 °C 12,9 °C 11,3 km/h (2 Bft)
10.10.2017 13:52 12,9 °C 12,9 °C 71 % 1019,4 hPa 0,0 mm 5,8 km/h (2 Bft) W-NW 287 ° 0 min 0,000 mm 1,8 UV-I 220 W/m² 7,8 °C 12,9 °C 9,7 km/h (2 Bft)
10.10.2017 13:53 12,9 °C 12,9 °C 71 % 1019,3 hPa 0,0 mm 3,2 km/h (1 Bft) NW 310 ° 0 min 0,000 mm 1,8 UV-I 211 W/m² 7,8 °C 12,9 °C 4,8 km/h (1 Bft)
10.10.2017 13:54 12,9 °C 12,9 °C 72 % 1019,3 hPa 0,0 mm 2,3 km/h (1 Bft) NW 310 ° 0 min 0,000 mm 1,7 UV-I 209 W/m² 8,0 °C 12,9 °C 4,8 km/h (1 Bft)
10.10.2017 13:55 12,9 °C 12,9 °C 71 % 1019,3 hPa 0,0 mm 4,4 km/h (1 Bft) W 259 ° 0 min 0,000 mm 1,7 UV-I 209 W/m² 7,8 °C 12,9 °C 6,4 km/h (2 Bft)
10.10.2017 13:56 12,9 °C 12,9 °C 70 % 1019,4 hPa 0,0 mm 6,0 km/h (2 Bft) NW 320 ° 0 min 0,000 mm 1,8 UV-I 209 W/m² 7,6 °C 12,9 °C 11,3 km/h (2 Bft)
10.10.2017 13:57 12,9 °C 12,9 °C 69 % 1019,3 hPa 0,0 mm 7,0 km/h (2 Bft) W-NW 285 ° 0 min 0,000 mm 1,8 UV-I 209 W/m² 7,4 °C 12,9 °C 11,3 km/h (2 Bft)
10.10.2017 13:58 12,9 °C 12,9 °C 71 % 1019,3 hPa 0,0 mm 6,9 km/h (2 Bft) N-NW 337 ° 0 min 0,000 mm 1,8 UV-I 207 W/m² 7,8 °C 12,9 °C 11,3 km/h (2 Bft)
10.10.2017 13:59 12,8 °C 12,9 °C 71 % 1019,3 hPa 0,0 mm 9,9 km/h (2 Bft) W-NW 282 ° 0 min 0,000 mm 1,8 UV-I 202 W/m² 7,7 °C 12,8 °C 14,5 km/h (3 Bft)
10.10.2017 14:00 12,8 °C 12,9 °C 70 % 1019,3 hPa 0,0 mm 12,3 km/h (3 Bft) W-NW 299 ° 0 min 0,000 mm 1,8 UV-I 199 W/m² 7,5 °C 12,8 °C 19,3 km/h (3 Bft)
10.10.2017 14:01 12,8 °C 12,8 °C 69 % 1019,3 hPa 0,0 mm 7,7 km/h (2 Bft) W 267 ° 0 min 0,152 mm 1,9 UV-I 199 W/m² 7,3 °C 12,8 °C 11,3 km/h (2 Bft)
10.10.2017 14:02 12,8 °C 12,8 °C 70 % 1019,3 hPa 0,0 mm 8,4 km/h (2 Bft) W-NW 282 ° 0 min 0,000 mm 1,9 UV-I 206 W/m² 7,5 °C 12,8 °C 12,9 km/h (3 Bft)
10.10.2017 14:03 12,8 °C 12,8 °C 70 % 1019,3 hPa 0,0 mm 9,3 km/h (2 Bft) W 280 ° 0 min 0,000 mm 2,0 UV-I 264 W/m² 7,5 °C 12,8 °C 14,5 km/h (3 Bft)
10.10.2017 14:04 12,8 °C 12,8 °C 69 % 1019,3 hPa 0,0 mm 7,0 km/h (2 Bft) W 266 ° 0 min 0,000 mm 2,2 UV-I 253 W/m² 7,3 °C 12,8 °C 12,9 km/h (3 Bft)
10.10.2017 14:05 12,8 °C 12,8 °C 69 % 1019,3 hPa 0,0 mm 11,7 km/h (2 Bft) NW 306 ° 1 min 0,000 mm 2,3 UV-I 352 W/m² 7,3 °C 12,8 °C 16,1 km/h (3 Bft)
10.10.2017 14:06 12,8 °C 12,8 °C 68 % 1019,3 hPa 0,0 mm 9,7 km/h (2 Bft) W 281 ° 0 min 0,000 mm 2,3 UV-I 264 W/m² 7,0 °C 12,8 °C 16,1 km/h (3 Bft)
10.10.2017 14:07 12,8 °C 12,8 °C 69 % 1019,3 hPa 0,0 mm 8,1 km/h (2 Bft) W 266 ° 0 min 0,000 mm 2,3 UV-I 288 W/m² 7,3 °C 12,8 °C 12,9 km/h (3 Bft)
10.10.2017 14:08 12,8 °C 12,8 °C 70 % 1019,3 hPa 0,0 mm 13,6 km/h (3 Bft) W 277 ° 1 min 0,000 mm 2,3 UV-I 297 W/m² 7,5 °C 12,8 °C 19,3 km/h (3 Bft)
10.10.2017 14:09 12,9 °C 12,9 °C 70 % 1019,3 hPa 0,0 mm 9,9 km/h (2 Bft) W-NW 292 ° 1 min 0,000 mm 3,1 UV-I 297 W/m² 7,6 °C 12,9 °C 12,9 km/h (3 Bft)
10.10.2017 14:10 12,9 °C 12,9 °C 66 % 1019,3 hPa 0,0 mm 10,2 km/h (2 Bft) N-NW 328 ° 1 min 0,000 mm 2,7 UV-I 559 W/m² 6,7 °C 12,9 °C 19,3 km/h (3 Bft)
10.10.2017 14:11 13,0 °C 13,0 °C 67 % 1019,3 hPa 0,0 mm 16,3 km/h (3 Bft) W 281 ° 1 min 0,000 mm 3,5 UV-I 649 W/m² 7,0 °C 13,0 °C 20,9 km/h (4 Bft)
10.10.2017 14:12 13,1 °C 13,1 °C 66 % 1019,3 hPa 0,0 mm 10,9 km/h (2 Bft) N-NW 347 ° 1 min 0,000 mm 2,6 UV-I 649 W/m² 6,9 °C 13,1 °C 14,5 km/h (3 Bft)
10.10.2017 14:13 13,1 °C 13,2 °C 64 % 1019,3 hPa 0,0 mm 9,9 km/h (2 Bft) W-SW 242 ° 1 min 0,000 mm 2,5 UV-I 649 W/m² 6,4 °C 13,1 °C 17,7 km/h (3 Bft)
10.10.2017 14:14 13,2 °C 13,2 °C 65 % 1019,3 hPa 0,0 mm 11,9 km/h (2 Bft) W-NW 290 ° 0 min 0,000 mm 2,1 UV-I 223 W/m² 6,8 °C 13,2 °C 19,3 km/h (3 Bft)
10.10.2017 14:15 13,2 °C 13,2 °C 66 % 1019,3 hPa 0,0 mm 13,0 km/h (3 Bft) W-NW 292 ° 0 min 0,000 mm 2,3 UV-I 287 W/m² 7,0 °C 13,2 °C 17,7 km/h (3 Bft)
10.10.2017 14:16 13,2 °C 13,2 °C 67 % 1019,3 hPa 0,0 mm 8,2 km/h (2 Bft) W-NW 296 ° 1 min 0,000 mm 2,4 UV-I 320 W/m² 7,2 °C 13,2 °C 12,9 km/h (3 Bft)
10.10.2017 14:17 13,2 °C 13,2 °C 66 % 1019,3 hPa 0,0 mm 5,7 km/h (1 Bft) W 266 ° 1 min 0,000 mm 2,3 UV-I 311 W/m² 7,0 °C 13,2 °C 17,7 km/h (3 Bft)
10.10.2017 14:18 13,1 °C 13,2 °C 65 % 1019,3 hPa 0,0 mm 12,9 km/h (3 Bft) W-NW 286 ° 0 min 0,000 mm 2,2 UV-I 265 W/m² 6,7 °C 13,1 °C 17,7 km/h (3 Bft)
10.10.2017 14:19 13,1 °C 13,1 °C 66 % 1019,3 hPa 0,0 mm 7,4 km/h (2 Bft) NW 306 ° 0 min 0,000 mm 2,3 UV-I 274 W/m² 6,9 °C 13,1 °C 12,9 km/h (3 Bft)
10.10.2017 14:20 13,1 °C 13,1 °C 67 % 1019,3 hPa 0,0 mm 9,9 km/h (2 Bft) W-NW 300 ° 1 min 0,000 mm 2,6 UV-I 399 W/m² 7,1 °C 13,1 °C 16,1 km/h (3 Bft)
10.10.2017 14:21 13,1 °C 13,1 °C 66 % 1019,2 hPa 0,0 mm 7,6 km/h (2 Bft) W 274 ° 1 min 0,000 mm 3,2 UV-I 466 W/m² 6,9 °C 13,1 °C 11,3 km/h (2 Bft)
10.10.2017 14:22 13,1 °C 13,1 °C 66 % 1019,3 hPa 0,0 mm 7,6 km/h (2 Bft) N-NW 332 ° 1 min 0,000 mm 2,5 UV-I 466 W/m² 6,9 °C 13,1 °C 16,1 km/h (3 Bft)
10.10.2017 14:23 13,1 °C 13,1 °C 66 % 1019,3 hPa 0,0 mm 13,3 km/h (3 Bft) W-NW 303 ° 1 min 0,000 mm 2,5 UV-I 367 W/m² 6,9 °C 13,1 °C 20,9 km/h (4 Bft)
10.10.2017 14:24 13,1 °C 13,1 °C 65 % 1019,3 hPa 0,0 mm 8,4 km/h (2 Bft) NW 315 ° 1 min 0,000 mm 2,2 UV-I 367 W/m² 6,7 °C 13,1 °C 16,1 km/h (3 Bft)
10.10.2017 14:25 13,1 °C 13,1 °C 67 % 1019,2 hPa 0,0 mm 6,4 km/h (2 Bft) W-NW 298 ° 0 min 0,000 mm 2,1 UV-I 237 W/m² 7,1 °C 13,1 °C 9,7 km/h (2 Bft)
10.10.2017 14:26 13,1 °C 13,1 °C 65 % 1019,2 hPa 0,0 mm 9,3 km/h (2 Bft) N-NW 336 ° 0 min 0,000 mm 2,0 UV-I 200 W/m² 6,7 °C 13,1 °C 17,7 km/h (3 Bft)
10.10.2017 14:27 13,1 °C 13,1 °C 66 % 1019,2 hPa 0,0 mm 7,7 km/h (2 Bft) W-NW 289 ° 0 min 0,000 mm 2,7 UV-I 200 W/m² 6,9 °C 13,1 °C 11,3 km/h (2 Bft)
10.10.2017 14:28 13,1 °C 13,1 °C 67 % 1019,3 hPa 0,0 mm 8,6 km/h (2 Bft) W-NW 294 ° 0 min 0,000 mm 2,2 UV-I 246 W/m² 7,1 °C 13,1 °C 14,5 km/h (3 Bft)
10.10.2017 14:29 13,1 °C 13,1 °C 65 % 1019,2 hPa 0,0 mm 9,9 km/h (2 Bft) W-SW 256 ° 1 min 0,000 mm 2,3 UV-I 306 W/m² 6,7 °C 13,1 °C 14,5 km/h (3 Bft)
10.10.2017 14:30 13,1 °C 13,1 °C 64 % 1019,2 hPa 0,0 mm 16,2 km/h (3 Bft) W 279 ° 1 min 0,000 mm 2,6 UV-I 387 W/m² 6,4 °C 13,1 °C 22,5 km/h (4 Bft)
10.10.2017 14:31 13,2 °C 13,2 °C 66 % 1019,2 hPa 0,0 mm 8,6 km/h (2 Bft) W 280 ° 1 min 0,000 mm 3,1 UV-I 387 W/m² 7,0 °C 13,2 °C 16,1 km/h (3 Bft)
10.10.2017 14:32 13,3 °C 13,3 °C 67 % 1019,2 hPa 0,0 mm 12,8 km/h (3 Bft) W 275 ° 1 min 0,000 mm 2,3 UV-I 387 W/m² 7,3 °C 13,3 °C 17,7 km/h (3 Bft)
10.10.2017 14:33 13,3 °C 13,3 °C 67 % 1019,2 hPa 0,0 mm 13,5 km/h (3 Bft) W-SW 251 ° 1 min 0,000 mm 2,2 UV-I 387 W/m² 7,3 °C 13,3 °C 16,1 km/h (3 Bft)
10.10.2017 14:34 13,4 °C 13,4 °C 64 % 1019,2 hPa 0,0 mm 11,4 km/h (2 Bft) W-SW 252 ° 1 min 0,000 mm 3,1 UV-I 387 W/m² 6,7 °C 13,4 °C 14,5 km/h (3 Bft)
10.10.2017 14:35 13,4 °C 13,4 °C 67 % 1019,3 hPa 0,0 mm 17,4 km/h (3 Bft) SW 232 ° 1 min 0,000 mm 2,7 UV-I 387 W/m² 7,4 °C 13,4 °C 25,7 km/h (4 Bft)
10.10.2017 14:36 13,4 °C 13,4 °C 65 % 1019,2 hPa 0,0 mm 13,5 km/h (3 Bft) W-SW 247 ° 0 min 0,000 mm 2,7 UV-I 253 W/m² 7,0 °C 13,4 °C 22,5 km/h (4 Bft)
10.10.2017 14:37 13,4 °C 13,4 °C 66 % 1019,2 hPa 0,0 mm 10,8 km/h (2 Bft) SW 221 ° 1 min 0,000 mm 3,1 UV-I 501 W/m² 7,2 °C 13,4 °C 20,9 km/h (4 Bft)
10.10.2017 14:38 13,4 °C 13,4 °C 63 % 1019,2 hPa 0,0 mm 8,0 km/h (2 Bft) W-NW 299 ° 1 min 0,000 mm 2,4 UV-I 501 W/m² 6,5 °C 13,4 °C 11,3 km/h (2 Bft)
10.10.2017 14:39 13,4 °C 13,4 °C 66 % 1019,2 hPa 0,0 mm 14,1 km/h (3 Bft) W-NW 285 ° 1 min 0,000 mm 1,7 UV-I 501 W/m² 7,2 °C 13,4 °C 22,5 km/h (4 Bft)
10.10.2017 14:40 13,3 °C 13,4 °C 65 % 1019,2 hPa 0,0 mm 13,8 km/h (3 Bft) W 281 ° 0 min 0,000 mm 1,6 UV-I 102 W/m² 6,9 °C 13,3 °C 25,7 km/h (4 Bft)
10.10.2017 14:41 13,3 °C 13,3 °C 64 % 1019,3 hPa 0,0 mm 15,6 km/h (3 Bft) W 279 ° 0 min 0,000 mm 1,6 UV-I 90 W/m² 6,6 °C 13,3 °C 22,5 km/h (4 Bft)
10.10.2017 14:42 13,2 °C 13,3 °C 64 % 1019,3 hPa 0,0 mm 14,5 km/h (3 Bft) NW 306 ° 0 min 0,000 mm 1,6 UV-I 84 W/m² 6,5 °C 13,2 °C 22,5 km/h (4 Bft)
10.10.2017 14:43 13,1 °C 13,2 °C 66 % 1019,3 hPa 0,0 mm 8,7 km/h (2 Bft) W-NW 288 ° 0 min 0,000 mm 1,7 UV-I 102 W/m² 6,9 °C 13,1 °C 12,9 km/h (3 Bft)
10.10.2017 14:44 13,1 °C 13,1 °C 66 % 1019,4 hPa 0,0 mm 11,3 km/h (2 Bft) W-NW 292 ° 0 min 0,000 mm 2,1 UV-I 102 W/m² 6,9 °C 13,1 °C 17,7 km/h (3 Bft)
10.10.2017 14:45 13,1 °C 13,1 °C 66 % 1019,4 hPa 0,0 mm 10,0 km/h (2 Bft) NW 306 ° 1 min 0,000 mm 2,2 UV-I 292 W/m² 6,9 °C 13,1 °C 14,5 km/h (3 Bft)
10.10.2017 14:46 13,1 °C 13,1 °C 67 % 1019,4 hPa 0,0 mm 12,5 km/h (3 Bft) W-NW 289 ° 1 min 0,000 mm 2,4 UV-I 327 W/m² 7,1 °C 13,1 °C 17,7 km/h (3 Bft)
10.10.2017 14:47 13,1 °C 13,1 °C 67 % 1019,4 hPa 0,0 mm 15,4 km/h (3 Bft) W-NW 293 ° 0 min 0,000 mm 2,2 UV-I 260 W/m² 7,1 °C 13,1 °C 20,9 km/h (4 Bft)
10.10.2017 14:48 13,2 °C 13,2 °C 66 % 1019,4 hPa 0,0 mm 18,2 km/h (3 Bft) W-NW 296 ° 0 min 0,000 mm 3,0 UV-I 260 W/m² 7,0 °C 13,2 °C 27,4 km/h (4 Bft)
10.10.2017 14:49 13,3 °C 13,3 °C 66 % 1019,4 hPa 0,0 mm 9,9 km/h (2 Bft) NW 309 ° 1 min 0,000 mm 3,1 UV-I 682 W/m² 7,1 °C 13,3 °C 14,5 km/h (3 Bft)
10.10.2017 14:50 13,4 °C 13,4 °C 65 % 1019,4 hPa 0,0 mm 12,4 km/h (3 Bft) W-NW 295 ° 1 min 0,000 mm 2,7 UV-I 698 W/m² 7,0 °C 13,4 °C 22,5 km/h (4 Bft)
10.10.2017 14:51 13,6 °C 13,6 °C 65 % 1019,4 hPa 0,0 mm 13,0 km/h (3 Bft) N-NW 336 ° 1 min 0,000 mm 3,0 UV-I 715 W/m² 7,1 °C 13,6 °C 19,3 km/h (3 Bft)
10.10.2017 14:52 13,7 °C 13,7 °C 65 % 1019,5 hPa 0,0 mm 8,2 km/h (2 Bft) W 263 ° 1 min 0,000 mm 2,0 UV-I 715 W/m² 7,2 °C 13,7 °C 16,1 km/h (3 Bft)
10.10.2017 14:53 13,8 °C 13,8 °C 65 % 1019,5 hPa 0,0 mm 7,8 km/h (2 Bft) W 275 ° 1 min 0,000 mm 2,3 UV-I 294 W/m² 7,3 °C 13,8 °C 16,1 km/h (3 Bft)
10.10.2017 14:54 13,8 °C 13,8 °C 65 % 1019,4 hPa 0,0 mm 11,3 km/h (2 Bft) W-SW 253 ° 0 min 0,000 mm 1,9 UV-I 278 W/m² 7,3 °C 13,8 °C 16,1 km/h (3 Bft)
10.10.2017 14:55 13,8 °C 13,8 °C 65 % 1019,5 hPa 0,0 mm 14,6 km/h (3 Bft) W 271 ° 1 min 0,000 mm 2,0 UV-I 332 W/m² 7,3 °C 13,8 °C 19,3 km/h (3 Bft)
10.10.2017 14:56 13,8 °C 13,8 °C 66 % 1019,5 hPa 0,0 mm 14,2 km/h (3 Bft) W-NW 290 ° 1 min 0,000 mm 2,1 UV-I 327 W/m² 7,6 °C 13,8 °C 24,1 km/h (4 Bft)
10.10.2017 14:57 13,8 °C 13,8 °C 64 % 1019,5 hPa 0,0 mm 9,9 km/h (2 Bft) W 264 ° 1 min 0,000 mm 3,1 UV-I 327 W/m² 7,1 °C 13,8 °C 14,5 km/h (3 Bft)
10.10.2017 14:58 13,8 °C 13,8 °C 65 % 1019,4 hPa 0,0 mm 16,9 km/h (3 Bft) SW 221 ° 1 min 0,000 mm 3,0 UV-I 712 W/m² 7,3 °C 13,8 °C 27,4 km/h (4 Bft)
10.10.2017 14:59 13,9 °C 13,9 °C 64 % 1019,5 hPa 0,0 mm 16,3 km/h (3 Bft) W-SW 258 ° 1 min 0,000 mm 3,1 UV-I 686 W/m² 7,2 °C 13,9 °C 19,3 km/h (3 Bft)
10.10.2017 15:00 13,9 °C 14,0 °C 62 % 1019,4 hPa 0,0 mm 13,5 km/h (3 Bft) SW 236 ° 1 min 0,229 mm 2,5 UV-I 686 W/m² 6,7 °C 13,9 °C 19,3 km/h (3 Bft)
10.10.2017 15:01 14,0 °C 14,0 °C 63 % 1019,3 hPa 0,0 mm 11,1 km/h (2 Bft) W-NW 298 ° 1 min 0,000 mm 2,8 UV-I 555 W/m² 7,1 °C 14,0 °C 14,5 km/h (3 Bft)
10.10.2017 15:02 14,1 °C 14,1 °C 63 % 1019,3 hPa 0,0 mm 16,0 km/h (3 Bft) W 277 ° 1 min 0,000 mm 3,0 UV-I 555 W/m² 7,2 °C 14,1 °C 19,3 km/h (3 Bft)
10.10.2017 15:03 14,1 °C 14,1 °C 63 % 1019,3 hPa 0,0 mm 10,5 km/h (2 Bft) NW 323 ° 1 min 0,000 mm 3,0 UV-I 698 W/m² 7,2 °C 14,1 °C 17,7 km/h (3 Bft)
10.10.2017 15:04 14,2 °C 14,2 °C 64 % 1019,2 hPa 0,0 mm 13,8 km/h (3 Bft) W 277 ° 1 min 0,000 mm 3,0 UV-I 691 W/m² 7,5 °C 14,2 °C 19,3 km/h (3 Bft)
10.10.2017 15:05 14,3 °C 14,3 °C 63 % 1019,3 hPa 0,0 mm 8,5 km/h (2 Bft) NW 304 ° 1 min 0,000 mm 3,0 UV-I 671 W/m² 7,4 °C 14,3 °C 12,9 km/h (3 Bft)
10.10.2017 15:06 14,4 °C 14,4 °C 63 % 1019,2 hPa 0,0 mm 8,5 km/h (2 Bft) NW 305 ° 1 min 0,000 mm 3,0 UV-I 671 W/m² 7,4 °C 14,4 °C 12,9 km/h (3 Bft)
10.10.2017 15:07 14,4 °C 14,4 °C 63 % 1019,2 hPa 0,0 mm 6,8 km/h (2 Bft) W 265 ° 1 min 0,000 mm 3,0 UV-I 659 W/m² 7,4 °C 14,4 °C 14,5 km/h (3 Bft)
10.10.2017 15:08 14,5 °C 14,5 °C 62 % 1019,2 hPa 0,0 mm 9,9 km/h (2 Bft) W-SW 246 ° 1 min 0,000 mm 2,8 UV-I 587 W/m² 7,3 °C 14,5 °C 14,5 km/h (3 Bft)
10.10.2017 15:09 14,4 °C 14,5 °C 63 % 1019,2 hPa 0,0 mm 16,7 km/h (3 Bft) W 281 ° 1 min 0,000 mm 2,9 UV-I 640 W/m² 7,4 °C 14,4 °C 20,9 km/h (4 Bft)
10.10.2017 15:10 14,4 °C 14,4 °C 63 % 1019,2 hPa 0,0 mm 12,7 km/h (3 Bft) NW 308 ° 1 min 0,000 mm 2,9 UV-I 636 W/m² 7,4 °C 14,4 °C 17,7 km/h (3 Bft)
10.10.2017 15:11 14,4 °C 14,4 °C 63 % 1019,3 hPa 0,0 mm 9,0 km/h (2 Bft) NW 309 ° 1 min 0,000 mm 2,7 UV-I 610 W/m² 7,4 °C 14,4 °C 16,1 km/h (3 Bft)
10.10.2017 15:12 14,4 °C 14,4 °C 63 % 1019,2 hPa 0,0 mm 9,2 km/h (2 Bft) W 280 ° 1 min 0,000 mm 2,8 UV-I 527 W/m² 7,4 °C 14,4 °C 14,5 km/h (3 Bft)
10.10.2017 15:13 14,4 °C 14,4 °C 65 % 1019,2 hPa 0,0 mm 9,5 km/h (2 Bft) W-NW 290 ° 1 min 0,000 mm 2,9 UV-I 555 W/m² 7,9 °C 14,4 °C 17,7 km/h (3 Bft)
10.10.2017 15:14 14,4 °C 14,4 °C 65 % 1019,3 hPa 0,0 mm 15,4 km/h (3 Bft) W-NW 291 ° 1 min 0,000 mm 2,7 UV-I 555 W/m² 7,9 °C 14,4 °C 20,9 km/h (4 Bft)
10.10.2017 15:15 14,4 °C 14,4 °C 62 % 1019,2 hPa 0,0 mm 16,2 km/h (3 Bft) W-NW 299 ° 1 min 0,000 mm 2,7 UV-I 512 W/m² 7,2 °C 14,4 °C 24,1 km/h (4 Bft)
10.10.2017 15:16 14,2 °C 14,4 °C 62 % 1019,3 hPa 0,0 mm 11,3 km/h (2 Bft) W-NW 285 ° 1 min 0,000 mm 2,5 UV-I 471 W/m² 7,0 °C 14,2 °C 19,3 km/h (3 Bft)
10.10.2017 15:17 14,1 °C 14,2 °C 63 % 1019,3 hPa 0,0 mm 9,3 km/h (2 Bft) NW 304 ° 1 min 0,000 mm 2,6 UV-I 461 W/m² 7,2 °C 14,1 °C 14,5 km/h (3 Bft)
10.10.2017 15:18 14,1 °C 14,1 °C 64 % 1019,3 hPa 0,0 mm 10,9 km/h (2 Bft) W 265 ° 1 min 0,000 mm 2,3 UV-I 445 W/m² 7,4 °C 14,1 °C 20,9 km/h (4 Bft)
10.10.2017 15:19 14,0 °C 14,1 °C 63 % 1019,3 hPa 0,0 mm 13,6 km/h (3 Bft) W 279 ° 1 min 0,000 mm 2,4 UV-I 445 W/m² 7,1 °C 14,0 °C 22,5 km/h (4 Bft)
10.10.2017 15:20 13,9 °C 14,0 °C 64 % 1019,3 hPa 0,0 mm 11,8 km/h (2 Bft) W 281 ° 1 min 0,000 mm 2,6 UV-I 548 W/m² 7,2 °C 13,9 °C 19,3 km/h (3 Bft)
10.10.2017 15:21 13,8 °C 13,9 °C 64 % 1019,3 hPa 0,0 mm 15,4 km/h (3 Bft) W 279 ° 1 min 0,000 mm 2,0 UV-I 548 W/m² 7,1 °C 13,8 °C 24,1 km/h (4 Bft)
10.10.2017 15:22 13,8 °C 13,8 °C 64 % 1019,3 hPa 0,0 mm 19,3 km/h (3 Bft) W 275 ° 0 min 0,000 mm 1,9 UV-I 288 W/m² 7,1 °C 13,8 °C 25,7 km/h (4 Bft)
10.10.2017 15:23 13,7 °C 13,8 °C 64 % 1019,3 hPa 0,0 mm 16,5 km/h (3 Bft) W-NW 287 ° 0 min 0,000 mm 1,7 UV-I 253 W/m² 7,0 °C 13,7 °C 25,7 km/h (4 Bft)
10.10.2017 15:24 13,7 °C 13,7 °C 65 % 1019,4 hPa 0,0 mm 7,4 km/h (2 Bft) W-NW 289 ° 0 min 0,000 mm 1,7 UV-I 239 W/m² 7,2 °C 13,7 °C 11,3 km/h (2 Bft)
10.10.2017 15:25 13,6 °C 13,7 °C 67 % 1019,3 hPa 0,0 mm 12,1 km/h (2 Bft) N-NW 329 ° 0 min 0,000 mm 1,6 UV-I 234 W/m² 7,6 °C 13,6 °C 17,7 km/h (3 Bft)
10.10.2017 15:26 13,6 °C 13,6 °C 65 % 1019,4 hPa 0,0 mm 8,4 km/h (2 Bft) W 273 ° 0 min 0,000 mm 1,6 UV-I 234 W/m² 7,1 °C 13,6 °C 16,1 km/h (3 Bft)
10.10.2017 15:27 13,5 °C 13,6 °C 65 % 1019,4 hPa 0,0 mm 8,2 km/h (2 Bft) W-NW 288 ° 0 min 0,000 mm 1,6 UV-I 227 W/m² 7,1 °C 13,5 °C 16,1 km/h (3 Bft)
10.10.2017 15:28 13,4 °C 13,5 °C 65 % 1019,4 hPa 0,0 mm 10,5 km/h (2 Bft) W-NW 298 ° 0 min 0,000 mm 1,6 UV-I 225 W/m² 7,0 °C 13,4 °C 16,1 km/h (3 Bft)
10.10.2017 15:29 13,4 °C 13,4 °C 66 % 1019,4 hPa 0,0 mm 12,3 km/h (3 Bft) W-SW 254 ° 0 min 0,000 mm 1,6 UV-I 221 W/m² 7,2 °C 13,4 °C 19,3 km/h (3 Bft)
10.10.2017 15:30 13,4 °C 13,4 °C 66 % 1019,4 hPa 0,0 mm 12,5 km/h (3 Bft) W-NW 297 ° 0 min 0,000 mm 1,6 UV-I 211 W/m² 7,2 °C 13,4 °C 17,7 km/h (3 Bft)
10.10.2017 15:31 13,4 °C 13,4 °C 66 % 1019,4 hPa 0,0 mm 6,0 km/h (2 Bft) W-NW 303 ° 0 min 0,000 mm 1,5 UV-I 204 W/m² 7,2 °C 13,4 °C 11,3 km/h (2 Bft)
10.10.2017 15:32 13,3 °C 13,4 °C 67 % 1019,3 hPa 0,0 mm 9,3 km/h (2 Bft) W 261 ° 0 min 0,000 mm 1,4 UV-I 200 W/m² 7,3 °C 13,3 °C 12,9 km/h (3 Bft)
10.10.2017 15:33 13,3 °C 13,3 °C 66 % 1019,4 hPa 0,0 mm 6,0 km/h (2 Bft) NW 310 ° 0 min 0,000 mm 1,4 UV-I 195 W/m² 7,1 °C 13,3 °C 9,7 km/h (2 Bft)
10.10.2017 15:34 13,3 °C 13,3 °C 67 % 1019,4 hPa 0,0 mm 5,1 km/h (1 Bft) W-NW 303 ° 0 min 0,000 mm 1,4 UV-I 192 W/m² 7,3 °C 13,3 °C 11,3 km/h (2 Bft)
10.10.2017 15:35 13,3 °C 13,3 °C 67 % 1019,3 hPa 0,0 mm 7,4 km/h (2 Bft) NW 306 ° 0 min 0,000 mm 1,4 UV-I 188 W/m² 7,3 °C 13,3 °C 14,5 km/h (3 Bft)
10.10.2017 15:36 13,3 °C 13,3 °C 69 % 1019,4 hPa 0,0 mm 7,9 km/h (2 Bft) W-NW 284 ° 0 min 0,000 mm 1,3 UV-I 183 W/m² 7,7 °C 13,3 °C 17,7 km/h (3 Bft)
10.10.2017 15:37 13,2 °C 13,3 °C 66 % 1019,4 hPa 0,0 mm 10,9 km/h (2 Bft) W 275 ° 0 min 0,000 mm 1,3 UV-I 183 W/m² 7,0 °C 13,2 °C 16,1 km/h (3 Bft)
10.10.2017 15:38 13,2 °C 13,2 °C 65 % 1019,4 hPa 0,0 mm 11,2 km/h (2 Bft) W 278 ° 0 min 0,000 mm 1,3 UV-I 183 W/m² 6,8 °C 13,2 °C 16,1 km/h (3 Bft)
10.10.2017 15:39 13,2 °C 13,2 °C 67 % 1019,4 hPa 0,0 mm 11,3 km/h (2 Bft) W-NW 292 ° 0 min 0,000 mm 1,3 UV-I 185 W/m² 7,2 °C 13,2 °C 16,1 km/h (3 Bft)
10.10.2017 15:40 13,2 °C 13,2 °C 67 % 1019,4 hPa 0,0 mm 7,7 km/h (2 Bft) W 279 ° 0 min 0,000 mm 1,3 UV-I 185 W/m² 7,2 °C 13,2 °C 14,5 km/h (3 Bft)
10.10.2017 15:41 13,1 °C 13,2 °C 67 % 1019,4 hPa 0,0 mm 9,3 km/h (2 Bft) W-NW 284 ° 0 min 0,000 mm 1,3 UV-I 185 W/m² 7,1 °C 13,1 °C 16,1 km/h (3 Bft)
10.10.2017 15:42 13,1 °C 13,2 °C 66 % 1019,4 hPa 0,0 mm 11,5 km/h (2 Bft) NW 316 ° 0 min 0,000 mm 1,2 UV-I 183 W/m² 6,9 °C 13,1 °C 16,1 km/h (3 Bft)
10.10.2017 15:43 13,1 °C 13,1 °C 66 % 1019,4 hPa 0,0 mm 11,2 km/h (2 Bft) W-NW 296 ° 0 min 0,000 mm 1,2 UV-I 174 W/m² 6,9 °C 13,1 °C 14,5 km/h (3 Bft)
10.10.2017 15:44 13,1 °C 13,1 °C 67 % 1019,4 hPa 0,0 mm 7,9 km/h (2 Bft) NW 311 ° 0 min 0,000 mm 1,1 UV-I 174 W/m² 7,1 °C 13,1 °C 12,9 km/h (3 Bft)
10.10.2017 15:45 13,1 °C 13,1 °C 68 % 1019,4 hPa 0,0 mm 6,0 km/h (2 Bft) W-NW 292 ° 0 min 0,000 mm 1,1 UV-I 165 W/m² 7,3 °C 13,1 °C 16,1 km/h (3 Bft)
10.10.2017 15:46 13,1 °C 13,1 °C 68 % 1019,4 hPa 0,0 mm 10,5 km/h (2 Bft) W-NW 287 ° 0 min 0,000 mm 1,1 UV-I 160 W/m² 7,3 °C 13,1 °C 14,5 km/h (3 Bft)
10.10.2017 15:47 13,1 °C 13,1 °C 68 % 1019,4 hPa 0,0 mm 4,2 km/h (1 Bft) W 267 ° 0 min 0,000 mm 1,1 UV-I 156 W/m² 7,3 °C 13,1 °C 6,4 km/h (2 Bft)
10.10.2017 15:48 13,1 °C 13,1 °C 70 % 1019,5 hPa 0,0 mm 3,0 km/h (1 Bft) W-NW 282 ° 0 min 0,000 mm 1,1 UV-I 151 W/m² 7,8 °C 13,1 °C 4,8 km/h (1 Bft)
10.10.2017 15:49 13,2 °C 13,2 °C 70 % 1019,5 hPa 0,0 mm 5,8 km/h (2 Bft) W-NW 286 ° 0 min 0,000 mm 1,0 UV-I 148 W/m² 7,9 °C 13,2 °C 12,9 km/h (3 Bft)
10.10.2017 15:50 13,1 °C 13,2 °C 69 % 1019,5 hPa 0,0 mm 7,8 km/h (2 Bft) W 269 ° 0 min 0,000 mm 1,0 UV-I 144 W/m² 7,5 °C 13,1 °C 16,1 km/h (3 Bft)
10.10.2017 15:51 13,1 °C 13,2 °C 68 % 1019,5 hPa 0,0 mm 9,9 km/h (2 Bft) W 275 ° 0 min 0,000 mm 1,0 UV-I 139 W/m² 7,3 °C 13,1 °C 16,1 km/h (3 Bft)
10.10.2017 15:52 13,1 °C 13,1 °C 67 % 1019,5 hPa 0,0 mm 9,4 km/h (2 Bft) W-NW 288 ° 0 min 0,000 mm 0,9 UV-I 135 W/m² 7,1 °C 13,1 °C 14,5 km/h (3 Bft)
10.10.2017 15:53 13,1 °C 13,1 °C 67 % 1019,5 hPa 0,0 mm 6,0 km/h (2 Bft) W-NW 290 ° 0 min 0,000 mm 0,9 UV-I 132 W/m² 7,1 °C 13,1 °C 11,3 km/h (2 Bft)
10.10.2017 15:54 13,1 °C 13,1 °C 68 % 1019,5 hPa 0,0 mm 4,9 km/h (1 Bft) NW 309 ° 0 min 0,000 mm 0,8 UV-I 121 W/m² 7,3 °C 13,1 °C 8,0 km/h (2 Bft)
10.10.2017 15:55 13,1 °C 13,1 °C 68 % 1019,4 hPa 0,0 mm 4,8 km/h (1 Bft) W-NW 296 ° 0 min 0,000 mm 0,8 UV-I 118 W/m² 7,3 °C 13,1 °C 12,9 km/h (3 Bft)
10.10.2017 15:56 13,0 °C 13,1 °C 67 % 1019,5 hPa 0,0 mm 7,1 km/h (2 Bft) NW 309 ° 0 min 0,000 mm 0,8 UV-I 114 W/m² 7,0 °C 13,0 °C 11,3 km/h (2 Bft)
10.10.2017 15:57 13,0 °C 13,0 °C 69 % 1019,5 hPa 0,0 mm 5,9 km/h (2 Bft) NW 308 ° 0 min 0,000 mm 0,8 UV-I 113 W/m² 7,4 °C 13,0 °C 9,7 km/h (2 Bft)
10.10.2017 15:58 13,0 °C 13,0 °C 69 % 1019,5 hPa 0,0 mm 4,1 km/h (1 Bft) W 264 ° 0 min 0,000 mm 0,8 UV-I 113 W/m² 7,4 °C 13,0 °C 9,7 km/h (2 Bft)
10.10.2017 15:59 13,0 °C 13,0 °C 70 % 1019,5 hPa 0,0 mm 7,4 km/h (2 Bft) W-NW 284 ° 0 min 0,000 mm 0,8 UV-I 116 W/m² 7,7 °C 13,0 °C 11,3 km/h (2 Bft)
10.10.2017 16:00 12,9 °C 13,0 °C 68 % 1019,5 hPa 0,0 mm 4,2 km/h (1 Bft) W-SW 252 ° 0 min 0,000 mm 0,8 UV-I 121 W/m² 7,1 °C 12,9 °C 9,7 km/h (2 Bft)
10.10.2017 16:01 12,9 °C 12,9 °C 69 % 1019,4 hPa 0,0 mm 5,2 km/h (1 Bft) W 270 ° 0 min 0,203 mm 0,8 UV-I 149 W/m² 7,4 °C 12,9 °C 9,7 km/h (2 Bft)
10.10.2017 16:02 12,9 °C 12,9 °C 69 % 1019,4 hPa 0,0 mm 9,3 km/h (2 Bft) W-NW 283 ° 0 min 0,000 mm 0,8 UV-I 149 W/m² 7,4 °C 12,9 °C 12,9 km/h (3 Bft)
10.10.2017 16:03 12,9 °C 12,9 °C 70 % 1019,5 hPa 0,0 mm 4,4 km/h (1 Bft) W-NW 283 ° 0 min 0,000 mm 0,8 UV-I 153 W/m² 7,6 °C 12,9 °C 6,4 km/h (2 Bft)
10.10.2017 16:04 12,9 °C 12,9 °C 69 % 1019,5 hPa 0,0 mm 2,7 km/h (1 Bft) W-NW 283 ° 0 min 0,000 mm 0,8 UV-I 137 W/m² 7,4 °C 12,9 °C 4,8 km/h (1 Bft)
10.10.2017 16:05 12,9 °C 12,9 °C 70 % 1019,4 hPa 0,0 mm 1,9 km/h (1 Bft) W 272 ° 0 min 0,000 mm 0,8 UV-I 139 W/m² 7,6 °C 12,9 °C 4,8 km/h (1 Bft)
10.10.2017 16:06 12,9 °C 12,9 °C 70 % 1019,4 hPa 0,0 mm 3,5 km/h (1 Bft) W 269 ° 0 min 0,000 mm 0,9 UV-I 141 W/m² 7,6 °C 12,9 °C 4,8 km/h (1 Bft)
10.10.2017 16:07 12,9 °C 12,9 °C 71 % 1019,4 hPa 0,0 mm 6,5 km/h (2 Bft) W 280 ° 0 min 0,000 mm 0,9 UV-I 142 W/m² 7,8 °C 12,9 °C 11,3 km/h (2 Bft)
10.10.2017 16:08 12,9 °C 12,9 °C 71 % 1019,5 hPa 0,0 mm 7,6 km/h (2 Bft) W-NW 284 ° 0 min 0,000 mm 0,8 UV-I 139 W/m² 7,8 °C 12,9 °C 12,9 km/h (3 Bft)
10.10.2017 16:09 12,9 °C 12,9 °C 69 % 1019,4 hPa 0,0 mm 7,0 km/h (2 Bft) W-NW 288 ° 0 min 0,000 mm 0,8 UV-I 132 W/m² 7,4 °C 12,9 °C 12,9 km/h (3 Bft)
10.10.2017 16:10 12,9 °C 12,9 °C 70 % 1019,4 hPa 0,0 mm 6,4 km/h (2 Bft) W-NW 299 ° 0 min 0,000 mm 0,8 UV-I 130 W/m² 7,6 °C 12,9 °C 12,9 km/h (3 Bft)
10.10.2017 16:11 12,8 °C 12,9 °C 68 % 1019,5 hPa 0,0 mm 6,6 km/h (2 Bft) NW 305 ° 0 min 0,000 mm 0,8 UV-I 137 W/m² 7,0 °C 12,8 °C 12,9 km/h (3 Bft)
10.10.2017 16:12 12,8 °C 12,8 °C 70 % 1019,4 hPa 0,0 mm 5,4 km/h (1 Bft) W 275 ° 0 min 0,000 mm 0,9 UV-I 146 W/m² 7,5 °C 12,8 °C 9,7 km/h (2 Bft)
10.10.2017 16:13 12,8 °C 12,8 °C 70 % 1019,4 hPa 0,0 mm 4,7 km/h (1 Bft) W 271 ° 0 min 0,000 mm 0,9 UV-I 153 W/m² 7,5 °C 12,8 °C 9,7 km/h (2 Bft)
10.10.2017 16:14 12,8 °C 12,8 °C 70 % 1019,4 hPa 0,0 mm 6,3 km/h (2 Bft) W 274 ° 0 min 0,000 mm 1,0 UV-I 149 W/m² 7,5 °C 12,8 °C 9,7 km/h (2 Bft)
10.10.2017 16:15 12,8 °C 12,8 °C 69 % 1019,4 hPa 0,0 mm 4,6 km/h (1 Bft) NW 318 ° 0 min 0,000 mm 1,0 UV-I 148 W/m² 7,3 °C 12,8 °C 8,0 km/h (2 Bft)
10.10.2017 16:16 12,8 °C 12,8 °C 71 % 1019,5 hPa 0,0 mm 3,8 km/h (1 Bft) W 269 ° 0 min 0,000 mm 1,0 UV-I 148 W/m² 7,7 °C 12,8 °C 8,0 km/h (2 Bft)
10.10.2017 16:17 12,8 °C 12,8 °C 71 % 1019,4 hPa 0,0 mm 4,3 km/h (1 Bft) W-NW 286 ° 0 min 0,000 mm 1,0 UV-I 144 W/m² 7,7 °C 12,8 °C 9,7 km/h (2 Bft)
10.10.2017 16:18 12,8 °C 12,8 °C 71 % 1019,4 hPa 0,0 mm 4,1 km/h (1 Bft) W 267 ° 0 min 0,000 mm 0,9 UV-I 142 W/m² 7,7 °C 12,8 °C 4,8 km/h (1 Bft)
10.10.2017 16:19 12,8 °C 12,8 °C 71 % 1019,5 hPa 0,0 mm 5,7 km/h (1 Bft) W-SW 244 ° 0 min 0,000 mm 0,9 UV-I 137 W/m² 7,7 °C 12,8 °C 11,3 km/h (2 Bft)
10.10.2017 16:20 12,8 °C 12,8 °C 74 % 1019,4 hPa 0,0 mm 6,8 km/h (2 Bft) W 275 ° 0 min 0,000 mm 0,9 UV-I 137 W/m² 8,3 °C 12,8 °C 11,3 km/h (2 Bft)
10.10.2017 16:21 12,8 °C 12,8 °C 71 % 1019,5 hPa 0,0 mm 5,6 km/h (1 Bft) W-NW 284 ° 0 min 0,000 mm 0,8 UV-I 127 W/m² 7,7 °C 12,8 °C 6,4 km/h (2 Bft)
10.10.2017 16:22 12,8 °C 12,8 °C 72 % 1019,5 hPa 0,0 mm 3,7 km/h (1 Bft) W 280 ° 0 min 0,000 mm 0,8 UV-I 125 W/m² 7,9 °C 12,8 °C 6,4 km/h (2 Bft)
10.10.2017 16:23 12,8 °C 12,8 °C 72 % 1019,5 hPa 0,0 mm 0,7 km/h (0 Bft) W 278 ° 0 min 0,000 mm 0,8 UV-I 125 W/m² 7,9 °C 12,8 °C 4,8 km/h (1 Bft)
10.10.2017 16:24 12,8 °C 12,8 °C 72 % 1019,5 hPa 0,0 mm 2,3 km/h (1 Bft) W-SW 241 ° 0 min 0,000 mm 0,8 UV-I 125 W/m² 7,9 °C 12,8 °C 4,8 km/h (1 Bft)
10.10.2017 16:25 12,8 °C 12,8 °C 71 % 1019,5 hPa 0,0 mm 4,9 km/h (1 Bft) W-NW 282 ° 0 min 0,000 mm 0,8 UV-I 118 W/m² 7,7 °C 12,8 °C 14,5 km/h (3 Bft)
10.10.2017 16:26 12,7 °C 12,8 °C 70 % 1019,5 hPa 0,0 mm 9,7 km/h (2 Bft) W 266 ° 0 min 0,000 mm 0,7 UV-I 109 W/m² 7,4 °C 12,7 °C 14,5 km/h (3 Bft)
10.10.2017 16:27 12,7 °C 12,7 °C 70 % 1019,5 hPa 0,0 mm 10,6 km/h (2 Bft) W 265 ° 0 min 0,000 mm 0,7 UV-I 102 W/m² 7,4 °C 12,7 °C 12,9 km/h (3 Bft)
10.10.2017 16:28 12,6 °C 12,7 °C 71 % 1019,5 hPa 0,0 mm 10,2 km/h (2 Bft) W-NW 286 ° 0 min 0,000 mm 0,6 UV-I 97 W/m² 7,5 °C 12,6 °C 12,9 km/h (3 Bft)
10.10.2017 16:29 12,6 °C 12,6 °C 71 % 1019,5 hPa 0,0 mm 7,7 km/h (2 Bft) W 266 ° 0 min 0,000 mm 0,6 UV-I 88 W/m² 7,5 °C 12,6 °C 11,3 km/h (2 Bft)
10.10.2017 16:30 12,6 °C 12,6 °C 71 % 1019,5 hPa 0,0 mm 8,5 km/h (2 Bft) W-SW 247 ° 0 min 0,000 mm 0,6 UV-I 86 W/m² 7,5 °C 12,6 °C 14,5 km/h (3 Bft)
10.10.2017 16:31 12,5 °C 12,6 °C 72 % 1019,5 hPa 0,0 mm 10,6 km/h (2 Bft) W-NW 295 ° 0 min 0,000 mm 0,6 UV-I 84 W/m² 7,6 °C 12,5 °C 12,9 km/h (3 Bft)
10.10.2017 16:32 12,5 °C 12,5 °C 73 % 1019,5 hPa 0,0 mm 4,1 km/h (1 Bft) W 261 ° 0 min 0,000 mm 0,5 UV-I 81 W/m² 7,8 °C 12,5 °C 8,0 km/h (2 Bft)
10.10.2017 16:33 12,4 °C 12,5 °C 73 % 1019,5 hPa 0,0 mm 1,5 km/h (1 Bft) W 261 ° 0 min 0,000 mm 0,5 UV-I 77 W/m² 7,7 °C 12,4 °C 4,8 km/h (1 Bft)
10.10.2017 16:34 12,4 °C 12,4 °C 73 % 1019,4 hPa 0,0 mm 5,2 km/h (1 Bft) W-SW 252 ° 0 min 0,000 mm 0,5 UV-I 69 W/m² 7,7 °C 12,4 °C 9,7 km/h (2 Bft)
10.10.2017 16:35 12,4 °C 12,4 °C 72 % 1019,5 hPa 0,0 mm 3,8 km/h (1 Bft) W 272 ° 0 min 0,000 mm 0,5 UV-I 67 W/m² 7,5 °C 12,4 °C 6,4 km/h (2 Bft)
10.10.2017 16:36 12,3 °C 12,4 °C 72 % 1019,5 hPa 0,0 mm 8,5 km/h (2 Bft) W 273 ° 0 min 0,000 mm 0,0 UV-I 65 W/m² 7,4 °C 12,3 °C 11,3 km/h (2 Bft)
10.10.2017 16:37 12,2 °C 12,3 °C 73 % 1019,5 hPa 0,0 mm 4,4 km/h (1 Bft) W 281 ° 0 min 0,000 mm 0,0 UV-I 65 W/m² 7,5 °C 12,2 °C 6,4 km/h (2 Bft)
10.10.2017 16:38 12,2 °C 12,2 °C 73 % 1019,5 hPa 0,0 mm 3,1 km/h (1 Bft) W-SW 239 ° 0 min 0,000 mm 0,0 UV-I 65 W/m² 7,5 °C 12,2 °C 4,8 km/h (1 Bft)
10.10.2017 16:39 12,1 °C 12,2 °C 74 % 1019,5 hPa 0,0 mm 3,6 km/h (1 Bft) W-SW 256 ° 0 min 0,000 mm 0,0 UV-I 69 W/m² 7,6 °C 12,1 °C 4,8 km/h (1 Bft)
10.10.2017 16:40 12,1 °C 12,1 °C 74 % 1019,5 hPa 0,0 mm 2,5 km/h (1 Bft) W-SW 250 ° 0 min 0,000 mm 0,0 UV-I 70 W/m² 7,6 °C 12,1 °C 4,8 km/h (1 Bft)
10.10.2017 16:41 12,0 °C 12,1 °C 74 % 1019,5 hPa 0,0 mm 6,2 km/h (2 Bft) W-SW 252 ° 0 min 0,000 mm 0,0 UV-I 70 W/m² 7,5 °C 12,0 °C 11,3 km/h (2 Bft)
10.10.2017 16:42 11,9 °C 12,0 °C 74 % 1019,5 hPa 0,0 mm 7,2 km/h (2 Bft) W 271 ° 0 min 0,000 mm 0,0 UV-I 70 W/m² 7,4 °C 11,9 °C 11,3 km/h (2 Bft)
10.10.2017 16:43 11,9 °C 11,9 °C 75 % 1019,5 hPa 0,0 mm 5,6 km/h (1 Bft) W 263 ° 0 min 0,000 mm 0,0 UV-I 70 W/m² 7,6 °C 11,9 °C 9,7 km/h (2 Bft)
10.10.2017 16:44 11,8 °C 11,9 °C 75 % 1019,5 hPa 0,0 mm 1,0 km/h (0 Bft) W 263 ° 0 min 0,000 mm 0,5 UV-I 70 W/m² 7,5 °C 11,8 °C 1,6 km/h (1 Bft)
10.10.2017 16:45 11,8 °C 11,8 °C 78 % 1019,5 hPa 0,0 mm 5,0 km/h (1 Bft) W 277 ° 0 min 0,000 mm 0,5 UV-I 72 W/m² 8,1 °C 11,8 °C 11,3 km/h (2 Bft)
10.10.2017 16:46 11,7 °C 11,8 °C 77 % 1019,5 hPa 0,0 mm 7,0 km/h (2 Bft) W 273 ° 0 min 0,000 mm 0,5 UV-I 74 W/m² 7,8 °C 11,7 °C 11,3 km/h (2 Bft)
10.10.2017 16:47 11,7 °C 11,8 °C 77 % 1019,5 hPa 0,0 mm 6,4 km/h (2 Bft) W-SW 244 ° 0 min 0,000 mm 0,5 UV-I 76 W/m² 7,8 °C 11,7 °C 8,0 km/h (2 Bft)
10.10.2017 16:48 11,7 °C 11,7 °C 77 % 1019,6 hPa 0,0 mm 3,6 km/h (1 Bft) W 261 ° 0 min 0,000 mm 0,5 UV-I 76 W/m² 7,8 °C 11,7 °C 4,8 km/h (1 Bft)
10.10.2017 16:49 11,6 °C 11,7 °C 78 % 1019,6 hPa 0,0 mm 6,0 km/h (2 Bft) W 265 ° 0 min 0,000 mm 0,5 UV-I 77 W/m² 7,9 °C 11,6 °C 9,7 km/h (2 Bft)
10.10.2017 16:50 11,6 °C 11,6 °C 78 % 1019,6 hPa 0,0 mm 5,1 km/h (1 Bft) W-SW 242 ° 0 min 0,000 mm 0,5 UV-I 77 W/m² 7,9 °C 11,6 °C 9,7 km/h (2 Bft)
10.10.2017 16:51 11,6 °C 11,6 °C 79 % 1019,7 hPa 0,0 mm 4,0 km/h (1 Bft) W-SW 239 ° 0 min 0,000 mm 0,5 UV-I 76 W/m² 8,1 °C 11,6 °C 6,4 km/h (2 Bft)
10.10.2017 16:52 11,5 °C 11,6 °C 78 % 1019,6 hPa 0,0 mm 1,5 km/h (1 Bft) W-SW 239 ° 0 min 0,000 mm 0,5 UV-I 69 W/m² 7,8 °C 11,5 °C 3,2 km/h (1 Bft)
10.10.2017 16:53 11,5 °C 11,5 °C 79 % 1019,7 hPa 0,0 mm 0,3 km/h (0 Bft) W-SW 239 ° 0 min 0,000 mm 0,0 UV-I 63 W/m² 8,0 °C 11,5 °C 1,6 km/h (1 Bft)
10.10.2017 16:54 11,4 °C 11,5 °C 79 % 1019,6 hPa 0,0 mm 3,3 km/h (1 Bft) SW 229 ° 0 min 0,000 mm 0,0 UV-I 62 W/m² 7,9 °C 11,4 °C 4,8 km/h (1 Bft)
10.10.2017 16:55 11,4 °C 11,4 °C 81 % 1019,6 hPa 0,0 mm 0,8 km/h (0 Bft) SW 229 ° 0 min 0,000 mm 0,0 UV-I 58 W/m² 8,3 °C 11,4 °C 3,2 km/h (1 Bft)
10.10.2017 16:56 11,4 °C 11,4 °C 80 % 1019,6 hPa 0,0 mm 1,9 km/h (1 Bft) SW 224 ° 0 min 0,000 mm 0,0 UV-I 58 W/m² 8,1 °C 11,4 °C 4,8 km/h (1 Bft)
10.10.2017 16:57 11,4 °C 11,4 °C 80 % 1019,6 hPa 0,0 mm 2,7 km/h (1 Bft) SW 225 ° 0 min 0,000 mm 0,0 UV-I 54 W/m² 8,1 °C 11,4 °C 4,8 km/h (1 Bft)
10.10.2017 16:58 11,3 °C 11,4 °C 80 % 1019,6 hPa 0,0 mm 3,9 km/h (1 Bft) SW 219 ° 0 min 0,000 mm 0,0 UV-I 53 W/m² 8,0 °C 11,3 °C 4,8 km/h (1 Bft)
10.10.2017 16:59 11,3 °C 11,3 °C 80 % 1019,6 hPa 0,0 mm 2,2 km/h (1 Bft) SW 219 ° 0 min 0,000 mm 0,0 UV-I 51 W/m² 8,0 °C 11,3 °C 3,2 km/h (1 Bft)
10.10.2017 17:00 11,3 °C 11,3 °C 81 % 1019,6 hPa 0,0 mm 1,3 km/h (1 Bft) SW 219 ° 0 min 0,000 mm 0,0 UV-I 51 W/m² 8,2 °C 11,3 °C 3,2 km/h (1 Bft)
10.10.2017 17:01 11,2 °C 11,3 °C 83 % 1019,6 hPa 0,2 mm 0,9 km/h (0 Bft) S-SW 212 ° 0 min 0,076 mm 0,0 UV-I 53 W/m² 8,4 °C 11,2 °C 4,8 km/h (1 Bft)
10.10.2017 17:02 11,1 °C 11,2 °C 82 % 1019,6 hPa 0,0 mm 2,2 km/h (1 Bft) S-SW 202 ° 0 min 0,000 mm 0,0 UV-I 53 W/m² 8,1 °C 11,1 °C 4,8 km/h (1 Bft)
10.10.2017 17:03 11,1 °C 11,1 °C 83 % 1019,6 hPa 0,0 mm 0,6 km/h (0 Bft) S-SW 202 ° 0 min 0,000 mm 0,0 UV-I 53 W/m² 8,3 °C 11,1 °C 3,2 km/h (1 Bft)
10.10.2017 17:04 10,9 °C 11,1 °C 82 % 1019,6 hPa 0,0 mm 0,3 km/h (0 Bft) S-SW 202 ° 0 min 0,000 mm 0,0 UV-I 51 W/m² 7,9 °C 10,9 °C 1,6 km/h (1 Bft)
10.10.2017 17:05 10,9 °C 11,0 °C 82 % 1019,6 hPa 0,0 mm 1,3 km/h (1 Bft) S-SW 202 ° 0 min 0,000 mm 0,0 UV-I 49 W/m² 7,9 °C 10,9 °C 3,2 km/h (1 Bft)
10.10.2017 17:06 10,9 °C 10,9 °C 83 % 1019,7 hPa 0,0 mm 0,1 km/h (0 Bft) S-SW 202 ° 0 min 0,000 mm 0,0 UV-I 49 W/m² 8,1 °C 10,9 °C 1,6 km/h (1 Bft)
10.10.2017 17:07 10,9 °C 10,9 °C 84 % 1019,6 hPa 0,0 mm 1,8 km/h (1 Bft) S-SW 198 ° 0 min 0,000 mm 0,0 UV-I 49 W/m² 8,3 °C 10,9 °C 8,0 km/h (2 Bft)
10.10.2017 17:08 10,8 °C 10,9 °C 83 % 1019,6 hPa 0,0 mm 3,6 km/h (1 Bft) S-SW 201 ° 0 min 0,000 mm 0,0 UV-I 51 W/m² 8,0 °C 10,8 °C 8,0 km/h (2 Bft)
10.10.2017 17:09 10,8 °C 10,8 °C 83 % 1019,6 hPa 0,0 mm 6,2 km/h (2 Bft) S-SW 203 ° 0 min 0,000 mm 0,0 UV-I 51 W/m² 8,0 °C 10,8 °C 9,7 km/h (2 Bft)
10.10.2017 17:10 10,8 °C 10,8 °C 82 % 1019,6 hPa 0,0 mm 2,9 km/h (1 Bft) S-SW 194 ° 0 min 0,000 mm 0,0 UV-I 53 W/m² 7,9 °C 10,8 °C 6,4 km/h (2 Bft)
10.10.2017 17:11 10,8 °C 10,8 °C 84 % 1019,6 hPa 0,0 mm 2,4 km/h (1 Bft) S 188 ° 0 min 0,000 mm 0,0 UV-I 53 W/m² 8,2 °C 10,8 °C 4,8 km/h (1 Bft)
10.10.2017 17:12 10,8 °C 10,8 °C 84 % 1019,6 hPa 0,0 mm 4,0 km/h (1 Bft) W-SW 251 ° 0 min 0,000 mm 0,0 UV-I 54 W/m² 8,2 °C 10,8 °C 6,4 km/h (2 Bft)
10.10.2017 17:13 10,7 °C 10,8 °C 86 % 1019,5 hPa 0,0 mm 5,0 km/h (1 Bft) SO 146 ° 0 min 0,000 mm 0,0 UV-I 54 W/m² 8,5 °C 10,7 °C 9,7 km/h (2 Bft)
10.10.2017 17:14 10,7 °C 10,7 °C 86 % 1019,6 hPa 0,0 mm 2,6 km/h (1 Bft) SO 143 ° 0 min 0,000 mm 0,0 UV-I 54 W/m² 8,5 °C 10,7 °C 4,8 km/h (1 Bft)
10.10.2017 17:15 10,6 °C 10,7 °C 86 % 1019,6 hPa 0,0 mm 1,9 km/h (1 Bft) N-NO 14 ° 0 min 0,000 mm 0,0 UV-I 56 W/m² 8,4 °C 10,6 °C 3,2 km/h (1 Bft)
10.10.2017 17:16 10,6 °C 10,6 °C 86 % 1019,6 hPa 0,0 mm 0,9 km/h (0 Bft) S-SW 193 ° 0 min 0,000 mm 0,0 UV-I 54 W/m² 8,4 °C 10,6 °C 3,2 km/h (1 Bft)
10.10.2017 17:17 10,6 °C 10,6 °C 86 % 1019,6 hPa 0,0 mm 1,5 km/h (1 Bft) S-SW 192 ° 0 min 0,000 mm 0,0 UV-I 51 W/m² 8,4 °C 10,6 °C 3,2 km/h (1 Bft)
10.10.2017 17:18 10,6 °C 10,6 °C 86 % 1019,6 hPa 0,0 mm 0,0 km/h (0 Bft) S-SW 198 ° 0 min 0,000 mm 0,0 UV-I 49 W/m² 8,4 °C 10,6 °C 0,0 km/h (0 Bft)
10.10.2017 17:19 10,6 °C 10,6 °C 85 % 1019,6 hPa 0,0 mm 3,2 km/h (1 Bft) S-SW 195 ° 0 min 0,000 mm 0,0 UV-I 47 W/m² 8,2 °C 10,6 °C 6,4 km/h (2 Bft)
10.10.2017 17:20 10,6 °C 10,6 °C 86 % 1019,6 hPa 0,0 mm 1,7 km/h (1 Bft) S-SW 196 ° 0 min 0,000 mm 0,0 UV-I 44 W/m² 8,4 °C 10,6 °C 4,8 km/h (1 Bft)
10.10.2017 17:21 10,6 °C 10,6 °C 85 % 1019,7 hPa 0,0 mm 2,2 km/h (1 Bft) W-SW 244 ° 0 min 0,000 mm 0,0 UV-I 40 W/m² 8,2 °C 10,6 °C 4,8 km/h (1 Bft)
10.10.2017 17:22 10,6 °C 10,6 °C 83 % 1019,6 hPa 0,0 mm 2,6 km/h (1 Bft) S-SW 200 ° 0 min 0,000 mm 0,0 UV-I 39 W/m² 7,8 °C 10,6 °C 4,8 km/h (1 Bft)
10.10.2017 17:23 10,7 °C 10,7 °C 83 % 1019,7 hPa 0,0 mm 1,5 km/h (1 Bft) S-SW 201 ° 0 min 0,000 mm 0,0 UV-I 35 W/m² 7,9 °C 10,7 °C 3,2 km/h (1 Bft)
10.10.2017 17:24 10,7 °C 10,7 °C 83 % 1019,7 hPa 0,0 mm 1,7 km/h (1 Bft) W-SW 257 ° 0 min 0,000 mm 0,0 UV-I 35 W/m² 7,9 °C 10,7 °C 3,2 km/h (1 Bft)
10.10.2017 17:25 10,7 °C 10,7 °C 82 % 1019,7 hPa 0,0 mm 3,7 km/h (1 Bft) S-SW 201 ° 0 min 0,000 mm 0,0 UV-I 33 W/m² 7,8 °C 10,7 °C 6,4 km/h (2 Bft)
10.10.2017 17:26 10,8 °C 10,8 °C 81 % 1019,7 hPa 0,0 mm 4,5 km/h (1 Bft) W-SW 246 ° 0 min 0,000 mm 0,0 UV-I 32 W/m² 7,7 °C 10,8 °C 6,4 km/h (2 Bft)
10.10.2017 17:27 10,8 °C 10,8 °C 83 % 1019,7 hPa 0,0 mm 1,9 km/h (1 Bft) W-SW 246 ° 0 min 0,000 mm 0,0 UV-I 32 W/m² 8,0 °C 10,8 °C 4,8 km/h (1 Bft)
10.10.2017 17:28 10,8 °C 10,8 °C 82 % 1019,7 hPa 0,0 mm 4,8 km/h (1 Bft) S-SW 194 ° 0 min 0,000 mm 0,0 UV-I 30 W/m² 7,9 °C 10,8 °C 12,9 km/h (3 Bft)
10.10.2017 17:29 10,8 °C 10,8 °C 82 % 1019,7 hPa 0,0 mm 4,9 km/h (1 Bft) S-SW 208 ° 0 min 0,000 mm 0,0 UV-I 30 W/m² 7,9 °C 10,8 °C 8,0 km/h (2 Bft)
10.10.2017 17:30 10,8 °C 10,8 °C 82 % 1019,8 hPa 0,0 mm 2,5 km/h (1 Bft) S-SW 208 ° 0 min 0,000 mm 0,0 UV-I 28 W/m² 7,9 °C 10,8 °C 4,8 km/h (1 Bft)
10.10.2017 17:31 10,8 °C 10,8 °C 82 % 1019,7 hPa 0,0 mm 3,9 km/h (1 Bft) S-SW 207 ° 0 min 0,000 mm 0,0 UV-I 28 W/m² 7,9 °C 10,8 °C 6,4 km/h (2 Bft)
10.10.2017 17:32 10,8 °C 10,8 °C 84 % 1019,8 hPa 0,0 mm 3,6 km/h (1 Bft) S-SW 202 ° 0 min 0,000 mm 0,0 UV-I 28 W/m² 8,2 °C 10,8 °C 6,4 km/h (2 Bft)
10.10.2017 17:33 10,8 °C 10,8 °C 82 % 1019,8 hPa 0,0 mm 5,0 km/h (1 Bft) S-SW 202 ° 0 min 0,000 mm 0,0 UV-I 28 W/m² 7,9 °C 10,8 °C 8,0 km/h (2 Bft)
10.10.2017 17:34 10,8 °C 10,8 °C 82 % 1019,8 hPa 0,0 mm 3,6 km/h (1 Bft) SW 219 ° 0 min 0,000 mm 0,0 UV-I 26 W/m² 7,9 °C 10,8 °C 6,4 km/h (2 Bft)
10.10.2017 17:35 10,7 °C 10,8 °C 83 % 1019,8 hPa 0,0 mm 1,7 km/h (1 Bft) SW 219 ° 0 min 0,000 mm 0,0 UV-I 26 W/m² 7,9 °C 10,7 °C 3,2 km/h (1 Bft)
10.10.2017 17:36 10,7 °C 10,8 °C 82 % 1019,8 hPa 0,0 mm 2,5 km/h (1 Bft) S-SW 202 ° 0 min 0,000 mm 0,0 UV-I 23 W/m² 7,8 °C 10,7 °C 6,4 km/h (2 Bft)
10.10.2017 17:37 10,7 °C 10,8 °C 82 % 1019,8 hPa 0,0 mm 3,7 km/h (1 Bft) W-SW 250 ° 0 min 0,000 mm 0,0 UV-I 21 W/m² 7,8 °C 10,7 °C 6,4 km/h (2 Bft)
10.10.2017 17:38 10,7 °C 10,7 °C 83 % 1019,8 hPa 0,0 mm 2,4 km/h (1 Bft) W-SW 248 ° 0 min 0,000 mm 0,0 UV-I 19 W/m² 7,9 °C 10,7 °C 4,8 km/h (1 Bft)
10.10.2017 17:39 10,7 °C 10,7 °C 82 % 1019,8 hPa 0,0 mm 5,6 km/h (1 Bft) SW 215 ° 0 min 0,000 mm 0,0 UV-I 16 W/m² 7,8 °C 10,7 °C 8,0 km/h (2 Bft)
10.10.2017 17:40 10,7 °C 10,7 °C 82 % 1019,8 hPa 0,0 mm 3,8 km/h (1 Bft) S-SW 205 ° 0 min 0,000 mm 0,0 UV-I 16 W/m² 7,8 °C 10,7 °C 6,4 km/h (2 Bft)
10.10.2017 17:41 10,7 °C 10,7 °C 82 % 1019,8 hPa 0,0 mm 4,5 km/h (1 Bft) S-SW 194 ° 0 min 0,000 mm 0,0 UV-I 16 W/m² 7,8 °C 10,7 °C 8,0 km/h (2 Bft)
10.10.2017 17:42 10,7 °C 10,7 °C 82 % 1019,8 hPa 0,0 mm 4,8 km/h (1 Bft) S 184 ° 0 min 0,000 mm 0,0 UV-I 14 W/m² 7,8 °C 10,7 °C 6,4 km/h (2 Bft)
10.10.2017 17:43 10,7 °C 10,7 °C 82 % 1019,8 hPa 0,0 mm 6,4 km/h (2 Bft) S-SW 200 ° 0 min 0,000 mm 0,0 UV-I 14 W/m² 7,8 °C 10,7 °C 9,7 km/h (2 Bft)
10.10.2017 17:44 10,7 °C 10,7 °C 82 % 1019,8 hPa 0,0 mm 5,0 km/h (1 Bft) S-SW 198 ° 0 min 0,000 mm 0,0 UV-I 14 W/m² 7,8 °C 10,7 °C 11,3 km/h (2 Bft)
10.10.2017 17:45 10,7 °C 10,7 °C 82 % 1019,8 hPa 0,0 mm 5,2 km/h (1 Bft) S-SW 194 ° 0 min 0,000 mm 0,0 UV-I 12 W/m² 7,8 °C 10,7 °C 8,0 km/h (2 Bft)
10.10.2017 17:46 10,6 °C 10,7 °C 83 % 1019,8 hPa 0,0 mm 4,1 km/h (1 Bft) S-SW 194 ° 0 min 0,000 mm 0,0 UV-I 12 W/m² 7,8 °C 10,6 °C 6,4 km/h (2 Bft)
10.10.2017 17:47 10,6 °C 10,7 °C 82 % 1019,8 hPa 0,0 mm 3,1 km/h (1 Bft) S-SW 194 ° 0 min 0,000 mm 0,0 UV-I 12 W/m² 7,7 °C 10,6 °C 4,8 km/h (1 Bft)
10.10.2017 17:48 10,6 °C 10,6 °C 84 % 1019,8 hPa 0,0 mm 1,0 km/h (0 Bft) S-SW 194 ° 0 min 0,000 mm 0,0 UV-I 11 W/m² 8,0 °C 10,6 °C 3,2 km/h (1 Bft)
10.10.2017 17:49 10,6 °C 10,6 °C 84 % 1019,8 hPa 0,0 mm 2,5 km/h (1 Bft) SW 217 ° 0 min 0,000 mm 0,0 UV-I 11 W/m² 8,0 °C 10,6 °C 6,4 km/h (2 Bft)
10.10.2017 17:50 10,5 °C 10,6 °C 84 % 1019,9 hPa 0,0 mm 4,5 km/h (1 Bft) S-SW 200 ° 0 min 0,000 mm 0,0 UV-I 11 W/m² 7,9 °C 10,5 °C 6,4 km/h (2 Bft)
10.10.2017 17:51 10,4 °C 10,5 °C 84 % 1019,8 hPa 0,0 mm 4,9 km/h (1 Bft) S-SW 203 ° 0 min 0,000 mm 0,0 UV-I 11 W/m² 7,8 °C 10,4 °C 8,0 km/h (2 Bft)
10.10.2017 17:52 10,4 °C 10,4 °C 84 % 1019,9 hPa 0,0 mm 2,1 km/h (1 Bft) S-SW 203 ° 0 min 0,000 mm 0,0 UV-I 11 W/m² 7,8 °C 10,4 °C 3,2 km/h (1 Bft)
10.10.2017 17:53 10,3 °C 10,4 °C 85 % 1019,9 hPa 0,0 mm 3,1 km/h (1 Bft) SW 234 ° 0 min 0,000 mm 0,0 UV-I 11 W/m² 7,9 °C 10,3 °C 4,8 km/h (1 Bft)
10.10.2017 17:54 10,3 °C 10,3 °C 85 % 1019,9 hPa 0,0 mm 1,1 km/h (1 Bft) SW 234 ° 0 min 0,000 mm 0,0 UV-I 11 W/m² 7,9 °C 10,3 °C 3,2 km/h (1 Bft)
10.10.2017 17:55 10,3 °C 10,3 °C 84 % 1019,9 hPa 0,0 mm 1,1 km/h (1 Bft) SW 218 ° 0 min 0,000 mm 0,0 UV-I 11 W/m² 7,7 °C 10,3 °C 4,8 km/h (1 Bft)
10.10.2017 17:56 10,3 °C 10,3 °C 85 % 1019,9 hPa 0,0 mm 2,9 km/h (1 Bft) S-SW 212 ° 0 min 0,000 mm 0,0 UV-I 11 W/m² 7,9 °C 10,3 °C 4,8 km/h (1 Bft)
10.10.2017 17:57 10,3 °C 10,3 °C 86 % 1019,9 hPa 0,0 mm 2,0 km/h (1 Bft) S-SW 212 ° 0 min 0,000 mm 0,0 UV-I 11 W/m² 8,1 °C 10,3 °C 3,2 km/h (1 Bft)
10.10.2017 17:58 10,2 °C 10,3 °C 86 % 1020,0 hPa 0,0 mm 1,4 km/h (1 Bft) S-SW 211 ° 0 min 0,000 mm 0,0 UV-I 11 W/m² 8,0 °C 10,2 °C 3,2 km/h (1 Bft)
10.10.2017 17:59 10,2 °C 10,2 °C 86 % 1020,0 hPa 0,0 mm 0,0 km/h (0 Bft) S-SW 211 ° 0 min 0,000 mm 0,0 UV-I 11 W/m² 8,0 °C 10,2 °C 0,0 km/h (0 Bft)
10.10.2017 18:00 10,1 °C 10,2 °C 87 % 1020,0 hPa 0,0 mm 2,7 km/h (1 Bft) S-SW 196 ° 0 min 0,000 mm 0,0 UV-I 9 W/m² 8,0 °C 10,1 °C 3,2 km/h (1 Bft)
10.10.2017 18:01 10,1 °C 10,1 °C 87 % 1020,1 hPa 0,0 mm 1,3 km/h (1 Bft) S-SW 196 ° 0 min 0,026 mm 0,0 UV-I 9 W/m² 8,0 °C 10,1 °C 3,2 km/h (1 Bft)
10.10.2017 18:02 10,1 °C 10,1 °C 87 % 1020,0 hPa 0,0 mm 0,4 km/h (0 Bft) S-SW 196 ° 0 min 0,000 mm 0,0 UV-I 9 W/m² 8,0 °C 10,1 °C 1,6 km/h (1 Bft)
10.10.2017 18:03 10,0 °C 10,1 °C 87 % 1020,0 hPa 0,0 mm 0,4 km/h (0 Bft) S-SW 196 ° 0 min 0,000 mm 0,0 UV-I 9 W/m² 7,9 °C 10,0 °C 1,6 km/h (1 Bft)
10.10.2017 18:04 9,9 °C 10,0 °C 87 % 1020,1 hPa 0,0 mm 1,1 km/h (1 Bft) S-SW 196 ° 0 min 0,000 mm 0,0 UV-I 9 W/m² 7,8 °C 9,9 °C 3,2 km/h (1 Bft)
10.10.2017 18:05 9,9 °C 9,9 °C 87 % 1020,1 hPa 0,0 mm 0,0 km/h (0 Bft) S-SW 196 ° 0 min 0,000 mm 0,0 UV-I 9 W/m² 7,8 °C 9,9 °C 0,0 km/h (0 Bft)
10.10.2017 18:06 9,9 °C 9,9 °C 88 % 1020,1 hPa 0,0 mm 0,0 km/h (0 Bft) S-SW 196 ° 0 min 0,000 mm 0,0 UV-I 7 W/m² 8,0 °C 9,9 °C 0,0 km/h (0 Bft)
10.10.2017 18:07 9,8 °C 9,9 °C 88 % 1020,1 hPa 0,0 mm 1,4 km/h (1 Bft) SW 221 ° 0 min 0,000 mm 0,0 UV-I 7 W/m² 7,9 °C 9,8 °C 3,2 km/h (1 Bft)
10.10.2017 18:08 9,8 °C 9,9 °C 88 % 1020,1 hPa 0,0 mm 0,0 km/h (0 Bft) SW 221 ° 0 min 0,000 mm 0,0 UV-I 7 W/m² 7,9 °C 9,8 °C 0,0 km/h (0 Bft)
10.10.2017 18:09 9,8 °C 9,8 °C 88 % 1020,1 hPa 0,0 mm 0,5 km/h (0 Bft) S-SW 194 ° 0 min 0,000 mm 0,0 UV-I 7 W/m² 7,9 °C 9,8 °C 1,6 km/h (1 Bft)
10.10.2017 18:10 9,8 °C 9,9 °C 88 % 1020,1 hPa 0,0 mm 1,1 km/h (1 Bft) S-SW 194 ° 0 min 0,000 mm 0,0 UV-I 7 W/m² 7,9 °C 9,8 °C 1,6 km/h (1 Bft)
10.10.2017 18:11 9,8 °C 9,9 °C 88 % 1020,1 hPa 0,0 mm 3,1 km/h (1 Bft) S-SW 194 ° 0 min 0,000 mm 0,0 UV-I 7 W/m² 7,9 °C 9,8 °C 4,8 km/h (1 Bft)
10.10.2017 18:12 9,9 °C 9,9 °C 87 % 1020,2 hPa 0,0 mm 2,3 km/h (1 Bft) S-SW 194 ° 0 min 0,000 mm 0,0 UV-I 7 W/m² 7,8 °C 9,9 °C 3,2 km/h (1 Bft)
10.10.2017 18:13 9,9 °C 9,9 °C 87 % 1020,1 hPa 0,0 mm 2,5 km/h (1 Bft) S-SW 194 ° 0 min 0,000 mm 0,0 UV-I 7 W/m² 7,8 °C 9,9 °C 3,2 km/h (1 Bft)
10.10.2017 18:14 9,9 °C 10,0 °C 87 % 1020,1 hPa 0,0 mm 0,4 km/h (0 Bft) S-SW 194 ° 0 min 0,000 mm 0,0 UV-I 7 W/m² 7,8 °C 9,9 °C 3,2 km/h (1 Bft)
10.10.2017 18:15 9,9 °C 9,9 °C 88 % 1020,1 hPa 0,0 mm 1,4 km/h (1 Bft) S-SW 194 ° 0 min 0,000 mm 0,0 UV-I 5 W/m² 8,0 °C 9,9 °C 3,2 km/h (1 Bft)
10.10.2017 18:16 9,9 °C 9,9 °C 87 % 1020,1 hPa 0,0 mm 1,5 km/h (1 Bft) S-SW 194 ° 0 min 0,000 mm 0,0 UV-I 5 W/m² 7,8 °C 9,9 °C 3,2 km/h (1 Bft)
10.10.2017 18:17 9,8 °C 9,9 °C 88 % 1020,1 hPa 0,0 mm 0,5 km/h (0 Bft) S-SW 194 ° 0 min 0,000 mm 0,0 UV-I 5 W/m² 7,9 °C 9,8 °C 1,6 km/h (1 Bft)
10.10.2017 18:18 9,8 °C 9,8 °C 88 % 1020,2 hPa 0,0 mm 2,2 km/h (1 Bft) S 174 ° 0 min 0,000 mm 0,0 UV-I 5 W/m² 7,9 °C 9,8 °C 4,8 km/h (1 Bft)
10.10.2017 18:19 9,8 °C 9,8 °C 88 % 1020,1 hPa 0,0 mm 1,4 km/h (1 Bft) S 174 ° 0 min 0,000 mm 0,0 UV-I 5 W/m² 7,9 °C 9,8 °C 3,2 km/h (1 Bft)
10.10.2017 18:20 9,8 °C 9,8 °C 88 % 1020,1 hPa 0,0 mm 0,0 km/h (0 Bft) S 174 ° 0 min 0,000 mm 0,0 UV-I 5 W/m² 7,9 °C 9,8 °C 0,0 km/h (0 Bft)
10.10.2017 18:21 9,8 °C 9,8 °C 88 % 1020,1 hPa 0,0 mm 0,0 km/h (0 Bft) S 174 ° 0 min 0,000 mm 0,0 UV-I 5 W/m² 7,9 °C 9,8 °C 0,0 km/h (0 Bft)
10.10.2017 18:22 9,7 °C 9,8 °C 88 % 1020,2 hPa 0,0 mm 0,0 km/h (0 Bft) S 174 ° 0 min 0,000 mm 0,0 UV-I 5 W/m² 7,8 °C 9,7 °C 0,0 km/h (0 Bft)
10.10.2017 18:23 9,7 °C 9,7 °C 89 % 1020,3 hPa 0,0 mm 0,0 km/h (0 Bft) S 174 ° 0 min 0,000 mm 0,0 UV-I 5 W/m² 8,0 °C 9,7 °C 0,0 km/h (0 Bft)
10.10.2017 18:24 9,7 °C 9,7 °C 88 % 1020,3 hPa 0,0 mm 0,0 km/h (0 Bft) S 174 ° 0 min 0,000 mm 0,0 UV-I 5 W/m² 7,8 °C 9,7 °C 0,0 km/h (0 Bft)
10.10.2017 18:25 9,7 °C 9,7 °C 89 % 1020,3 hPa 0,0 mm 0,0 km/h (0 Bft) S 172 ° 0 min 0,000 mm 0,0 UV-I 5 W/m² 8,0 °C 9,7 °C 0,0 km/h (0 Bft)
10.10.2017 18:26 9,7 °C 9,7 °C 88 % 1020,3 hPa 0,0 mm 0,0 km/h (0 Bft) S 172 ° 0 min 0,000 mm 0,0 UV-I 5 W/m² 7,8 °C 9,7 °C 0,0 km/h (0 Bft)
10.10.2017 18:27 9,7 °C 9,7 °C 89 % 1020,3 hPa 0,0 mm 0,0 km/h (0 Bft) S 173 ° 0 min 0,000 mm 0,0 UV-I 5 W/m² 8,0 °C 9,7 °C 0,0 km/h (0 Bft)
10.10.2017 18:28 9,7 °C 9,7 °C 89 % 1020,3 hPa 0,0 mm 0,8 km/h (0 Bft) S 173 ° 0 min 0,000 mm 0,0 UV-I 5 W/m² 8,0 °C 9,7 °C 1,6 km/h (1 Bft)
10.10.2017 18:29 9,7 °C 9,7 °C 89 % 1020,3 hPa 0,0 mm 1,3 km/h (1 Bft) S 173 ° 0 min 0,000 mm 0,0 UV-I 5 W/m² 8,0 °C 9,7 °C 3,2 km/h (1 Bft)
10.10.2017 18:30 9,6 °C 9,7 °C 89 % 1020,3 hPa 0,0 mm 0,5 km/h (0 Bft) S 173 ° 0 min 0,000 mm 0,0 UV-I 0 W/m² 7,9 °C 9,6 °C 1,6 km/h (1 Bft)
10.10.2017 18:31 9,6 °C 9,6 °C 89 % 1020,3 hPa 0,0 mm 0,0 km/h (0 Bft) S 173 ° 0 min 0,000 mm 0,0 UV-I 0 W/m² 7,9 °C 9,6 °C 0,0 km/h (0 Bft)
10.10.2017 18:32 9,6 °C 9,6 °C 89 % 1020,2 hPa 0,0 mm 0,7 km/h (0 Bft) S 173 ° 0 min 0,000 mm 0,0 UV-I 0 W/m² 7,9 °C 9,6 °C 1,6 km/h (1 Bft)
10.10.2017 18:33 9,6 °C 9,6 °C 89 % 1020,3 hPa 0,0 mm 0,2 km/h (0 Bft) S 173 ° 0 min 0,000 mm 0,0 UV-I 0 W/m² 7,9 °C 9,6 °C 1,6 km/h (1 Bft)
10.10.2017 18:34 9,6 °C 9,6 °C 89 % 1020,2 hPa 0,0 mm 0,0 km/h (0 Bft) S 173 ° 0 min 0,000 mm 0,0 UV-I 0 W/m² 7,9 °C 9,6 °C 0,0 km/h (0 Bft)
10.10.2017 18:35 9,6 °C 9,6 °C 88 % 1020,3 hPa 0,0 mm 1,2 km/h (1 Bft) S 173 ° 0 min 0,000 mm 0,0 UV-I 0 W/m² 7,7 °C 9,6 °C 3,2 km/h (1 Bft)
10.10.2017 18:36 9,6 °C 9,6 °C 88 % 1020,3 hPa 0,0 mm 2,3 km/h (1 Bft) S 173 ° 0 min 0,000 mm 0,0 UV-I 0 W/m² 7,7 °C 9,6 °C 3,2 km/h (1 Bft)
10.10.2017 18:37 9,6 °C 9,6 °C 88 % 1020,3 hPa 0,0 mm 1,0 km/h (0 Bft) S 173 ° 0 min 0,000 mm 0,0 UV-I 0 W/m² 7,7 °C 9,6 °C 1,6 km/h (1 Bft)
10.10.2017 18:38 9,6 °C 9,6 °C 88 % 1020,4 hPa 0,0 mm 0,3 km/h (0 Bft) S 173 ° 0 min 0,000 mm 0,0 UV-I 0 W/m² 7,7 °C 9,6 °C 1,6 km/h (1 Bft)
10.10.2017 18:39 9,6 °C 9,6 °C 89 % 1020,4 hPa 0,0 mm 0,2 km/h (0 Bft) S 173 ° 0 min 0,000 mm 0,0 UV-I 0 W/m² 7,9 °C 9,6 °C 1,6 km/h (1 Bft)
10.10.2017 18:40 9,6 °C 9,6 °C 88 % 1020,3 hPa 0,0 mm 1,0 km/h (0 Bft) S 173 ° 0 min 0,000 mm 0,0 UV-I 0 W/m² 7,7 °C 9,6 °C 1,6 km/h (1 Bft)
10.10.2017 18:41 9,6 °C 9,6 °C 89 % 1020,4 hPa 0,0 mm 0,2 km/h (0 Bft) S 173 ° 0 min 0,000 mm 0,0 UV-I 0 W/m² 7,9 °C 9,6 °C 1,6 km/h (1 Bft)
10.10.2017 18:42 9,5 °C 9,6 °C 89 % 1020,3 hPa 0,0 mm 0,2 km/h (0 Bft) S 173 ° 0 min 0,000 mm 0,0 UV-I 0 W/m² 7,8 °C 9,5 °C 1,6 km/h (1 Bft)
10.10.2017 18:43 9,4 °C 9,5 °C 89 % 1020,3 hPa 0,0 mm 0,4 km/h (0 Bft) S 186 ° 0 min 0,000 mm 0,0 UV-I 0 W/m² 7,7 °C 9,4 °C 3,2 km/h (1 Bft)
10.10.2017 18:44 9,4 °C 9,4 °C 89 % 1020,4 hPa 0,0 mm 1,1 km/h (1 Bft) S 189 ° 0 min 0,000 mm 0,0 UV-I 0 W/m² 7,7 °C 9,4 °C 3,2 km/h (1 Bft)
10.10.2017 18:45 9,4 °C 9,4 °C 89 % 1020,4 hPa 0,0 mm 0,9 km/h (0 Bft) S 189 ° 0 min 0,000 mm 0,0 UV-I 0 W/m² 7,7 °C 9,4 °C 1,6 km/h (1 Bft)
10.10.2017 18:46 9,4 °C 9,4 °C 89 % 1020,4 hPa 0,0 mm 0,4 km/h (0 Bft) S 189 ° 0 min 0,000 mm 0,0 UV-I 0 W/m² 7,7 °C 9,4 °C 1,6 km/h (1 Bft)
10.10.2017 18:47 9,4 °C 9,4 °C 89 % 1020,4 hPa 0,0 mm 0,1 km/h (0 Bft) S 188 ° 0 min 0,000 mm 0,0 UV-I 0 W/m² 7,7 °C 9,4 °C 1,6 km/h (1 Bft)
10.10.2017 18:48 9,4 °C 9,4 °C 89 % 1020,4 hPa 0,0 mm 0,0 km/h (0 Bft) S 188 ° 0 min 0,000 mm 0,0 UV-I 0 W/m² 7,7 °C 9,4 °C 0,0 km/h (0 Bft)
10.10.2017 18:49 9,4 °C 9,4 °C 89 % 1020,4 hPa 0,0 mm 0,0 km/h (0 Bft) S 189 ° 0 min 0,000 mm 0,0 UV-I 0 W/m² 7,7 °C 9,4 °C 0,0 km/h (0 Bft)
10.10.2017 18:50 9,4 °C 9,4 °C 89 % 1020,4 hPa 0,0 mm 0,0 km/h (0 Bft) S 189 ° 0 min 0,000 mm 0,0 UV-I 0 W/m² 7,7 °C 9,4 °C 0,0 km/h (0 Bft)
10.10.2017 18:51 9,4 °C 9,4 °C 90 % 1020,4 hPa 0,0 mm 0,0 km/h (0 Bft) S 189 ° 0 min 0,000 mm 0,0 UV-I 0 W/m² 7,8 °C 9,4 °C 0,0 km/h (0 Bft)
10.10.2017 18:52 9,3 °C 9,4 °C 90 % 1020,4 hPa 0,0 mm 1,4 km/h (1 Bft) S 184 ° 0 min 0,000 mm 0,0 UV-I 0 W/m² 7,7 °C 9,3 °C 4,8 km/h (1 Bft)
10.10.2017 18:53 9,4 °C 9,4 °C 89 % 1020,5 hPa 0,0 mm 2,3 km/h (1 Bft) SW 216 ° 0 min 0,000 mm 0,0 UV-I 0 W/m² 7,7 °C 9,4 °C 4,8 km/h (1 Bft)
10.10.2017 18:54 9,4 °C 9,4 °C 88 % 1020,5 hPa 0,0 mm 2,8 km/h (1 Bft) S-SW 209 ° 0 min 0,000 mm 0,0 UV-I 0 W/m² 7,5 °C 9,4 °C 4,8 km/h (1 Bft)
10.10.2017 18:55 9,5 °C 9,5 °C 88 % 1020,5 hPa 0,0 mm 0,4 km/h (0 Bft) S-SW 209 ° 0 min 0,000 mm 0,0 UV-I 0 W/m² 7,6 °C 9,5 °C 1,6 km/h (1 Bft)
10.10.2017 18:56 9,6 °C 9,6 °C 88 % 1020,5 hPa 0,0 mm 0,4 km/h (0 Bft) S-SW 209 ° 0 min 0,000 mm 0,0 UV-I 0 W/m² 7,7 °C 9,6 °C 3,2 km/h (1 Bft)
10.10.2017 18:57 9,6 °C 9,6 °C 88 % 1020,5 hPa 0,0 mm 0,3 km/h (0 Bft) S-SW 209 ° 0 min 0,000 mm 0,0 UV-I 0 W/m² 7,7 °C 9,6 °C 1,6 km/h (1 Bft)
10.10.2017 18:58 9,7 °C 9,7 °C 87 % 1020,5 hPa 0,0 mm 1,9 km/h (1 Bft) S-SW 202 ° 0 min 0,000 mm 0,0 UV-I 0 W/m² 7,6 °C 9,7 °C 4,8 km/h (1 Bft)
10.10.2017 18:59 9,7 °C 9,8 °C 86 % 1020,5 hPa 0,0 mm 1,5 km/h (1 Bft) S-SW 202 ° 0 min 0,000 mm 0,0 UV-I 0 W/m² 7,5 °C 9,7 °C 3,2 km/h (1 Bft)
10.10.2017 19:00 9,8 °C 9,8 °C 86 % 1020,5 hPa 0,0 mm 2,7 km/h (1 Bft) S-SW 202 ° 0 min 0,000 mm 0,0 UV-I 0 W/m² 7,6 °C 9,8 °C 4,8 km/h (1 Bft)
10.10.2017 19:01 9,8 °C 9,8 °C 86 % 1020,5 hPa 0,0 mm 2,8 km/h (1 Bft) S-SW 202 ° 0 min 0,000 mm 0,0 UV-I 0 W/m² 7,6 °C 9,8 °C 4,8 km/h (1 Bft)
10.10.2017 19:02 9,8 °C 9,8 °C 86 % 1020,6 hPa 0,0 mm 2,8 km/h (1 Bft) S-SW 202 ° 0 min 0,000 mm 0,0 UV-I 0 W/m² 7,6 °C 9,8 °C 4,8 km/h (1 Bft)
10.10.2017 19:03 9,9 °C 9,9 °C 85 % 1020,6 hPa 0,0 mm 3,6 km/h (1 Bft) S-SW 199 ° 0 min 0,000 mm 0,0 UV-I 0 W/m² 7,5 °C 9,9 °C 6,4 km/h (2 Bft)
10.10.2017 19:04 9,9 °C 9,9 °C 85 % 1020,6 hPa 0,0 mm 2,3 km/h (1 Bft) S-SW 199 ° 0 min 0,000 mm 0,0 UV-I 0 W/m² 7,5 °C 9,9 °C 3,2 km/h (1 Bft)
10.10.2017 19:05 9,9 °C 9,9 °C 85 % 1020,6 hPa 0,0 mm 2,5 km/h (1 Bft) S-SW 199 ° 0 min 0,000 mm 0,0 UV-I 0 W/m² 7,5 °C 9,9 °C 6,4 km/h (2 Bft)
10.10.2017 19:06 9,9 °C 10,0 °C 84 % 1020,6 hPa 0,0 mm 1,9 km/h (1 Bft) S-SW 213 ° 0 min 0,000 mm 0,0 UV-I 0 W/m² 7,3 °C 9,9 °C 3,2 km/h (1 Bft)
10.10.2017 19:07 10,0 °C 10,0 °C 84 % 1020,5 hPa 0,0 mm 5,7 km/h (1 Bft) S-SW 202 ° 0 min 0,000 mm 0,0 UV-I 0 W/m² 7,4 °C 9,6 °C 9,7 km/h (2 Bft)
10.10.2017 19:08 10,1 °C 10,1 °C 84 % 1020,6 hPa 0,0 mm 7,2 km/h (2 Bft) S 172 ° 0 min 0,000 mm 0,0 UV-I 0 W/m² 7,5 °C 10,1 °C 9,7 km/h (2 Bft)
10.10.2017 19:09 10,1 °C 10,1 °C 85 % 1020,5 hPa 0,0 mm 2,5 km/h (1 Bft) S 172 ° 0 min 0,000 mm 0,0 UV-I 0 W/m² 7,7 °C 10,1 °C 3,2 km/h (1 Bft)
10.10.2017 19:10 10,0 °C 10,1 °C 86 % 1020,6 hPa 0,0 mm 0,6 km/h (0 Bft) S 172 ° 0 min 0,000 mm 0,0 UV-I 0 W/m² 7,8 °C 10,0 °C 3,2 km/h (1 Bft)
10.10.2017 19:11 9,9 °C 10,0 °C 87 % 1020,6 hPa 0,0 mm 0,0 km/h (0 Bft) S 172 ° 0 min 0,000 mm 0,0 UV-I 0 W/m² 7,8 °C 9,9 °C 0,0 km/h (0 Bft)
10.10.2017 19:12 9,8 °C 9,9 °C 87 % 1020,6 hPa 0,0 mm 1,7 km/h (1 Bft) S 172 ° 0 min 0,000 mm 0,0 UV-I 0 W/m² 7,7 °C 9,8 °C 3,2 km/h (1 Bft)
10.10.2017 19:13 9,7 °C 9,8 °C 87 % 1020,6 hPa 0,0 mm 1,5 km/h (1 Bft) S 172 ° 0 min 0,000 mm 0,0 UV-I 0 W/m² 7,6 °C 9,7 °C 3,2 km/h (1 Bft)
10.10.2017 19:14 9,7 °C 9,7 °C 87 % 1020,6 hPa 0,0 mm 2,7 km/h (1 Bft) S 173 ° 0 min 0,000 mm 0,0 UV-I 0 W/m² 7,6 °C 9,7 °C 4,8 km/h (1 Bft)
10.10.2017 19:15 9,6 °C 9,7 °C 88 % 1020,6 hPa 0,0 mm 2,7 km/h (1 Bft) S 172 ° 0 min 0,000 mm 0,0 UV-I 0 W/m² 7,7 °C 9,6 °C 4,8 km/h (1 Bft)
10.10.2017 19:16 9,6 °C 9,6 °C 88 % 1020,6 hPa 0,0 mm 1,3 km/h (1 Bft) S 173 ° 0 min 0,000 mm 0,0 UV-I 0 W/m² 7,7 °C 9,6 °C 3,2 km/h (1 Bft)
10.10.2017 19:17 9,6 °C 9,6 °C 88 % 1020,6 hPa 0,0 mm 1,3 km/h (1 Bft) S 172 ° 0 min 0,000 mm 0,0 UV-I 0 W/m² 7,7 °C 9,6 °C 3,2 km/h (1 Bft)
10.10.2017 19:18 9,6 °C 9,6 °C 88 % 1020,7 hPa 0,0 mm 2,8 km/h (1 Bft) S-SW 200 ° 0 min 0,000 mm 0,0 UV-I 0 W/m² 7,7 °C 9,6 °C 4,8 km/h (1 Bft)
10.10.2017 19:19 9,6 °C 9,6 °C 87 % 1020,7 hPa 0,0 mm 3,7 km/h (1 Bft) S 191 ° 0 min 0,000 mm 0,0 UV-I 0 W/m² 7,5 °C 9,6 °C 8,0 km/h (2 Bft)
10.10.2017 19:20 9,6 °C 9,6 °C 87 % 1020,7 hPa 0,0 mm 2,2 km/h (1 Bft) S 191 ° 0 min 0,000 mm 0,0 UV-I 0 W/m² 7,5 °C 9,6 °C 3,2 km/h (1 Bft)
10.10.2017 19:21 9,6 °C 9,6 °C 87 % 1020,7 hPa 0,0 mm 0,8 km/h (0 Bft) S 191 ° 0 min 0,000 mm 0,0 UV-I 0 W/m² 7,5 °C 9,6 °C 1,6 km/h (1 Bft)
10.10.2017 19:22 9,6 °C 9,6 °C 87 % 1020,7 hPa 0,0 mm 1,2 km/h (1 Bft) S 191 ° 0 min 0,000 mm 0,0 UV-I 0 W/m² 7,5 °C 9,6 °C 3,2 km/h (1 Bft)
10.10.2017 19:24 9,6 °C 9,6 °C 87 % 1020,8 hPa 0,0 mm 1,1 km/h (1 Bft) S-SW 192 ° 0 min 0,000 mm 0,0 UV-I 0 W/m² 7,5 °C 9,6 °C 3,2 km/h (1 Bft)
10.10.2017 19:25 9,6 °C 9,6 °C 87 % 1020,8 hPa 0,0 mm 1,0 km/h (0 Bft) S-SW 192 ° 0 min 0,000 mm 0,0 UV-I 0 W/m² 7,5 °C 9,6 °C 3,2 km/h (1 Bft)
10.10.2017 19:26 9,5 °C 9,6 °C 87 % 1020,8 hPa 0,0 mm 1,3 km/h (1 Bft) S-SW 192 ° 0 min 0,000 mm 0,0 UV-I 0 W/m² 7,4 °C 9,5 °C 3,2 km/h (1 Bft)
10.10.2017 19:27 9,4 °C 9,5 °C 87 % 1020,8 hPa 0,0 mm 0,5 km/h (0 Bft) S-SW 192 ° 0 min 0,000 mm 0,0 UV-I 0 W/m² 7,3 °C 9,4 °C 1,6 km/h (1 Bft)
10.10.2017 19:28 9,4 °C 9,5 °C 88 % 1020,8 hPa 0,0 mm 0,1 km/h (0 Bft) S-SW 192 ° 0 min 0,000 mm 0,0 UV-I 0 W/m² 7,5 °C 9,4 °C 1,6 km/h (1 Bft)
10.10.2017 19:29 9,4 °C 9,4 °C 88 % 1020,8 hPa 0,0 mm 0,0 km/h (0 Bft) S-SW 192 ° 0 min 0,000 mm 0,0 UV-I 0 W/m² 7,5 °C 9,4 °C 0,0 km/h (0 Bft)
10.10.2017 19:30 9,3 °C 9,4 °C 88 % 1020,8 hPa 0,0 mm 0,0 km/h (0 Bft) S-SW 192 ° 0 min 0,000 mm 0,0 UV-I 0 W/m² 7,4 °C 9,3 °C 0,0 km/h (0 Bft)
10.10.2017 19:31 9,3 °C 9,4 °C 88 % 1020,8 hPa 0,0 mm 0,9 km/h (0 Bft) S-SW 192 ° 0 min 0,000 mm 0,0 UV-I 0 W/m² 7,4 °C 9,3 °C 3,2 km/h (1 Bft)
10.10.2017 19:32 9,3 °C 9,3 °C 88 % 1020,8 hPa 0,0 mm 0,4 km/h (0 Bft) S-SW 192 ° 0 min 0,000 mm 0,0 UV-I 0 W/m² 7,4 °C 9,3 °C 1,6 km/h (1 Bft)
10.10.2017 19:33 9,2 °C 9,3 °C 88 % 1020,9 hPa 0,0 mm 0,7 km/h (0 Bft) S-SW 192 ° 0 min 0,000 mm 0,0 UV-I 0 W/m² 7,3 °C 9,2 °C 1,6 km/h (1 Bft)
10.10.2017 19:34 9,2 °C 9,3 °C 89 % 1020,9 hPa 0,0 mm 0,1 km/h (0 Bft) S-SW 192 ° 0 min 0,000 mm 0,0 UV-I 0 W/m² 7,5 °C 9,2 °C 1,6 km/h (1 Bft)
10.10.2017 19:35 9,3 °C 9,3 °C 89 % 1020,9 hPa 0,0 mm 0,0 km/h (0 Bft) S-SW 192 ° 0 min 0,000 mm 0,0 UV-I 0 W/m² 7,6 °C 9,3 °C 0,0 km/h (0 Bft)
10.10.2017 19:36 9,2 °C 9,3 °C 89 % 1020,9 hPa 0,0 mm 0,0 km/h (0 Bft) S-SW 192 ° 0 min 0,000 mm 0,0 UV-I 0 W/m² 7,5 °C 9,2 °C 0,0 km/h (0 Bft)
10.10.2017 19:37 9,2 °C 9,2 °C 89 % 1020,9 hPa 0,0 mm 0,0 km/h (0 Bft) S-SW 192 ° 0 min 0,000 mm 0,0 UV-I 0 W/m² 7,5 °C 9,2 °C 0,0 km/h (0 Bft)
10.10.2017 19:38 9,2 °C 9,2 °C 88 % 1021,0 hPa 0,0 mm 0,0 km/h (0 Bft) S-SW 192 ° 0 min 0,000 mm 0,0 UV-I 0 W/m² 7,3 °C 9,2 °C 0,0 km/h (0 Bft)
10.10.2017 19:39 9,2 °C 9,2 °C 88 % 1021,0 hPa 0,0 mm 0,0 km/h (0 Bft) S-SW 192 ° 0 min 0,000 mm 0,0 UV-I 0 W/m² 7,3 °C 9,2 °C 0,0 km/h (0 Bft)
10.10.2017 19:40 9,2 °C 9,2 °C 89 % 1020,9 hPa 0,0 mm 0,0 km/h (0 Bft) S-SW 192 ° 0 min 0,000 mm 0,0 UV-I 0 W/m² 7,5 °C 9,2 °C 0,0 km/h (0 Bft)
10.10.2017 19:41 9,2 °C 9,2 °C 89 % 1021,0 hPa 0,0 mm 0,0 km/h (0 Bft) S-SW 192 ° 0 min 0,000 mm 0,0 UV-I 0 W/m² 7,5 °C 9,2 °C 0,0 km/h (0 Bft)
10.10.2017 19:42 9,2 °C 9,2 °C 89 % 1021,0 hPa 0,0 mm 0,0 km/h (0 Bft) S-SW 192 ° 0 min 0,000 mm 0,0 UV-I 0 W/m² 7,5 °C 9,2 °C 0,0 km/h (0 Bft)
10.10.2017 19:44 9,3 °C 9,3 °C 88 % 1021,0 hPa 0,0 mm 2,3 km/h (1 Bft) S-SW 198 ° 0 min 0,000 mm 0,0 UV-I 0 W/m² 7,4 °C 9,3 °C 8,0 km/h (2 Bft)
10.10.2017 19:45 9,3 °C 9,3 °C 88 % 1021,0 hPa 0,0 mm 3,4 km/h (1 Bft) S-SW 193 ° 0 min 0,000 mm 0,0 UV-I 0 W/m² 7,4 °C 9,3 °C 6,4 km/h (2 Bft)
10.10.2017 19:46 9,4 °C 9,4 °C 88 % 1020,9 hPa 0,0 mm 1,6 km/h (1 Bft) S-SW 193 ° 0 min 0,000 mm 0,0 UV-I 0 W/m² 7,5 °C 9,4 °C 4,8 km/h (1 Bft)
10.10.2017 19:47 9,4 °C 9,4 °C 88 % 1021,0 hPa 0,0 mm 0,0 km/h (0 Bft) S-SW 193 ° 0 min 0,000 mm 0,0 UV-I 0 W/m² 7,5 °C 9,4 °C 0,0 km/h (0 Bft)
10.10.2017 19:48 9,4 °C 9,4 °C 88 % 1021,0 hPa 0,0 mm 1,1 km/h (1 Bft) S-SW 193 ° 0 min 0,000 mm 0,0 UV-I 0 W/m² 7,5 °C 9,4 °C 3,2 km/h (1 Bft)
10.10.2017 19:49 9,3 °C 9,4 °C 89 % 1021,0 hPa 0,0 mm 0,8 km/h (0 Bft) S-SW 193 ° 0 min 0,000 mm 0,0 UV-I 0 W/m² 7,6 °C 9,3 °C 3,2 km/h (1 Bft)
10.10.2017 19:50 9,3 °C 9,3 °C 89 % 1021,0 hPa 0,0 mm 0,8 km/h (0 Bft) S-SW 193 ° 0 min 0,000 mm 0,0 UV-I 0 W/m² 7,6 °C 9,3 °C 1,6 km/h (1 Bft)
10.10.2017 19:51 9,3 °C 9,3 °C 89 % 1021,1 hPa 0,0 mm 0,3 km/h (0 Bft) S-SW 193 ° 0 min 0,000 mm 0,0 UV-I 0 W/m² 7,6 °C 9,3 °C 1,6 km/h (1 Bft)
10.10.2017 19:52 9,3 °C 9,3 °C 88 % 1021,1 hPa 0,0 mm 0,0 km/h (0 Bft) S-SW 193 ° 0 min 0,000 mm 0,0 UV-I 0 W/m² 7,4 °C 9,3 °C 0,0 km/h (0 Bft)
10.10.2017 19:53 9,3 °C 9,3 °C 88 % 1021,1 hPa 0,0 mm 0,1 km/h (0 Bft) S-SW 193 ° 0 min 0,000 mm 0,0 UV-I 0 W/m² 7,4 °C 9,3 °C 1,6 km/h (1 Bft)
10.10.2017 19:54 9,3 °C 9,3 °C 88 % 1021,1 hPa 0,0 mm 0,3 km/h (0 Bft) S-SW 193 ° 0 min 0,000 mm 0,0 UV-I 0 W/m² 7,4 °C 9,3 °C 1,6 km/h (1 Bft)
10.10.2017 19:55 9,2 °C 9,3 °C 88 % 1021,1 hPa 0,0 mm 0,0 km/h (0 Bft) S-SW 193 ° 0 min 0,000 mm 0,0 UV-I 0 W/m² 7,3 °C 9,2 °C 0,0 km/h (0 Bft)
10.10.2017 19:56 9,2 °C 9,2 °C 88 % 1021,1 hPa 0,0 mm 0,5 km/h (0 Bft) S-SW 193 ° 0 min 0,000 mm 0,0 UV-I 0 W/m² 7,3 °C 9,2 °C 3,2 km/h (1 Bft)
10.10.2017 19:57 9,3 °C 9,3 °C 87 % 1021,1 hPa 0,0 mm 0,4 km/h (0 Bft) S-SW 193 ° 0 min 0,000 mm 0,0 UV-I 0 W/m² 7,2 °C 9,3 °C 3,2 km/h (1 Bft)
10.10.2017 19:58 9,3 °C 9,3 °C 87 % 1021,1 hPa 0,0 mm 3,7 km/h (1 Bft) S-SW 194 ° 0 min 0,000 mm 0,0 UV-I 0 W/m² 7,2 °C 9,3 °C 6,4 km/h (2 Bft)
10.10.2017 19:59 9,4 °C 9,4 °C 87 % 1021,1 hPa 0,0 mm 4,9 km/h (1 Bft) S-SW 198 ° 0 min 0,000 mm 0,0 UV-I 0 W/m² 7,3 °C 9,1 °C 6,4 km/h (2 Bft)
10.10.2017 20:00 9,4 °C 9,4 °C 87 % 1021,1 hPa 0,0 mm 6,4 km/h (2 Bft) S 191 ° 0 min 0,000 mm 0,0 UV-I 0 W/m² 7,3 °C 8,7 °C 8,0 km/h (2 Bft)
10.10.2017 20:01 9,4 °C 9,4 °C 87 % 1021,1 hPa 0,0 mm 3,5 km/h (1 Bft) S-SW 195 ° 0 min 0,000 mm 0,0 UV-I 0 W/m² 7,3 °C 9,4 °C 6,4 km/h (2 Bft)
10.10.2017 20:02 9,4 °C 9,4 °C 87 % 1021,1 hPa 0,0 mm 4,9 km/h (1 Bft) S 180 ° 0 min 0,000 mm 0,0 UV-I 0 W/m² 7,3 °C 9,1 °C 8,0 km/h (2 Bft)
10.10.2017 20:03 9,4 °C 9,4 °C 86 % 1021,0 hPa 0,0 mm 6,4 km/h (2 Bft) S 186 ° 0 min 0,000 mm 0,0 UV-I 0 W/m² 7,2 °C 8,7 °C 12,9 km/h (3 Bft)
10.10.2017 20:04 9,5 °C 9,5 °C 87 % 1021,0 hPa 0,0 mm 3,4 km/h (1 Bft) S-SO 163 ° 0 min 0,000 mm 0,0 UV-I 0 W/m² 7,4 °C 9,5 °C 6,4 km/h (2 Bft)
10.10.2017 20:05 9,5 °C 9,5 °C 86 % 1021,1 hPa 0,0 mm 3,1 km/h (1 Bft) S-SO 167 ° 0 min 0,000 mm 0,0 UV-I 0 W/m² 7,3 °C 9,5 °C 6,4 km/h (2 Bft)
10.10.2017 20:06 9,4 °C 9,5 °C 86 % 1021,1 hPa 0,0 mm 4,5 km/h (1 Bft) S-SW 202 ° 0 min 0,000 mm 0,0 UV-I 0 W/m² 7,2 °C 9,4 °C 8,0 km/h (2 Bft)
10.10.2017 20:07 9,4 °C 9,4 °C 86 % 1021,1 hPa 0,0 mm 5,4 km/h (1 Bft) S 179 ° 0 min 0,000 mm 0,0 UV-I 0 W/m² 7,2 °C 9,0 °C 9,7 km/h (2 Bft)
10.10.2017 20:08 9,4 °C 9,5 °C 86 % 1021,1 hPa 0,0 mm 2,1 km/h (1 Bft) S 184 ° 0 min 0,000 mm 0,0 UV-I 0 W/m² 7,2 °C 9,4 °C 4,8 km/h (1 Bft)
10.10.2017 20:09 9,4 °C 9,4 °C 86 % 1021,0 hPa 0,0 mm 3,6 km/h (1 Bft) S-SW 196 ° 0 min 0,000 mm 0,0 UV-I 0 W/m² 7,2 °C 9,4 °C 4,8 km/h (1 Bft)
10.10.2017 20:10 9,4 °C 9,4 °C 86 % 1021,0 hPa 0,0 mm 3,1 km/h (1 Bft) S-SW 196 ° 0 min 0,000 mm 0,0 UV-I 0 W/m² 7,2 °C 9,4 °C 4,8 km/h (1 Bft)
10.10.2017 20:11 9,4 °C 9,4 °C 86 % 1021,1 hPa 0,0 mm 2,5 km/h (1 Bft) S-SW 196 ° 0 min 0,000 mm 0,0 UV-I 0 W/m² 7,2 °C 9,4 °C 3,2 km/h (1 Bft)
10.10.2017 20:12 9,5 °C 9,5 °C 85 % 1021,1 hPa 0,0 mm 5,1 km/h (1 Bft) S-SW 207 ° 0 min 0,000 mm 0,0 UV-I 0 W/m² 7,1 °C 9,2 °C 8,0 km/h (2 Bft)
10.10.2017 20:13 9,5 °C 9,6 °C 85 % 1021,1 hPa 0,0 mm 3,0 km/h (1 Bft) S-SW 195 ° 0 min 0,000 mm 0,0 UV-I 0 W/m² 7,1 °C 9,5 °C 4,8 km/h (1 Bft)
10.10.2017 20:14 9,6 °C 9,6 °C 86 % 1021,1 hPa 0,0 mm 3,2 km/h (1 Bft) S-SW 198 ° 0 min 0,000 mm 0,0 UV-I 0 W/m² 7,4 °C 9,6 °C 6,4 km/h (2 Bft)
10.10.2017 20:15 9,6 °C 9,6 °C 84 % 1021,1 hPa 0,0 mm 3,5 km/h (1 Bft) S 181 ° 0 min 0,000 mm 0,0 UV-I 0 W/m² 7,0 °C 9,6 °C 4,8 km/h (1 Bft)
10.10.2017 20:16 9,7 °C 9,7 °C 84 % 1021,1 hPa 0,0 mm 4,0 km/h (1 Bft) S-SW 206 ° 0 min 0,000 mm 0,0 UV-I 0 W/m² 7,1 °C 9,7 °C 8,0 km/h (2 Bft)
10.10.2017 20:17 9,8 °C 9,8 °C 83 % 1021,1 hPa 0,0 mm 3,6 km/h (1 Bft) W-SW 257 ° 0 min 0,000 mm 0,0 UV-I 0 W/m² 7,1 °C 9,8 °C 6,4 km/h (2 Bft)
10.10.2017 20:18 9,8 °C 9,8 °C 83 % 1021,1 hPa 0,0 mm 2,7 km/h (1 Bft) S-SW 196 ° 0 min 0,000 mm 0,0 UV-I 0 W/m² 7,1 °C 9,8 °C 4,8 km/h (1 Bft)
10.10.2017 20:19 9,9 °C 9,9 °C 83 % 1021,1 hPa 0,0 mm 4,9 km/h (1 Bft) S-SW 194 ° 0 min 0,000 mm 0,0 UV-I 0 W/m² 7,2 °C 9,7 °C 8,0 km/h (2 Bft)
10.10.2017 20:20 9,9 °C 9,9 °C 83 % 1021,2 hPa 0,0 mm 4,0 km/h (1 Bft) W 263 ° 0 min 0,000 mm 0,0 UV-I 0 W/m² 7,2 °C 9,9 °C 4,8 km/h (1 Bft)
10.10.2017 20:21 10,0 °C 10,0 °C 82 % 1021,1 hPa 0,0 mm 4,2 km/h (1 Bft) S-SW 208 ° 0 min 0,000 mm 0,0 UV-I 0 W/m² 7,1 °C 10,0 °C 6,4 km/h (2 Bft)
10.10.2017 20:22 10,1 °C 10,1 °C 82 % 1021,2 hPa 0,0 mm 3,9 km/h (1 Bft) S 173 ° 0 min 0,000 mm 0,0 UV-I 0 W/m² 7,2 °C 10,1 °C 6,4 km/h (2 Bft)
10.10.2017 20:23 10,1 °C 10,1 °C 83 % 1021,1 hPa 0,0 mm 5,1 km/h (1 Bft) S-SW 195 ° 0 min 0,000 mm 0,0 UV-I 0 W/m² 7,3 °C 10,1 °C 6,4 km/h (2 Bft)
10.10.2017 20:24 10,1 °C 10,1 °C 82 % 1021,2 hPa 0,0 mm 4,0 km/h (1 Bft) S-SW 197 ° 0 min 0,000 mm 0,0 UV-I 0 W/m² 7,2 °C 10,1 °C 6,4 km/h (2 Bft)
10.10.2017 20:25 10,1 °C 10,1 °C 83 % 1021,2 hPa 0,0 mm 3,6 km/h (1 Bft) S 188 ° 0 min 0,000 mm 0,0 UV-I 0 W/m² 7,3 °C 10,1 °C 6,4 km/h (2 Bft)
10.10.2017 20:26 10,1 °C 10,1 °C 82 % 1021,2 hPa 0,0 mm 5,2 km/h (1 Bft) S-SW 200 ° 0 min 0,000 mm 0,0 UV-I 0 W/m² 7,2 °C 10,1 °C 9,7 km/h (2 Bft)
10.10.2017 20:27 10,1 °C 10,1 °C 82 % 1021,1 hPa 0,0 mm 4,8 km/h (1 Bft) S-SW 192 ° 0 min 0,000 mm 0,0 UV-I 0 W/m² 7,2 °C 10,1 °C 6,4 km/h (2 Bft)
10.10.2017 20:28 10,1 °C 10,1 °C 82 % 1021,2 hPa 0,0 mm 3,8 km/h (1 Bft) S-SW 192 ° 0 min 0,000 mm 0,0 UV-I 0 W/m² 7,2 °C 10,1 °C 4,8 km/h (1 Bft)
10.10.2017 20:29 10,1 °C 10,1 °C 82 % 1021,1 hPa 0,0 mm 4,6 km/h (1 Bft) S 190 ° 0 min 0,000 mm 0,0 UV-I 0 W/m² 7,2 °C 10,1 °C 6,4 km/h (2 Bft)
10.10.2017 20:30 10,1 °C 10,1 °C 82 % 1021,2 hPa 0,0 mm 2,5 km/h (1 Bft) S 190 ° 0 min 0,000 mm 0,0 UV-I 0 W/m² 7,2 °C 10,1 °C 6,4 km/h (2 Bft)
10.10.2017 20:31 10,0 °C 10,1 °C 82 % 1021,2 hPa 0,0 mm 2,2 km/h (1 Bft) S 190 ° 0 min 0,000 mm 0,0 UV-I 0 W/m² 7,1 °C 10,0 °C 4,8 km/h (1 Bft)
10.10.2017 20:32 9,9 °C 10,0 °C 82 % 1021,2 hPa 0,0 mm 2,5 km/h (1 Bft) S 190 ° 0 min 0,000 mm 0,0 UV-I 0 W/m² 7,0 °C 9,9 °C 4,8 km/h (1 Bft)
10.10.2017 20:33 9,9 °C 9,9 °C 83 % 1021,3 hPa 0,0 mm 2,6 km/h (1 Bft) S 190 ° 0 min 0,000 mm 0,0 UV-I 0 W/m² 7,2 °C 9,9 °C 3,2 km/h (1 Bft)
10.10.2017 20:34 9,9 °C 9,9 °C 83 % 1021,2 hPa 0,0 mm 2,2 km/h (1 Bft) S-SW 192 ° 0 min 0,000 mm 0,0 UV-I 0 W/m² 7,2 °C 9,9 °C 4,8 km/h (1 Bft)
10.10.2017 20:35 9,9 °C 9,9 °C 83 % 1021,2 hPa 0,0 mm 4,2 km/h (1 Bft) S-SW 192 ° 0 min 0,000 mm 0,0 UV-I 0 W/m² 7,2 °C 9,9 °C 4,8 km/h (1 Bft)
10.10.2017 20:36 9,9 °C 9,9 °C 83 % 1021,2 hPa 0,0 mm 6,4 km/h (2 Bft) S-SW 200 ° 0 min 0,000 mm 0,0 UV-I 0 W/m² 7,2 °C 9,3 °C 8,0 km/h (2 Bft)
10.10.2017 20:37 9,8 °C 9,9 °C 83 % 1021,2 hPa 0,0 mm 5,1 km/h (1 Bft) S-SW 194 ° 0 min 0,000 mm 0,0 UV-I 0 W/m² 7,1 °C 9,5 °C 8,0 km/h (2 Bft)
10.10.2017 20:38 9,8 °C 9,8 °C 83 % 1021,2 hPa 0,0 mm 5,7 km/h (1 Bft) S-SW 206 ° 0 min 0,000 mm 0,0 UV-I 0 W/m² 7,1 °C 9,3 °C 8,0 km/h (2 Bft)
10.10.2017 20:39 9,8 °C 9,8 °C 84 % 1021,2 hPa 0,0 mm 3,7 km/h (1 Bft) S-SW 202 ° 0 min 0,000 mm 0,0 UV-I 0 W/m² 7,2 °C 9,8 °C 6,4 km/h (2 Bft)
10.10.2017 20:40 9,7 °C 9,8 °C 84 % 1021,2 hPa 0,0 mm 3,0 km/h (1 Bft) S-SW 202 ° 0 min 0,000 mm 0,0 UV-I 0 W/m² 7,1 °C 9,7 °C 4,8 km/h (1 Bft)
10.10.2017 20:41 9,6 °C 9,7 °C 84 % 1021,2 hPa 0,0 mm 1,5 km/h (1 Bft) S-SW 202 ° 0 min 0,000 mm 0,0 UV-I 0 W/m² 7,0 °C 9,6 °C 4,8 km/h (1 Bft)
10.10.2017 20:42 9,6 °C 9,6 °C 84 % 1021,2 hPa 0,0 mm 3,2 km/h (1 Bft) SW 225 ° 0 min 0,000 mm 0,0 UV-I 0 W/m² 7,0 °C 9,6 °C 4,8 km/h (1 Bft)
10.10.2017 20:43 9,6 °C 9,6 °C 84 % 1021,2 hPa 0,0 mm 3,6 km/h (1 Bft) S-SW 202 ° 0 min 0,000 mm 0,0 UV-I 0 W/m² 7,0 °C 9,6 °C 6,4 km/h (2 Bft)
10.10.2017 20:44 9,6 °C 9,6 °C 84 % 1021,2 hPa 0,0 mm 4,4 km/h (1 Bft) S-SW 199 ° 0 min 0,000 mm 0,0 UV-I 0 W/m² 7,0 °C 9,6 °C 6,4 km/h (2 Bft)
10.10.2017 20:45 9,7 °C 9,7 °C 84 % 1021,2 hPa 0,0 mm 5,7 km/h (1 Bft) S 183 ° 0 min 0,000 mm 0,0 UV-I 0 W/m² 7,1 °C 9,2 °C 8,0 km/h (2 Bft)
10.10.2017 20:46 9,7 °C 9,7 °C 84 % 1021,2 hPa 0,0 mm 3,4 km/h (1 Bft) S 190 ° 0 min 0,000 mm 0,0 UV-I 0 W/m² 7,1 °C 9,7 °C 4,8 km/h (1 Bft)
10.10.2017 20:47 9,7 °C 9,7 °C 83 % 1021,2 hPa 0,0 mm 4,0 km/h (1 Bft) S 190 ° 0 min 0,000 mm 0,0 UV-I 0 W/m² 7,0 °C 9,7 °C 6,4 km/h (2 Bft)
10.10.2017 20:48 9,7 °C 9,7 °C 83 % 1021,2 hPa 0,0 mm 4,6 km/h (1 Bft) S 180 ° 0 min 0,000 mm 0,0 UV-I 0 W/m² 7,0 °C 9,5 °C 6,4 km/h (2 Bft)
10.10.2017 20:49 9,8 °C 9,8 °C 83 % 1021,2 hPa 0,0 mm 4,0 km/h (1 Bft) S-SW 197 ° 0 min 0,000 mm 0,0 UV-I 0 W/m² 7,1 °C 9,8 °C 6,4 km/h (2 Bft)
10.10.2017 20:50 9,8 °C 9,8 °C 83 % 1021,2 hPa 0,0 mm 3,1 km/h (1 Bft) S 186 ° 0 min 0,000 mm 0,0 UV-I 0 W/m² 7,1 °C 9,8 °C 4,8 km/h (1 Bft)
10.10.2017 20:51 9,8 °C 9,8 °C 83 % 1021,2 hPa 0,0 mm 4,8 km/h (1 Bft) S 184 ° 0 min 0,000 mm 0,0 UV-I 0 W/m² 7,1 °C 9,6 °C 6,4 km/h (2 Bft)
10.10.2017 20:52 9,8 °C 9,8 °C 84 % 1021,2 hPa 0,0 mm 5,0 km/h (1 Bft) S 178 ° 0 min 0,000 mm 0,0 UV-I 0 W/m² 7,2 °C 9,5 °C 6,4 km/h (2 Bft)
10.10.2017 20:53 9,7 °C 9,8 °C 84 % 1021,2 hPa 0,0 mm 1,0 km/h (0 Bft) S 178 ° 0 min 0,000 mm 0,0 UV-I 0 W/m² 7,1 °C 9,7 °C 3,2 km/h (1 Bft)
10.10.2017 20:54 9,7 °C 9,7 °C 84 % 1021,2 hPa 0,0 mm 3,6 km/h (1 Bft) S 179 ° 0 min 0,000 mm 0,0 UV-I 0 W/m² 7,1 °C 9,7 °C 4,8 km/h (1 Bft)
10.10.2017 20:55 9,7 °C 9,7 °C 83 % 1021,2 hPa 0,0 mm 3,8 km/h (1 Bft) S-SW 194 ° 0 min 0,000 mm 0,0 UV-I 0 W/m² 7,0 °C 9,7 °C 4,8 km/h (1 Bft)
10.10.2017 20:56 9,7 °C 9,7 °C 83 % 1021,2 hPa 0,0 mm 0,6 km/h (0 Bft) SW 232 ° 0 min 0,000 mm 0,0 UV-I 0 W/m² 7,0 °C 9,7 °C 1,6 km/h (1 Bft)
10.10.2017 20:57 9,8 °C 9,8 °C 83 % 1021,2 hPa 0,0 mm 0,0 km/h (0 Bft) SW 232 ° 0 min 0,000 mm 0,0 UV-I 0 W/m² 7,1 °C 9,8 °C 0,0 km/h (0 Bft)
10.10.2017 20:58 9,8 °C 9,8 °C 83 % 1021,2 hPa 0,0 mm 0,4 km/h (0 Bft) SW 232 ° 0 min 0,000 mm 0,0 UV-I 0 W/m² 7,1 °C 9,8 °C 3,2 km/h (1 Bft)
10.10.2017 20:59 9,8 °C 9,8 °C 83 % 1021,2 hPa 0,0 mm 0,7 km/h (0 Bft) S-SW 205 ° 0 min 0,000 mm 0,0 UV-I 0 W/m² 7,1 °C 9,8 °C 3,2 km/h (1 Bft)
10.10.2017 21:00 9,7 °C 9,8 °C 83 % 1021,2 hPa 0,0 mm 1,3 km/h (1 Bft) S-SW 205 ° 0 min 0,000 mm 0,0 UV-I 0 W/m² 7,0 °C 9,7 °C 4,8 km/h (1 Bft)
10.10.2017 21:01 9,7 °C 9,7 °C 84 % 1021,2 hPa 0,0 mm 1,3 km/h (1 Bft) S 186 ° 0 min 0,025 mm 0,0 UV-I 0 W/m² 7,1 °C 9,7 °C 4,8 km/h (1 Bft)
10.10.2017 21:02 9,7 °C 9,7 °C 83 % 1021,3 hPa 0,0 mm 0,9 km/h (0 Bft) S 186 ° 0 min 0,000 mm 0,0 UV-I 0 W/m² 7,0 °C 9,7 °C 3,2 km/h (1 Bft)
10.10.2017 21:03 9,6 °C 9,7 °C 84 % 1021,3 hPa 0,0 mm 1,9 km/h (1 Bft) S 188 ° 0 min 0,000 mm 0,0 UV-I 0 W/m² 7,0 °C 9,6 °C 4,8 km/h (1 Bft)
10.10.2017 21:04 9,6 °C 9,6 °C 84 % 1021,3 hPa 0,0 mm 3,8 km/h (1 Bft) S-SW 196 ° 0 min 0,000 mm 0,0 UV-I 0 W/m² 7,0 °C 9,6 °C 6,4 km/h (2 Bft)
10.10.2017 21:05 9,5 °C 9,6 °C 84 % 1021,3 hPa 0,0 mm 1,1 km/h (1 Bft) S 175 ° 0 min 0,000 mm 0,0 UV-I 0 W/m² 6,9 °C 9,5 °C 4,8 km/h (1 Bft)
10.10.2017 21:06 9,5 °C 9,5 °C 84 % 1021,3 hPa 0,0 mm 4,1 km/h (1 Bft) S 178 ° 0 min 0,000 mm 0,0 UV-I 0 W/m² 6,9 °C 9,5 °C 6,4 km/h (2 Bft)
10.10.2017 21:07 9,5 °C 9,5 °C 83 % 1021,2 hPa 0,0 mm 5,1 km/h (1 Bft) S 182 ° 0 min 0,000 mm 0,0 UV-I 0 W/m² 6,8 °C 9,2 °C 8,0 km/h (2 Bft)
10.10.2017 21:08 9,5 °C 9,5 °C 83 % 1021,3 hPa 0,0 mm 3,2 km/h (1 Bft) S-SW 192 ° 0 min 0,000 mm 0,0 UV-I 0 W/m² 6,8 °C 9,5 °C 6,4 km/h (2 Bft)
10.10.2017 21:09 9,4 °C 9,6 °C 84 % 1021,3 hPa 0,0 mm 3,6 km/h (1 Bft) S 189 ° 0 min 0,000 mm 0,0 UV-I 0 W/m² 6,8 °C 9,4 °C 6,4 km/h (2 Bft)
10.10.2017 21:10 9,5 °C 9,5 °C 83 % 1021,3 hPa 0,0 mm 3,3 km/h (1 Bft) S 190 ° 0 min 0,000 mm 0,0 UV-I 0 W/m² 6,8 °C 9,5 °C 4,8 km/h (1 Bft)
10.10.2017 21:11 9,6 °C 9,6 °C 83 % 1021,3 hPa 0,0 mm 3,9 km/h (1 Bft) S-SW 195 ° 0 min 0,000 mm 0,0 UV-I 0 W/m² 6,9 °C 9,6 °C 4,8 km/h (1 Bft)
10.10.2017 21:12 9,6 °C 9,6 °C 83 % 1021,3 hPa 0,0 mm 5,0 km/h (1 Bft) S-SW 194 ° 0 min 0,000 mm 0,0 UV-I 0 W/m² 6,9 °C 9,3 °C 8,0 km/h (2 Bft)
10.10.2017 21:13 9,6 °C 9,6 °C 83 % 1021,3 hPa 0,0 mm 2,3 km/h (1 Bft) S-SW 194 ° 0 min 0,000 mm 0,0 UV-I 0 W/m² 6,9 °C 9,6 °C 4,8 km/h (1 Bft)
10.10.2017 21:14 9,6 °C 9,6 °C 83 % 1021,3 hPa 0,0 mm 2,7 km/h (1 Bft) S-SW 192 ° 0 min 0,000 mm 0,0 UV-I 0 W/m² 6,9 °C 9,6 °C 4,8 km/h (1 Bft)
10.10.2017 21:15 9,6 °C 9,6 °C 82 % 1021,3 hPa 0,0 mm 4,9 km/h (1 Bft) S-SW 198 ° 0 min 0,000 mm 0,0 UV-I 0 W/m² 6,7 °C 9,3 °C 6,4 km/h (2 Bft)
10.10.2017 21:16 9,6 °C 9,7 °C 82 % 1021,3 hPa 0,0 mm 5,6 km/h (1 Bft) S-SW 197 ° 0 min 0,000 mm 0,0 UV-I 0 W/m² 6,7 °C 9,1 °C 8,0 km/h (2 Bft)
10.10.2017 21:17 9,6 °C 9,7 °C 82 % 1021,3 hPa 0,0 mm 4,4 km/h (1 Bft) S-SW 192 ° 0 min 0,000 mm 0,0 UV-I 0 W/m² 6,7 °C 9,6 °C 6,4 km/h (2 Bft)
10.10.2017 21:18 9,7 °C 9,7 °C 82 % 1021,3 hPa 0,0 mm 4,8 km/h (1 Bft) S-SW 197 ° 0 min 0,000 mm 0,0 UV-I 0 W/m² 6,8 °C 9,5 °C 6,4 km/h (2 Bft)
10.10.2017 21:19 9,7 °C 9,7 °C 82 % 1021,3 hPa 0,0 mm 4,0 km/h (1 Bft) S-SW 196 ° 0 min 0,000 mm 0,0 UV-I 0 W/m² 6,8 °C 9,7 °C 6,4 km/h (2 Bft)
10.10.2017 21:20 9,7 °C 9,7 °C 82 % 1021,4 hPa 0,0 mm 5,8 km/h (2 Bft) S-SW 199 ° 0 min 0,000 mm 0,0 UV-I 0 W/m² 6,8 °C 9,2 °C 8,0 km/h (2 Bft)
10.10.2017 21:21 9,6 °C 9,7 °C 82 % 1021,3 hPa 0,0 mm 3,2 km/h (1 Bft) S 189 ° 0 min 0,000 mm 0,0 UV-I 0 W/m² 6,7 °C 9,6 °C 4,8 km/h (1 Bft)
10.10.2017 21:22 9,6 °C 9,6 °C 82 % 1021,3 hPa 0,0 mm 2,5 km/h (1 Bft) S 189 ° 0 min 0,000 mm 0,0 UV-I 0 W/m² 6,7 °C 9,6 °C 4,8 km/h (1 Bft)
10.10.2017 21:23 9,4 °C 9,6 °C 83 % 1021,3 hPa 0,0 mm 2,1 km/h (1 Bft) S 189 ° 0 min 0,000 mm 0,0 UV-I 0 W/m² 6,7 °C 9,4 °C 3,2 km/h (1 Bft)
10.10.2017 21:24 9,4 °C 9,4 °C 83 % 1021,4 hPa 0,0 mm 1,3 km/h (1 Bft) S 189 ° 0 min 0,000 mm 0,0 UV-I 0 W/m² 6,7 °C 9,4 °C 3,2 km/h (1 Bft)
10.10.2017 21:25 9,3 °C 9,4 °C 84 % 1021,3 hPa 0,0 mm 1,4 km/h (1 Bft) S 189 ° 0 min 0,000 mm 0,0 UV-I 0 W/m² 6,7 °C 9,3 °C 3,2 km/h (1 Bft)
10.10.2017 21:26 9,2 °C 9,3 °C 84 % 1021,3 hPa 0,0 mm 1,8 km/h (1 Bft) S 189 ° 0 min 0,000 mm 0,0 UV-I 0 W/m² 6,6 °C 9,2 °C 4,8 km/h (1 Bft)
10.10.2017 21:27 9,1 °C 9,2 °C 84 % 1021,3 hPa 0,0 mm 2,7 km/h (1 Bft) S-SW 209 ° 0 min 0,000 mm 0,0 UV-I 0 W/m² 6,5 °C 9,1 °C 4,8 km/h (1 Bft)
10.10.2017 21:28 8,9 °C 9,1 °C 84 % 1021,3 hPa 0,0 mm 1,6 km/h (1 Bft) S-SW 209 ° 0 min 0,000 mm 0,0 UV-I 0 W/m² 6,3 °C 8,9 °C 3,2 km/h (1 Bft)
10.10.2017 21:29 8,9 °C 8,9 °C 85 % 1021,4 hPa 0,0 mm 1,9 km/h (1 Bft) S-SW 209 ° 0 min 0,000 mm 0,0 UV-I 0 W/m² 6,5 °C 8,9 °C 3,2 km/h (1 Bft)
10.10.2017 21:30 8,8 °C 8,9 °C 85 % 1021,4 hPa 0,0 mm 1,2 km/h (1 Bft) S-SW 209 ° 0 min 0,000 mm 0,0 UV-I 0 W/m² 6,4 °C 8,8 °C 3,2 km/h (1 Bft)
10.10.2017 21:31 8,8 °C 8,8 °C 85 % 1021,4 hPa 0,0 mm 0,2 km/h (0 Bft) S-SW 209 ° 0 min 0,000 mm 0,0 UV-I 0 W/m² 6,4 °C 8,8 °C 1,6 km/h (1 Bft)
10.10.2017 21:32 8,7 °C 8,8 °C 85 % 1021,4 hPa 0,0 mm 0,6 km/h (0 Bft) S-SW 209 ° 0 min 0,000 mm 0,0 UV-I 0 W/m² 6,3 °C 8,7 °C 1,6 km/h (1 Bft)
10.10.2017 21:33 8,7 °C 8,7 °C 85 % 1021,4 hPa 0,0 mm 0,8 km/h (0 Bft) S-SW 209 ° 0 min 0,000 mm 0,0 UV-I 0 W/m² 6,3 °C 8,7 °C 1,6 km/h (1 Bft)
10.10.2017 21:34 8,7 °C 8,7 °C 86 % 1021,4 hPa 0,0 mm 0,2 km/h (0 Bft) S-SW 209 ° 0 min 0,000 mm 0,0 UV-I 0 W/m² 6,5 °C 8,7 °C 1,6 km/h (1 Bft)
10.10.2017 21:35 8,6 °C 8,7 °C 85 % 1021,4 hPa 0,0 mm 0,1 km/h (0 Bft) S-SW 209 ° 0 min 0,000 mm 0,0 UV-I 0 W/m² 6,2 °C 8,6 °C 1,6 km/h (1 Bft)
10.10.2017 21:36 8,5 °C 8,6 °C 85 % 1021,4 hPa 0,0 mm 2,7 km/h (1 Bft) S-SW 209 ° 0 min 0,000 mm 0,0 UV-I 0 W/m² 6,1 °C 8,5 °C 4,8 km/h (1 Bft)
10.10.2017 21:37 8,3 °C 8,5 °C 85 % 1021,4 hPa 0,0 mm 2,7 km/h (1 Bft) S-SW 209 ° 0 min 0,000 mm 0,0 UV-I 0 W/m² 5,9 °C 8,3 °C 4,8 km/h (1 Bft)
10.10.2017 21:38 8,2 °C 8,3 °C 86 % 1021,4 hPa 0,0 mm 2,4 km/h (1 Bft) S-SW 209 ° 0 min 0,000 mm 0,0 UV-I 0 W/m² 6,0 °C 8,2 °C 4,8 km/h (1 Bft)
10.10.2017 21:39 8,2 °C 8,2 °C 87 % 1021,4 hPa 0,0 mm 1,2 km/h (1 Bft) S-SW 209 ° 0 min 0,000 mm 0,0 UV-I 0 W/m² 6,2 °C 8,2 °C 3,2 km/h (1 Bft)
10.10.2017 21:40 8,2 °C 8,2 °C 87 % 1021,4 hPa 0,0 mm 0,9 km/h (0 Bft) S-SW 209 ° 0 min 0,000 mm 0,0 UV-I 0 W/m² 6,2 °C 8,2 °C 3,2 km/h (1 Bft)
10.10.2017 21:41 8,2 °C 8,2 °C 87 % 1021,4 hPa 0,0 mm 0,5 km/h (0 Bft) S-SW 209 ° 0 min 0,000 mm 0,0 UV-I 0 W/m² 6,2 °C 8,2 °C 1,6 km/h (1 Bft)
10.10.2017 21:42 8,2 °C 8,2 °C 87 % 1021,4 hPa 0,0 mm 1,6 km/h (1 Bft) S-SW 209 ° 0 min 0,000 mm 0,0 UV-I 0 W/m² 6,2 °C 8,2 °C 3,2 km/h (1 Bft)
10.10.2017 21:43 8,2 °C 8,2 °C 87 % 1021,5 hPa 0,0 mm 1,4 km/h (1 Bft) S-SW 209 ° 0 min 0,000 mm 0,0 UV-I 0 W/m² 6,2 °C 8,2 °C 3,2 km/h (1 Bft)
10.10.2017 21:44 8,2 °C 8,3 °C 87 % 1021,5 hPa 0,0 mm 0,7 km/h (0 Bft) S-SW 209 ° 0 min 0,000 mm 0,0 UV-I 0 W/m² 6,2 °C 8,2 °C 1,6 km/h (1 Bft)
10.10.2017 21:45 8,2 °C 8,2 °C 87 % 1021,5 hPa 0,0 mm 0,1 km/h (0 Bft) S-SW 209 ° 0 min 0,000 mm 0,0 UV-I 0 W/m² 6,2 °C 8,2 °C 1,6 km/h (1 Bft)
10.10.2017 21:46 8,2 °C 8,2 °C 87 % 1021,5 hPa 0,0 mm 0,3 km/h (0 Bft) S-SW 209 ° 0 min 0,000 mm 0,0 UV-I 0 W/m² 6,2 °C 8,2 °C 1,6 km/h (1 Bft)
10.10.2017 21:47 8,1 °C 8,2 °C 87 % 1021,4 hPa 0,0 mm 0,3 km/h (0 Bft) S-SW 209 ° 0 min 0,000 mm 0,0 UV-I 0 W/m² 6,1 °C 8,1 °C 1,6 km/h (1 Bft)
10.10.2017 21:48 8,1 °C 8,2 °C 87 % 1021,5 hPa 0,0 mm 1,2 km/h (1 Bft) S-SW 209 ° 0 min 0,000 mm 0,0 UV-I 0 W/m² 6,1 °C 8,1 °C 3,2 km/h (1 Bft)
10.10.2017 21:49 8,2 °C 8,2 °C 87 % 1021,4 hPa 0,0 mm 0,0 km/h (0 Bft) S-SW 209 ° 0 min 0,000 mm 0,0 UV-I 0 W/m² 6,2 °C 8,2 °C 0,0 km/h (0 Bft)
10.10.2017 21:50 8,2 °C 8,2 °C 88 % 1021,3 hPa 0,0 mm 1,3 km/h (1 Bft) S-SW 209 ° 0 min 0,000 mm 0,0 UV-I 0 W/m² 6,3 °C 8,2 °C 3,2 km/h (1 Bft)
10.10.2017 21:51 8,2 °C 8,2 °C 88 % 1021,5 hPa 0,0 mm 1,1 km/h (1 Bft) S-SW 209 ° 0 min 0,000 mm 0,0 UV-I 0 W/m² 6,3 °C 8,2 °C 3,2 km/h (1 Bft)
10.10.2017 21:52 8,1 °C 8,2 °C 87 % 1021,4 hPa 0,0 mm 0,3 km/h (0 Bft) S-SW 209 ° 0 min 0,000 mm 0,0 UV-I 0 W/m² 6,1 °C 8,1 °C 1,6 km/h (1 Bft)
10.10.2017 21:53 8,1 °C 8,1 °C 87 % 1021,5 hPa 0,0 mm 0,0 km/h (0 Bft) S-SW 209 ° 0 min 0,000 mm 0,0 UV-I 0 W/m² 6,1 °C 8,1 °C 0,0 km/h (0 Bft)
10.10.2017 21:54 8,1 °C 8,1 °C 87 % 1021,5 hPa 0,0 mm 0,0 km/h (0 Bft) S-SW 209 ° 0 min 0,000 mm 0,0 UV-I 0 W/m² 6,1 °C 8,1 °C 0,0 km/h (0 Bft)
10.10.2017 21:55 8,1 °C 8,1 °C 88 % 1021,5 hPa 0,0 mm 0,0 km/h (0 Bft) S-SW 209 ° 0 min 0,000 mm 0,0 UV-I 0 W/m² 6,2 °C 8,1 °C 0,0 km/h (0 Bft)
10.10.2017 21:56 8,0 °C 8,1 °C 87 % 1021,4 hPa 0,0 mm 0,0 km/h (0 Bft) S-SW 209 ° 0 min 0,000 mm 0,0 UV-I 0 W/m² 6,0 °C 8,0 °C 0,0 km/h (0 Bft)
10.10.2017 21:57 7,9 °C 8,0 °C 88 % 1021,5 hPa 0,0 mm 0,0 km/h (0 Bft) S-SW 209 ° 0 min 0,000 mm 0,0 UV-I 0 W/m² 6,0 °C 7,9 °C 0,0 km/h (0 Bft)
10.10.2017 21:58 7,9 °C 7,9 °C 88 % 1021,5 hPa 0,0 mm 0,0 km/h (0 Bft) S-SW 209 ° 0 min 0,000 mm 0,0 UV-I 0 W/m² 6,0 °C 7,9 °C 0,0 km/h (0 Bft)
10.10.2017 21:59 7,8 °C 7,9 °C 88 % 1021,5 hPa 0,0 mm 0,0 km/h (0 Bft) S-SW 209 ° 0 min 0,000 mm 0,0 UV-I 0 W/m² 5,9 °C 7,8 °C 0,0 km/h (0 Bft)
10.10.2017 22:00 7,7 °C 7,8 °C 88 % 1021,5 hPa 0,0 mm 0,0 km/h (0 Bft) S-SW 209 ° 0 min 0,000 mm 0,0 UV-I 0 W/m² 5,8 °C 7,7 °C 0,0 km/h (0 Bft)
10.10.2017 22:01 7,7 °C 7,7 °C 88 % 1021,4 hPa 0,0 mm 0,3 km/h (0 Bft) S-SW 209 ° 0 min 0,000 mm 0,0 UV-I 0 W/m² 5,8 °C 7,7 °C 1,6 km/h (1 Bft)
10.10.2017 22:02 7,7 °C 7,7 °C 89 % 1021,5 hPa 0,0 mm 0,0 km/h (0 Bft) S-SW 209 ° 0 min 0,000 mm 0,0 UV-I 0 W/m² 6,0 °C 7,7 °C 0,0 km/h (0 Bft)
10.10.2017 22:03 7,6 °C 7,7 °C 89 % 1021,5 hPa 0,0 mm 0,0 km/h (0 Bft) S-SW 209 ° 0 min 0,000 mm 0,0 UV-I 0 W/m² 5,9 °C 7,6 °C 0,0 km/h (0 Bft)
10.10.2017 22:04 7,4 °C 7,6 °C 88 % 1021,5 hPa 0,0 mm 0,0 km/h (0 Bft) S-SW 209 ° 0 min 0,000 mm 0,0 UV-I 0 W/m² 5,5 °C 7,4 °C 0,0 km/h (0 Bft)
10.10.2017 22:05 7,4 °C 7,4 °C 88 % 1021,5 hPa 0,0 mm 0,0 km/h (0 Bft) S-SW 209 ° 0 min 0,000 mm 0,0 UV-I 0 W/m² 5,5 °C 7,4 °C 0,0 km/h (0 Bft)
10.10.2017 22:06 7,4 °C 7,4 °C 90 % 1021,6 hPa 0,0 mm 0,0 km/h (0 Bft) S-SW 209 ° 0 min 0,000 mm 0,0 UV-I 0 W/m² 5,9 °C 7,4 °C 0,0 km/h (0 Bft)
10.10.2017 22:07 7,4 °C 7,4 °C 90 % 1021,6 hPa 0,0 mm 0,0 km/h (0 Bft) S-SW 209 ° 0 min 0,000 mm 0,0 UV-I 0 W/m² 5,9 °C 7,4 °C 0,0 km/h (0 Bft)
10.10.2017 22:08 7,4 °C 7,4 °C 89 % 1021,6 hPa 0,0 mm 0,0 km/h (0 Bft) S-SW 209 ° 0 min 0,000 mm 0,0 UV-I 0 W/m² 5,7 °C 7,4 °C 0,0 km/h (0 Bft)
10.10.2017 22:09 7,3 °C 7,4 °C 90 % 1021,6 hPa 0,0 mm 0,0 km/h (0 Bft) S-SW 209 ° 0 min 0,000 mm 0,0 UV-I 0 W/m² 5,8 °C 7,3 °C 0,0 km/h (0 Bft)
10.10.2017 22:10 7,3 °C 7,3 °C 90 % 1021,6 hPa 0,0 mm 0,0 km/h (0 Bft) S-SW 209 ° 0 min 0,000 mm 0,0 UV-I 0 W/m² 5,8 °C 7,3 °C 0,0 km/h (0 Bft)
10.10.2017 22:11 7,2 °C 7,3 °C 89 % 1021,6 hPa 0,0 mm 0,0 km/h (0 Bft) S-SW 209 ° 0 min 0,000 mm 0,0 UV-I 0 W/m² 5,5 °C 7,2 °C 0,0 km/h (0 Bft)
10.10.2017 22:12 7,1 °C 7,2 °C 89 % 1021,6 hPa 0,0 mm 0,0 km/h (0 Bft) S-SW 209 ° 0 min 0,000 mm 0,0 UV-I 0 W/m² 5,4 °C 7,1 °C 0,0 km/h (0 Bft)
10.10.2017 22:13 6,9 °C 7,1 °C 90 % 1021,7 hPa 0,0 mm 0,0 km/h (0 Bft) S-SW 209 ° 0 min 0,000 mm 0,0 UV-I 0 W/m² 5,4 °C 6,9 °C 0,0 km/h (0 Bft)
10.10.2017 22:14 6,8 °C 6,9 °C 90 % 1021,7 hPa 0,0 mm 0,0 km/h (0 Bft) S-SW 209 ° 0 min 0,000 mm 0,0 UV-I 0 W/m² 5,3 °C 6,8 °C 0,0 km/h (0 Bft)
10.10.2017 22:15 6,8 °C 6,8 °C 90 % 1021,7 hPa 0,0 mm 0,0 km/h (0 Bft) S-SW 209 ° 0 min 0,000 mm 0,0 UV-I 0 W/m² 5,3 °C 6,8 °C 0,0 km/h (0 Bft)
10.10.2017 22:16 6,8 °C 6,8 °C 90 % 1021,7 hPa 0,0 mm 0,0 km/h (0 Bft) S-SW 209 ° 0 min 0,000 mm 0,0 UV-I 0 W/m² 5,3 °C 6,8 °C 0,0 km/h (0 Bft)
10.10.2017 22:17 6,7 °C 6,8 °C 91 % 1021,6 hPa 0,0 mm 0,0 km/h (0 Bft) S-SW 209 ° 0 min 0,000 mm 0,0 UV-I 0 W/m² 5,3 °C 6,7 °C 0,0 km/h (0 Bft)
10.10.2017 22:18 6,7 °C 6,8 °C 91 % 1021,7 hPa 0,0 mm 0,0 km/h (0 Bft) S-SW 209 ° 0 min 0,000 mm 0,0 UV-I 0 W/m² 5,3 °C 6,7 °C 0,0 km/h (0 Bft)
10.10.2017 22:19 6,7 °C 6,7 °C 91 % 1021,7 hPa 0,0 mm 0,0 km/h (0 Bft) S-SW 209 ° 0 min 0,000 mm 0,0 UV-I 0 W/m² 5,3 °C 6,7 °C 0,0 km/h (0 Bft)
10.10.2017 22:20 6,7 °C 6,7 °C 91 % 1021,7 hPa 0,0 mm 0,0 km/h (0 Bft) S-SW 209 ° 0 min 0,000 mm 0,0 UV-I 0 W/m² 5,3 °C 6,7 °C 0,0 km/h (0 Bft)
10.10.2017 22:21 6,7 °C 6,7 °C 91 % 1021,7 hPa 0,0 mm 0,0 km/h (0 Bft) S-SW 209 ° 0 min 0,000 mm 0,0 UV-I 0 W/m² 5,3 °C 6,7 °C 0,0 km/h (0 Bft)
10.10.2017 22:22 6,7 °C 6,7 °C 91 % 1021,7 hPa 0,0 mm 0,0 km/h (0 Bft) S-SW 209 ° 0 min 0,000 mm 0,0 UV-I 0 W/m² 5,3 °C 6,7 °C 0,0 km/h (0 Bft)
10.10.2017 22:23 6,7 °C 6,7 °C 91 % 1021,7 hPa 0,0 mm 0,0 km/h (0 Bft) S-SW 209 ° 0 min 0,000 mm 0,0 UV-I 0 W/m² 5,3 °C 6,7 °C 0,0 km/h (0 Bft)
10.10.2017 22:24 6,6 °C 6,7 °C 91 % 1021,7 hPa 0,0 mm 0,0 km/h (0 Bft) S-SW 209 ° 0 min 0,000 mm 0,0 UV-I 0 W/m² 5,2 °C 6,6 °C 0,0 km/h (0 Bft)
10.10.2017 22:25 6,6 °C 6,6 °C 91 % 1021,7 hPa 0,0 mm 0,0 km/h (0 Bft) S-SW 209 ° 0 min 0,000 mm 0,0 UV-I 0 W/m² 5,2 °C 6,6 °C 0,0 km/h (0 Bft)
10.10.2017 22:26 6,6 °C 6,6 °C 91 % 1021,7 hPa 0,0 mm 0,7 km/h (0 Bft) S-SW 209 ° 0 min 0,000 mm 0,0 UV-I 0 W/m² 5,2 °C 6,6 °C 1,6 km/h (1 Bft)
10.10.2017 22:27 6,5 °C 6,6 °C 91 % 1021,6 hPa 0,0 mm 2,3 km/h (1 Bft) S-SW 209 ° 0 min 0,000 mm 0,0 UV-I 0 W/m² 5,1 °C 6,5 °C 3,2 km/h (1 Bft)
10.10.2017 22:28 6,4 °C 6,5 °C 91 % 1021,7 hPa 0,0 mm 2,3 km/h (1 Bft) S-SW 209 ° 0 min 0,000 mm 0,0 UV-I 0 W/m² 5,0 °C 6,4 °C 3,2 km/h (1 Bft)
10.10.2017 22:29 6,5 °C 6,5 °C 91 % 1021,6 hPa 0,0 mm 0,9 km/h (0 Bft) S-SW 209 ° 0 min 0,000 mm 0,0 UV-I 0 W/m² 5,1 °C 6,5 °C 3,2 km/h (1 Bft)
10.10.2017 22:30 6,4 °C 6,5 °C 91 % 1021,6 hPa 0,0 mm 2,9 km/h (1 Bft) S-SW 209 ° 0 min 0,000 mm 0,0 UV-I 0 W/m² 5,0 °C 6,4 °C 4,8 km/h (1 Bft)
10.10.2017 22:31 6,5 °C 6,5 °C 91 % 1021,7 hPa 0,0 mm 2,8 km/h (1 Bft) S-SW 209 ° 0 min 0,000 mm 0,0 UV-I 0 W/m² 5,1 °C 6,5 °C 3,2 km/h (1 Bft)
10.10.2017 22:32 6,6 °C 6,6 °C 91 % 1021,6 hPa 0,0 mm 0,6 km/h (0 Bft) S-SW 209 ° 0 min 0,000 mm 0,0 UV-I 0 W/m² 5,2 °C 6,6 °C 1,6 km/h (1 Bft)
10.10.2017 22:33 6,6 °C 6,6 °C 91 % 1021,7 hPa 0,0 mm 0,4 km/h (0 Bft) S-SW 209 ° 0 min 0,000 mm 0,0 UV-I 0 W/m² 5,2 °C 6,6 °C 1,6 km/h (1 Bft)
10.10.2017 22:34 6,6 °C 6,6 °C 91 % 1021,7 hPa 0,0 mm 0,7 km/h (0 Bft) S-SW 209 ° 0 min 0,000 mm 0,0 UV-I 0 W/m² 5,2 °C 6,6 °C 1,6 km/h (1 Bft)
10.10.2017 22:35 6,6 °C 6,6 °C 91 % 1021,7 hPa 0,0 mm 1,0 km/h (0 Bft) S-SW 209 ° 0 min 0,000 mm 0,0 UV-I 0 W/m² 5,2 °C 6,6 °C 3,2 km/h (1 Bft)
10.10.2017 22:36 6,6 °C 6,6 °C 91 % 1021,7 hPa 0,0 mm 0,0 km/h (0 Bft) S-SW 209 ° 0 min 0,000 mm 0,0 UV-I 0 W/m² 5,2 °C 6,6 °C 0,0 km/h (0 Bft)
10.10.2017 22:37 6,6 °C 6,6 °C 91 % 1021,7 hPa 0,0 mm 0,0 km/h (0 Bft) S-SW 209 ° 0 min 0,000 mm 0,0 UV-I 0 W/m² 5,2 °C 6,6 °C 0,0 km/h (0 Bft)
10.10.2017 22:38 6,6 °C 6,6 °C 91 % 1021,7 hPa 0,0 mm 0,0 km/h (0 Bft) S-SW 209 ° 0 min 0,000 mm 0,0 UV-I 0 W/m² 5,2 °C 6,6 °C 0,0 km/h (0 Bft)
10.10.2017 22:39 6,4 °C 6,6 °C 91 % 1021,7 hPa 0,0 mm 0,0 km/h (0 Bft) S-SW 209 ° 0 min 0,000 mm 0,0 UV-I 0 W/m² 5,0 °C 6,4 °C 0,0 km/h (0 Bft)
10.10.2017 22:40 6,4 °C 6,5 °C 91 % 1021,7 hPa 0,0 mm 0,0 km/h (0 Bft) S-SW 209 ° 0 min 0,000 mm 0,0 UV-I 0 W/m² 5,0 °C 6,4 °C 0,0 km/h (0 Bft)
10.10.2017 22:41 6,4 °C 6,4 °C 91 % 1021,7 hPa 0,0 mm 0,0 km/h (0 Bft) S-SW 209 ° 0 min 0,000 mm 0,0 UV-I 0 W/m² 5,0 °C 6,4 °C 0,0 km/h (0 Bft)
10.10.2017 22:42 6,4 °C 6,4 °C 92 % 1021,7 hPa 0,0 mm 0,0 km/h (0 Bft) S-SW 209 ° 0 min 0,000 mm 0,0 UV-I 0 W/m² 5,2 °C 6,4 °C 0,0 km/h (0 Bft)
10.10.2017 22:43 6,5 °C 6,5 °C 92 % 1021,7 hPa 0,0 mm 0,0 km/h (0 Bft) S-SW 209 ° 0 min 0,000 mm 0,0 UV-I 0 W/m² 5,3 °C 6,5 °C 0,0 km/h (0 Bft)
10.10.2017 22:44 6,5 °C 6,5 °C 92 % 1021,7 hPa 0,0 mm 2,3 km/h (1 Bft) S-SW 209 ° 0 min 0,000 mm 0,0 UV-I 0 W/m² 5,3 °C 6,5 °C 3,2 km/h (1 Bft)
10.10.2017 22:45 6,5 °C 6,5 °C 91 % 1021,7 hPa 0,0 mm 1,9 km/h (1 Bft) S-SW 209 ° 0 min 0,000 mm 0,0 UV-I 0 W/m² 5,1 °C 6,5 °C 3,2 km/h (1 Bft)
10.10.2017 22:46 6,6 °C 6,6 °C 92 % 1021,7 hPa 0,0 mm 2,8 km/h (1 Bft) S-SW 209 ° 0 min 0,000 mm 0,0 UV-I 0 W/m² 5,4 °C 6,6 °C 3,2 km/h (1 Bft)
10.10.2017 22:47 6,6 °C 6,6 °C 92 % 1021,7 hPa 0,0 mm 2,3 km/h (1 Bft) S-SW 209 ° 0 min 0,000 mm 0,0 UV-I 0 W/m² 5,4 °C 6,6 °C 3,2 km/h (1 Bft)
10.10.2017 22:48 6,6 °C 6,7 °C 92 % 1021,7 hPa 0,0 mm 2,5 km/h (1 Bft) S-SW 209 ° 0 min 0,000 mm 0,0 UV-I 0 W/m² 5,4 °C 6,6 °C 3,2 km/h (1 Bft)
10.10.2017 22:49 6,7 °C 6,7 °C 92 % 1021,7 hPa 0,0 mm 2,3 km/h (1 Bft) S-SW 209 ° 0 min 0,000 mm 0,0 UV-I 0 W/m² 5,5 °C 6,7 °C 4,8 km/h (1 Bft)
10.10.2017 22:50 6,7 °C 6,7 °C 92 % 1021,8 hPa 0,0 mm 2,5 km/h (1 Bft) S-SW 209 ° 0 min 0,000 mm 0,0 UV-I 0 W/m² 5,5 °C 6,7 °C 4,8 km/h (1 Bft)
10.10.2017 22:51 6,7 °C 6,7 °C 92 % 1021,8 hPa 0,0 mm 1,3 km/h (1 Bft) S-SW 209 ° 0 min 0,000 mm 0,0 UV-I 0 W/m² 5,5 °C 6,7 °C 3,2 km/h (1 Bft)
10.10.2017 22:52 6,7 °C 6,8 °C 92 % 1021,7 hPa 0,0 mm 0,7 km/h (0 Bft) S-SW 209 ° 0 min 0,000 mm 0,0 UV-I 0 W/m² 5,5 °C 6,7 °C 1,6 km/h (1 Bft)
10.10.2017 22:53 6,8 °C 6,8 °C 91 % 1021,8 hPa 0,0 mm 0,0 km/h (0 Bft) S-SW 209 ° 0 min 0,000 mm 0,0 UV-I 0 W/m² 5,4 °C 6,8 °C 0,0 km/h (0 Bft)
10.10.2017 22:54 6,7 °C 6,8 °C 91 % 1021,8 hPa 0,0 mm 0,0 km/h (0 Bft) S-SW 209 ° 0 min 0,000 mm 0,0 UV-I 0 W/m² 5,3 °C 6,7 °C 0,0 km/h (0 Bft)
10.10.2017 22:55 6,7 °C 6,7 °C 91 % 1021,8 hPa 0,0 mm 0,0 km/h (0 Bft) S-SW 209 ° 0 min 0,000 mm 0,0 UV-I 0 W/m² 5,3 °C 6,7 °C 0,0 km/h (0 Bft)
10.10.2017 22:56 6,7 °C 6,7 °C 91 % 1021,8 hPa 0,0 mm 0,0 km/h (0 Bft) S-SW 209 ° 0 min 0,000 mm 0,0 UV-I 0 W/m² 5,3 °C 6,7 °C 0,0 km/h (0 Bft)
10.10.2017 22:57 6,8 °C 6,8 °C 91 % 1021,8 hPa 0,0 mm 0,0 km/h (0 Bft) S-SW 209 ° 0 min 0,000 mm 0,0 UV-I 0 W/m² 5,4 °C 6,8 °C 0,0 km/h (0 Bft)
10.10.2017 22:58 6,8 °C 6,8 °C 92 % 1021,8 hPa 0,0 mm 0,0 km/h (0 Bft) S-SW 209 ° 0 min 0,000 mm 0,0 UV-I 0 W/m² 5,6 °C 6,8 °C 0,0 km/h (0 Bft)
10.10.2017 22:59 6,9 °C 6,9 °C 92 % 1021,8 hPa 0,0 mm 0,0 km/h (0 Bft) S-SW 209 ° 0 min 0,000 mm 0,0 UV-I 0 W/m² 5,7 °C 6,9 °C 0,0 km/h (0 Bft)
10.10.2017 23:00 6,9 °C 6,9 °C 92 % 1021,8 hPa 0,0 mm 0,0 km/h (0 Bft) S-SW 209 ° 0 min 0,000 mm 0,0 UV-I 0 W/m² 5,7 °C 6,9 °C 0,0 km/h (0 Bft)
10.10.2017 23:01 7,0 °C 7,0 °C 91 % 1021,8 hPa 0,0 mm 0,0 km/h (0 Bft) S-SW 209 ° 0 min 0,000 mm 0,0 UV-I 0 W/m² 5,6 °C 7,0 °C 0,0 km/h (0 Bft)
10.10.2017 23:02 7,0 °C 7,0 °C 91 % 1021,7 hPa 0,0 mm 0,0 km/h (0 Bft) S 189 ° 0 min 0,000 mm 0,0 UV-I 0 W/m² 5,6 °C 7,0 °C 0,0 km/h (0 Bft)
10.10.2017 23:03 7,0 °C 7,0 °C 91 % 1021,8 hPa 0,0 mm 0,0 km/h (0 Bft) S 189 ° 0 min 0,000 mm 0,0 UV-I 0 W/m² 5,6 °C 7,0 °C 0,0 km/h (0 Bft)
10.10.2017 23:04 7,1 °C 7,1 °C 91 % 1021,8 hPa 0,0 mm 0,0 km/h (0 Bft) S 189 ° 0 min 0,000 mm 0,0 UV-I 0 W/m² 5,7 °C 7,1 °C 0,0 km/h (0 Bft)
10.10.2017 23:05 7,1 °C 7,1 °C 91 % 1021,8 hPa 0,0 mm 0,0 km/h (0 Bft) S 189 ° 0 min 0,000 mm 0,0 UV-I 0 W/m² 5,7 °C 7,1 °C 0,0 km/h (0 Bft)
10.10.2017 23:06 7,1 °C 7,1 °C 91 % 1021,8 hPa 0,0 mm 0,0 km/h (0 Bft) S 189 ° 0 min 0,000 mm 0,0 UV-I 0 W/m² 5,7 °C 7,1 °C 0,0 km/h (0 Bft)
10.10.2017 23:07 7,1 °C 7,1 °C 91 % 1021,8 hPa 0,0 mm 0,0 km/h (0 Bft) S 189 ° 0 min 0,000 mm 0,0 UV-I 0 W/m² 5,7 °C 7,1 °C 0,0 km/h (0 Bft)
10.10.2017 23:08 7,0 °C 7,1 °C 91 % 1021,8 hPa 0,0 mm 0,0 km/h (0 Bft) S 189 ° 0 min 0,000 mm 0,0 UV-I 0 W/m² 5,6 °C 7,0 °C 0,0 km/h (0 Bft)
10.10.2017 23:09 7,0 °C 7,0 °C 91 % 1021,8 hPa 0,0 mm 0,0 km/h (0 Bft) S 189 ° 0 min 0,000 mm 0,0 UV-I 0 W/m² 5,6 °C 7,0 °C 0,0 km/h (0 Bft)
10.10.2017 23:10 6,9 °C 7,0 °C 91 % 1021,8 hPa 0,0 mm 0,0 km/h (0 Bft) S 189 ° 0 min 0,000 mm 0,0 UV-I 0 W/m² 5,5 °C 6,9 °C 0,0 km/h (0 Bft)
10.10.2017 23:11 7,0 °C 7,1 °C 91 % 1021,9 hPa 0,0 mm 0,0 km/h (0 Bft) S 189 ° 0 min 0,000 mm 0,0 UV-I 0 W/m² 5,6 °C 7,0 °C 0,0 km/h (0 Bft)
10.10.2017 23:12 6,9 °C 7,0 °C 91 % 1021,9 hPa 0,0 mm 0,0 km/h (0 Bft) S 189 ° 0 min 0,000 mm 0,0 UV-I 0 W/m² 5,5 °C 6,9 °C 0,0 km/h (0 Bft)
10.10.2017 23:13 6,9 °C 6,9 °C 91 % 1021,8 hPa 0,0 mm 0,0 km/h (0 Bft) S 189 ° 0 min 0,000 mm 0,0 UV-I 0 W/m² 5,5 °C 6,9 °C 0,0 km/h (0 Bft)
10.10.2017 23:14 6,9 °C 6,9 °C 91 % 1021,8 hPa 0,0 mm 0,0 km/h (0 Bft) S 189 ° 0 min 0,000 mm 0,0 UV-I 0 W/m² 5,5 °C 6,9 °C 0,0 km/h (0 Bft)
10.10.2017 23:15 6,9 °C 6,9 °C 91 % 1021,8 hPa 0,0 mm 0,0 km/h (0 Bft) S 189 ° 0 min 0,000 mm 0,0 UV-I 0 W/m² 5,5 °C 6,9 °C 0,0 km/h (0 Bft)
10.10.2017 23:16 6,9 °C 6,9 °C 92 % 1021,9 hPa 0,0 mm 0,0 km/h (0 Bft) S 189 ° 0 min 0,000 mm 0,0 UV-I 0 W/m² 5,7 °C 6,9 °C 0,0 km/h (0 Bft)
10.10.2017 23:17 6,9 °C 6,9 °C 91 % 1021,9 hPa 0,0 mm 0,0 km/h (0 Bft) S 189 ° 0 min 0,000 mm 0,0 UV-I 0 W/m² 5,5 °C 6,9 °C 0,0 km/h (0 Bft)
10.10.2017 23:18 6,9 °C 6,9 °C 91 % 1021,8 hPa 0,0 mm 0,0 km/h (0 Bft) S 189 ° 0 min 0,000 mm 0,0 UV-I 0 W/m² 5,5 °C 6,9 °C 0,0 km/h (0 Bft)
10.10.2017 23:19 6,8 °C 6,9 °C 91 % 1021,8 hPa 0,0 mm 0,0 km/h (0 Bft) S 189 ° 0 min 0,000 mm 0,0 UV-I 0 W/m² 5,4 °C 6,8 °C 0,0 km/h (0 Bft)
10.10.2017 23:20 6,8 °C 6,9 °C 91 % 1021,8 hPa 0,0 mm 0,0 km/h (0 Bft) S 189 ° 0 min 0,000 mm 0,0 UV-I 0 W/m² 5,4 °C 6,8 °C 0,0 km/h (0 Bft)
10.10.2017 23:21 6,8 °C 6,8 °C 91 % 1021,9 hPa 0,0 mm 0,0 km/h (0 Bft) W-SW 249 ° 0 min 0,000 mm 0,0 UV-I 0 W/m² 5,4 °C 6,8 °C 0,0 km/h (0 Bft)
10.10.2017 23:22 6,8 °C 6,8 °C 92 % 1021,9 hPa 0,0 mm 0,0 km/h (0 Bft) W-SW 249 ° 0 min 0,000 mm 0,0 UV-I 0 W/m² 5,6 °C 6,8 °C 0,0 km/h (0 Bft)
10.10.2017 23:23 6,8 °C 6,8 °C 91 % 1021,9 hPa 0,0 mm 0,0 km/h (0 Bft) W-SW 249 ° 0 min 0,000 mm 0,0 UV-I 0 W/m² 5,4 °C 6,8 °C 0,0 km/h (0 Bft)
10.10.2017 23:24 6,7 °C 6,8 °C 91 % 1021,9 hPa 0,0 mm 0,0 km/h (0 Bft) W-SW 249 ° 0 min 0,000 mm 0,0 UV-I 0 W/m² 5,3 °C 6,7 °C 0,0 km/h (0 Bft)
10.10.2017 23:25 6,7 °C 6,7 °C 91 % 1021,9 hPa 0,0 mm 0,0 km/h (0 Bft) W-SW 251 ° 0 min 0,000 mm 0,0 UV-I 0 W/m² 5,3 °C 6,7 °C 0,0 km/h (0 Bft)
10.10.2017 23:26 6,7 °C 6,7 °C 91 % 1021,9 hPa 0,0 mm 0,0 km/h (0 Bft) W-SW 251 ° 0 min 0,000 mm 0,0 UV-I 0 W/m² 5,3 °C 6,7 °C 0,0 km/h (0 Bft)
10.10.2017 23:27 6,6 °C 6,7 °C 91 % 1022,0 hPa 0,0 mm 0,0 km/h (0 Bft) W-SW 252 ° 0 min 0,000 mm 0,0 UV-I 0 W/m² 5,2 °C 6,6 °C 0,0 km/h (0 Bft)
10.10.2017 23:28 6,6 °C 6,6 °C 91 % 1022,0 hPa 0,0 mm 0,0 km/h (0 Bft) W-SW 251 ° 0 min 0,000 mm 0,0 UV-I 0 W/m² 5,2 °C 6,6 °C 0,0 km/h (0 Bft)
10.10.2017 23:29 6,6 °C 6,6 °C 92 % 1022,0 hPa 0,0 mm 0,0 km/h (0 Bft) W-SW 251 ° 0 min 0,000 mm 0,0 UV-I 0 W/m² 5,4 °C 6,6 °C 0,0 km/h (0 Bft)
10.10.2017 23:30 6,6 °C 6,6 °C 92 % 1022,0 hPa 0,0 mm 0,0 km/h (0 Bft) W-SW 251 ° 0 min 0,000 mm 0,0 UV-I 0 W/m² 5,4 °C 6,6 °C 0,0 km/h (0 Bft)
10.10.2017 23:31 6,5 °C 6,6 °C 92 % 1022,0 hPa 0,0 mm 0,0 km/h (0 Bft) W-SW 251 ° 0 min 0,000 mm 0,0 UV-I 0 W/m² 5,3 °C 6,5 °C 0,0 km/h (0 Bft)
10.10.2017 23:32 6,5 °C 6,5 °C 92 % 1022,0 hPa 0,0 mm 0,0 km/h (0 Bft) W-SW 251 ° 0 min 0,000 mm 0,0 UV-I 0 W/m² 5,3 °C 6,5 °C 0,0 km/h (0 Bft)
10.10.2017 23:33 6,5 °C 6,6 °C 92 % 1022,0 hPa 0,0 mm 0,0 km/h (0 Bft) W-SW 251 ° 0 min 0,000 mm 0,0 UV-I 0 W/m² 5,3 °C 6,5 °C 0,0 km/h (0 Bft)
10.10.2017 23:34 6,4 °C 6,5 °C 92 % 1022,0 hPa 0,0 mm 0,0 km/h (0 Bft) W-SW 251 ° 0 min 0,000 mm 0,0 UV-I 0 W/m² 5,2 °C 6,4 °C 0,0 km/h (0 Bft)
10.10.2017 23:35 6,4 °C 6,4 °C 92 % 1022,0 hPa 0,0 mm 0,0 km/h (0 Bft) W-SW 251 ° 0 min 0,000 mm 0,0 UV-I 0 W/m² 5,2 °C 6,4 °C 0,0 km/h (0 Bft)
10.10.2017 23:36 6,3 °C 6,4 °C 92 % 1022,0 hPa 0,0 mm 0,0 km/h (0 Bft) W-SW 251 ° 0 min 0,000 mm 0,0 UV-I 0 W/m² 5,1 °C 6,3 °C 0,0 km/h (0 Bft)
10.10.2017 23:37 6,4 °C 6,4 °C 92 % 1022,0 hPa 0,0 mm 0,0 km/h (0 Bft) W-SW 251 ° 0 min 0,000 mm 0,0 UV-I 0 W/m² 5,2 °C 6,4 °C 0,0 km/h (0 Bft)
10.10.2017 23:38 6,4 °C 6,4 °C 92 % 1022,0 hPa 0,0 mm 0,0 km/h (0 Bft) W-SW 251 ° 0 min 0,000 mm 0,0 UV-I 0 W/m² 5,2 °C 6,4 °C 0,0 km/h (0 Bft)
10.10.2017 23:39 6,3 °C 6,4 °C 92 % 1022,1 hPa 0,0 mm 0,0 km/h (0 Bft) W-SW 251 ° 0 min 0,000 mm 0,0 UV-I 0 W/m² 5,1 °C 6,3 °C 0,0 km/h (0 Bft)
10.10.2017 23:40 6,2 °C 6,3 °C 92 % 1022,0 hPa 0,0 mm 0,0 km/h (0 Bft) W-SW 251 ° 0 min 0,000 mm 0,0 UV-I 0 W/m² 5,0 °C 6,2 °C 0,0 km/h (0 Bft)
10.10.2017 23:41 6,1 °C 6,2 °C 91 % 1022,0 hPa 0,0 mm 0,0 km/h (0 Bft) W-SW 251 ° 0 min 0,000 mm 0,0 UV-I 0 W/m² 4,7 °C 6,1 °C 0,0 km/h (0 Bft)
10.10.2017 23:42 6,1 °C 6,1 °C 92 % 1022,0 hPa 0,0 mm 0,0 km/h (0 Bft) W-SW 251 ° 0 min 0,000 mm 0,0 UV-I 0 W/m² 4,9 °C 6,1 °C 0,0 km/h (0 Bft)
10.10.2017 23:43 6,0 °C 6,1 °C 92 % 1022,1 hPa 0,0 mm 0,0 km/h (0 Bft) W-SW 251 ° 0 min 0,000 mm 0,0 UV-I 0 W/m² 4,8 °C 6,0 °C 0,0 km/h (0 Bft)
10.10.2017 23:44 6,0 °C 6,0 °C 92 % 1022,0 hPa 0,0 mm 0,0 km/h (0 Bft) W-SW 251 ° 0 min 0,000 mm 0,0 UV-I 0 W/m² 4,8 °C 6,0 °C 0,0 km/h (0 Bft)
10.10.2017 23:45 6,0 °C 6,0 °C 92 % 1022,0 hPa 0,0 mm 0,0 km/h (0 Bft) W-SW 251 ° 0 min 0,000 mm 0,0 UV-I 0 W/m² 4,8 °C 6,0 °C 0,0 km/h (0 Bft)
10.10.2017 23:46 6,1 °C 6,1 °C 92 % 1022,0 hPa 0,0 mm 0,0 km/h (0 Bft) W-SW 251 ° 0 min 0,000 mm 0,0 UV-I 0 W/m² 4,9 °C 6,1 °C 0,0 km/h (0 Bft)
10.10.2017 23:47 6,1 °C 6,1 °C 93 % 1022,0 hPa 0,0 mm 0,0 km/h (0 Bft) W-SW 251 ° 0 min 0,000 mm 0,0 UV-I 0 W/m² 5,1 °C 6,1 °C 0,0 km/h (0 Bft)
10.10.2017 23:48 6,1 °C 6,1 °C 93 % 1022,0 hPa 0,0 mm 0,0 km/h (0 Bft) W-SW 251 ° 0 min 0,000 mm 0,0 UV-I 0 W/m² 5,1 °C 6,1 °C 0,0 km/h (0 Bft)
10.10.2017 23:49 6,1 °C 6,1 °C 93 % 1022,0 hPa 0,0 mm 0,0 km/h (0 Bft) W-SW 251 ° 0 min 0,000 mm 0,0 UV-I 0 W/m² 5,1 °C 6,1 °C 0,0 km/h (0 Bft)
10.10.2017 23:50 6,2 °C 6,2 °C 93 % 1022,0 hPa 0,0 mm 0,0 km/h (0 Bft) W-SW 251 ° 0 min 0,000 mm 0,0 UV-I 0 W/m² 5,2 °C 6,2 °C 0,0 km/h (0 Bft)
10.10.2017 23:51 6,2 °C 6,2 °C 93 % 1021,9 hPa 0,0 mm 0,0 km/h (0 Bft) W-SW 251 ° 0 min 0,000 mm 0,0 UV-I 0 W/m² 5,2 °C 6,2 °C 0,0 km/h (0 Bft)
10.10.2017 23:52 6,2 °C 6,2 °C 92 % 1021,9 hPa 0,0 mm 0,0 km/h (0 Bft) W-SW 251 ° 0 min 0,000 mm 0,0 UV-I 0 W/m² 5,0 °C 6,2 °C 0,0 km/h (0 Bft)
10.10.2017 23:53 6,2 °C 6,2 °C 93 % 1021,9 hPa 0,0 mm 0,0 km/h (0 Bft) W-SW 251 ° 0 min 0,000 mm 0,0 UV-I 0 W/m² 5,2 °C 6,2 °C 0,0 km/h (0 Bft)
10.10.2017 23:54 6,2 °C 6,2 °C 92 % 1021,9 hPa 0,0 mm 0,0 km/h (0 Bft) W-SW 251 ° 0 min 0,000 mm 0,0 UV-I 0 W/m² 5,0 °C 6,2 °C 0,0 km/h (0 Bft)
10.10.2017 23:55 6,2 °C 6,2 °C 93 % 1021,9 hPa 0,0 mm 0,0 km/h (0 Bft) W-SW 251 ° 0 min 0,000 mm 0,0 UV-I 0 W/m² 5,2 °C 6,2 °C 0,0 km/h (0 Bft)
10.10.2017 23:56 6,2 °C 6,2 °C 93 % 1021,9 hPa 0,0 mm 0,0 km/h (0 Bft) W-SW 251 ° 0 min 0,000 mm 0,0 UV-I 0 W/m² 5,2 °C 6,2 °C 0,0 km/h (0 Bft)
10.10.2017 23:57 6,2 °C 6,3 °C 93 % 1021,9 hPa 0,0 mm 0,0 km/h (0 Bft) W-SW 251 ° 0 min 0,000 mm 0,0 UV-I 0 W/m² 5,2 °C 6,2 °C 0,0 km/h (0 Bft)
10.10.2017 23:58 6,3 °C 6,3 °C 93 % 1021,9 hPa 0,0 mm 0,0 km/h (0 Bft) W-SW 251 ° 0 min 0,000 mm 0,0 UV-I 0 W/m² 5,3 °C 6,3 °C 0,0 km/h (0 Bft)
10.10.2017 23:59 6,3 °C 6,3 °C 93 % 1021,9 hPa 0,0 mm 0,0 km/h (0 Bft) W-SW 251 ° 0 min 0,000 mm 0,0 UV-I 0 W/m² 5,3 °C 6,3 °C 0,0 km/h (0 Bft)
_ Min-Zeit 03:37 03:38 15:16 06:27 - 23:59 - - - - - - 03:27 03:38 23:59
Minimum _ 5,4 °C 5,5 °C 62 % 1018,7 hPa - 0,0 km/h (0 Bft) - - - - - - 4,7 °C 5,5 °C 0,0 km/h (0 Bft)
_ Max-Zeit 15:08 15:09 06:03 23:43 17:01 15:22 - - 15:21 15:00 14:11 14:52 17:14 15:08 14:58
Maximum _ 14,5 °C 14,5 °C 96 % 1022,1 hPa 0,2 mm 19,3 km/h
W (3 Bft)
- - 1 min 0,229 mm 3,5 UV-I 715 W/m² 8,5 °C 14,5 °C 27,4 km/h
W-SW (4 Bft)
Durchschnitt _ 8,8 °C 8,8 °C 86 % 1019,9 hPa #0,4 mm 2,7 km/h (1 Bft) S-SW - #1:01 h #1,143 mm 1,6 UV-I 77 W/m² 6,4 °C 8,8 °C 4,6 km/h (1 Bft)